<?xml version='1.0' encoding='UTF-8'?><gpx version="1.1" creator="JPX - https://github.com/jenetics/jpx" xmlns="http://www.topografix.com/GPX/1/1"><trk><trkseg><trkpt lat="45.947650307077716" lon="12.12275281366493"><ele>182.0</ele><time>2026-03-24T10:00:59Z</time></trkpt><trkpt lat="45.94760976294111" lon="12.122845931863559"><ele>182.0</ele><time>2026-03-24T10:01:00Z</time></trkpt><trkpt lat="45.94753647449415" lon="12.122938727779045"><ele>182.0</ele><time>2026-03-24T10:01:01Z</time></trkpt><trkpt lat="45.94743781787947" lon="12.12301426462026"><ele>182.0</ele><time>2026-03-24T10:01:02Z</time></trkpt><trkpt lat="45.947332087224765" lon="12.12307535584515"><ele>182.0</ele><time>2026-03-24T10:01:03Z</time></trkpt><trkpt lat="45.94722450560284" lon="12.123166392498911"><ele>182.0</ele><time>2026-03-24T10:01:04Z</time></trkpt><trkpt lat="45.94711974247125" lon="12.123261679835577"><ele>182.0</ele><time>2026-03-24T10:01:05Z</time></trkpt><trkpt lat="45.947013430012646" lon="12.123341838057616"><ele>182.0</ele><time>2026-03-24T10:01:06Z</time></trkpt><trkpt lat="45.94681553888287" lon="12.123490595952847"><ele>182.0</ele><time>2026-03-24T10:01:08Z</time></trkpt><trkpt lat="45.94672492111369" lon="12.123557628628372"><ele>182.0</ele><time>2026-03-24T10:01:09Z</time></trkpt><trkpt lat="45.94663406930586" lon="12.123630562523243"><ele>182.0</ele><time>2026-03-24T10:01:10Z</time></trkpt><trkpt lat="45.9465475028715" lon="12.12370811060044"><ele>182.0</ele><time>2026-03-24T10:01:11Z</time></trkpt><trkpt lat="45.94645800538379" lon="12.123786752216647"><ele>182.0</ele><time>2026-03-24T10:01:12Z</time></trkpt><trkpt lat="45.94636522361616" lon="12.123863513058227"><ele>181.75</ele><time>2026-03-24T10:01:13Z</time></trkpt><trkpt lat="45.946274298311316" lon="12.123950660778835"><ele>181.5</ele><time>2026-03-24T10:01:14Z</time></trkpt><trkpt lat="45.94616832501767" lon="12.124046168945705"><ele>181.25</ele><time>2026-03-24T10:01:15Z</time></trkpt><trkpt lat="45.94605399877854" lon="12.12414762554273"><ele>181.0</ele><time>2026-03-24T10:01:16Z</time></trkpt><trkpt lat="45.94594471325453" lon="12.124266424067612"><ele>180.75</ele><time>2026-03-24T10:01:17Z</time></trkpt><trkpt lat="45.9458332818766" lon="12.124399270192697"><ele>180.5</ele><time>2026-03-24T10:01:18Z</time></trkpt><trkpt lat="45.94572123761867" lon="12.124533442593348"><ele>180.25</ele><time>2026-03-24T10:01:19Z</time></trkpt><trkpt lat="45.94560980266584" lon="12.124669873191706"><ele>180.0</ele><time>2026-03-24T10:01:20Z</time></trkpt><trkpt lat="45.9454996982847" lon="12.124798419196381"><ele>181.25</ele><time>2026-03-24T10:01:21Z</time></trkpt><trkpt lat="45.94538381044647" lon="12.12493496576201"><ele>182.5</ele><time>2026-03-24T10:01:22Z</time></trkpt><trkpt lat="45.945270876898846" lon="12.125076523431694"><ele>183.75</ele><time>2026-03-24T10:01:23Z</time></trkpt><trkpt lat="45.94516328861141" lon="12.12521277027648"><ele>185.0</ele><time>2026-03-24T10:01:24Z</time></trkpt><trkpt lat="45.945049081685255" lon="12.125358539728234"><ele>182.33333333333331</ele><time>2026-03-24T10:01:25Z</time></trkpt><trkpt lat="45.94492932471234" lon="12.125510949744685"><ele>179.66666666666666</ele><time>2026-03-24T10:01:26Z</time></trkpt><trkpt lat="45.944805293046066" lon="12.125666223902757"><ele>177.0</ele><time>2026-03-24T10:01:27Z</time></trkpt><trkpt lat="45.944674692015035" lon="12.125831405735186"><ele>176.66666666666666</ele><time>2026-03-24T10:01:28Z</time></trkpt><trkpt lat="45.944542772836904" lon="12.126004086279236"><ele>176.33333333333331</ele><time>2026-03-24T10:01:29Z</time></trkpt><trkpt lat="45.944407161513105" lon="12.126174869192035"><ele>176.0</ele><time>2026-03-24T10:01:30Z</time></trkpt><trkpt lat="45.94426726065421" lon="12.12634682431011"><ele>175.66666666666666</ele><time>2026-03-24T10:01:31Z</time></trkpt><trkpt lat="45.944133398557355" lon="12.12652297025609"><ele>175.33333333333334</ele><time>2026-03-24T10:01:32Z</time></trkpt><trkpt lat="45.9439910198531" lon="12.126705051771152"><ele>175.0</ele><time>2026-03-24T10:01:33Z</time></trkpt><trkpt lat="45.94384799906146" lon="12.126884629133983"><ele>174.66666666666669</ele><time>2026-03-24T10:01:34Z</time></trkpt><trkpt lat="45.94370901216802" lon="12.127062547532354"><ele>174.33333333333334</ele><time>2026-03-24T10:01:35Z</time></trkpt><trkpt lat="45.94357413820866" lon="12.12723480265213"><ele>174.0</ele><time>2026-03-24T10:01:36Z</time></trkpt><trkpt lat="45.94344053669477" lon="12.127397971172869"><ele>174.25</ele><time>2026-03-24T10:01:37Z</time></trkpt><trkpt lat="45.943320460831096" lon="12.127550467208417"><ele>174.5</ele><time>2026-03-24T10:01:38Z</time></trkpt><trkpt lat="45.94320961095341" lon="12.127690957956519"><ele>174.75</ele><time>2026-03-24T10:01:39Z</time></trkpt><trkpt lat="45.94310642304607" lon="12.127827952574442"><ele>175.0</ele><time>2026-03-24T10:01:40Z</time></trkpt><trkpt lat="45.94300969358495" lon="12.127947476065996"><ele>175.0</ele><time>2026-03-24T10:01:41Z</time></trkpt><trkpt lat="45.942918162012965" lon="12.128069030751913"><ele>175.0</ele><time>2026-03-24T10:01:42Z</time></trkpt><trkpt lat="45.94283601565402" lon="12.128180806791217"><ele>175.0</ele><time>2026-03-24T10:01:43Z</time></trkpt><trkpt lat="45.94275179127518" lon="12.128292593542152"><ele>175.0</ele><time>2026-03-24T10:01:44Z</time></trkpt><trkpt lat="45.94265827509572" lon="12.128391608087185"><ele>175.4</ele><time>2026-03-24T10:01:45Z</time></trkpt><trkpt lat="45.942569864406565" lon="12.128505235963823"><ele>175.8</ele><time>2026-03-24T10:01:46Z</time></trkpt><trkpt lat="45.942480218124736" lon="12.128617138896931"><ele>176.2</ele><time>2026-03-24T10:01:47Z</time></trkpt><trkpt lat="45.9423998261641" lon="12.128723889206793"><ele>176.6</ele><time>2026-03-24T10:01:48Z</time></trkpt><trkpt lat="45.9423248633545" lon="12.128821365279713"><ele>177.0</ele><time>2026-03-24T10:01:49Z</time></trkpt><trkpt lat="45.942253953345215" lon="12.128920834517817"><ele>177.0</ele><time>2026-03-24T10:01:50Z</time></trkpt><trkpt lat="45.94218625788193" lon="12.129016625749097"><ele>177.0</ele><time>2026-03-24T10:01:51Z</time></trkpt><trkpt lat="45.94212073980776" lon="12.129106131868458"><ele>177.0</ele><time>2026-03-24T10:01:52Z</time></trkpt><trkpt lat="45.94205682252801" lon="12.129189543121187"><ele>177.0</ele><time>2026-03-24T10:01:53Z</time></trkpt><trkpt lat="45.94199335655605" lon="12.129278558777177"><ele>177.0</ele><time>2026-03-24T10:01:54Z</time></trkpt><trkpt lat="45.94193994372785" lon="12.129354044861602"><ele>177.0</ele><time>2026-03-24T10:01:55Z</time></trkpt><trkpt lat="45.94189632585468" lon="12.129420914860958"><ele>177.0</ele><time>2026-03-24T10:01:57Z</time></trkpt><trkpt lat="45.942036547202974" lon="12.129347263857229"><ele>177.0</ele><time>2026-03-24T10:02:00Z</time></trkpt><trkpt lat="45.942085981795536" lon="12.129262052633926"><ele>177.0</ele><time>2026-03-24T10:02:01Z</time></trkpt><trkpt lat="45.94214633594113" lon="12.129173574851201"><ele>177.0</ele><time>2026-03-24T10:02:02Z</time></trkpt><trkpt lat="45.94222014025926" lon="12.129064009660604"><ele>177.0</ele><time>2026-03-24T10:02:03Z</time></trkpt><trkpt lat="45.942295123228746" lon="12.128956947485806"><ele>177.0</ele><time>2026-03-24T10:02:04Z</time></trkpt><trkpt lat="45.94238111730457" lon="12.12884160084401"><ele>177.0</ele><time>2026-03-24T10:02:05Z</time></trkpt><trkpt lat="45.942477695923316" lon="12.128720749416418"><ele>177.0</ele><time>2026-03-24T10:02:06Z</time></trkpt><trkpt lat="45.942571122442104" lon="12.128595918477634"><ele>177.0</ele><time>2026-03-24T10:02:07Z</time></trkpt><trkpt lat="45.94266870088832" lon="12.128464090223245"><ele>177.0</ele><time>2026-03-24T10:02:08Z</time></trkpt><trkpt lat="45.94276511700163" lon="12.128341074402451"><ele>177.0</ele><time>2026-03-24T10:02:09Z</time></trkpt><trkpt lat="45.942867329035494" lon="12.128214248614457"><ele>177.0</ele><time>2026-03-24T10:02:10Z</time></trkpt><trkpt lat="45.942966801933544" lon="12.12808461284775"><ele>177.0</ele><time>2026-03-24T10:02:11Z</time></trkpt><trkpt lat="45.943068398751784" lon="12.127959396441806"><ele>176.5</ele><time>2026-03-24T10:02:12Z</time></trkpt><trkpt lat="45.943170233616776" lon="12.127829836857938"><ele>176.0</ele><time>2026-03-24T10:02:13Z</time></trkpt><trkpt lat="45.94326811855689" lon="12.127697316605708"><ele>175.5</ele><time>2026-03-24T10:02:14Z</time></trkpt><trkpt lat="45.94336858832493" lon="12.127568399609562"><ele>175.0</ele><time>2026-03-24T10:02:15Z</time></trkpt><trkpt lat="45.94347151728482" lon="12.12744063898285"><ele>174.66666666666669</ele><time>2026-03-24T10:02:16Z</time></trkpt><trkpt lat="45.94357388906167" lon="12.127303011172605"><ele>174.33333333333334</ele><time>2026-03-24T10:02:17Z</time></trkpt><trkpt lat="45.943691372664915" lon="12.127151204886601"><ele>174.0</ele><time>2026-03-24T10:02:18Z</time></trkpt><trkpt lat="45.94381863314846" lon="12.126995198042067"><ele>174.0</ele><time>2026-03-24T10:02:19Z</time></trkpt><trkpt lat="45.943944691167346" lon="12.126837555680217"><ele>174.0</ele><time>2026-03-24T10:02:20Z</time></trkpt><trkpt lat="45.944080208903294" lon="12.126659562402232"><ele>174.0</ele><time>2026-03-24T10:02:21Z</time></trkpt><trkpt lat="45.94421681828443" lon="12.126482349757387"><ele>174.66666666666666</ele><time>2026-03-24T10:02:22Z</time></trkpt><trkpt lat="45.94436459838076" lon="12.126291138466456"><ele>175.33333333333331</ele><time>2026-03-24T10:02:23Z</time></trkpt><trkpt lat="45.944514310208575" lon="12.126099226764811"><ele>176.0</ele><time>2026-03-24T10:02:24Z</time></trkpt><trkpt lat="45.94464671246523" lon="12.125928862667877"><ele>176.0</ele><time>2026-03-24T10:02:25Z</time></trkpt><trkpt lat="45.9447626913328" lon="12.125780377411019"><ele>176.0</ele><time>2026-03-24T10:02:26Z</time></trkpt><trkpt lat="45.94487173092434" lon="12.125642463319354"><ele>176.0</ele><time>2026-03-24T10:02:27Z</time></trkpt><trkpt lat="45.94497548535308" lon="12.125514440503842"><ele>176.0</ele><time>2026-03-24T10:02:28Z</time></trkpt><trkpt lat="45.9450735009035" lon="12.125390052574867"><ele>177.0</ele><time>2026-03-24T10:02:29Z</time></trkpt><trkpt lat="45.94517456422777" lon="12.125270402048441"><ele>178.0</ele><time>2026-03-24T10:02:30Z</time></trkpt><trkpt lat="45.94527816159497" lon="12.125145123916855"><ele>179.0</ele><time>2026-03-24T10:02:31Z</time></trkpt><trkpt lat="45.9453782149922" lon="12.12502183291865"><ele>180.0</ele><time>2026-03-24T10:02:32Z</time></trkpt><trkpt lat="45.945475805178134" lon="12.124894497259152"><ele>180.0</ele><time>2026-03-24T10:02:33Z</time></trkpt><trkpt lat="45.94557302856036" lon="12.12476751663594"><ele>180.0</ele><time>2026-03-24T10:02:34Z</time></trkpt><trkpt lat="45.94566984990194" lon="12.124643587126547"><ele>180.0</ele><time>2026-03-24T10:02:35Z</time></trkpt><trkpt lat="45.94576047773334" lon="12.124522480814221"><ele>180.0</ele><time>2026-03-24T10:02:36Z</time></trkpt><trkpt lat="45.94585094569582" lon="12.124417629829326"><ele>180.25</ele><time>2026-03-24T10:02:37Z</time></trkpt><trkpt lat="45.94593342546223" lon="12.124322323195285"><ele>180.5</ele><time>2026-03-24T10:02:38Z</time></trkpt><trkpt lat="45.94602106153739" lon="12.124230959137396"><ele>180.75</ele><time>2026-03-24T10:02:39Z</time></trkpt><trkpt lat="45.94620503175281" lon="12.124037323265632"><ele>181.0</ele><time>2026-03-24T10:02:41Z</time></trkpt><trkpt lat="45.94630855792259" lon="12.123945261662639"><ele>181.0</ele><time>2026-03-24T10:02:42Z</time></trkpt><trkpt lat="45.94642145948918" lon="12.123855314452392"><ele>181.0</ele><time>2026-03-24T10:02:43Z</time></trkpt><trkpt lat="45.94653687728506" lon="12.12376476283604"><ele>181.0</ele><time>2026-03-24T10:02:44Z</time></trkpt><trkpt lat="45.94665516134412" lon="12.123668199807968"><ele>181.0</ele><time>2026-03-24T10:02:45Z</time></trkpt><trkpt lat="45.94677446767603" lon="12.123573416908796"><ele>181.25</ele><time>2026-03-24T10:02:46Z</time></trkpt><trkpt lat="45.94689176856598" lon="12.123478196215656"><ele>181.5</ele><time>2026-03-24T10:02:47Z</time></trkpt><trkpt lat="45.9469994512655" lon="12.123388792032316"><ele>181.75</ele><time>2026-03-24T10:02:48Z</time></trkpt><trkpt lat="45.94710259132155" lon="12.123314104505772"><ele>182.0</ele><time>2026-03-24T10:02:49Z</time></trkpt><trkpt lat="45.94719668473256" lon="12.123231469500388"><ele>182.0</ele><time>2026-03-24T10:02:50Z</time></trkpt><trkpt lat="45.947298000721844" lon="12.123153693048826"><ele>182.0</ele><time>2026-03-24T10:02:51Z</time></trkpt><trkpt lat="45.947394227888964" lon="12.12307836460332"><ele>182.0</ele><time>2026-03-24T10:02:52Z</time></trkpt><trkpt lat="45.94748867394044" lon="12.12301651906876"><ele>182.0</ele><time>2026-03-24T10:02:53Z</time></trkpt><trkpt lat="45.94758079646566" lon="12.122959357155764"><ele>182.0</ele><time>2026-03-24T10:02:54Z</time></trkpt><trkpt lat="45.94767806405285" lon="12.122920102151939"><ele>182.0</ele><time>2026-03-24T10:02:55Z</time></trkpt><trkpt lat="45.94776542350433" lon="12.12290013344188"><ele>182.0</ele><time>2026-03-24T10:02:56Z</time></trkpt><trkpt lat="45.94785627315012" lon="12.122897218628763"><ele>182.0</ele><time>2026-03-24T10:02:57Z</time></trkpt><trkpt lat="45.947932955545824" lon="12.122915607248586"><ele>182.0</ele><time>2026-03-24T10:02:58Z</time></trkpt><trkpt lat="45.94800292356286" lon="12.122951171717153"><ele>182.0</ele><time>2026-03-24T10:02:59Z</time></trkpt><trkpt lat="45.94807187753154" lon="12.122956301741198"><ele>182.0</ele><time>2026-03-24T10:03:00Z</time></trkpt><trkpt lat="45.9481645568089" lon="12.122989968085182"><ele>182.0</ele><time>2026-03-24T10:03:02Z</time></trkpt><trkpt lat="45.94822763721329" lon="12.122976071622983"><ele>182.0</ele><time>2026-03-24T10:03:04Z</time></trkpt><trkpt lat="45.94830891930735" lon="12.122884861773011"><ele>182.0</ele><time>2026-03-24T10:03:39Z</time></trkpt><trkpt lat="45.948412083367934" lon="12.122888730625249"><ele>182.0</ele><time>2026-03-24T10:03:40Z</time></trkpt><trkpt lat="45.948511334218956" lon="12.12285966365231"><ele>182.0</ele><time>2026-03-24T10:03:41Z</time></trkpt><trkpt lat="45.948618705083454" lon="12.122832865506894"><ele>182.5</ele><time>2026-03-24T10:03:42Z</time></trkpt><trkpt lat="45.94873641714331" lon="12.12281971908232"><ele>183.0</ele><time>2026-03-24T10:03:43Z</time></trkpt><trkpt lat="45.94885942022737" lon="12.122818358679515"><ele>183.5</ele><time>2026-03-24T10:03:44Z</time></trkpt><trkpt lat="45.94898419030454" lon="12.12282415473813"><ele>184.0</ele><time>2026-03-24T10:03:45Z</time></trkpt><trkpt lat="45.94911230836424" lon="12.122842635583279"><ele>184.75</ele><time>2026-03-24T10:03:46Z</time></trkpt><trkpt lat="45.94924352554945" lon="12.122862077460754"><ele>185.5</ele><time>2026-03-24T10:03:47Z</time></trkpt><trkpt lat="45.94938039532485" lon="12.122883404964963"><ele>186.25</ele><time>2026-03-24T10:03:48Z</time></trkpt><trkpt lat="45.949524774026884" lon="12.122909110374255"><ele>187.0</ele><time>2026-03-24T10:03:49Z</time></trkpt><trkpt lat="45.949671159185904" lon="12.122930818376302"><ele>187.0</ele><time>2026-03-24T10:03:50Z</time></trkpt><trkpt lat="45.94981717140458" lon="12.122953304350782"><ele>187.0</ele><time>2026-03-24T10:03:51Z</time></trkpt><trkpt lat="45.94996777437008" lon="12.122975598365615"><ele>187.0</ele><time>2026-03-24T10:03:52Z</time></trkpt><trkpt lat="45.950117807621325" lon="12.122997046654175"><ele>187.0</ele><time>2026-03-24T10:03:53Z</time></trkpt><trkpt lat="45.95027565338364" lon="12.123022362813902"><ele>187.33333333333334</ele><time>2026-03-24T10:03:54Z</time></trkpt><trkpt lat="45.95043272325041" lon="12.123044756326655"><ele>187.66666666666666</ele><time>2026-03-24T10:03:55Z</time></trkpt><trkpt lat="45.950589246596714" lon="12.123069122188848"><ele>188.0</ele><time>2026-03-24T10:03:56Z</time></trkpt><trkpt lat="45.95074747532037" lon="12.12309246544793"><ele>188.66666666666666</ele><time>2026-03-24T10:03:57Z</time></trkpt><trkpt lat="45.95090785745537" lon="12.123117549936126"><ele>189.33333333333334</ele><time>2026-03-24T10:03:58Z</time></trkpt><trkpt lat="45.95106879461094" lon="12.123142988408354"><ele>190.0</ele><time>2026-03-24T10:03:59Z</time></trkpt><trkpt lat="45.95123075876551" lon="12.12316595202446"><ele>190.0</ele><time>2026-03-24T10:04:00Z</time></trkpt><trkpt lat="45.95139296406586" lon="12.12318875061166"><ele>190.0</ele><time>2026-03-24T10:04:01Z</time></trkpt><trkpt lat="45.951556847049794" lon="12.12321279420526"><ele>190.0</ele><time>2026-03-24T10:04:02Z</time></trkpt><trkpt lat="45.95172448993809" lon="12.123236135287527"><ele>190.66666666666669</ele><time>2026-03-24T10:04:03Z</time></trkpt><trkpt lat="45.951883549681334" lon="12.12325934529135"><ele>191.33333333333334</ele><time>2026-03-24T10:04:04Z</time></trkpt><trkpt lat="45.95204516773524" lon="12.123281708989815"><ele>192.0</ele><time>2026-03-24T10:04:05Z</time></trkpt><trkpt lat="45.952203196159616" lon="12.12330788135771"><ele>192.0</ele><time>2026-03-24T10:04:06Z</time></trkpt><trkpt lat="45.952358470854605" lon="12.123331903871247"><ele>192.0</ele><time>2026-03-24T10:04:07Z</time></trkpt><trkpt lat="45.95251478519326" lon="12.123351106340325"><ele>192.0</ele><time>2026-03-24T10:04:08Z</time></trkpt><trkpt lat="45.95266847717809" lon="12.123370774483048"><ele>193.0</ele><time>2026-03-24T10:04:09Z</time></trkpt><trkpt lat="45.95282180210023" lon="12.12339346414542"><ele>194.0</ele><time>2026-03-24T10:04:10Z</time></trkpt><trkpt lat="45.952977633514514" lon="12.123413348573845"><ele>195.0</ele><time>2026-03-24T10:04:11Z</time></trkpt><trkpt lat="45.95313659688368" lon="12.123420853980997"><ele>195.0</ele><time>2026-03-24T10:04:12Z</time></trkpt><trkpt lat="45.953296453128786" lon="12.123422519941055"><ele>195.0</ele><time>2026-03-24T10:04:13Z</time></trkpt><trkpt lat="45.95345774220035" lon="12.123418547032443"><ele>195.0</ele><time>2026-03-24T10:04:14Z</time></trkpt><trkpt lat="45.95362531460646" lon="12.123407250814877"><ele>194.66666666666669</ele><time>2026-03-24T10:04:15Z</time></trkpt><trkpt lat="45.95379649551835" lon="12.123395984860023"><ele>194.33333333333334</ele><time>2026-03-24T10:04:16Z</time></trkpt><trkpt lat="45.95396866273159" lon="12.123385194228609"><ele>194.0</ele><time>2026-03-24T10:04:17Z</time></trkpt><trkpt lat="45.95414098529707" lon="12.123373732543042"><ele>195.0</ele><time>2026-03-24T10:04:18Z</time></trkpt><trkpt lat="45.954320604740225" lon="12.123361676428043"><ele>196.0</ele><time>2026-03-24T10:04:19Z</time></trkpt><trkpt lat="45.95449755942455" lon="12.123346456212158"><ele>197.0</ele><time>2026-03-24T10:04:20Z</time></trkpt><trkpt lat="45.95467668863897" lon="12.123327628043853"><ele>197.0</ele><time>2026-03-24T10:04:21Z</time></trkpt><trkpt lat="45.95485666554808" lon="12.12331261375644"><ele>197.0</ele><time>2026-03-24T10:04:22Z</time></trkpt><trkpt lat="45.95503110523563" lon="12.123297937547882"><ele>197.0</ele><time>2026-03-24T10:04:23Z</time></trkpt><trkpt lat="45.9552097587646" lon="12.12328122883973"><ele>198.33333333333334</ele><time>2026-03-24T10:04:24Z</time></trkpt><trkpt lat="45.95538778547992" lon="12.12326728266286"><ele>199.66666666666669</ele><time>2026-03-24T10:04:25Z</time></trkpt><trkpt lat="45.955564630279135" lon="12.12324925251759"><ele>201.0</ele><time>2026-03-24T10:04:26Z</time></trkpt><trkpt lat="45.95574174608059" lon="12.12323243375888"><ele>201.66666666666669</ele><time>2026-03-24T10:04:27Z</time></trkpt><trkpt lat="45.95592119270789" lon="12.123218280773028"><ele>202.33333333333334</ele><time>2026-03-24T10:04:28Z</time></trkpt><trkpt lat="45.9560977199497" lon="12.12320179424135"><ele>203.0</ele><time>2026-03-24T10:04:29Z</time></trkpt><trkpt lat="45.95627439406473" lon="12.123189026155698"><ele>203.0</ele><time>2026-03-24T10:04:30Z</time></trkpt><trkpt lat="45.95644997939051" lon="12.123173580955024"><ele>203.0</ele><time>2026-03-24T10:04:31Z</time></trkpt><trkpt lat="45.956628509229795" lon="12.123158783309316"><ele>203.0</ele><time>2026-03-24T10:04:32Z</time></trkpt><trkpt lat="45.956799704022984" lon="12.12314393652829"><ele>203.0</ele><time>2026-03-24T10:04:33Z</time></trkpt><trkpt lat="45.956970677395915" lon="12.123131205402101"><ele>203.0</ele><time>2026-03-24T10:04:34Z</time></trkpt><trkpt lat="45.957143694914386" lon="12.12312739057952"><ele>203.0</ele><time>2026-03-24T10:04:35Z</time></trkpt><trkpt lat="45.957308181165835" lon="12.123136875960007"><ele>203.0</ele><time>2026-03-24T10:04:36Z</time></trkpt><trkpt lat="45.95747762643105" lon="12.123169933328194"><ele>203.0</ele><time>2026-03-24T10:04:37Z</time></trkpt><trkpt lat="45.95764047926122" lon="12.123218011801569"><ele>203.0</ele><time>2026-03-24T10:04:38Z</time></trkpt><trkpt lat="45.95780028669121" lon="12.123284581671244"><ele>204.33333333333334</ele><time>2026-03-24T10:04:39Z</time></trkpt><trkpt lat="45.9579564210968" lon="12.12336944973797"><ele>205.66666666666669</ele><time>2026-03-24T10:04:40Z</time></trkpt><trkpt lat="45.958106497780705" lon="12.123467893664634"><ele>207.0</ele><time>2026-03-24T10:04:41Z</time></trkpt><trkpt lat="45.95824755471652" lon="12.123576529982492"><ele>207.33333333333331</ele><time>2026-03-24T10:04:42Z</time></trkpt><trkpt lat="45.95838239827665" lon="12.123704278450345"><ele>207.66666666666666</ele><time>2026-03-24T10:04:43Z</time></trkpt><trkpt lat="45.9585155230939" lon="12.123847200898366"><ele>208.0</ele><time>2026-03-24T10:04:44Z</time></trkpt><trkpt lat="45.958645510465956" lon="12.123991262546687"><ele>209.33333333333331</ele><time>2026-03-24T10:04:45Z</time></trkpt><trkpt lat="45.95876991818931" lon="12.124148376400443"><ele>210.66666666666669</ele><time>2026-03-24T10:04:46Z</time></trkpt><trkpt lat="45.95888477225358" lon="12.1243130276313"><ele>212.0</ele><time>2026-03-24T10:04:47Z</time></trkpt><trkpt lat="45.95899808467347" lon="12.124484616139936"><ele>212.0</ele><time>2026-03-24T10:04:48Z</time></trkpt><trkpt lat="45.959107039718745" lon="12.124655302923435"><ele>212.0</ele><time>2026-03-24T10:04:49Z</time></trkpt><trkpt lat="45.95920421458868" lon="12.124840540219667"><ele>212.0</ele><time>2026-03-24T10:04:50Z</time></trkpt><trkpt lat="45.95928302197027" lon="12.125026460495432"><ele>212.5</ele><time>2026-03-24T10:04:51Z</time></trkpt><trkpt lat="45.95935397611186" lon="12.125204557008377"><ele>213.0</ele><time>2026-03-24T10:04:52Z</time></trkpt><trkpt lat="45.959418541944004" lon="12.12536650201977"><ele>213.5</ele><time>2026-03-24T10:04:53Z</time></trkpt><trkpt lat="45.95947674037126" lon="12.125514079861231"><ele>214.0</ele><time>2026-03-24T10:04:54Z</time></trkpt><trkpt lat="45.95953035585424" lon="12.125652373998612"><ele>214.2</ele><time>2026-03-24T10:04:55Z</time></trkpt><trkpt lat="45.95957403096282" lon="12.125785105973495"><ele>214.39999999999998</ele><time>2026-03-24T10:04:56Z</time></trkpt><trkpt lat="45.959614900778284" lon="12.125902980664423"><ele>214.6</ele><time>2026-03-24T10:04:57Z</time></trkpt><trkpt lat="45.95964334120432" lon="12.126029435484153"><ele>214.8</ele><time>2026-03-24T10:04:58Z</time></trkpt><trkpt lat="45.95979415711986" lon="12.126012287577792"><ele>215.0</ele><time>2026-03-24T10:04:59Z</time></trkpt><trkpt lat="45.95991259867573" lon="12.126048860213482"><ele>215.0</ele><time>2026-03-24T10:05:00Z</time></trkpt><trkpt lat="45.96003690350093" lon="12.126064903664124"><ele>215.0</ele><time>2026-03-24T10:05:01Z</time></trkpt><trkpt lat="45.96018689086303" lon="12.126120260141473"><ele>215.0</ele><time>2026-03-24T10:05:02Z</time></trkpt><trkpt lat="45.960305257442094" lon="12.126139226442273"><ele>215.0</ele><time>2026-03-24T10:05:03Z</time></trkpt><trkpt lat="45.96044684506149" lon="12.12617305881075"><ele>215.0</ele><time>2026-03-24T10:05:04Z</time></trkpt><trkpt lat="45.960591989698635" lon="12.126211391759039"><ele>215.0</ele><time>2026-03-24T10:05:05Z</time></trkpt><trkpt lat="45.96074109233346" lon="12.1262494219433"><ele>215.0</ele><time>2026-03-24T10:05:06Z</time></trkpt><trkpt lat="45.960896012413144" lon="12.126293721925999"><ele>216.66666666666669</ele><time>2026-03-24T10:05:07Z</time></trkpt><trkpt lat="45.96105723571145" lon="12.126338515415052"><ele>218.33333333333331</ele><time>2026-03-24T10:05:08Z</time></trkpt><trkpt lat="45.96122031167984" lon="12.12638138272716"><ele>220.0</ele><time>2026-03-24T10:05:09Z</time></trkpt><trkpt lat="45.961386829999455" lon="12.12642663614272"><ele>220.0</ele><time>2026-03-24T10:05:10Z</time></trkpt><trkpt lat="45.9615547479744" lon="12.126469460552235"><ele>220.0</ele><time>2026-03-24T10:05:11Z</time></trkpt><trkpt lat="45.9617235499237" lon="12.126513820185053"><ele>220.0</ele><time>2026-03-24T10:05:12Z</time></trkpt><trkpt lat="45.96189606246412" lon="12.126564038347611"><ele>221.33333333333331</ele><time>2026-03-24T10:05:13Z</time></trkpt><trkpt lat="45.96206725899703" lon="12.126609697413157"><ele>222.66666666666669</ele><time>2026-03-24T10:05:14Z</time></trkpt><trkpt lat="45.962238371568226" lon="12.126656344591403"><ele>224.0</ele><time>2026-03-24T10:05:15Z</time></trkpt><trkpt lat="45.96240985841618" lon="12.126701546703144"><ele>224.33333333333334</ele><time>2026-03-24T10:05:16Z</time></trkpt><trkpt lat="45.96258010704436" lon="12.126747040413091"><ele>224.66666666666669</ele><time>2026-03-24T10:05:17Z</time></trkpt><trkpt lat="45.96275134074263" lon="12.126790675615586"><ele>225.0</ele><time>2026-03-24T10:05:18Z</time></trkpt><trkpt lat="45.962921032729994" lon="12.126834942929968"><ele>225.0</ele><time>2026-03-24T10:05:19Z</time></trkpt><trkpt lat="45.96309155641921" lon="12.126881008132381"><ele>225.0</ele><time>2026-03-24T10:05:19.999Z</time></trkpt><trkpt lat="45.96326045579573" lon="12.126928147334208"><ele>225.0</ele><time>2026-03-24T10:05:20.999Z</time></trkpt><trkpt lat="45.96342981412789" lon="12.126975241515522"><ele>225.66666666666669</ele><time>2026-03-24T10:05:21.999Z</time></trkpt><trkpt lat="45.96360187561586" lon="12.127013293238806"><ele>226.33333333333334</ele><time>2026-03-24T10:05:22.999Z</time></trkpt><trkpt lat="45.96377143310339" lon="12.127059518681756"><ele>227.0</ele><time>2026-03-24T10:05:23.999Z</time></trkpt><trkpt lat="45.96394100538215" lon="12.127106156160718"><ele>227.0</ele><time>2026-03-24T10:05:24.999Z</time></trkpt><trkpt lat="45.964113175138465" lon="12.127151660201195"><ele>227.0</ele><time>2026-03-24T10:05:25.999Z</time></trkpt><trkpt lat="45.96428185367059" lon="12.127192533734872"><ele>227.0</ele><time>2026-03-24T10:05:26.999Z</time></trkpt><trkpt lat="45.96445247755124" lon="12.127235623257565"><ele>228.66666666666669</ele><time>2026-03-24T10:05:27.999Z</time></trkpt><trkpt lat="45.96461409943721" lon="12.12727961781521"><ele>230.33333333333331</ele><time>2026-03-24T10:05:28.999Z</time></trkpt><trkpt lat="45.96478128802196" lon="12.127322976589625"><ele>232.0</ele><time>2026-03-24T10:05:29.999Z</time></trkpt><trkpt lat="45.964950267852295" lon="12.127367975764846"><ele>233.33333333333331</ele><time>2026-03-24T10:05:30.999Z</time></trkpt><trkpt lat="45.965114357653405" lon="12.127414908186788"><ele>234.66666666666669</ele><time>2026-03-24T10:05:31.999Z</time></trkpt><trkpt lat="45.965283146751766" lon="12.127460409841525"><ele>236.0</ele><time>2026-03-24T10:05:32.999Z</time></trkpt><trkpt lat="45.965450755630606" lon="12.127504828606053"><ele>236.0</ele><time>2026-03-24T10:05:33.999Z</time></trkpt><trkpt lat="45.965618980251755" lon="12.127552643728373"><ele>236.0</ele><time>2026-03-24T10:05:34.999Z</time></trkpt><trkpt lat="45.96578151333863" lon="12.127597901911969"><ele>236.0</ele><time>2026-03-24T10:05:35.999Z</time></trkpt><trkpt lat="45.96593634746474" lon="12.127634024959232"><ele>237.0</ele><time>2026-03-24T10:05:37Z</time></trkpt><trkpt lat="45.96609332139089" lon="12.12765569123465"><ele>238.0</ele><time>2026-03-24T10:05:38Z</time></trkpt><trkpt lat="45.966242037693256" lon="12.127664413866592"><ele>239.0</ele><time>2026-03-24T10:05:39Z</time></trkpt><trkpt lat="45.96638858949785" lon="12.127663022560375"><ele>239.0</ele><time>2026-03-24T10:05:40Z</time></trkpt><trkpt lat="45.96653497224991" lon="12.127648584837926"><ele>239.0</ele><time>2026-03-24T10:05:41Z</time></trkpt><trkpt lat="45.966670632003215" lon="12.127623751020684"><ele>239.0</ele><time>2026-03-24T10:05:42Z</time></trkpt><trkpt lat="45.966794956785236" lon="12.12759375380085"><ele>239.0</ele><time>2026-03-24T10:05:43Z</time></trkpt><trkpt lat="45.966918873055675" lon="12.127545428593603"><ele>240.0</ele><time>2026-03-24T10:05:44Z</time></trkpt><trkpt lat="45.967040686951194" lon="12.127479296629181"><ele>241.0</ele><time>2026-03-24T10:05:45Z</time></trkpt><trkpt lat="45.9671564932911" lon="12.127391144365063"><ele>242.0</ele><time>2026-03-24T10:05:46Z</time></trkpt><trkpt lat="45.96725586117997" lon="12.127299867417548"><ele>243.0</ele><time>2026-03-24T10:05:47Z</time></trkpt><trkpt lat="45.9673417064026" lon="12.127211591547818"><ele>243.0</ele><time>2026-03-24T10:05:48Z</time></trkpt><trkpt lat="45.967418834282974" lon="12.127141750285096"><ele>243.0</ele><time>2026-03-24T10:05:49Z</time></trkpt><trkpt lat="45.96746929001057" lon="12.12706929505458"><ele>243.0</ele><time>2026-03-24T10:05:51Z</time></trkpt><trkpt lat="45.96754241118818" lon="12.126973651065397"><ele>243.0</ele><time>2026-03-24T10:05:55Z</time></trkpt><trkpt lat="45.96759618783271" lon="12.126872917321773"><ele>243.0</ele><time>2026-03-24T10:05:56Z</time></trkpt><trkpt lat="45.967632541645884" lon="12.126750562689534"><ele>243.0</ele><time>2026-03-24T10:05:57Z</time></trkpt><trkpt lat="45.96765323842046" lon="12.126609772869285"><ele>243.66666666666666</ele><time>2026-03-24T10:05:58Z</time></trkpt><trkpt lat="45.967703720014946" lon="12.126511874226539"><ele>244.33333333333331</ele><time>2026-03-24T10:05:59Z</time></trkpt><trkpt lat="45.96775479480206" lon="12.126428652608688"><ele>245.0</ele><time>2026-03-24T10:06:00Z</time></trkpt><trkpt lat="45.96784747017856" lon="12.126448918152537"><ele>245.66666666666666</ele><time>2026-03-24T10:06:01Z</time></trkpt><trkpt lat="45.967935592627434" lon="12.126437540380277"><ele>246.33333333333331</ele><time>2026-03-24T10:06:02Z</time></trkpt><trkpt lat="45.96802375517289" lon="12.126379749754921"><ele>247.0</ele><time>2026-03-24T10:06:03Z</time></trkpt><trkpt lat="45.968126629320004" lon="12.126341768193099"><ele>247.0</ele><time>2026-03-24T10:06:04Z</time></trkpt><trkpt lat="45.968220001842944" lon="12.126245616253359"><ele>247.0</ele><time>2026-03-24T10:06:05Z</time></trkpt><trkpt lat="45.96832049865999" lon="12.12619827545075"><ele>247.0</ele><time>2026-03-24T10:06:06Z</time></trkpt><trkpt lat="45.96840295163947" lon="12.126164829778642"><ele>247.0</ele><time>2026-03-24T10:06:07Z</time></trkpt><trkpt lat="45.968473409973605" lon="12.126100260929695"><ele>247.0</ele><time>2026-03-24T10:06:08Z</time></trkpt><trkpt lat="45.9685390302701" lon="12.126047324904068"><ele>247.6</ele><time>2026-03-24T10:06:09Z</time></trkpt><trkpt lat="45.96860358365114" lon="12.125976548829525"><ele>248.2</ele><time>2026-03-24T10:06:10Z</time></trkpt><trkpt lat="45.968648386984476" lon="12.125802260260562"><ele>248.8</ele><time>2026-03-24T10:06:11Z</time></trkpt><trkpt lat="45.96873149504498" lon="12.125688985218941"><ele>249.4</ele><time>2026-03-24T10:06:12Z</time></trkpt><trkpt lat="45.96881053516684" lon="12.125554810237535"><ele>250.0</ele><time>2026-03-24T10:06:13Z</time></trkpt><trkpt lat="45.968886763238736" lon="12.125425078815839"><ele>250.25</ele><time>2026-03-24T10:06:14Z</time></trkpt><trkpt lat="45.968965818175555" lon="12.125303781726018"><ele>250.5</ele><time>2026-03-24T10:06:15Z</time></trkpt><trkpt lat="45.96904226662549" lon="12.12515971936673"><ele>250.75</ele><time>2026-03-24T10:06:16Z</time></trkpt><trkpt lat="45.969138573245246" lon="12.125052896163794"><ele>251.0</ele><time>2026-03-24T10:06:17Z</time></trkpt><trkpt lat="45.96921065703505" lon="12.124936585370731"><ele>252.60000000000002</ele><time>2026-03-24T10:06:18Z</time></trkpt><trkpt lat="45.96927211177906" lon="12.124820063102513"><ele>254.20000000000002</ele><time>2026-03-24T10:06:19Z</time></trkpt><trkpt lat="45.969325658696356" lon="12.124681490087902"><ele>255.79999999999998</ele><time>2026-03-24T10:06:20Z</time></trkpt><trkpt lat="45.96935494625049" lon="12.124520413494224"><ele>257.4</ele><time>2026-03-24T10:06:21Z</time></trkpt><trkpt lat="45.96942115419076" lon="12.124374635286289"><ele>259.0</ele><time>2026-03-24T10:06:22Z</time></trkpt><trkpt lat="45.96947082339325" lon="12.124208125203364"><ele>260.4</ele><time>2026-03-24T10:06:23Z</time></trkpt><trkpt lat="45.96951264805528" lon="12.124062283790103"><ele>261.79999999999995</ele><time>2026-03-24T10:06:24Z</time></trkpt><trkpt lat="45.96954104947254" lon="12.12390294094795"><ele>263.20000000000005</ele><time>2026-03-24T10:06:25Z</time></trkpt><trkpt lat="45.96955771770787" lon="12.123743257783973"><ele>264.6</ele><time>2026-03-24T10:06:26Z</time></trkpt><trkpt lat="45.96959158233626" lon="12.123626720278693"><ele>266.0</ele><time>2026-03-24T10:06:27Z</time></trkpt><trkpt lat="45.969635311560296" lon="12.12353266109986"><ele>266.0</ele><time>2026-03-24T10:06:28Z</time></trkpt><trkpt lat="45.96967293963103" lon="12.123437817751503"><ele>266.0</ele><time>2026-03-24T10:06:29Z</time></trkpt><trkpt lat="45.9696997957624" lon="12.123338863841376"><ele>266.0</ele><time>2026-03-24T10:06:30Z</time></trkpt><trkpt lat="45.96977209256101" lon="12.123309855379452"><ele>266.0</ele><time>2026-03-24T10:06:31Z</time></trkpt><trkpt lat="45.96985950756721" lon="12.123254790868334"><ele>266.0</ele><time>2026-03-24T10:06:33Z</time></trkpt><trkpt lat="45.969841951182055" lon="12.123074031335511"><ele>266.0</ele><time>2026-03-24T10:06:35Z</time></trkpt><trkpt lat="45.96977667751485" lon="12.122969802371045"><ele>268.2</ele><time>2026-03-24T10:06:36Z</time></trkpt><trkpt lat="45.969715114041065" lon="12.122859233123606"><ele>270.40000000000003</ele><time>2026-03-24T10:06:37Z</time></trkpt><trkpt lat="45.96964275028175" lon="12.122747372228945"><ele>272.6</ele><time>2026-03-24T10:06:38Z</time></trkpt><trkpt lat="45.969546706599616" lon="12.122645056604743"><ele>274.8</ele><time>2026-03-24T10:06:39Z</time></trkpt><trkpt lat="45.969452456821664" lon="12.122544895625364"><ele>277.0</ele><time>2026-03-24T10:06:40Z</time></trkpt><trkpt lat="45.969354978011395" lon="12.122431150125868"><ele>276.4</ele><time>2026-03-24T10:06:41Z</time></trkpt><trkpt lat="45.969255575644226" lon="12.12235742706751"><ele>275.79999999999995</ele><time>2026-03-24T10:06:42Z</time></trkpt><trkpt lat="45.96917785002169" lon="12.122296771073549"><ele>275.2</ele><time>2026-03-24T10:06:43Z</time></trkpt><trkpt lat="45.96911495021078" lon="12.122229804846656"><ele>274.59999999999997</ele><time>2026-03-24T10:06:44Z</time></trkpt><trkpt lat="45.96906719252439" lon="12.122099263122415"><ele>274.0</ele><time>2026-03-24T10:06:46Z</time></trkpt><trkpt lat="45.96909101061131" lon="12.121980278668472"><ele>274.0</ele><time>2026-03-24T10:06:48Z</time></trkpt><trkpt lat="45.96914987221523" lon="12.121892002310878"><ele>274.0</ele><time>2026-03-24T10:06:49Z</time></trkpt><trkpt lat="45.96921556868992" lon="12.121794791490144"><ele>274.0</ele><time>2026-03-24T10:06:50Z</time></trkpt><trkpt lat="45.96928395656838" lon="12.121709424499675"><ele>274.0</ele><time>2026-03-24T10:06:51Z</time></trkpt><trkpt lat="45.96936244427425" lon="12.121638014321205"><ele>274.0</ele><time>2026-03-24T10:06:52Z</time></trkpt><trkpt lat="45.96944745753403" lon="12.121610381175463"><ele>277.2</ele><time>2026-03-24T10:06:53Z</time></trkpt><trkpt lat="45.96953951725046" lon="12.121596457223788"><ele>280.4</ele><time>2026-03-24T10:06:54Z</time></trkpt><trkpt lat="45.96962010554628" lon="12.12153326998867"><ele>283.6</ele><time>2026-03-24T10:06:55Z</time></trkpt><trkpt lat="45.96969846338965" lon="12.121430640329658"><ele>286.8</ele><time>2026-03-24T10:06:56Z</time></trkpt><trkpt lat="45.96976703706954" lon="12.121325374498898"><ele>290.0</ele><time>2026-03-24T10:06:57Z</time></trkpt><trkpt lat="45.96979359464274" lon="12.121201425229735"><ele>291.4</ele><time>2026-03-24T10:06:58Z</time></trkpt><trkpt lat="45.96980378254182" lon="12.121058337204582"><ele>292.8</ele><time>2026-03-24T10:06:59Z</time></trkpt><trkpt lat="45.96981250261382" lon="12.120917158660001"><ele>294.2</ele><time>2026-03-24T10:07:00Z</time></trkpt><trkpt lat="45.96981351118267" lon="12.120773987187949"><ele>295.6</ele><time>2026-03-24T10:07:01Z</time></trkpt><trkpt lat="45.969834005405296" lon="12.12064718161532"><ele>297.0</ele><time>2026-03-24T10:07:02Z</time></trkpt><trkpt lat="45.96984932321259" lon="12.120528152685432"><ele>298.0</ele><time>2026-03-24T10:07:03Z</time></trkpt><trkpt lat="45.969867903829" lon="12.120410378323372"><ele>299.0</ele><time>2026-03-24T10:07:04Z</time></trkpt><trkpt lat="45.96987613777476" lon="12.120311360502086"><ele>300.0</ele><time>2026-03-24T10:07:05Z</time></trkpt><trkpt lat="45.969936838830215" lon="12.12019326979191"><ele>301.0</ele><time>2026-03-24T10:07:07Z</time></trkpt><trkpt lat="45.97000348903573" lon="12.120176449717924"><ele>302.0</ele><time>2026-03-24T10:07:08Z</time></trkpt><trkpt lat="45.970084035126064" lon="12.12023357855629"><ele>303.0</ele><time>2026-03-24T10:07:09Z</time></trkpt><trkpt lat="45.97018149674439" lon="12.120238801612793"><ele>305.6666666666667</ele><time>2026-03-24T10:07:10Z</time></trkpt><trkpt lat="45.970259021499615" lon="12.120255557411369"><ele>308.3333333333333</ele><time>2026-03-24T10:07:11Z</time></trkpt><trkpt lat="45.97036127265814" lon="12.120266970073475"><ele>311.0</ele><time>2026-03-24T10:07:12Z</time></trkpt><trkpt lat="45.97045772793292" lon="12.120266214636976"><ele>313.66666666666663</ele><time>2026-03-24T10:07:13Z</time></trkpt><trkpt lat="45.97054227140821" lon="12.120266822599918"><ele>316.3333333333333</ele><time>2026-03-24T10:07:14Z</time></trkpt><trkpt lat="45.9706112929153" lon="12.120289147611107"><ele>319.0</ele><time>2026-03-24T10:07:15Z</time></trkpt><trkpt lat="45.970661739279166" lon="12.120405039514461"><ele>319.0</ele><time>2026-03-24T10:07:16Z</time></trkpt><trkpt lat="45.97072962933073" lon="12.12046029028438"><ele>319.0</ele><time>2026-03-24T10:07:17Z</time></trkpt><trkpt lat="45.97080347702371" lon="12.120531814637506"><ele>319.0</ele><time>2026-03-24T10:07:18Z</time></trkpt><trkpt lat="45.970882520319726" lon="12.120546088300602"><ele>319.0</ele><time>2026-03-24T10:07:19Z</time></trkpt><trkpt lat="45.970946879361065" lon="12.120522246424938"><ele>319.0</ele><time>2026-03-24T10:07:20Z</time></trkpt><trkpt lat="45.97101071057042" lon="12.12044730074713"><ele>319.0</ele><time>2026-03-24T10:07:21Z</time></trkpt><trkpt lat="45.97107442108795" lon="12.120349332848138"><ele>322.4</ele><time>2026-03-24T10:07:22Z</time></trkpt><trkpt lat="45.97115958289352" lon="12.120294219819227"><ele>325.79999999999995</ele><time>2026-03-24T10:07:23Z</time></trkpt><trkpt lat="45.97124368854351" lon="12.120363913867543"><ele>329.20000000000005</ele><time>2026-03-24T10:07:24Z</time></trkpt><trkpt lat="45.971360553456556" lon="12.120311665717969"><ele>332.6</ele><time>2026-03-24T10:07:25Z</time></trkpt><trkpt lat="45.971438711470896" lon="12.120230716368615"><ele>336.0</ele><time>2026-03-24T10:07:25.999Z</time></trkpt><trkpt lat="45.971500844207" lon="12.120102111405394"><ele>336.0</ele><time>2026-03-24T10:07:26.999Z</time></trkpt><trkpt lat="45.971570706940604" lon="12.120000589527429"><ele>336.0</ele><time>2026-03-24T10:07:27.999Z</time></trkpt><trkpt lat="45.971626666395245" lon="12.11994971323988"><ele>336.0</ele><time>2026-03-24T10:07:28.999Z</time></trkpt><trkpt lat="45.97168374043489" lon="12.120003565104424"><ele>336.0</ele><time>2026-03-24T10:07:29.999Z</time></trkpt><trkpt lat="45.97175994869854" lon="12.12002458487722"><ele>336.0</ele><time>2026-03-24T10:07:30.999Z</time></trkpt><trkpt lat="45.971824104864695" lon="12.120019065666249"><ele>336.0</ele><time>2026-03-24T10:07:31.999Z</time></trkpt><trkpt lat="45.971896336793044" lon="12.119990375176517"><ele>337.6666666666667</ele><time>2026-03-24T10:07:32.999Z</time></trkpt><trkpt lat="45.97197354847045" lon="12.119966260761949"><ele>339.3333333333333</ele><time>2026-03-24T10:07:33.999Z</time></trkpt><trkpt lat="45.972039794034636" lon="12.119960293093198"><ele>341.0</ele><time>2026-03-24T10:07:34.999Z</time></trkpt><trkpt lat="45.97211335411572" lon="12.119979541978864"><ele>342.66666666666663</ele><time>2026-03-24T10:07:35.999Z</time></trkpt><trkpt lat="45.97220855844412" lon="12.120001571398825"><ele>344.3333333333333</ele><time>2026-03-24T10:07:36.999Z</time></trkpt><trkpt lat="45.972291258266836" lon="12.120055536666507"><ele>346.0</ele><time>2026-03-24T10:07:37.999Z</time></trkpt><trkpt lat="45.972372235171925" lon="12.120033707069007"><ele>346.0</ele><time>2026-03-24T10:07:38.999Z</time></trkpt><trkpt lat="45.972447442456975" lon="12.120002690160126"><ele>346.0</ele><time>2026-03-24T10:07:39.999Z</time></trkpt><trkpt lat="45.97254208451231" lon="12.119964409475973"><ele>346.0</ele><time>2026-03-24T10:07:40.999Z</time></trkpt><trkpt lat="45.97263997032025" lon="12.11991318246051"><ele>346.0</ele><time>2026-03-24T10:07:41.999Z</time></trkpt><trkpt lat="45.972729181222185" lon="12.119873328803106"><ele>346.0</ele><time>2026-03-24T10:07:42.999Z</time></trkpt><trkpt lat="45.97280877174795" lon="12.119812918581873"><ele>348.66666666666663</ele><time>2026-03-24T10:07:43.999Z</time></trkpt><trkpt lat="45.972859982798354" lon="12.1197274815597"><ele>351.3333333333333</ele><time>2026-03-24T10:07:44.999Z</time></trkpt><trkpt lat="45.972887280362826" lon="12.11962717864723"><ele>354.0</ele><time>2026-03-24T10:07:46Z</time></trkpt><trkpt lat="45.972862711173555" lon="12.11952406333102"><ele>356.6666666666667</ele><time>2026-03-24T10:07:49Z</time></trkpt><trkpt lat="45.97280621023808" lon="12.119397111496312"><ele>359.33333333333337</ele><time>2026-03-24T10:07:51Z</time></trkpt><trkpt lat="45.972763643122455" lon="12.119305386903378"><ele>362.0</ele><time>2026-03-24T10:07:53Z</time></trkpt><trkpt lat="45.972768172494874" lon="12.119180932291469"><ele>364.6</ele><time>2026-03-24T10:07:54Z</time></trkpt><trkpt lat="45.97278150673847" lon="12.11906285821938"><ele>367.20000000000005</ele><time>2026-03-24T10:07:55Z</time></trkpt><trkpt lat="45.97277493848895" lon="12.118943217371909"><ele>369.8</ele><time>2026-03-24T10:07:56Z</time></trkpt><trkpt lat="45.97276958063375" lon="12.118845622315392"><ele>372.4</ele><time>2026-03-24T10:07:57Z</time></trkpt><trkpt lat="45.97270201734454" lon="12.118680672176536"><ele>375.0</ele><time>2026-03-24T10:07:59Z</time></trkpt><trkpt lat="45.97262860258524" lon="12.118615711141025"><ele>375.0</ele><time>2026-03-24T10:08:00Z</time></trkpt><trkpt lat="45.97259264810337" lon="12.118502707705398"><ele>375.0</ele><time>2026-03-24T10:08:01Z</time></trkpt><trkpt lat="45.97254009198222" lon="12.118380286627152"><ele>375.0</ele><time>2026-03-24T10:08:02Z</time></trkpt><trkpt lat="45.97250270558825" lon="12.11827038444561"><ele>375.0</ele><time>2026-03-24T10:08:03Z</time></trkpt><trkpt lat="45.97249874772392" lon="12.118134758542805"><ele>375.0</ele><time>2026-03-24T10:08:05Z</time></trkpt><trkpt lat="45.97251846687844" lon="12.118007867208945"><ele>377.8</ele><time>2026-03-24T10:08:07Z</time></trkpt><trkpt lat="45.97249762207538" lon="12.117808453530639"><ele>380.6</ele><time>2026-03-24T10:08:09Z</time></trkpt><trkpt lat="45.97244047293557" lon="12.117678377688136"><ele>383.4</ele><time>2026-03-24T10:08:10Z</time></trkpt><trkpt lat="45.97239472689231" lon="12.117563168631245"><ele>386.2</ele><time>2026-03-24T10:08:11Z</time></trkpt><trkpt lat="45.97236636142608" lon="12.117447207163265"><ele>389.0</ele><time>2026-03-24T10:08:12Z</time></trkpt><trkpt lat="45.9723468248832" lon="12.117313910516975"><ele>392.6</ele><time>2026-03-24T10:08:13Z</time></trkpt><trkpt lat="45.97232768098466" lon="12.11716880726627"><ele>396.2</ele><time>2026-03-24T10:08:14Z</time></trkpt><trkpt lat="45.97231026187817" lon="12.117037448899225"><ele>399.8</ele><time>2026-03-24T10:08:15Z</time></trkpt><trkpt lat="45.972287836824925" lon="12.116885142140353"><ele>403.40000000000003</ele><time>2026-03-24T10:08:16Z</time></trkpt><trkpt lat="45.97226440399624" lon="12.116740838745622"><ele>407.0</ele><time>2026-03-24T10:08:17Z</time></trkpt><trkpt lat="45.97224247175839" lon="12.116605397441798"><ele>409.8</ele><time>2026-03-24T10:08:18Z</time></trkpt><trkpt lat="45.972208693848934" lon="12.116480231953425"><ele>412.6</ele><time>2026-03-24T10:08:19Z</time></trkpt><trkpt lat="45.972192865405425" lon="12.116353216207946"><ele>415.40000000000003</ele><time>2026-03-24T10:08:20Z</time></trkpt><trkpt lat="45.972167245018305" lon="12.116215984131737"><ele>418.20000000000005</ele><time>2026-03-24T10:08:21Z</time></trkpt><trkpt lat="45.97213519794284" lon="12.116091167970708"><ele>421.0</ele><time>2026-03-24T10:08:22Z</time></trkpt><trkpt lat="45.9721251586037" lon="12.115967900603072"><ele>421.0</ele><time>2026-03-24T10:08:23Z</time></trkpt><trkpt lat="45.97221724315445" lon="12.115890794888944"><ele>421.0</ele><time>2026-03-24T10:08:24Z</time></trkpt><trkpt lat="45.972231256714224" lon="12.115780504696511"><ele>421.0</ele><time>2026-03-24T10:08:25Z</time></trkpt><trkpt lat="45.972243426864424" lon="12.115673697413895"><ele>421.0</ele><time>2026-03-24T10:08:26Z</time></trkpt><trkpt lat="45.97220729497084" lon="12.11552288511625"><ele>421.0</ele><time>2026-03-24T10:08:27Z</time></trkpt><trkpt lat="45.972151020393454" lon="12.115420884324703"><ele>423.6</ele><time>2026-03-24T10:08:28Z</time></trkpt><trkpt lat="45.97210623354869" lon="12.115277232368156"><ele>426.20000000000005</ele><time>2026-03-24T10:08:29Z</time></trkpt><trkpt lat="45.972069396354094" lon="12.115136101516827"><ele>428.79999999999995</ele><time>2026-03-24T10:08:30Z</time></trkpt><trkpt lat="45.972033613848346" lon="12.114981843705669"><ele>431.4</ele><time>2026-03-24T10:08:31Z</time></trkpt><trkpt lat="45.972023218583715" lon="12.11481277951709"><ele>434.0</ele><time>2026-03-24T10:08:32Z</time></trkpt><trkpt lat="45.97200759856529" lon="12.114656336950059"><ele>436.16666666666663</ele><time>2026-03-24T10:08:33Z</time></trkpt><trkpt lat="45.97198298685254" lon="12.114551872778815"><ele>438.3333333333333</ele><time>2026-03-24T10:08:34Z</time></trkpt><trkpt lat="45.971983903497836" lon="12.114424789752071"><ele>440.5</ele><time>2026-03-24T10:08:36Z</time></trkpt><trkpt lat="45.97201680780748" lon="12.114333221193176"><ele>442.66666666666663</ele><time>2026-03-24T10:09:19Z</time></trkpt><trkpt lat="45.97207369481335" lon="12.114384702513357"><ele>444.8333333333333</ele><time>2026-03-24T10:09:20Z</time></trkpt><trkpt lat="45.97212004218723" lon="12.114501155585463"><ele>447.0</ele><time>2026-03-24T10:09:22Z</time></trkpt><trkpt lat="45.972168605266305" lon="12.114600610847669"><ele>447.0</ele><time>2026-03-24T10:09:23Z</time></trkpt><trkpt lat="45.972237042082675" lon="12.114708750706571"><ele>447.00000000000006</ele><time>2026-03-24T10:09:24Z</time></trkpt><trkpt lat="45.97229466682008" lon="12.114839497673561"><ele>447.00000000000006</ele><time>2026-03-24T10:09:25Z</time></trkpt><trkpt lat="45.972381189055206" lon="12.11493894918125"><ele>447.0</ele><time>2026-03-24T10:09:26Z</time></trkpt><trkpt lat="45.972459024928625" lon="12.115021757275242"><ele>447.0</ele><time>2026-03-24T10:09:27Z</time></trkpt><trkpt lat="45.97252120366453" lon="12.11509761597711"><ele>447.0</ele><time>2026-03-24T10:09:28Z</time></trkpt><trkpt lat="45.97260210345087" lon="12.115145333940283"><ele>447.00000000000006</ele><time>2026-03-24T10:09:29Z</time></trkpt><trkpt lat="45.97269180148214" lon="12.115212417149191"><ele>447.00000000000006</ele><time>2026-03-24T10:09:30Z</time></trkpt><trkpt lat="45.97278546234524" lon="12.115246874621636"><ele>447.0</ele><time>2026-03-24T10:09:31Z</time></trkpt><trkpt lat="45.9728871716641" lon="12.115266796685653"><ele>447.0</ele><time>2026-03-24T10:09:31.999Z</time></trkpt><trkpt lat="45.97297345186736" lon="12.115243260099076"><ele>447.0</ele><time>2026-03-24T10:09:32.999Z</time></trkpt><trkpt lat="45.973042437387335" lon="12.11526402253417"><ele>447.0</ele><time>2026-03-24T10:09:33.999Z</time></trkpt><trkpt lat="45.97312215547436" lon="12.115234413171166"><ele>447.0</ele><time>2026-03-24T10:09:34.999Z</time></trkpt><trkpt lat="45.97317423280512" lon="12.11518286271348"><ele>447.0</ele><time>2026-03-24T10:09:35.999Z</time></trkpt><trkpt lat="45.973222882614564" lon="12.115101666889585"><ele>447.0</ele><time>2026-03-24T10:09:36.999Z</time></trkpt><trkpt lat="45.973267676656576" lon="12.114981961122968"><ele>447.0</ele><time>2026-03-24T10:09:37.999Z</time></trkpt><trkpt lat="45.97330627940805" lon="12.114853609268096"><ele>448.8333333333333</ele><time>2026-03-24T10:09:38.999Z</time></trkpt><trkpt lat="45.97331623780694" lon="12.114732760859193"><ele>450.66666666666663</ele><time>2026-03-24T10:09:40Z</time></trkpt><trkpt lat="45.973311377513184" lon="12.114609103009014"><ele>452.5</ele><time>2026-03-24T10:09:41Z</time></trkpt><trkpt lat="45.973297839814606" lon="12.114518875931957"><ele>454.3333333333333</ele><time>2026-03-24T10:09:42Z</time></trkpt><trkpt lat="45.97334394293024" lon="12.114356611591024"><ele>456.16666666666663</ele><time>2026-03-24T10:09:44Z</time></trkpt><trkpt lat="45.97341291389981" lon="12.114337453468188"><ele>458.0</ele><time>2026-03-24T10:09:45Z</time></trkpt><trkpt lat="45.973487808153436" lon="12.11435960428964"><ele>458.0</ele><time>2026-03-24T10:09:46Z</time></trkpt><trkpt lat="45.97356787148744" lon="12.11442159471353"><ele>457.99999999999994</ele><time>2026-03-24T10:09:47Z</time></trkpt><trkpt lat="45.973643531082615" lon="12.114483355800614"><ele>457.99999999999994</ele><time>2026-03-24T10:09:48Z</time></trkpt><trkpt lat="45.97372971037282" lon="12.11449537278608"><ele>458.0</ele><time>2026-03-24T10:09:49Z</time></trkpt><trkpt lat="45.973834611891895" lon="12.114463205300888"><ele>458.0</ele><time>2026-03-24T10:09:50Z</time></trkpt><trkpt lat="45.9739357529128" lon="12.114424961656704"><ele>458.0</ele><time>2026-03-24T10:09:51Z</time></trkpt><trkpt lat="45.9740201216136" lon="12.114404032431038"><ele>457.99999999999994</ele><time>2026-03-24T10:09:52Z</time></trkpt><trkpt lat="45.974100552021426" lon="12.114314554833324"><ele>457.99999999999994</ele><time>2026-03-24T10:09:54Z</time></trkpt><trkpt lat="45.97398680160774" lon="12.114154936667695"><ele>458.0</ele><time>2026-03-24T10:09:57Z</time></trkpt><trkpt lat="45.97392183043133" lon="12.114072283375489"><ele>458.0</ele><time>2026-03-24T10:09:58Z</time></trkpt><trkpt lat="45.973868860242725" lon="12.113987835275154"><ele>461.16666666666663</ele><time>2026-03-24T10:09:59Z</time></trkpt><trkpt lat="45.97381956281281" lon="12.113902322796601"><ele>464.3333333333333</ele><time>2026-03-24T10:10:00Z</time></trkpt><trkpt lat="45.97374679713525" lon="12.11387039065664"><ele>467.5</ele><time>2026-03-24T10:10:01Z</time></trkpt><trkpt lat="45.973655918563914" lon="12.113868316917767"><ele>470.66666666666663</ele><time>2026-03-24T10:10:02Z</time></trkpt><trkpt lat="45.973578796102885" lon="12.113833765256578"><ele>473.8333333333333</ele><time>2026-03-24T10:10:03Z</time></trkpt><trkpt lat="45.97354450821205" lon="12.113699444623549"><ele>477.0</ele><time>2026-03-24T10:10:04Z</time></trkpt><trkpt lat="45.973522085161036" lon="12.113587475154237"><ele>477.0</ele><time>2026-03-24T10:10:05Z</time></trkpt><trkpt lat="45.973511949029614" lon="12.113472948912115"><ele>477.00000000000006</ele><time>2026-03-24T10:10:06Z</time></trkpt><trkpt lat="45.97352774229177" lon="12.113335555750846"><ele>477.00000000000006</ele><time>2026-03-24T10:10:07Z</time></trkpt><trkpt lat="45.97352456723137" lon="12.11319428231668"><ele>477.0</ele><time>2026-03-24T10:10:08Z</time></trkpt><trkpt lat="45.9734982112976" lon="12.113060719391665"><ele>477.0</ele><time>2026-03-24T10:10:10Z</time></trkpt><trkpt lat="45.97339614004492" lon="12.113037080853953"><ele>481.20000000000005</ele><time>2026-03-24T10:10:12Z</time></trkpt><trkpt lat="45.97333610566938" lon="12.113103868787087"><ele>485.40000000000003</ele><time>2026-03-24T10:10:13Z</time></trkpt><trkpt lat="45.97320728998093" lon="12.113120674801042"><ele>489.59999999999997</ele><time>2026-03-24T10:10:15Z</time></trkpt><trkpt lat="45.973134154465065" lon="12.113115281256281"><ele>493.79999999999995</ele><time>2026-03-24T10:10:16Z</time></trkpt><trkpt lat="45.973042956014574" lon="12.113081174363332"><ele>498.0</ele><time>2026-03-24T10:10:17Z</time></trkpt><trkpt lat="45.97296663400619" lon="12.11300106887125"><ele>498.0</ele><time>2026-03-24T10:10:18Z</time></trkpt><trkpt lat="45.972897409600556" lon="12.112848661062332"><ele>497.99999999999994</ele><time>2026-03-24T10:10:20Z</time></trkpt><trkpt lat="45.97285546583871" lon="12.112736285306983"><ele>497.99999999999994</ele><time>2026-03-24T10:10:21Z</time></trkpt><trkpt lat="45.972818088601045" lon="12.112601084583273"><ele>498.0</ele><time>2026-03-24T10:10:22Z</time></trkpt><trkpt lat="45.97279235243672" lon="12.112445508418919"><ele>498.0</ele><time>2026-03-24T10:10:23Z</time></trkpt><trkpt lat="45.972764329883454" lon="12.11228547772204"><ele>500.0</ele><time>2026-03-24T10:10:24Z</time></trkpt><trkpt lat="45.972753784395785" lon="12.112105777129166"><ele>502.0</ele><time>2026-03-24T10:10:25Z</time></trkpt><trkpt lat="45.97273802015074" lon="12.111925938159116"><ele>504.0</ele><time>2026-03-24T10:10:26Z</time></trkpt><trkpt lat="45.97273120614259" lon="12.111767750963226"><ele>506.0</ele><time>2026-03-24T10:10:27Z</time></trkpt><trkpt lat="45.972737715846996" lon="12.111641109388131"><ele>505.99999999999994</ele><time>2026-03-24T10:10:28Z</time></trkpt><trkpt lat="45.972748292218185" lon="12.111529588613273"><ele>506.0</ele><time>2026-03-24T10:10:29Z</time></trkpt><trkpt lat="45.97277209275572" lon="12.111428490873891"><ele>506.0</ele><time>2026-03-24T10:10:30Z</time></trkpt><trkpt lat="45.97283251532526" lon="12.11134656607866"><ele>506.0</ele><time>2026-03-24T10:10:32Z</time></trkpt><trkpt lat="45.97286853509745" lon="12.111473764008643"><ele>505.99999999999994</ele><time>2026-03-24T10:10:34Z</time></trkpt><trkpt lat="45.97292478128779" lon="12.111548381344166"><ele>506.0</ele><time>2026-03-24T10:10:35Z</time></trkpt><trkpt lat="45.973040440476794" lon="12.111588712594145"><ele>506.0</ele><time>2026-03-24T10:10:37Z</time></trkpt><trkpt lat="45.97314107422696" lon="12.11157552681039"><ele>506.0</ele><time>2026-03-24T10:10:38Z</time></trkpt><trkpt lat="45.97324929046674" lon="12.111532745265457"><ele>506.0</ele><time>2026-03-24T10:10:39Z</time></trkpt><trkpt lat="45.97334022751087" lon="12.11145898752572"><ele>506.0</ele><time>2026-03-24T10:10:40Z</time></trkpt><trkpt lat="45.973396718092545" lon="12.11136760907829"><ele>506.0</ele><time>2026-03-24T10:10:41Z</time></trkpt><trkpt lat="45.97339989300637" lon="12.111229164262964"><ele>511.4</ele><time>2026-03-24T10:10:42Z</time></trkpt><trkpt lat="45.97342451378209" lon="12.111084487812624"><ele>516.8</ele><time>2026-03-24T10:10:43Z</time></trkpt><trkpt lat="45.973440885280645" lon="12.110941924015256"><ele>522.1999999999999</ele><time>2026-03-24T10:10:44Z</time></trkpt><trkpt lat="45.97347992873956" lon="12.110850813291163"><ele>527.6</ele><time>2026-03-24T10:10:45Z</time></trkpt><trkpt lat="45.973597594309226" lon="12.110845901101568"><ele>533.0</ele><time>2026-03-24T10:10:47Z</time></trkpt><trkpt lat="45.97359550892566" lon="12.1109999206782"><ele>533.0</ele><time>2026-03-24T10:10:48Z</time></trkpt><trkpt lat="45.973654383462744" lon="12.111157491335863"><ele>533.0</ele><time>2026-03-24T10:10:50Z</time></trkpt><trkpt lat="45.973721862197145" lon="12.111287719551378"><ele>533.0</ele><time>2026-03-24T10:10:51Z</time></trkpt><trkpt lat="45.973757760219286" lon="12.11144042923997"><ele>533.0</ele><time>2026-03-24T10:10:52Z</time></trkpt><trkpt lat="45.973799968303716" lon="12.111560171847946"><ele>533.0</ele><time>2026-03-24T10:10:53Z</time></trkpt><trkpt lat="45.97383585706164" lon="12.111661297953468"><ele>529.0</ele><time>2026-03-24T10:10:54Z</time></trkpt><trkpt lat="45.97397799858036" lon="12.111716200359758"><ele>525.0</ele><time>2026-03-24T10:10:56Z</time></trkpt><trkpt lat="45.974070968998554" lon="12.111747186810424"><ele>521.0</ele><time>2026-03-24T10:10:57Z</time></trkpt><trkpt lat="45.97419300423925" lon="12.11170315839547"><ele>517.0</ele><time>2026-03-24T10:10:58Z</time></trkpt><trkpt lat="45.97428185474287" lon="12.11162263246044"><ele>518.5</ele><time>2026-03-24T10:10:59Z</time></trkpt><trkpt lat="45.9743454649389" lon="12.111535100841712"><ele>520.0</ele><time>2026-03-24T10:11:00Z</time></trkpt><trkpt lat="45.97442626949839" lon="12.111381985987801"><ele>521.5</ele><time>2026-03-24T10:11:01Z</time></trkpt><trkpt lat="45.97448163829689" lon="12.111245688043084"><ele>523.0</ele><time>2026-03-24T10:11:02Z</time></trkpt><trkpt lat="45.974550938827164" lon="12.11106698938826"><ele>523.0</ele><time>2026-03-24T10:11:03Z</time></trkpt><trkpt lat="45.97463297029797" lon="12.110875749593074"><ele>523.0</ele><time>2026-03-24T10:11:04Z</time></trkpt><trkpt lat="45.97473257518999" lon="12.110705180781833"><ele>523.0</ele><time>2026-03-24T10:11:05Z</time></trkpt><trkpt lat="45.97485886109565" lon="12.110518833296078"><ele>526.75</ele><time>2026-03-24T10:11:06Z</time></trkpt><trkpt lat="45.97495555310177" lon="12.110354438417149"><ele>530.5</ele><time>2026-03-24T10:11:07Z</time></trkpt><trkpt lat="45.97503092577795" lon="12.110201715602537"><ele>534.25</ele><time>2026-03-24T10:11:08Z</time></trkpt><trkpt lat="45.9750441577989" lon="12.110068623879815"><ele>538.0</ele><time>2026-03-24T10:11:09Z</time></trkpt><trkpt lat="45.9750513562489" lon="12.109954867143438"><ele>538.0</ele><time>2026-03-24T10:11:10Z</time></trkpt><trkpt lat="45.97497947086612" lon="12.10992352396717"><ele>538.0</ele><time>2026-03-24T10:11:12Z</time></trkpt><trkpt lat="45.97492492970216" lon="12.109980388632504"><ele>538.0</ele><time>2026-03-24T10:11:15Z</time></trkpt><trkpt lat="45.97485159848703" lon="12.110070390723394"><ele>538.0</ele><time>2026-03-24T10:11:16Z</time></trkpt><trkpt lat="45.974777543555604" lon="12.110180775443109"><ele>538.0</ele><time>2026-03-24T10:11:17Z</time></trkpt><trkpt lat="45.97472674557304" lon="12.11027116246481"><ele>538.0</ele><time>2026-03-24T10:11:18Z</time></trkpt><trkpt lat="45.97465386703057" lon="12.11036310661562"><ele>538.0</ele><time>2026-03-24T10:11:19Z</time></trkpt><trkpt lat="45.974564740257904" lon="12.1104482069542"><ele>538.0</ele><time>2026-03-24T10:11:20Z</time></trkpt><trkpt lat="45.97447489567032" lon="12.110526126187754"><ele>538.0</ele><time>2026-03-24T10:11:21Z</time></trkpt><trkpt lat="45.97439100696688" lon="12.110554061580311"><ele>538.0</ele><time>2026-03-24T10:11:22Z</time></trkpt><trkpt lat="45.97432345041731" lon="12.11057875933775"><ele>538.0</ele><time>2026-03-24T10:11:23Z</time></trkpt><trkpt lat="45.9742456995569" lon="12.110489899987384"><ele>538.0</ele><time>2026-03-24T10:11:25Z</time></trkpt><trkpt lat="45.97417597816422" lon="12.110362050344158"><ele>538.0</ele><time>2026-03-24T10:11:27Z</time></trkpt><trkpt lat="45.97419136759979" lon="12.11021130309409"><ele>538.0</ele><time>2026-03-24T10:11:29Z</time></trkpt><trkpt lat="45.974188559999426" lon="12.110102285437717"><ele>538.0</ele><time>2026-03-24T10:11:30Z</time></trkpt><trkpt lat="45.97418087630714" lon="12.10994605251496"><ele>538.0</ele><time>2026-03-24T10:11:31Z</time></trkpt><trkpt lat="45.97418640346397" lon="12.109773003680488"><ele>544.6</ele><time>2026-03-24T10:11:32Z</time></trkpt><trkpt lat="45.97415388070779" lon="12.109609286506375"><ele>551.1999999999999</ele><time>2026-03-24T10:11:33Z</time></trkpt><trkpt lat="45.97415223571585" lon="12.109456385143325"><ele>557.8</ele><time>2026-03-24T10:11:34Z</time></trkpt><trkpt lat="45.974132203961226" lon="12.1093549492404"><ele>564.4</ele><time>2026-03-24T10:11:35Z</time></trkpt><trkpt lat="45.97407509834091" lon="12.109305783890463"><ele>571.0</ele><time>2026-03-24T10:11:36Z</time></trkpt><trkpt lat="45.97396444652711" lon="12.109271847049403"><ele>571.0</ele><time>2026-03-24T10:11:38Z</time></trkpt><trkpt lat="45.97388797641499" lon="12.109262907525965"><ele>571.0</ele><time>2026-03-24T10:11:39Z</time></trkpt><trkpt lat="45.97381907418481" lon="12.109247939171427"><ele>571.0</ele><time>2026-03-24T10:11:40Z</time></trkpt><trkpt lat="45.973742161418926" lon="12.10922710070817"><ele>571.0</ele><time>2026-03-24T10:11:41Z</time></trkpt><trkpt lat="45.973663946156584" lon="12.10915830835501"><ele>571.0</ele><time>2026-03-24T10:11:42Z</time></trkpt><trkpt lat="45.973596596150514" lon="12.109041715958572"><ele>571.0</ele><time>2026-03-24T10:11:43Z</time></trkpt><trkpt lat="45.97352718877316" lon="12.108909608663444"><ele>573.0</ele><time>2026-03-24T10:11:44Z</time></trkpt><trkpt lat="45.973457303503466" lon="12.108761814565325"><ele>575.0</ele><time>2026-03-24T10:11:45Z</time></trkpt><trkpt lat="45.97337286175651" lon="12.108598507078524"><ele>577.0</ele><time>2026-03-24T10:11:46Z</time></trkpt><trkpt lat="45.97328391852216" lon="12.10843664829309"><ele>579.0</ele><time>2026-03-24T10:11:47Z</time></trkpt><trkpt lat="45.97322125210292" lon="12.108309102556126"><ele>579.0</ele><time>2026-03-24T10:11:48Z</time></trkpt><trkpt lat="45.97313898623542" lon="12.108248936380672"><ele>579.0</ele><time>2026-03-24T10:11:49Z</time></trkpt><trkpt lat="45.97308000566571" lon="12.108190496824047"><ele>579.0</ele><time>2026-03-24T10:11:50Z</time></trkpt><trkpt lat="45.973001617501836" lon="12.108204291843126"><ele>579.0</ele><time>2026-03-24T10:11:51Z</time></trkpt><trkpt lat="45.97286126907003" lon="12.108228474907847"><ele>579.0</ele><time>2026-03-24T10:11:53Z</time></trkpt><trkpt lat="45.972788766962616" lon="12.108245575405572"><ele>579.3333333333334</ele><time>2026-03-24T10:11:54Z</time></trkpt><trkpt lat="45.97272672004869" lon="12.10822942908773"><ele>579.6666666666666</ele><time>2026-03-24T10:11:55Z</time></trkpt><trkpt lat="45.97268656085735" lon="12.108150656538667"><ele>580.0</ele><time>2026-03-24T10:11:56Z</time></trkpt><trkpt lat="45.972606031116854" lon="12.108056774863503"><ele>580.3333333333333</ele><time>2026-03-24T10:11:57Z</time></trkpt><trkpt lat="45.97253282995534" lon="12.10792590774302"><ele>580.6666666666666</ele><time>2026-03-24T10:11:58Z</time></trkpt><trkpt lat="45.972490042939725" lon="12.107808142026943"><ele>581.0</ele><time>2026-03-24T10:11:59Z</time></trkpt><trkpt lat="45.972446625720345" lon="12.107676861419499"><ele>581.0</ele><time>2026-03-24T10:12:00Z</time></trkpt><trkpt lat="45.972442545054456" lon="12.107475849148361"><ele>581.0</ele><time>2026-03-24T10:12:01Z</time></trkpt><trkpt lat="45.972457842561425" lon="12.107274946153105"><ele>581.0</ele><time>2026-03-24T10:12:02Z</time></trkpt><trkpt lat="45.972461879673446" lon="12.10713649189822"><ele>581.0</ele><time>2026-03-24T10:12:03Z</time></trkpt><trkpt lat="45.972508276050284" lon="12.107060929254795"><ele>581.0</ele><time>2026-03-24T10:12:05Z</time></trkpt><trkpt lat="45.97252789500847" lon="12.10717800267832"><ele>584.4</ele><time>2026-03-24T10:12:06Z</time></trkpt><trkpt lat="45.97251970457901" lon="12.107345921638515"><ele>587.8</ele><time>2026-03-24T10:12:09Z</time></trkpt><trkpt lat="45.972555508533915" lon="12.10751152967008"><ele>591.1999999999999</ele><time>2026-03-24T10:12:10Z</time></trkpt><trkpt lat="45.97259369764132" lon="12.107660537446675"><ele>594.6</ele><time>2026-03-24T10:12:11Z</time></trkpt><trkpt lat="45.972613648259376" lon="12.107771562429805"><ele>598.0</ele><time>2026-03-24T10:12:12Z</time></trkpt><trkpt lat="45.972678148881194" lon="12.10788146015753"><ele>598.0</ele><time>2026-03-24T10:12:14Z</time></trkpt><trkpt lat="45.97275871666943" lon="12.107817009816962"><ele>598.0</ele><time>2026-03-24T10:12:15Z</time></trkpt><trkpt lat="45.972812044247" lon="12.107692812510072"><ele>598.0</ele><time>2026-03-24T10:12:16Z</time></trkpt><trkpt lat="45.972865691261816" lon="12.10757703971587"><ele>598.0</ele><time>2026-03-24T10:12:17Z</time></trkpt><trkpt lat="45.972940483612284" lon="12.107456193744023"><ele>598.0</ele><time>2026-03-24T10:12:18Z</time></trkpt><trkpt lat="45.973010136108726" lon="12.107327627131196"><ele>602.4</ele><time>2026-03-24T10:12:19Z</time></trkpt><trkpt lat="45.97308899747383" lon="12.107184013072631"><ele>606.8</ele><time>2026-03-24T10:12:20Z</time></trkpt><trkpt lat="45.97317994165356" lon="12.107084381019355"><ele>611.2</ele><time>2026-03-24T10:12:21Z</time></trkpt><trkpt lat="45.97324208899861" lon="12.107013517999569"><ele>615.6</ele><time>2026-03-24T10:12:22Z</time></trkpt><trkpt lat="45.9733552115623" lon="12.107004503445223"><ele>620.0</ele><time>2026-03-24T10:12:24Z</time></trkpt><trkpt lat="45.973418266243186" lon="12.107129426567889"><ele>619.25</ele><time>2026-03-24T10:12:25Z</time></trkpt><trkpt lat="45.973477101390394" lon="12.107257690606575"><ele>618.5</ele><time>2026-03-24T10:12:26Z</time></trkpt><trkpt lat="45.97353383195715" lon="12.10738019241603"><ele>617.75</ele><time>2026-03-24T10:12:27Z</time></trkpt><trkpt lat="45.97361976423368" lon="12.107495011857493"><ele>617.0</ele><time>2026-03-24T10:12:28Z</time></trkpt><trkpt lat="45.973719134354425" lon="12.107603707129485"><ele>617.0</ele><time>2026-03-24T10:12:29Z</time></trkpt><trkpt lat="45.973810140067535" lon="12.107682673012361"><ele>617.0</ele><time>2026-03-24T10:12:30Z</time></trkpt><trkpt lat="45.973894391848205" lon="12.107716076557796"><ele>617.0</ele><time>2026-03-24T10:12:31Z</time></trkpt><trkpt lat="45.97397504468974" lon="12.107763675228314"><ele>617.0</ele><time>2026-03-24T10:12:32Z</time></trkpt><trkpt lat="45.97407387840704" lon="12.1077542959889"><ele>617.0</ele><time>2026-03-24T10:12:33Z</time></trkpt><trkpt lat="45.97417633118709" lon="12.10778873236877"><ele>613.8333333333333</ele><time>2026-03-24T10:12:34Z</time></trkpt><trkpt lat="45.974265336252834" lon="12.107788614818611"><ele>610.6666666666666</ele><time>2026-03-24T10:12:35Z</time></trkpt><trkpt lat="45.9743329639525" lon="12.107809299886465"><ele>607.5</ele><time>2026-03-24T10:12:36Z</time></trkpt><trkpt lat="45.974396849293754" lon="12.107701185397383"><ele>604.3333333333334</ele><time>2026-03-24T10:12:38Z</time></trkpt><trkpt lat="45.974378536857245" lon="12.107605036949517"><ele>601.1666666666667</ele><time>2026-03-24T10:12:39Z</time></trkpt><trkpt lat="45.97431385603823" lon="12.107526836950106"><ele>598.0</ele><time>2026-03-24T10:12:40Z</time></trkpt><trkpt lat="45.97423315836254" lon="12.107451080842601"><ele>606.4</ele><time>2026-03-24T10:12:41Z</time></trkpt><trkpt lat="45.974155975047715" lon="12.107326150521923"><ele>614.8</ele><time>2026-03-24T10:12:42Z</time></trkpt><trkpt lat="45.974064952773354" lon="12.107225668660336"><ele>623.2</ele><time>2026-03-24T10:12:43Z</time></trkpt><trkpt lat="45.97398530464368" lon="12.107108294681623"><ele>631.6</ele><time>2026-03-24T10:12:44Z</time></trkpt><trkpt lat="45.97391587710192" lon="12.107006311277738"><ele>640.0</ele><time>2026-03-24T10:12:45Z</time></trkpt><trkpt lat="45.97384378448934" lon="12.10690122148278"><ele>640.0</ele><time>2026-03-24T10:12:46Z</time></trkpt><trkpt lat="45.9737864729755" lon="12.106759150248713"><ele>640.0</ele><time>2026-03-24T10:12:47Z</time></trkpt><trkpt lat="45.97373009199448" lon="12.10661077448601"><ele>640.0</ele><time>2026-03-24T10:12:48Z</time></trkpt><trkpt lat="45.973676999546456" lon="12.106476489750213"><ele>640.0</ele><time>2026-03-24T10:12:49Z</time></trkpt><trkpt lat="45.973633328694895" lon="12.106355706938514"><ele>640.0</ele><time>2026-03-24T10:12:50Z</time></trkpt><trkpt lat="45.973600484815826" lon="12.10619562825335"><ele>644.0</ele><time>2026-03-24T10:12:51Z</time></trkpt><trkpt lat="45.97357669729257" lon="12.106022789467206"><ele>648.0</ele><time>2026-03-24T10:12:52Z</time></trkpt><trkpt lat="45.973554589566376" lon="12.105867075554363"><ele>652.0</ele><time>2026-03-24T10:12:53Z</time></trkpt><trkpt lat="45.9735539219794" lon="12.105753417524264"><ele>656.0</ele><time>2026-03-24T10:12:54Z</time></trkpt><trkpt lat="45.97354044978575" lon="12.10565976459241"><ele>660.0</ele><time>2026-03-24T10:12:55Z</time></trkpt><trkpt lat="45.973419845806504" lon="12.105613808278383"><ele>660.8</ele><time>2026-03-24T10:12:57Z</time></trkpt><trkpt lat="45.97334518251217" lon="12.105616380215773"><ele>661.6</ele><time>2026-03-24T10:12:58Z</time></trkpt><trkpt lat="45.97325289261708" lon="12.10566752610224"><ele>662.4000000000001</ele><time>2026-03-24T10:12:59Z</time></trkpt><trkpt lat="45.9731585980671" lon="12.105729837656767"><ele>663.2</ele><time>2026-03-24T10:13:00Z</time></trkpt><trkpt lat="45.97306750051708" lon="12.105777565764283"><ele>664.0</ele><time>2026-03-24T10:13:01Z</time></trkpt><trkpt lat="45.97298303262359" lon="12.105800973671768"><ele>664.0</ele><time>2026-03-24T10:13:02Z</time></trkpt><trkpt lat="45.97291762844345" lon="12.105744012956285"><ele>664.0</ele><time>2026-03-24T10:13:03Z</time></trkpt><trkpt lat="45.972908294623025" lon="12.105639229395285"><ele>664.0</ele><time>2026-03-24T10:13:04Z</time></trkpt><trkpt lat="45.97289793532931" lon="12.10544136585235"><ele>664.0</ele><time>2026-03-24T10:13:06Z</time></trkpt><trkpt lat="45.9728933099998" lon="12.105282421588985"><ele>664.0</ele><time>2026-03-24T10:13:07Z</time></trkpt><trkpt lat="45.97285994139705" lon="12.105141031419736"><ele>664.0</ele><time>2026-03-24T10:13:08Z</time></trkpt><trkpt lat="45.972844756399724" lon="12.105012369711984"><ele>664.0</ele><time>2026-03-24T10:13:09Z</time></trkpt><trkpt lat="45.972798720983405" lon="12.104923143047522"><ele>664.0</ele><time>2026-03-24T10:13:10Z</time></trkpt><trkpt lat="45.97272635637411" lon="12.104870980709231"><ele>664.0</ele><time>2026-03-24T10:13:12Z</time></trkpt><trkpt lat="45.97265792919778" lon="12.104900136574276"><ele>664.0</ele><time>2026-03-24T10:13:14Z</time></trkpt><trkpt lat="45.97257593721616" lon="12.104920215003203"><ele>664.0</ele><time>2026-03-24T10:13:15Z</time></trkpt><trkpt lat="45.97249563343218" lon="12.105055820560803"><ele>664.2</ele><time>2026-03-24T10:13:16Z</time></trkpt><trkpt lat="45.9724442169688" lon="12.105197976300884"><ele>664.4000000000001</ele><time>2026-03-24T10:13:17Z</time></trkpt><trkpt lat="45.972370896183016" lon="12.105301968689545"><ele>664.6</ele><time>2026-03-24T10:13:18Z</time></trkpt><trkpt lat="45.97232950529673" lon="12.105386755073358"><ele>664.8</ele><time>2026-03-24T10:13:19Z</time></trkpt><trkpt lat="45.97227182207458" lon="12.105446253311333"><ele>665.0</ele><time>2026-03-24T10:13:20Z</time></trkpt><trkpt lat="45.9721741722285" lon="12.105478922020044"><ele>665.0</ele><time>2026-03-24T10:13:21Z</time></trkpt><trkpt lat="45.97206128950698" lon="12.105518830049943"><ele>665.0</ele><time>2026-03-24T10:13:22Z</time></trkpt><trkpt lat="45.971957165368465" lon="12.105525532227396"><ele>665.0</ele><time>2026-03-24T10:13:23Z</time></trkpt><trkpt lat="45.97183670274188" lon="12.105497331302907"><ele>665.0</ele><time>2026-03-24T10:13:24Z</time></trkpt><trkpt lat="45.97170328415738" lon="12.105472516870035"><ele>669.0</ele><time>2026-03-24T10:13:25Z</time></trkpt><trkpt lat="45.971577217044995" lon="12.105486590701505"><ele>673.0</ele><time>2026-03-24T10:13:26Z</time></trkpt><trkpt lat="45.97146739210752" lon="12.105504961912338"><ele>677.0</ele><time>2026-03-24T10:13:27Z</time></trkpt><trkpt lat="45.971365822830094" lon="12.105495931043437"><ele>681.0</ele><time>2026-03-24T10:13:28Z</time></trkpt><trkpt lat="45.97127098799009" lon="12.105472206956826"><ele>685.0</ele><time>2026-03-24T10:13:29Z</time></trkpt><trkpt lat="45.97117873592577" lon="12.105465812046994"><ele>685.0</ele><time>2026-03-24T10:13:30Z</time></trkpt><trkpt lat="45.9710875443245" lon="12.105462120080654"><ele>685.0</ele><time>2026-03-24T10:13:31Z</time></trkpt><trkpt lat="45.971000527387496" lon="12.105459554574473"><ele>685.0</ele><time>2026-03-24T10:13:32.001Z</time></trkpt><trkpt lat="45.97090724854022" lon="12.105458700489438"><ele>685.0</ele><time>2026-03-24T10:13:33.001Z</time></trkpt><trkpt lat="45.97080912944712" lon="12.105460683482752"><ele>685.0</ele><time>2026-03-24T10:13:34.001Z</time></trkpt><trkpt lat="45.970698475596656" lon="12.105478663647315"><ele>690.75</ele><time>2026-03-24T10:13:35.001Z</time></trkpt><trkpt lat="45.970581394731255" lon="12.105468355369235"><ele>696.5</ele><time>2026-03-24T10:13:36.001Z</time></trkpt><trkpt lat="45.970456997840934" lon="12.105464476661187"><ele>702.25</ele><time>2026-03-24T10:13:37.001Z</time></trkpt><trkpt lat="45.97033403561856" lon="12.105510992641987"><ele>708.0</ele><time>2026-03-24T10:13:38.001Z</time></trkpt><trkpt lat="45.97023886516917" lon="12.10554513064954"><ele>708.0</ele><time>2026-03-24T10:13:39.001Z</time></trkpt><trkpt lat="45.97016887763785" lon="12.105581579972164"><ele>708.0</ele><time>2026-03-24T10:13:40.001Z</time></trkpt><trkpt lat="45.97006714945586" lon="12.105671414410677"><ele>708.0</ele><time>2026-03-24T10:13:42.001Z</time></trkpt><trkpt lat="45.97001851677125" lon="12.105733828654532"><ele>708.0</ele><time>2026-03-24T10:13:43.001Z</time></trkpt><trkpt lat="45.969951711548376" lon="12.105831770042695"><ele>708.0</ele><time>2026-03-24T10:13:44Z</time></trkpt><trkpt lat="45.96988527191465" lon="12.10594255816056"><ele>705.5999999999999</ele><time>2026-03-24T10:13:45Z</time></trkpt><trkpt lat="45.969838062974915" lon="12.106083729445947"><ele>703.1999999999999</ele><time>2026-03-24T10:13:46Z</time></trkpt><trkpt lat="45.96978787648975" lon="12.106182031207627"><ele>700.8</ele><time>2026-03-24T10:13:47Z</time></trkpt><trkpt lat="45.96975119046709" lon="12.10628094472257"><ele>698.4</ele><time>2026-03-24T10:13:48Z</time></trkpt><trkpt lat="45.96972464424067" lon="12.106419480358769"><ele>696.0</ele><time>2026-03-24T10:13:49Z</time></trkpt><trkpt lat="45.96966219027574" lon="12.106495157398571"><ele>693.2857142857142</ele><time>2026-03-24T10:13:50Z</time></trkpt><trkpt lat="45.96964982485418" lon="12.10661481955635"><ele>690.5714285714286</ele><time>2026-03-24T10:13:51Z</time></trkpt><trkpt lat="45.969619471556854" lon="12.106728724436334"><ele>687.8571428571429</ele><time>2026-03-24T10:13:52Z</time></trkpt><trkpt lat="45.96960961897769" lon="12.106824271510716"><ele>685.1428571428571</ele><time>2026-03-24T10:13:53Z</time></trkpt><trkpt lat="45.96956208740694" lon="12.1068930175011"><ele>682.4285714285714</ele><time>2026-03-24T10:13:54Z</time></trkpt><trkpt lat="45.96950795392674" lon="12.106961978219577"><ele>679.7142857142857</ele><time>2026-03-24T10:13:55Z</time></trkpt><trkpt lat="45.96945538351138" lon="12.107035513827192"><ele>677.0</ele><time>2026-03-24T10:13:56Z</time></trkpt><trkpt lat="45.96936683185524" lon="12.107132962514726"><ele>677.0</ele><time>2026-03-24T10:13:57Z</time></trkpt><trkpt lat="45.96927278637716" lon="12.107213067371902"><ele>677.0</ele><time>2026-03-24T10:13:58Z</time></trkpt><trkpt lat="45.96913187919021" lon="12.10720870331416"><ele>677.0</ele><time>2026-03-24T10:13:59Z</time></trkpt><trkpt lat="45.96900078589751" lon="12.107266851151268"><ele>677.0</ele><time>2026-03-24T10:14:00Z</time></trkpt><trkpt lat="45.96890428439212" lon="12.10734372397469"><ele>680.0</ele><time>2026-03-24T10:14:01Z</time></trkpt><trkpt lat="45.968826108436794" lon="12.107422423948485"><ele>683.0</ele><time>2026-03-24T10:14:02Z</time></trkpt><trkpt lat="45.9687336784236" lon="12.107522775993935"><ele>686.0</ele><time>2026-03-24T10:14:03Z</time></trkpt><trkpt lat="45.96864189652289" lon="12.107653657836826"><ele>689.0</ele><time>2026-03-24T10:14:04Z</time></trkpt><trkpt lat="45.96853188511201" lon="12.107776209774997"><ele>689.0</ele><time>2026-03-24T10:14:05Z</time></trkpt><trkpt lat="45.96842841469271" lon="12.107869564974287"><ele>689.0</ele><time>2026-03-24T10:14:06Z</time></trkpt><trkpt lat="45.96833139016881" lon="12.107956681645986"><ele>689.0</ele><time>2026-03-24T10:14:07Z</time></trkpt><trkpt lat="45.96826096776584" lon="12.108053059362037"><ele>689.0</ele><time>2026-03-24T10:14:08Z</time></trkpt><trkpt lat="45.96819211157584" lon="12.108142302043655"><ele>689.0</ele><time>2026-03-24T10:14:09Z</time></trkpt><trkpt lat="45.96812447633217" lon="12.108211876737178"><ele>691.0</ele><time>2026-03-24T10:14:10Z</time></trkpt><trkpt lat="45.96804140126781" lon="12.108297094581472"><ele>693.0</ele><time>2026-03-24T10:14:11Z</time></trkpt><trkpt lat="45.9679416842377" lon="12.108401565611654"><ele>695.0</ele><time>2026-03-24T10:14:12Z</time></trkpt><trkpt lat="45.96783243592348" lon="12.108530528009096"><ele>697.0</ele><time>2026-03-24T10:14:13Z</time></trkpt><trkpt lat="45.96772696423683" lon="12.108691135087778"><ele>697.0</ele><time>2026-03-24T10:14:14Z</time></trkpt><trkpt lat="45.96759616357668" lon="12.10881367295122"><ele>697.0</ele><time>2026-03-24T10:14:15Z</time></trkpt><trkpt lat="45.96749680090657" lon="12.108997640082642"><ele>697.0</ele><time>2026-03-24T10:14:16Z</time></trkpt><trkpt lat="45.9674113712029" lon="12.10914009670723"><ele>697.0</ele><time>2026-03-24T10:14:17Z</time></trkpt><trkpt lat="45.96732650658601" lon="12.109282784625634"><ele>701.0</ele><time>2026-03-24T10:14:18Z</time></trkpt><trkpt lat="45.96724016580723" lon="12.109427607393863"><ele>705.0</ele><time>2026-03-24T10:14:19Z</time></trkpt><trkpt lat="45.96715882526988" lon="12.109566234732677"><ele>709.0</ele><time>2026-03-24T10:14:20Z</time></trkpt><trkpt lat="45.96707768778992" lon="12.109712396858972"><ele>713.0</ele><time>2026-03-24T10:14:21Z</time></trkpt><trkpt lat="45.96700943956151" lon="12.1098534594438"><ele>708.25</ele><time>2026-03-24T10:14:22Z</time></trkpt><trkpt lat="45.966953964232275" lon="12.109999629642587"><ele>703.5</ele><time>2026-03-24T10:14:23Z</time></trkpt><trkpt lat="45.9669138384856" lon="12.110166598665183"><ele>698.75</ele><time>2026-03-24T10:14:24Z</time></trkpt><trkpt lat="45.966868544128545" lon="12.110344525481825"><ele>694.0</ele><time>2026-03-24T10:14:25Z</time></trkpt><trkpt lat="45.96683330622771" lon="12.110529148304918"><ele>694.0</ele><time>2026-03-24T10:14:26Z</time></trkpt><trkpt lat="45.96681156579417" lon="12.1107012673945"><ele>694.0</ele><time>2026-03-24T10:14:27Z</time></trkpt><trkpt lat="45.96680547962063" lon="12.110892038630727"><ele>694.0</ele><time>2026-03-24T10:14:28Z</time></trkpt><trkpt lat="45.96681005410889" lon="12.111069139287169"><ele>694.0</ele><time>2026-03-24T10:14:29Z</time></trkpt><trkpt lat="45.96681590290049" lon="12.111222066095515"><ele>694.2</ele><time>2026-03-24T10:14:30Z</time></trkpt><trkpt lat="45.96682247539768" lon="12.111392913473061"><ele>694.4000000000001</ele><time>2026-03-24T10:14:31Z</time></trkpt><trkpt lat="45.966829972831" lon="12.111522177303488"><ele>694.6</ele><time>2026-03-24T10:14:32Z</time></trkpt><trkpt lat="45.966834165690244" lon="12.111618523331451"><ele>694.8</ele><time>2026-03-24T10:14:33Z</time></trkpt><trkpt lat="45.966830022214126" lon="12.111774864947177"><ele>695.0</ele><time>2026-03-24T10:14:35Z</time></trkpt><trkpt lat="45.96672518779864" lon="12.11192563571407"><ele>701.6</ele><time>2026-03-24T10:14:39Z</time></trkpt><trkpt lat="45.96658991887757" lon="12.111923294811914"><ele>708.2</ele><time>2026-03-24T10:14:40Z</time></trkpt><trkpt lat="45.96646282725037" lon="12.111901748903268"><ele>714.8</ele><time>2026-03-24T10:14:41Z</time></trkpt><trkpt lat="45.96635512600174" lon="12.11188313225844"><ele>721.4</ele><time>2026-03-24T10:14:42Z</time></trkpt><trkpt lat="45.96628217091218" lon="12.111870860731688"><ele>728.0</ele><time>2026-03-24T10:14:43Z</time></trkpt><trkpt lat="45.96620100445266" lon="12.111856491843252"><ele>728.0</ele><time>2026-03-24T10:14:44Z</time></trkpt><trkpt lat="45.96611292230477" lon="12.111841266556144"><ele>728.0</ele><time>2026-03-24T10:14:45Z</time></trkpt><trkpt lat="45.96602348106144" lon="12.11163240602487"><ele>728.0</ele><time>2026-03-24T10:14:46Z</time></trkpt><trkpt lat="45.96592118930699" lon="12.111529374174035"><ele>728.0</ele><time>2026-03-24T10:14:47Z</time></trkpt><trkpt lat="45.96582282805696" lon="12.11139517958916"><ele>736.5</ele><time>2026-03-24T10:14:48Z</time></trkpt><trkpt lat="45.965712824781015" lon="12.111267438087241"><ele>745.0</ele><time>2026-03-24T10:14:49Z</time></trkpt><trkpt lat="45.965587900801" lon="12.111180938657181"><ele>753.5</ele><time>2026-03-24T10:14:50Z</time></trkpt><trkpt lat="45.965476459143" lon="12.111150969902205"><ele>762.0</ele><time>2026-03-24T10:14:51Z</time></trkpt><trkpt lat="45.96537388666535" lon="12.111151787534562"><ele>762.0</ele><time>2026-03-24T10:14:52Z</time></trkpt><trkpt lat="45.96529064085471" lon="12.111161487264768"><ele>762.0</ele><time>2026-03-24T10:14:53Z</time></trkpt><trkpt lat="45.9652042031142" lon="12.111113027457963"><ele>762.0</ele><time>2026-03-24T10:14:54Z</time></trkpt><trkpt lat="45.965112821032996" lon="12.111025174668852"><ele>762.0</ele><time>2026-03-24T10:14:55Z</time></trkpt><trkpt lat="45.965011997303456" lon="12.110941104413179"><ele>762.0</ele><time>2026-03-24T10:14:56Z</time></trkpt><trkpt lat="45.96490339127833" lon="12.110932138173311"><ele>760.0</ele><time>2026-03-24T10:14:57Z</time></trkpt><trkpt lat="45.96477487348007" lon="12.110955296316622"><ele>758.0</ele><time>2026-03-24T10:14:58Z</time></trkpt><trkpt lat="45.964656297395976" lon="12.11099844150841"><ele>756.0</ele><time>2026-03-24T10:14:59Z</time></trkpt><trkpt lat="45.9645462052599" lon="12.11101166270406"><ele>754.0</ele><time>2026-03-24T10:15:00Z</time></trkpt><trkpt lat="45.96443012241826" lon="12.110986613856422"><ele>754.0</ele><time>2026-03-24T10:15:01Z</time></trkpt><trkpt lat="45.96431871108948" lon="12.110925839328768"><ele>754.0</ele><time>2026-03-24T10:15:02Z</time></trkpt><trkpt lat="45.96418625803736" lon="12.110871314010735"><ele>754.0</ele><time>2026-03-24T10:15:03Z</time></trkpt><trkpt lat="45.964058282856804" lon="12.1108288810078"><ele>754.0</ele><time>2026-03-24T10:15:04Z</time></trkpt><trkpt lat="45.96394580541723" lon="12.110821821008319"><ele>752.2</ele><time>2026-03-24T10:15:05Z</time></trkpt><trkpt lat="45.96383597720913" lon="12.110823738793567"><ele>750.4000000000001</ele><time>2026-03-24T10:15:06Z</time></trkpt><trkpt lat="45.96373444242066" lon="12.11082136663203"><ele>748.6</ele><time>2026-03-24T10:15:07Z</time></trkpt><trkpt lat="45.96364523149271" lon="12.1108564092212"><ele>746.8</ele><time>2026-03-24T10:15:08Z</time></trkpt><trkpt lat="45.96357589565945" lon="12.110924555761043"><ele>745.0</ele><time>2026-03-24T10:15:09Z</time></trkpt><trkpt lat="45.96352478239284" lon="12.111014925272933"><ele>745.0</ele><time>2026-03-24T10:15:10Z</time></trkpt><trkpt lat="45.963454664038956" lon="12.111058059201486"><ele>745.0</ele><time>2026-03-24T10:15:11.001Z</time></trkpt><trkpt lat="45.96336001987803" lon="12.111046697126499"><ele>745.0</ele><time>2026-03-24T10:15:12.001Z</time></trkpt><trkpt lat="45.9632572873646" lon="12.11097235738844"><ele>745.0</ele><time>2026-03-24T10:15:13.001Z</time></trkpt><trkpt lat="45.963148661180334" lon="12.110900750078931"><ele>745.0</ele><time>2026-03-24T10:15:14.001Z</time></trkpt><trkpt lat="45.963057381370206" lon="12.110839542883598"><ele>751.4</ele><time>2026-03-24T10:15:15.001Z</time></trkpt><trkpt lat="45.962971897406646" lon="12.110740023040822"><ele>757.8</ele><time>2026-03-24T10:15:16.001Z</time></trkpt><trkpt lat="45.962905244750814" lon="12.1106370010074"><ele>764.2</ele><time>2026-03-24T10:15:17.001Z</time></trkpt><trkpt lat="45.96288381402668" lon="12.110509212679112"><ele>770.6</ele><time>2026-03-24T10:15:18.001Z</time></trkpt><trkpt lat="45.962879988862774" lon="12.110390511351792"><ele>777.0</ele><time>2026-03-24T10:15:19.001Z</time></trkpt><trkpt lat="45.962861791856824" lon="12.11024567969351"><ele>777.0</ele><time>2026-03-24T10:15:20.001Z</time></trkpt><trkpt lat="45.96283054045502" lon="12.110111595926465"><ele>777.0</ele><time>2026-03-24T10:15:21.001Z</time></trkpt><trkpt lat="45.96279150607215" lon="12.110001422363371"><ele>777.0</ele><time>2026-03-24T10:15:22.001Z</time></trkpt><trkpt lat="45.962726619303474" lon="12.10993246723783"><ele>777.0</ele><time>2026-03-24T10:15:23.001Z</time></trkpt><trkpt lat="45.9626400174597" lon="12.109900614294794"><ele>777.0</ele><time>2026-03-24T10:15:24.001Z</time></trkpt><trkpt lat="45.9625675830154" lon="12.109901659009196"><ele>777.0</ele><time>2026-03-24T10:15:25.001Z</time></trkpt><trkpt lat="45.962466631984675" lon="12.10993394963948"><ele>778.1666666666666</ele><time>2026-03-24T10:15:26.001Z</time></trkpt><trkpt lat="45.96238195266481" lon="12.109994910534336"><ele>779.3333333333333</ele><time>2026-03-24T10:15:27.001Z</time></trkpt><trkpt lat="45.96230493893429" lon="12.11001790786731"><ele>780.5</ele><time>2026-03-24T10:15:28.001Z</time></trkpt><trkpt lat="45.962216469918474" lon="12.109985256256143"><ele>781.6666666666666</ele><time>2026-03-24T10:15:29.001Z</time></trkpt><trkpt lat="45.962152157940956" lon="12.109901107108767"><ele>782.8333333333333</ele><time>2026-03-24T10:15:30.001Z</time></trkpt><trkpt lat="45.962086282763906" lon="12.109818477397601"><ele>784.0</ele><time>2026-03-24T10:15:31.001Z</time></trkpt><trkpt lat="45.962034429123584" lon="12.109738175893705"><ele>784.0</ele><time>2026-03-24T10:15:32.001Z</time></trkpt><trkpt lat="45.96200740822907" lon="12.109640359415518"><ele>784.0</ele><time>2026-03-24T10:15:33.001Z</time></trkpt><trkpt lat="45.96203162501327" lon="12.109479975697138"><ele>784.0</ele><time>2026-03-24T10:15:34.001Z</time></trkpt><trkpt lat="45.962056548604345" lon="12.109343097648091"><ele>784.0</ele><time>2026-03-24T10:15:35.001Z</time></trkpt><trkpt lat="45.96208174455104" lon="12.109186764868783"><ele>784.0</ele><time>2026-03-24T10:15:36.001Z</time></trkpt><trkpt lat="45.962115313754104" lon="12.109034566442663"><ele>785.0</ele><time>2026-03-24T10:15:37.001Z</time></trkpt><trkpt lat="45.9621549376078" lon="12.108905297625109"><ele>786.0</ele><time>2026-03-24T10:15:38.001Z</time></trkpt><trkpt lat="45.96221766191015" lon="12.108817590726039"><ele>787.0</ele><time>2026-03-24T10:15:39.001Z</time></trkpt><trkpt lat="45.96229955359345" lon="12.108745237157619"><ele>788.0</ele><time>2026-03-24T10:15:40.001Z</time></trkpt><trkpt lat="45.962403441465334" lon="12.108685082694024"><ele>789.0</ele><time>2026-03-24T10:15:41.001Z</time></trkpt><trkpt lat="45.96251069074451" lon="12.108642390536108"><ele>794.6666666666666</ele><time>2026-03-24T10:15:42.001Z</time></trkpt><trkpt lat="45.9626003701874" lon="12.108588908292205"><ele>800.3333333333333</ele><time>2026-03-24T10:15:43.001Z</time></trkpt><trkpt lat="45.96265756637775" lon="12.108504423870604"><ele>806.0</ele><time>2026-03-24T10:15:44.001Z</time></trkpt><trkpt lat="45.962696870177346" lon="12.108397010034661"><ele>811.6666666666666</ele><time>2026-03-24T10:15:45.001Z</time></trkpt><trkpt lat="45.96270815262962" lon="12.108282798833118"><ele>817.3333333333333</ele><time>2026-03-24T10:15:46.001Z</time></trkpt><trkpt lat="45.96268184503885" lon="12.108180589050043"><ele>823.0</ele><time>2026-03-24T10:15:47.001Z</time></trkpt><trkpt lat="45.96263814846293" lon="12.108112164872136"><ele>825.4</ele><time>2026-03-24T10:15:48.001Z</time></trkpt><trkpt lat="45.96255765084098" lon="12.108058209942755"><ele>827.8</ele><time>2026-03-24T10:15:49.001Z</time></trkpt><trkpt lat="45.96246617703946" lon="12.107988450589858"><ele>830.2</ele><time>2026-03-24T10:15:50Z</time></trkpt><trkpt lat="45.96241002562555" lon="12.107903874946631"><ele>832.6</ele><time>2026-03-24T10:15:51Z</time></trkpt><trkpt lat="45.96233960905513" lon="12.107781337180946"><ele>835.0</ele><time>2026-03-24T10:15:52Z</time></trkpt><trkpt lat="45.962280467089336" lon="12.107667740675096"><ele>833.8</ele><time>2026-03-24T10:15:53Z</time></trkpt><trkpt lat="45.96224515415019" lon="12.107548799296765"><ele>832.6</ele><time>2026-03-24T10:15:54Z</time></trkpt><trkpt lat="45.96222885138821" lon="12.107402030396893"><ele>831.4000000000001</ele><time>2026-03-24T10:15:55Z</time></trkpt><trkpt lat="45.962239479078036" lon="12.10724774103203"><ele>830.2</ele><time>2026-03-24T10:15:56Z</time></trkpt><trkpt lat="45.96225247399111" lon="12.10712296418131"><ele>829.0</ele><time>2026-03-24T10:15:57Z</time></trkpt><trkpt lat="45.96226879807858" lon="12.10701543392231"><ele>828.9999999999999</ele><time>2026-03-24T10:15:58Z</time></trkpt><trkpt lat="45.9622308242094" lon="12.106934687241631"><ele>829.0</ele><time>2026-03-24T10:15:59Z</time></trkpt><trkpt lat="45.962171670451475" lon="12.106890658849043"><ele>829.0</ele><time>2026-03-24T10:16:00Z</time></trkpt><trkpt lat="45.962089931457996" lon="12.10687679543185"><ele>829.0</ele><time>2026-03-24T10:16:01Z</time></trkpt><trkpt lat="45.962000221750024" lon="12.106893201471616"><ele>828.9999999999999</ele><time>2026-03-24T10:16:02Z</time></trkpt><trkpt lat="45.96191188709485" lon="12.106901508747637"><ele>829.0</ele><time>2026-03-24T10:16:03Z</time></trkpt><trkpt lat="45.961816853124134" lon="12.106760140153726"><ele>829.0</ele><time>2026-03-24T10:16:05Z</time></trkpt><trkpt lat="45.96176838360207" lon="12.106622812381124"><ele>829.0</ele><time>2026-03-24T10:16:06Z</time></trkpt><trkpt lat="45.96170854770953" lon="12.106483119274724"><ele>829.0</ele><time>2026-03-24T10:16:07Z</time></trkpt><trkpt lat="45.96162311675187" lon="12.10633622042659"><ele>829.0</ele><time>2026-03-24T10:16:08Z</time></trkpt><trkpt lat="45.961519121009395" lon="12.106188124184866"><ele>828.3333333333333</ele><time>2026-03-24T10:16:09Z</time></trkpt><trkpt lat="45.961407572149405" lon="12.106031342757896"><ele>827.6666666666667</ele><time>2026-03-24T10:16:10Z</time></trkpt><trkpt lat="45.96128974763996" lon="12.10586869804612"><ele>827.0</ele><time>2026-03-24T10:16:11Z</time></trkpt><trkpt lat="45.96119230508443" lon="12.105719570566638"><ele>831.5</ele><time>2026-03-24T10:16:12Z</time></trkpt><trkpt lat="45.96110762048499" lon="12.105586575638219"><ele>836.0</ele><time>2026-03-24T10:16:13Z</time></trkpt><trkpt lat="45.96103094125367" lon="12.105446394688547"><ele>840.5</ele><time>2026-03-24T10:16:14Z</time></trkpt><trkpt lat="45.960956795092166" lon="12.105312521499808"><ele>845.0</ele><time>2026-03-24T10:16:15Z</time></trkpt><trkpt lat="45.960885261194136" lon="12.10517936570989"><ele>841.2</ele><time>2026-03-24T10:16:16Z</time></trkpt><trkpt lat="45.96081847587924" lon="12.105063390609244"><ele>837.4</ele><time>2026-03-24T10:16:17Z</time></trkpt><trkpt lat="45.96075585188381" lon="12.104948204905762"><ele>833.5999999999999</ele><time>2026-03-24T10:16:18Z</time></trkpt><trkpt lat="45.96070263815697" lon="12.104822656526428"><ele>829.8</ele><time>2026-03-24T10:16:19Z</time></trkpt><trkpt lat="45.96067097483004" lon="12.104674114643428"><ele>826.0</ele><time>2026-03-24T10:16:20Z</time></trkpt><trkpt lat="45.96062625584198" lon="12.104556728459771"><ele>826.0</ele><time>2026-03-24T10:16:21Z</time></trkpt><trkpt lat="45.96053769873946" lon="12.104461380555799"><ele>826.0</ele><time>2026-03-24T10:16:22Z</time></trkpt><trkpt lat="45.960447771975765" lon="12.104363942940905"><ele>826.0</ele><time>2026-03-24T10:16:23Z</time></trkpt><trkpt lat="45.96037655598373" lon="12.104254435462227"><ele>826.0</ele><time>2026-03-24T10:16:24Z</time></trkpt><trkpt lat="45.960323231756625" lon="12.10414640073507"><ele>826.0</ele><time>2026-03-24T10:16:25Z</time></trkpt><trkpt lat="45.96028335774763" lon="12.104016922172894"><ele>825.5</ele><time>2026-03-24T10:16:26Z</time></trkpt><trkpt lat="45.96027020308338" lon="12.103831125428247"><ele>825.0</ele><time>2026-03-24T10:16:27Z</time></trkpt><trkpt lat="45.9602369353298" lon="12.103657970026822"><ele>824.5</ele><time>2026-03-24T10:16:28Z</time></trkpt><trkpt lat="45.96021215701881" lon="12.103485344787739"><ele>824.0</ele><time>2026-03-24T10:16:29Z</time></trkpt><trkpt lat="45.96021375446887" lon="12.103329443976802"><ele>824.2</ele><time>2026-03-24T10:16:30Z</time></trkpt><trkpt lat="45.960231653702586" lon="12.10316051640034"><ele>824.4000000000001</ele><time>2026-03-24T10:16:31Z</time></trkpt><trkpt lat="45.96025936664339" lon="12.103015405982823"><ele>824.6</ele><time>2026-03-24T10:16:32Z</time></trkpt><trkpt lat="45.9602918076101" lon="12.10285495620675"><ele>824.8</ele><time>2026-03-24T10:16:33Z</time></trkpt><trkpt lat="45.96028878539097" lon="12.102699817229642"><ele>825.0</ele><time>2026-03-24T10:16:34Z</time></trkpt><trkpt lat="45.96024850624477" lon="12.102545946765263"><ele>825.0</ele><time>2026-03-24T10:16:35Z</time></trkpt><trkpt lat="45.96020199437011" lon="12.102422890060776"><ele>825.0</ele><time>2026-03-24T10:16:36Z</time></trkpt><trkpt lat="45.96015857462454" lon="12.10232763236904"><ele>825.0</ele><time>2026-03-24T10:16:37Z</time></trkpt><trkpt lat="45.960147668145986" lon="12.10222525451344"><ele>825.0</ele><time>2026-03-24T10:16:38Z</time></trkpt><trkpt lat="45.96015878610339" lon="12.102134534496857"><ele>825.0</ele><time>2026-03-24T10:16:39Z</time></trkpt><trkpt lat="45.960257161453235" lon="12.102044687029917"><ele>825.0</ele><time>2026-03-24T10:16:41Z</time></trkpt><trkpt lat="45.96033309593524" lon="12.102066834096691"><ele>823.6</ele><time>2026-03-24T10:16:42Z</time></trkpt><trkpt lat="45.96041999990291" lon="12.102069813377536"><ele>822.2</ele><time>2026-03-24T10:16:43Z</time></trkpt><trkpt lat="45.96049620061884" lon="12.102026621310447"><ele>820.8</ele><time>2026-03-24T10:16:44Z</time></trkpt><trkpt lat="45.960558739792916" lon="12.1019535160513"><ele>819.4</ele><time>2026-03-24T10:16:45Z</time></trkpt><trkpt lat="45.960662877909414" lon="12.102018373824267"><ele>818.0</ele><time>2026-03-24T10:16:47Z</time></trkpt><trkpt lat="45.96072098888577" lon="12.102135339807065"><ele>818.0</ele><time>2026-03-24T10:16:48Z</time></trkpt><trkpt lat="45.9607757342502" lon="12.102289565973619"><ele>818.0</ele><time>2026-03-24T10:16:49Z</time></trkpt><trkpt lat="45.96083676995625" lon="12.102454460557986"><ele>818.0</ele><time>2026-03-24T10:16:50Z</time></trkpt><trkpt lat="45.96089662693523" lon="12.102629648537775"><ele>818.0</ele><time>2026-03-24T10:16:51Z</time></trkpt><trkpt lat="45.960953601733124" lon="12.102802531709138"><ele>818.0</ele><time>2026-03-24T10:16:52Z</time></trkpt><trkpt lat="45.96102094440131" lon="12.102944448203791"><ele>818.0</ele><time>2026-03-24T10:16:53Z</time></trkpt><trkpt lat="45.961119339296445" lon="12.103069866679721"><ele>818.0</ele><time>2026-03-24T10:16:54Z</time></trkpt><trkpt lat="45.961213919827756" lon="12.103175867365573"><ele>818.0</ele><time>2026-03-24T10:16:55Z</time></trkpt><trkpt lat="45.96128559455211" lon="12.10328219898835"><ele>820.4</ele><time>2026-03-24T10:16:56Z</time></trkpt><trkpt lat="45.961345703583746" lon="12.103417209235214"><ele>822.8</ele><time>2026-03-24T10:16:57Z</time></trkpt><trkpt lat="45.96139719726399" lon="12.103563969074854"><ele>825.2</ele><time>2026-03-24T10:16:58Z</time></trkpt><trkpt lat="45.961450126184246" lon="12.103686924398724"><ele>827.6</ele><time>2026-03-24T10:16:59Z</time></trkpt><trkpt lat="45.96150528171305" lon="12.103798677811785"><ele>830.0</ele><time>2026-03-24T10:17:00Z</time></trkpt><trkpt lat="45.961555865472704" lon="12.103862265075135"><ele>830.0</ele><time>2026-03-24T10:17:01Z</time></trkpt><trkpt lat="45.9616579062092" lon="12.103831531832098"><ele>830.0</ele><time>2026-03-24T10:17:03Z</time></trkpt><trkpt lat="45.961704433316676" lon="12.103754916191575"><ele>830.0</ele><time>2026-03-24T10:17:04Z</time></trkpt><trkpt lat="45.96174972197052" lon="12.103641862738188"><ele>830.0</ele><time>2026-03-24T10:17:05Z</time></trkpt><trkpt lat="45.96178453720473" lon="12.103539153302522"><ele>830.0</ele><time>2026-03-24T10:17:06Z</time></trkpt><trkpt lat="45.9618375918228" lon="12.103408038103906"><ele>829.8</ele><time>2026-03-24T10:17:07Z</time></trkpt><trkpt lat="45.96186590598476" lon="12.103276132747457"><ele>829.6</ele><time>2026-03-24T10:17:08Z</time></trkpt><trkpt lat="45.96190729768292" lon="12.103195594447508"><ele>829.4000000000001</ele><time>2026-03-24T10:17:09Z</time></trkpt><trkpt lat="45.96202558366335" lon="12.103140793747956"><ele>829.2</ele><time>2026-03-24T10:17:11Z</time></trkpt><trkpt lat="45.96213172969379" lon="12.103149304531184"><ele>829.0</ele><time>2026-03-24T10:17:12Z</time></trkpt><trkpt lat="45.96225262003613" lon="12.103132091234173"><ele>829.0</ele><time>2026-03-24T10:17:13Z</time></trkpt><trkpt lat="45.962341552484425" lon="12.103069949846248"><ele>829.0</ele><time>2026-03-24T10:17:14Z</time></trkpt><trkpt lat="45.96242350688825" lon="12.102978741137406"><ele>829.0</ele><time>2026-03-24T10:17:15Z</time></trkpt><trkpt lat="45.96249912566321" lon="12.10287123135592"><ele>829.0</ele><time>2026-03-24T10:17:16Z</time></trkpt><trkpt lat="45.9625729410314" lon="12.102782149001442"><ele>829.0</ele><time>2026-03-24T10:17:17Z</time></trkpt><trkpt lat="45.9626694728683" lon="12.102737566975954"><ele>832.9999999999999</ele><time>2026-03-24T10:17:19Z</time></trkpt><trkpt lat="45.96273460796068" lon="12.102755725834694"><ele>837.0</ele><time>2026-03-24T10:17:20.001Z</time></trkpt><trkpt lat="45.96281697190633" lon="12.102761296149412"><ele>841.0</ele><time>2026-03-24T10:17:21.001Z</time></trkpt><trkpt lat="45.9628966202785" lon="12.102767270369602"><ele>845.0</ele><time>2026-03-24T10:17:22.001Z</time></trkpt><trkpt lat="45.962972735329245" lon="12.102770546109507"><ele>848.9999999999999</ele><time>2026-03-24T10:17:23.001Z</time></trkpt><trkpt lat="45.96306289098158" lon="12.102875592584505"><ele>853.0</ele><time>2026-03-24T10:17:25.001Z</time></trkpt><trkpt lat="45.963120081173635" lon="12.102942686472266"><ele>853.0</ele><time>2026-03-24T10:17:26.001Z</time></trkpt><trkpt lat="45.963224512568885" lon="12.1030744559402"><ele>853.0</ele><time>2026-03-24T10:17:28.001Z</time></trkpt><trkpt lat="45.96328109627292" lon="12.10314039540471"><ele>853.0</ele><time>2026-03-24T10:17:29.001Z</time></trkpt><trkpt lat="45.963324994548216" lon="12.103224036624558"><ele>853.0</ele><time>2026-03-24T10:17:30.001Z</time></trkpt><trkpt lat="45.96336682256463" lon="12.103325745224772"><ele>853.0</ele><time>2026-03-24T10:17:31.001Z</time></trkpt><trkpt lat="45.96340110306284" lon="12.103448773163"><ele>860.2</ele><time>2026-03-24T10:17:32.001Z</time></trkpt><trkpt lat="45.96342174602077" lon="12.103593263157993"><ele>867.4</ele><time>2026-03-24T10:17:33.001Z</time></trkpt><trkpt lat="45.963435947869414" lon="12.103718685288799"><ele>874.6000000000001</ele><time>2026-03-24T10:17:34.001Z</time></trkpt><trkpt lat="45.963462911091355" lon="12.103835326487332"><ele>881.8000000000001</ele><time>2026-03-24T10:17:35.001Z</time></trkpt><trkpt lat="45.963519172556374" lon="12.103911379160872"><ele>889.0</ele><time>2026-03-24T10:17:36.001Z</time></trkpt><trkpt lat="45.963615685721216" lon="12.103998030531155"><ele>889.0</ele><time>2026-03-24T10:17:38.001Z</time></trkpt><trkpt lat="45.96374394589069" lon="12.10395949710879"><ele>889.0000000000001</ele><time>2026-03-24T10:17:40.001Z</time></trkpt><trkpt lat="45.963834699115054" lon="12.10389770871859"><ele>889.0000000000001</ele><time>2026-03-24T10:17:41.001Z</time></trkpt><trkpt lat="45.963906308946534" lon="12.103835897220824"><ele>889.0</ele><time>2026-03-24T10:17:43.001Z</time></trkpt><trkpt lat="45.96388939432642" lon="12.103650032604136"><ele>889.0</ele><time>2026-03-24T10:17:45.001Z</time></trkpt><trkpt lat="45.963853550136385" lon="12.103536338865615"><ele>888.9999999999999</ele><time>2026-03-24T10:17:46.001Z</time></trkpt><trkpt lat="45.96381687668245" lon="12.10342109505303"><ele>889.0</ele><time>2026-03-24T10:17:47.001Z</time></trkpt><trkpt lat="45.963805812753556" lon="12.103309847509639"><ele>889.0</ele><time>2026-03-24T10:17:48.001Z</time></trkpt><trkpt lat="45.963825229967085" lon="12.10320296558921"><ele>889.0</ele><time>2026-03-24T10:17:49.001Z</time></trkpt><trkpt lat="45.96386544101217" lon="12.103099302231206"><ele>888.9999999999999</ele><time>2026-03-24T10:17:50.001Z</time></trkpt><trkpt lat="45.96392717897995" lon="12.103007915170918"><ele>889.0</ele><time>2026-03-24T10:17:51.001Z</time></trkpt><trkpt lat="45.96401286540656" lon="12.102911083550755"><ele>887.0</ele><time>2026-03-24T10:17:52.001Z</time></trkpt><trkpt lat="45.964114795905914" lon="12.102828128868978"><ele>885.0</ele><time>2026-03-24T10:17:53.001Z</time></trkpt><trkpt lat="45.964203042100976" lon="12.102743256187717"><ele>883.0</ele><time>2026-03-24T10:17:54.001Z</time></trkpt><trkpt lat="45.96427919140676" lon="12.102601981367123"><ele>881.0</ele><time>2026-03-24T10:17:55.001Z</time></trkpt><trkpt lat="45.964357897024115" lon="12.10247847250719"><ele>887.1999999999999</ele><time>2026-03-24T10:17:56Z</time></trkpt><trkpt lat="45.964437585388374" lon="12.10234733922032"><ele>893.3999999999999</ele><time>2026-03-24T10:17:57Z</time></trkpt><trkpt lat="45.9645268094071" lon="12.10224622870657"><ele>899.6</ele><time>2026-03-24T10:17:58Z</time></trkpt><trkpt lat="45.96461005398136" lon="12.10214997454115"><ele>905.8</ele><time>2026-03-24T10:17:59Z</time></trkpt><trkpt lat="45.96467098538064" lon="12.102072483634926"><ele>912.0</ele><time>2026-03-24T10:18:00Z</time></trkpt><trkpt lat="45.96471148403561" lon="12.101965263058778"><ele>912.0</ele><time>2026-03-24T10:18:02Z</time></trkpt><trkpt lat="45.96478510899897" lon="12.102017641006096"><ele>912.0</ele><time>2026-03-24T10:18:04Z</time></trkpt><trkpt lat="45.96474929417626" lon="12.102159087090643"><ele>912.0</ele><time>2026-03-24T10:18:06Z</time></trkpt><trkpt lat="45.964697215239255" lon="12.102229748910469"><ele>912.0</ele><time>2026-03-24T10:18:07Z</time></trkpt><trkpt lat="45.964662684238704" lon="12.102327155729661"><ele>912.0</ele><time>2026-03-24T10:18:08Z</time></trkpt><trkpt lat="45.96461611028061" lon="12.10245876638001"><ele>912.0</ele><time>2026-03-24T10:18:09Z</time></trkpt><trkpt lat="45.96456714504495" lon="12.102609901725765"><ele>913.6</ele><time>2026-03-24T10:18:10Z</time></trkpt><trkpt lat="45.964534722903" lon="12.10274762791757"><ele>915.2</ele><time>2026-03-24T10:18:11Z</time></trkpt><trkpt lat="45.964515619038124" lon="12.102900111126129"><ele>916.8</ele><time>2026-03-24T10:18:12Z</time></trkpt><trkpt lat="45.964489285585714" lon="12.10304512722263"><ele>918.4</ele><time>2026-03-24T10:18:13Z</time></trkpt><trkpt lat="45.96447873036813" lon="12.103158098052369"><ele>920.0</ele><time>2026-03-24T10:18:14Z</time></trkpt><trkpt lat="45.964477900396844" lon="12.103265006830062"><ele>921.5000000000001</ele><time>2026-03-24T10:18:15Z</time></trkpt><trkpt lat="45.96450317733934" lon="12.103389866203692"><ele>923.0</ele><time>2026-03-24T10:18:17Z</time></trkpt><trkpt lat="45.964567000243285" lon="12.103432022738914"><ele>924.5</ele><time>2026-03-24T10:18:18Z</time></trkpt><trkpt lat="45.96463945120253" lon="12.103473444566664"><ele>926.0</ele><time>2026-03-24T10:18:19Z</time></trkpt><trkpt lat="45.964708651414036" lon="12.103556814264117"><ele>927.5000000000001</ele><time>2026-03-24T10:18:20Z</time></trkpt><trkpt lat="45.964760605755124" lon="12.103685218281495"><ele>929.0</ele><time>2026-03-24T10:18:21Z</time></trkpt><trkpt lat="45.96480466043214" lon="12.103850041170945"><ele>929.0000000000001</ele><time>2026-03-24T10:18:22Z</time></trkpt><trkpt lat="45.9648409469191" lon="12.103929239709544"><ele>929.0</ele><time>2026-03-24T10:18:23Z</time></trkpt><trkpt lat="45.96485331120808" lon="12.104037149312836"><ele>929.0</ele><time>2026-03-24T10:18:24Z</time></trkpt><trkpt lat="45.964807923001835" lon="12.104189091474963"><ele>929.0</ele><time>2026-03-24T10:18:26Z</time></trkpt><trkpt lat="45.96472895271443" lon="12.10424778287891"><ele>929.0000000000001</ele><time>2026-03-24T10:18:27Z</time></trkpt><trkpt lat="45.9646307010527" lon="12.104295282572807"><ele>929.0</ele><time>2026-03-24T10:18:28Z</time></trkpt><trkpt lat="45.964543802799014" lon="12.104361884259362"><ele>928.8000000000001</ele><time>2026-03-24T10:18:29Z</time></trkpt><trkpt lat="45.96448492228076" lon="12.104457356839648"><ele>928.6000000000001</ele><time>2026-03-24T10:18:30Z</time></trkpt><trkpt lat="45.96445677733847" lon="12.104542439358244"><ele>928.4</ele><time>2026-03-24T10:18:31Z</time></trkpt><trkpt lat="45.96452427078018" lon="12.10471893852247"><ele>928.2</ele><time>2026-03-24T10:18:33Z</time></trkpt><trkpt lat="45.96456433005729" lon="12.104848349540692"><ele>928.0</ele><time>2026-03-24T10:18:34Z</time></trkpt><trkpt lat="45.96461129259982" lon="12.104958792903007"><ele>927.2</ele><time>2026-03-24T10:18:35Z</time></trkpt><trkpt lat="45.964658353971245" lon="12.105030588291935"><ele>926.4</ele><time>2026-03-24T10:18:36Z</time></trkpt><trkpt lat="45.96474241051432" lon="12.105108492185126"><ele>925.6000000000001</ele><time>2026-03-24T10:18:38Z</time></trkpt><trkpt lat="45.964883919793195" lon="12.105135231474598"><ele>924.8000000000001</ele><time>2026-03-24T10:18:40Z</time></trkpt><trkpt lat="45.96499643575886" lon="12.105135611606729"><ele>924.0</ele><time>2026-03-24T10:18:41Z</time></trkpt><trkpt lat="45.96510553300511" lon="12.105134386252658"><ele>928.8333333333334</ele><time>2026-03-24T10:18:42Z</time></trkpt><trkpt lat="45.965205137197074" lon="12.105165784006005"><ele>933.6666666666667</ele><time>2026-03-24T10:18:43Z</time></trkpt><trkpt lat="45.96527346792767" lon="12.105182094319554"><ele>938.5</ele><time>2026-03-24T10:18:44Z</time></trkpt><trkpt lat="45.96531700785435" lon="12.10533005058815"><ele>943.3333333333334</ele><time>2026-03-24T10:18:46Z</time></trkpt><trkpt lat="45.96538386658343" lon="12.105344212376814"><ele>948.1666666666667</ele><time>2026-03-24T10:18:49Z</time></trkpt><trkpt lat="45.96537285874411" lon="12.105216815897402"><ele>953.0</ele><time>2026-03-24T10:18:51Z</time></trkpt><trkpt lat="45.96533924032487" lon="12.105121331671779"><ele>953.0000000000001</ele><time>2026-03-24T10:18:52Z</time></trkpt><trkpt lat="45.96532240933679" lon="12.105017174834005"><ele>953.0</ele><time>2026-03-24T10:18:53Z</time></trkpt><trkpt lat="45.965283682041985" lon="12.10491844844821"><ele>953.0</ele><time>2026-03-24T10:18:54Z</time></trkpt><trkpt lat="45.965208694343154" lon="12.10483602306028"><ele>953.0</ele><time>2026-03-24T10:18:55Z</time></trkpt><trkpt lat="45.96513262941306" lon="12.104770707676828"><ele>953.0000000000001</ele><time>2026-03-24T10:18:56Z</time></trkpt><trkpt lat="45.96512799180803" lon="12.104660158657724"><ele>953.0</ele><time>2026-03-24T10:18:58Z</time></trkpt><trkpt lat="45.965218360358975" lon="12.104563181904743"><ele>955.5999999999999</ele><time>2026-03-24T10:19:00Z</time></trkpt><trkpt lat="45.965271469297285" lon="12.104497904019519"><ele>958.1999999999999</ele><time>2026-03-24T10:19:01Z</time></trkpt><trkpt lat="45.96533405931122" lon="12.104409819285651"><ele>960.8</ele><time>2026-03-24T10:19:02Z</time></trkpt><trkpt lat="45.96540774169521" lon="12.10432328682245"><ele>963.4</ele><time>2026-03-24T10:19:03Z</time></trkpt><trkpt lat="45.9654673704821" lon="12.104201723943849"><ele>966.0</ele><time>2026-03-24T10:19:04Z</time></trkpt><trkpt lat="45.96550571287027" lon="12.10404598139989"><ele>966.1666666666666</ele><time>2026-03-24T10:19:06Z</time></trkpt><trkpt lat="45.965481952859825" lon="12.1038625540892"><ele>966.3333333333333</ele><time>2026-03-24T10:19:08Z</time></trkpt><trkpt lat="45.965464175846975" lon="12.103763842789009"><ele>966.5</ele><time>2026-03-24T10:19:09Z</time></trkpt><trkpt lat="45.96544379207856" lon="12.103630318974199"><ele>966.6666666666666</ele><time>2026-03-24T10:19:10Z</time></trkpt><trkpt lat="45.965412551467516" lon="12.103514296880967"><ele>966.8333333333333</ele><time>2026-03-24T10:19:11Z</time></trkpt><trkpt lat="45.96539304210645" lon="12.103426631794422"><ele>967.0</ele><time>2026-03-24T10:19:12Z</time></trkpt><trkpt lat="45.965398156089265" lon="12.103261184912645"><ele>965.4000000000001</ele><time>2026-03-24T10:19:14Z</time></trkpt><trkpt lat="45.96550067712597" lon="12.103167576067584"><ele>963.8000000000001</ele><time>2026-03-24T10:19:16Z</time></trkpt><trkpt lat="45.965585113737575" lon="12.10313075310468"><ele>962.2</ele><time>2026-03-24T10:19:17Z</time></trkpt><trkpt lat="45.96569978056462" lon="12.1030802742361"><ele>960.6</ele><time>2026-03-24T10:19:18Z</time></trkpt><trkpt lat="45.9657837722999" lon="12.10305152939265"><ele>959.0</ele><time>2026-03-24T10:19:19.001Z</time></trkpt><trkpt lat="45.965879223209306" lon="12.102907585095064"><ele>962.6</ele><time>2026-03-24T10:19:21.001Z</time></trkpt><trkpt lat="45.9658991794701" lon="12.102754002570983"><ele>966.2</ele><time>2026-03-24T10:19:22.001Z</time></trkpt><trkpt lat="45.96592088964266" lon="12.102610715534082"><ele>969.8000000000001</ele><time>2026-03-24T10:19:23.001Z</time></trkpt><trkpt lat="45.965961906099004" lon="12.102450438678115"><ele>973.4000000000001</ele><time>2026-03-24T10:19:24.001Z</time></trkpt><trkpt lat="45.96599630333962" lon="12.102303893492081"><ele>977.0</ele><time>2026-03-24T10:19:25.001Z</time></trkpt><trkpt lat="45.96602970667538" lon="12.1021479256952"><ele>977.0</ele><time>2026-03-24T10:19:26.001Z</time></trkpt><trkpt lat="45.96605120450365" lon="12.102034327098599"><ele>977.0</ele><time>2026-03-24T10:19:27.001Z</time></trkpt><trkpt lat="45.9660805598297" lon="12.101883640431561"><ele>977.0</ele><time>2026-03-24T10:19:29.001Z</time></trkpt><trkpt lat="45.96618956268021" lon="12.101818344021055"><ele>977.0</ele><time>2026-03-24T10:19:31.001Z</time></trkpt><trkpt lat="45.96626478184188" lon="12.101835060948678"><ele>977.0</ele><time>2026-03-24T10:19:32.001Z</time></trkpt><trkpt lat="45.96634465489799" lon="12.101845605128617"><ele>977.0</ele><time>2026-03-24T10:19:33.001Z</time></trkpt><trkpt lat="45.96643547253318" lon="12.101833778336625"><ele>977.0</ele><time>2026-03-24T10:19:34.001Z</time></trkpt><trkpt lat="45.96651200367908" lon="12.101789161567005"><ele>977.0</ele><time>2026-03-24T10:19:35.001Z</time></trkpt><trkpt lat="45.96660619453448" lon="12.101723889598565"><ele>977.0</ele><time>2026-03-24T10:19:36.001Z</time></trkpt><trkpt lat="45.9667002246056" lon="12.1016658580884"><ele>977.0</ele><time>2026-03-24T10:19:37.001Z</time></trkpt><trkpt lat="45.966794098879596" lon="12.10162594382207"><ele>979.6</ele><time>2026-03-24T10:19:38.001Z</time></trkpt><trkpt lat="45.96688717003641" lon="12.10157205292708"><ele>982.2</ele><time>2026-03-24T10:19:39.001Z</time></trkpt><trkpt lat="45.96697090695957" lon="12.101503209061727"><ele>984.8</ele><time>2026-03-24T10:19:40.001Z</time></trkpt><trkpt lat="45.967052383503535" lon="12.101431287157846"><ele>987.4</ele><time>2026-03-24T10:19:41.001Z</time></trkpt><trkpt lat="45.96711650286984" lon="12.1013472456069"><ele>990.0</ele><time>2026-03-24T10:19:42.001Z</time></trkpt><trkpt lat="45.96715313483049" lon="12.101252188627498"><ele>990.0</ele><time>2026-03-24T10:19:43.001Z</time></trkpt><trkpt lat="45.967177988401254" lon="12.101129100003723"><ele>990.0</ele><time>2026-03-24T10:19:44.001Z</time></trkpt><trkpt lat="45.96721397169302" lon="12.101015011981477"><ele>990.0</ele><time>2026-03-24T10:19:45.001Z</time></trkpt><trkpt lat="45.967256639834595" lon="12.100898817101962"><ele>990.0</ele><time>2026-03-24T10:19:46.001Z</time></trkpt><trkpt lat="45.967309588474876" lon="12.10079988563458"><ele>990.0</ele><time>2026-03-24T10:19:47.001Z</time></trkpt><trkpt lat="45.967334707805605" lon="12.10068251756173"><ele>990.0</ele><time>2026-03-24T10:19:48.001Z</time></trkpt><trkpt lat="45.96733355193393" lon="12.100581001219506"><ele>990.2</ele><time>2026-03-24T10:19:49.001Z</time></trkpt><trkpt lat="45.96737503618143" lon="12.100444397951895"><ele>990.4</ele><time>2026-03-24T10:19:51.001Z</time></trkpt><trkpt lat="45.96748382506246" lon="12.100416160892633"><ele>990.5999999999999</ele><time>2026-03-24T10:19:53.001Z</time></trkpt><trkpt lat="45.96754735261758" lon="12.100400101211513"><ele>990.8</ele><time>2026-03-24T10:19:54.001Z</time></trkpt><trkpt lat="45.9676237300113" lon="12.100365662957348"><ele>991.0</ele><time>2026-03-24T10:19:55.001Z</time></trkpt><trkpt lat="45.96770356869357" lon="12.100270075083188"><ele>991.0</ele><time>2026-03-24T10:19:56.001Z</time></trkpt><trkpt lat="45.967782936821855" lon="12.100152705489068"><ele>990.9999999999999</ele><time>2026-03-24T10:19:57.001Z</time></trkpt><trkpt lat="45.96784358111273" lon="12.100063859279027"><ele>990.9999999999999</ele><time>2026-03-24T10:19:58.001Z</time></trkpt><trkpt lat="45.96788785805822" lon="12.099931565052492"><ele>991.0</ele><time>2026-03-24T10:19:59.001Z</time></trkpt><trkpt lat="45.96793723564549" lon="12.099777768904326"><ele>991.0</ele><time>2026-03-24T10:20:00.001Z</time></trkpt><trkpt lat="45.96797065120457" lon="12.099638654869608"><ele>991.5999999999999</ele><time>2026-03-24T10:20:01.001Z</time></trkpt><trkpt lat="45.96798821254899" lon="12.099506388632717"><ele>992.1999999999999</ele><time>2026-03-24T10:20:02Z</time></trkpt><trkpt lat="45.96802237702842" lon="12.099401756138597"><ele>992.8000000000001</ele><time>2026-03-24T10:20:03Z</time></trkpt><trkpt lat="45.96809216731334" lon="12.099298432523016"><ele>993.4000000000001</ele><time>2026-03-24T10:20:04Z</time></trkpt><trkpt lat="45.968175403454616" lon="12.099175760867006"><ele>994.0</ele><time>2026-03-24T10:20:05Z</time></trkpt><trkpt lat="45.968257384034096" lon="12.099041422038471"><ele>994.0</ele><time>2026-03-24T10:20:06Z</time></trkpt><trkpt lat="45.968334017976034" lon="12.09889432389794"><ele>994.0000000000001</ele><time>2026-03-24T10:20:07Z</time></trkpt><trkpt lat="45.96840583602429" lon="12.098779609204179"><ele>994.0000000000001</ele><time>2026-03-24T10:20:08Z</time></trkpt><trkpt lat="45.968459272092225" lon="12.09870924137852"><ele>994.0</ele><time>2026-03-24T10:20:09Z</time></trkpt><trkpt lat="45.96853124370361" lon="12.098674693172297"><ele>994.0</ele><time>2026-03-24T10:20:10Z</time></trkpt><trkpt lat="45.96862272768827" lon="12.098658673708757"><ele>995.4000000000001</ele><time>2026-03-24T10:20:11Z</time></trkpt><trkpt lat="45.96870666620618" lon="12.098650770073974"><ele>996.8000000000001</ele><time>2026-03-24T10:20:12Z</time></trkpt><trkpt lat="45.96879336822355" lon="12.098574708373159"><ele>998.1999999999999</ele><time>2026-03-24T10:20:13Z</time></trkpt><trkpt lat="45.968843225706024" lon="12.098423952495459"><ele>999.5999999999999</ele><time>2026-03-24T10:20:14Z</time></trkpt><trkpt lat="45.96889799521623" lon="12.098301532666198"><ele>1001.0</ele><time>2026-03-24T10:20:15Z</time></trkpt><trkpt lat="45.96891613002446" lon="12.098202766374147"><ele>1001.0</ele><time>2026-03-24T10:20:16Z</time></trkpt><trkpt lat="45.96894680385983" lon="12.098099295499791"><ele>1000.9999999999999</ele><time>2026-03-24T10:20:17Z</time></trkpt><trkpt lat="45.96897284179225" lon="12.097997510330469"><ele>1000.9999999999999</ele><time>2026-03-24T10:20:18Z</time></trkpt><trkpt lat="45.969049495059785" lon="12.097856075805094"><ele>1001.0</ele><time>2026-03-24T10:20:20Z</time></trkpt><trkpt lat="45.96913334027712" lon="12.097770463187363"><ele>1001.0</ele><time>2026-03-24T10:20:21Z</time></trkpt><trkpt lat="45.96921048519188" lon="12.097703221065892"><ele>1005.0</ele><time>2026-03-24T10:20:22Z</time></trkpt><trkpt lat="45.96930153289628" lon="12.09763427911085"><ele>1008.9999999999999</ele><time>2026-03-24T10:20:23Z</time></trkpt><trkpt lat="45.96939537032904" lon="12.097590153426317"><ele>1012.9999999999999</ele><time>2026-03-24T10:20:24Z</time></trkpt><trkpt lat="45.96949848719893" lon="12.097545488718913"><ele>1017.0</ele><time>2026-03-24T10:20:25Z</time></trkpt><trkpt lat="45.96962071033471" lon="12.097531103017644"><ele>1021.0</ele><time>2026-03-24T10:20:26Z</time></trkpt><trkpt lat="45.969753113517555" lon="12.097518239822419"><ele>1021.0</ele><time>2026-03-24T10:20:27Z</time></trkpt><trkpt lat="45.96986382204411" lon="12.097508617692322"><ele>1020.9999999999999</ele><time>2026-03-24T10:20:28Z</time></trkpt><trkpt lat="45.96996462463872" lon="12.09749416878847"><ele>1020.9999999999999</ele><time>2026-03-24T10:20:29Z</time></trkpt><trkpt lat="45.970050250140325" lon="12.097470972319996"><ele>1021.0</ele><time>2026-03-24T10:20:30Z</time></trkpt><trkpt lat="45.970136679106766" lon="12.097416826974705"><ele>1021.0</ele><time>2026-03-24T10:20:31Z</time></trkpt><trkpt lat="45.97021700997378" lon="12.097349432794074"><ele>1027.2</ele><time>2026-03-24T10:20:32Z</time></trkpt><trkpt lat="45.97029980198049" lon="12.097282547521166"><ele>1033.3999999999999</ele><time>2026-03-24T10:20:33Z</time></trkpt><trkpt lat="45.970376787999875" lon="12.097236523458308"><ele>1039.6</ele><time>2026-03-24T10:20:34Z</time></trkpt><trkpt lat="45.9704474026636" lon="12.09720790155345"><ele>1045.8</ele><time>2026-03-24T10:20:35Z</time></trkpt><trkpt lat="45.97054287000185" lon="12.097166229618548"><ele>1052.0</ele><time>2026-03-24T10:20:36Z</time></trkpt><trkpt lat="45.97064317224281" lon="12.09713386282922"><ele>1052.0</ele><time>2026-03-24T10:20:37Z</time></trkpt><trkpt lat="45.970729343728976" lon="12.097111409361133"><ele>1052.0</ele><time>2026-03-24T10:20:38Z</time></trkpt><trkpt lat="45.970815805742966" lon="12.097073451013927"><ele>1052.0</ele><time>2026-03-24T10:20:39Z</time></trkpt><trkpt lat="45.97091013858915" lon="12.097032065569442"><ele>1052.0</ele><time>2026-03-24T10:20:40Z</time></trkpt><trkpt lat="45.970992200419865" lon="12.096960149427641"><ele>1052.0</ele><time>2026-03-24T10:20:41Z</time></trkpt><trkpt lat="45.971076619205554" lon="12.096883389906324"><ele>1051.8333333333335</ele><time>2026-03-24T10:20:42Z</time></trkpt><trkpt lat="45.97115039697548" lon="12.096826166313631"><ele>1051.6666666666667</ele><time>2026-03-24T10:20:43Z</time></trkpt><trkpt lat="45.97123562967543" lon="12.096745779477624"><ele>1051.5</ele><time>2026-03-24T10:20:44Z</time></trkpt><trkpt lat="45.971315815827396" lon="12.096681797581716"><ele>1051.3333333333333</ele><time>2026-03-24T10:20:45Z</time></trkpt><trkpt lat="45.97138165928087" lon="12.096615368081732"><ele>1051.1666666666665</ele><time>2026-03-24T10:20:46Z</time></trkpt><trkpt lat="45.971441940461986" lon="12.096548669306802"><ele>1051.0</ele><time>2026-03-24T10:20:47Z</time></trkpt><trkpt lat="45.97153425817589" lon="12.096525616714029"><ele>1056.3333333333333</ele><time>2026-03-24T10:20:48Z</time></trkpt><trkpt lat="45.97161885288194" lon="12.096523002156328"><ele>1061.6666666666665</ele><time>2026-03-24T10:20:49Z</time></trkpt><trkpt lat="45.971708298945686" lon="12.096532235183142"><ele>1067.0</ele><time>2026-03-24T10:20:50Z</time></trkpt><trkpt lat="45.971791828653124" lon="12.096545221792793"><ele>1072.3333333333333</ele><time>2026-03-24T10:20:51Z</time></trkpt><trkpt lat="45.97186855873054" lon="12.096573153609546"><ele>1077.6666666666667</ele><time>2026-03-24T10:20:52Z</time></trkpt><trkpt lat="45.971978451163096" lon="12.096571064129828"><ele>1083.0</ele><time>2026-03-24T10:20:54Z</time></trkpt><trkpt lat="45.9720940124961" lon="12.096467376075447"><ele>1083.0</ele><time>2026-03-24T10:20:56Z</time></trkpt><trkpt lat="45.97215341523804" lon="12.096373685803764"><ele>1083.0</ele><time>2026-03-24T10:20:57Z</time></trkpt><trkpt lat="45.972206040861764" lon="12.096316578032363"><ele>1083.0</ele><time>2026-03-24T10:20:58Z</time></trkpt><trkpt lat="45.972255376756095" lon="12.096248573411145"><ele>1083.0</ele><time>2026-03-24T10:20:59Z</time></trkpt><trkpt lat="45.972304637667726" lon="12.096141503398577"><ele>1083.0</ele><time>2026-03-24T10:21:00Z</time></trkpt><trkpt lat="45.97236948146402" lon="12.096102342513891"><ele>1083.0</ele><time>2026-03-24T10:21:01Z</time></trkpt><trkpt lat="45.97243942582098" lon="12.096053344096692"><ele>1083.0</ele><time>2026-03-24T10:21:02Z</time></trkpt><trkpt lat="45.97249794064559" lon="12.096005043025702"><ele>1083.0</ele><time>2026-03-24T10:21:03Z</time></trkpt><trkpt lat="45.972560875814196" lon="12.095928039432616"><ele>1083.0</ele><time>2026-03-24T10:21:04Z</time></trkpt><trkpt lat="45.97262052555176" lon="12.095863021063304"><ele>1083.0</ele><time>2026-03-24T10:21:05Z</time></trkpt><trkpt lat="45.97268932601668" lon="12.09580542268801"><ele>1083.0</ele><time>2026-03-24T10:21:06Z</time></trkpt><trkpt lat="45.97276517620434" lon="12.095805962068459"><ele>1083.0</ele><time>2026-03-24T10:21:07Z</time></trkpt><trkpt lat="45.972835152981304" lon="12.09580703853705"><ele>1083.0</ele><time>2026-03-24T10:21:08Z</time></trkpt><trkpt lat="45.97290629401678" lon="12.095763378520488"><ele>1083.0</ele><time>2026-03-24T10:21:09Z</time></trkpt><trkpt lat="45.97297581068615" lon="12.09572197961327"><ele>1083.0</ele><time>2026-03-24T10:21:10Z</time></trkpt><trkpt lat="45.97307441177461" lon="12.095752826166441"><ele>1083.0</ele><time>2026-03-24T10:21:12Z</time></trkpt><trkpt lat="45.97313231380657" lon="12.095811639678463"><ele>1083.0</ele><time>2026-03-24T10:21:13Z</time></trkpt><trkpt lat="45.97319573449143" lon="12.095877548169062"><ele>1083.0</ele><time>2026-03-24T10:21:14Z</time></trkpt><trkpt lat="45.973252857400745" lon="12.095966647030647"><ele>1083.0</ele><time>2026-03-24T10:21:15Z</time></trkpt><trkpt lat="45.97332390222713" lon="12.096037959824809"><ele>1083.0</ele><time>2026-03-24T10:21:16Z</time></trkpt><trkpt lat="45.97338216624393" lon="12.096099553607662"><ele>1083.0</ele><time>2026-03-24T10:21:17Z</time></trkpt><trkpt lat="45.97349323611616" lon="12.096173868189183"><ele>1083.0</ele><time>2026-03-24T10:21:19Z</time></trkpt><trkpt lat="45.97357185412808" lon="12.096189991674622"><ele>1083.0</ele><time>2026-03-24T10:21:20Z</time></trkpt><trkpt lat="45.97363891967773" lon="12.096210188710568"><ele>1083.0</ele><time>2026-03-24T10:21:21Z</time></trkpt><trkpt lat="45.973714352066054" lon="12.096283806541903"><ele>1088.5</ele><time>2026-03-24T10:21:23Z</time></trkpt><trkpt lat="45.97378484990257" lon="12.096247080569878"><ele>1094.0</ele><time>2026-03-24T10:21:27Z</time></trkpt><trkpt lat="45.97373502519224" lon="12.096151267171024"><ele>1099.5</ele><time>2026-03-24T10:21:29Z</time></trkpt><trkpt lat="45.973683337014954" lon="12.096098313455409"><ele>1105.0</ele><time>2026-03-24T10:21:30Z</time></trkpt><trkpt lat="45.97357299720534" lon="12.095993240453009"><ele>1110.5</ele><time>2026-03-24T10:21:32Z</time></trkpt><trkpt lat="45.97352408659565" lon="12.095931691055467"><ele>1116.0</ele><time>2026-03-24T10:21:33Z</time></trkpt><trkpt lat="45.97348131461692" lon="12.095861193498727"><ele>1116.0</ele><time>2026-03-24T10:21:34Z</time></trkpt><trkpt lat="45.97344167345748" lon="12.095782624362093"><ele>1116.0</ele><time>2026-03-24T10:21:35Z</time></trkpt><trkpt lat="45.97340788426563" lon="12.095694572608187"><ele>1116.0</ele><time>2026-03-24T10:21:36Z</time></trkpt><trkpt lat="45.97336820872234" lon="12.095613911368533"><ele>1116.0</ele><time>2026-03-24T10:21:37Z</time></trkpt><trkpt lat="45.97331850009742" lon="12.095515946231538"><ele>1116.0</ele><time>2026-03-24T10:21:38Z</time></trkpt><trkpt lat="45.973302350113286" lon="12.095394350500579"><ele>1116.0</ele><time>2026-03-24T10:21:39Z</time></trkpt><trkpt lat="45.97326420609704" lon="12.095281964442796"><ele>1116.5</ele><time>2026-03-24T10:21:40Z</time></trkpt><trkpt lat="45.97321174189034" lon="12.095157528749066"><ele>1117.0</ele><time>2026-03-24T10:21:41Z</time></trkpt><trkpt lat="45.97315363387086" lon="12.095063985435592"><ele>1117.5</ele><time>2026-03-24T10:21:42Z</time></trkpt><trkpt lat="45.97307816362127" lon="12.095062338747368"><ele>1118.0</ele><time>2026-03-24T10:21:43Z</time></trkpt><trkpt lat="45.973001129206" lon="12.095053626859997"><ele>1118.5</ele><time>2026-03-24T10:21:44Z</time></trkpt><trkpt lat="45.97291838317284" lon="12.095090508088232"><ele>1119.0</ele><time>2026-03-24T10:21:45Z</time></trkpt><trkpt lat="45.97284936491221" lon="12.095119956654699"><ele>1119.0</ele><time>2026-03-24T10:21:46Z</time></trkpt><trkpt lat="45.972787359361114" lon="12.095139175214623"><ele>1119.0</ele><time>2026-03-24T10:21:47Z</time></trkpt><trkpt lat="45.97271957456213" lon="12.095127009271263"><ele>1119.0</ele><time>2026-03-24T10:21:48Z</time></trkpt><trkpt lat="45.9726460190332" lon="12.09508257278505"><ele>1119.0</ele><time>2026-03-24T10:21:49Z</time></trkpt><trkpt lat="45.97257580189324" lon="12.095026950213244"><ele>1119.0</ele><time>2026-03-24T10:21:50Z</time></trkpt><trkpt lat="45.97250367554353" lon="12.094996686785963"><ele>1119.0</ele><time>2026-03-24T10:21:51Z</time></trkpt><trkpt lat="45.97242914110584" lon="12.094996431783752"><ele>1119.0</ele><time>2026-03-24T10:21:52Z</time></trkpt><trkpt lat="45.972344643216104" lon="12.095023216405068"><ele>1119.8333333333333</ele><time>2026-03-24T10:21:53Z</time></trkpt><trkpt lat="45.972265581451985" lon="12.095059913742721"><ele>1120.6666666666667</ele><time>2026-03-24T10:21:54.001Z</time></trkpt><trkpt lat="45.9721763023793" lon="12.095115403172016"><ele>1121.5</ele><time>2026-03-24T10:21:55.001Z</time></trkpt><trkpt lat="45.97210528743028" lon="12.095157191041844"><ele>1122.3333333333335</ele><time>2026-03-24T10:21:56.001Z</time></trkpt><trkpt lat="45.972020413943746" lon="12.09519711009562"><ele>1123.1666666666667</ele><time>2026-03-24T10:21:57.001Z</time></trkpt><trkpt lat="45.97195480249155" lon="12.095227094589521"><ele>1124.0</ele><time>2026-03-24T10:21:58.001Z</time></trkpt><trkpt lat="45.971893682008904" lon="12.09525303350539"><ele>1124.0</ele><time>2026-03-24T10:22:00.001Z</time></trkpt><trkpt lat="45.97199870659128" lon="12.09515109370376"><ele>1124.0</ele><time>2026-03-24T10:22:06.001Z</time></trkpt><trkpt lat="45.972063150014655" lon="12.09510213310922"><ele>1124.0</ele><time>2026-03-24T10:22:07.001Z</time></trkpt><trkpt lat="45.97210744459262" lon="12.095031033740632"><ele>1124.0</ele><time>2026-03-24T10:22:08Z</time></trkpt><trkpt lat="45.972177039512225" lon="12.094963631292098"><ele>1124.0</ele><time>2026-03-24T10:22:09Z</time></trkpt><trkpt lat="45.97223152599377" lon="12.094906062199641"><ele>1124.0</ele><time>2026-03-24T10:22:10Z</time></trkpt><trkpt lat="45.9722920613835" lon="12.09482874797817"><ele>1129.0</ele><time>2026-03-24T10:22:11Z</time></trkpt><trkpt lat="45.97235483493128" lon="12.09477700705049"><ele>1134.0</ele><time>2026-03-24T10:22:12Z</time></trkpt><trkpt lat="45.97241667786463" lon="12.094714357097482"><ele>1139.0</ele><time>2026-03-24T10:22:13Z</time></trkpt><trkpt lat="45.97247104733282" lon="12.094660619850464"><ele>1144.0</ele><time>2026-03-24T10:22:14Z</time></trkpt><trkpt lat="45.97256824498488" lon="12.094592136973978"><ele>1149.0</ele><time>2026-03-24T10:22:16Z</time></trkpt><trkpt lat="45.972640422951294" lon="12.094583999395304"><ele>1154.0</ele><time>2026-03-24T10:22:17Z</time></trkpt><trkpt lat="45.97272602842402" lon="12.094574115557148"><ele>1154.0</ele><time>2026-03-24T10:22:18Z</time></trkpt><trkpt lat="45.97280096973678" lon="12.094539739506395"><ele>1154.0</ele><time>2026-03-24T10:22:19Z</time></trkpt><trkpt lat="45.972909088402965" lon="12.094441041339735"><ele>1154.0</ele><time>2026-03-24T10:22:21Z</time></trkpt><trkpt lat="45.97296315964064" lon="12.094367308394672"><ele>1154.0</ele><time>2026-03-24T10:22:22Z</time></trkpt><trkpt lat="45.97300997347967" lon="12.094294230816647"><ele>1154.0</ele><time>2026-03-24T10:22:23Z</time></trkpt><trkpt lat="45.97307516524118" lon="12.094219895606896"><ele>1154.0</ele><time>2026-03-24T10:22:24Z</time></trkpt><trkpt lat="45.97314836559544" lon="12.094167615151186"><ele>1154.0</ele><time>2026-03-24T10:22:25Z</time></trkpt><trkpt lat="45.97321521047321" lon="12.09418243763033"><ele>1154.0</ele><time>2026-03-24T10:22:26Z</time></trkpt><trkpt lat="45.97330398051895" lon="12.09419741598587"><ele>1154.0</ele><time>2026-03-24T10:22:27Z</time></trkpt><trkpt lat="45.97337826530079" lon="12.094218803501551"><ele>1154.0</ele><time>2026-03-24T10:22:28Z</time></trkpt><trkpt lat="45.973455982772826" lon="12.094235649637286"><ele>1154.0</ele><time>2026-03-24T10:22:29Z</time></trkpt><trkpt lat="45.97353017931901" lon="12.094248783676724"><ele>1154.0</ele><time>2026-03-24T10:22:30Z</time></trkpt><trkpt lat="45.973642982285426" lon="12.094360466346833"><ele>1158.3333333333335</ele><time>2026-03-24T10:22:32Z</time></trkpt><trkpt lat="45.973693530432136" lon="12.094449175769695"><ele>1162.6666666666667</ele><time>2026-03-24T10:22:33Z</time></trkpt><trkpt lat="45.97373733952225" lon="12.094540209226219"><ele>1167.0</ele><time>2026-03-24T10:22:34Z</time></trkpt><trkpt lat="45.97378499399908" lon="12.094617881609851"><ele>1171.3333333333333</ele><time>2026-03-24T10:22:35Z</time></trkpt><trkpt lat="45.973851175713634" lon="12.094675093618674"><ele>1175.6666666666665</ele><time>2026-03-24T10:22:36Z</time></trkpt><trkpt lat="45.973915222496544" lon="12.094716860724306"><ele>1180.0</ele><time>2026-03-24T10:22:37Z</time></trkpt><trkpt lat="45.9739928074231" lon="12.094719434916353"><ele>1180.0</ele><time>2026-03-24T10:22:38Z</time></trkpt><trkpt lat="45.97407754901328" lon="12.094719183140386"><ele>1180.0</ele><time>2026-03-24T10:22:39Z</time></trkpt><trkpt lat="45.974165419390324" lon="12.094721731703796"><ele>1180.0</ele><time>2026-03-24T10:22:40Z</time></trkpt><trkpt lat="45.974249848443506" lon="12.094750364869913"><ele>1180.0</ele><time>2026-03-24T10:22:41Z</time></trkpt><trkpt lat="45.974395039438946" lon="12.094744468703935"><ele>1180.0</ele><time>2026-03-24T10:22:43Z</time></trkpt><trkpt lat="45.97447559119261" lon="12.094816239707868"><ele>1179.75</ele><time>2026-03-24T10:22:44Z</time></trkpt><trkpt lat="45.97457337231618" lon="12.094882770411575"><ele>1179.5</ele><time>2026-03-24T10:22:46Z</time></trkpt><trkpt lat="45.97465500151635" lon="12.094828358457299"><ele>1179.25</ele><time>2026-03-24T10:22:48Z</time></trkpt><trkpt lat="45.974786456300365" lon="12.094658055320501"><ele>1179.0</ele><time>2026-03-24T10:22:50Z</time></trkpt><trkpt lat="45.974853580104956" lon="12.094526858790562"><ele>1179.0</ele><time>2026-03-24T10:22:51Z</time></trkpt><trkpt lat="45.974913730281344" lon="12.094417775328518"><ele>1179.0</ele><time>2026-03-24T10:22:52Z</time></trkpt><trkpt lat="45.97497428479476" lon="12.0943331273475"><ele>1179.0</ele><time>2026-03-24T10:22:53Z</time></trkpt><trkpt lat="45.97509152725957" lon="12.09425976734002"><ele>1179.0</ele><time>2026-03-24T10:22:55Z</time></trkpt><trkpt lat="45.97517124121521" lon="12.094220662398767"><ele>1179.0</ele><time>2026-03-24T10:22:56Z</time></trkpt><trkpt lat="45.9752677144615" lon="12.094143223275442"><ele>1179.6666666666667</ele><time>2026-03-24T10:22:58Z</time></trkpt><trkpt lat="45.975331586502264" lon="12.09406132881147"><ele>1180.3333333333333</ele><time>2026-03-24T10:22:59Z</time></trkpt><trkpt lat="45.975385447130314" lon="12.09397400344173"><ele>1181.0</ele><time>2026-03-24T10:23:00Z</time></trkpt><trkpt lat="45.975441644376154" lon="12.093872316824879"><ele>1181.6666666666665</ele><time>2026-03-24T10:23:01Z</time></trkpt><trkpt lat="45.97547188318647" lon="12.093777589340942"><ele>1182.3333333333333</ele><time>2026-03-24T10:23:02Z</time></trkpt><trkpt lat="45.975533994119736" lon="12.093688675583511"><ele>1183.0</ele><time>2026-03-24T10:23:03Z</time></trkpt><trkpt lat="45.97559349994948" lon="12.093586125719725"><ele>1183.0</ele><time>2026-03-24T10:23:04Z</time></trkpt><trkpt lat="45.975651095344986" lon="12.093478648090079"><ele>1183.0</ele><time>2026-03-24T10:23:05Z</time></trkpt><trkpt lat="45.97571705867328" lon="12.093382949778542"><ele>1183.0</ele><time>2026-03-24T10:23:06Z</time></trkpt><trkpt lat="45.97579086847629" lon="12.093278800702445"><ele>1183.0</ele><time>2026-03-24T10:23:07Z</time></trkpt><trkpt lat="45.97586153419263" lon="12.093198503929523"><ele>1183.0</ele><time>2026-03-24T10:23:08Z</time></trkpt><trkpt lat="45.97591428212001" lon="12.09312884441425"><ele>1188.8</ele><time>2026-03-24T10:23:09Z</time></trkpt><trkpt lat="45.97597893079936" lon="12.093076793194978"><ele>1194.6</ele><time>2026-03-24T10:23:10Z</time></trkpt><trkpt lat="45.97612816393641" lon="12.093053171275495"><ele>1200.4</ele><time>2026-03-24T10:23:12Z</time></trkpt><trkpt lat="45.97622461429572" lon="12.093064901421634"><ele>1206.2</ele><time>2026-03-24T10:23:13Z</time></trkpt><trkpt lat="45.97631204043153" lon="12.093067317015308"><ele>1212.0</ele><time>2026-03-24T10:23:14Z</time></trkpt><trkpt lat="45.97639546708672" lon="12.09308542313538"><ele>1212.0</ele><time>2026-03-24T10:23:15Z</time></trkpt><trkpt lat="45.976463534443134" lon="12.093100234093251"><ele>1212.0</ele><time>2026-03-24T10:23:16Z</time></trkpt><trkpt lat="45.97651769120318" lon="12.093169419416295"><ele>1212.0</ele><time>2026-03-24T10:23:17Z</time></trkpt><trkpt lat="45.97659479464868" lon="12.09322480688436"><ele>1212.0</ele><time>2026-03-24T10:23:18Z</time></trkpt><trkpt lat="45.976683875294704" lon="12.093218755722509"><ele>1212.0</ele><time>2026-03-24T10:23:19Z</time></trkpt><trkpt lat="45.97675500298095" lon="12.093203120812916"><ele>1212.0</ele><time>2026-03-24T10:23:20Z</time></trkpt><trkpt lat="45.97682582089484" lon="12.093201834105644"><ele>1209.5</ele><time>2026-03-24T10:23:21Z</time></trkpt><trkpt lat="45.97689481796145" lon="12.093167444921447"><ele>1207.0</ele><time>2026-03-24T10:23:22Z</time></trkpt><trkpt lat="45.97696875517911" lon="12.093134378419792"><ele>1204.5</ele><time>2026-03-24T10:23:23Z</time></trkpt><trkpt lat="45.97702449873445" lon="12.09306521683865"><ele>1202.0</ele><time>2026-03-24T10:23:24Z</time></trkpt><trkpt lat="45.977099511330636" lon="12.093007189998767"><ele>1199.5</ele><time>2026-03-24T10:23:25Z</time></trkpt><trkpt lat="45.97717310327264" lon="12.092979704745877"><ele>1197.0</ele><time>2026-03-24T10:23:26Z</time></trkpt><trkpt lat="45.97724635668969" lon="12.09293775441576"><ele>1197.0</ele><time>2026-03-24T10:23:27Z</time></trkpt><trkpt lat="45.97733297393902" lon="12.0928908319563"><ele>1197.0</ele><time>2026-03-24T10:23:28Z</time></trkpt><trkpt lat="45.977417623647966" lon="12.092843949234197"><ele>1197.0</ele><time>2026-03-24T10:23:29Z</time></trkpt><trkpt lat="45.9774984965553" lon="12.092790720205613"><ele>1197.0</ele><time>2026-03-24T10:23:30Z</time></trkpt><trkpt lat="45.977546005240654" lon="12.092724152567117"><ele>1197.0</ele><time>2026-03-24T10:23:31Z</time></trkpt><trkpt lat="45.97760102677757" lon="12.092657296581855"><ele>1197.0</ele><time>2026-03-24T10:23:32Z</time></trkpt><trkpt lat="45.97765525817992" lon="12.092572039837261"><ele>1195.8333333333333</ele><time>2026-03-24T10:23:33Z</time></trkpt><trkpt lat="45.97771780721136" lon="12.092462078159208"><ele>1194.6666666666667</ele><time>2026-03-24T10:23:34Z</time></trkpt><trkpt lat="45.977738458683035" lon="12.092363313250589"><ele>1193.5</ele><time>2026-03-24T10:23:35Z</time></trkpt><trkpt lat="45.97781534456757" lon="12.092289714315351"><ele>1192.3333333333335</ele><time>2026-03-24T10:23:36Z</time></trkpt><trkpt lat="45.9779025572107" lon="12.092245169796227"><ele>1191.1666666666667</ele><time>2026-03-24T10:23:37Z</time></trkpt><trkpt lat="45.9779746694105" lon="12.09221654544822"><ele>1190.0</ele><time>2026-03-24T10:23:38Z</time></trkpt><trkpt lat="45.97804342444241" lon="12.092154807313653"><ele>1192.0</ele><time>2026-03-24T10:23:39Z</time></trkpt><trkpt lat="45.97814204112333" lon="12.092117674231387"><ele>1194.0</ele><time>2026-03-24T10:23:40Z</time></trkpt><trkpt lat="45.97821683878325" lon="12.092067434489095"><ele>1196.0</ele><time>2026-03-24T10:23:41Z</time></trkpt><trkpt lat="45.97828524484252" lon="12.092033249009804"><ele>1198.0</ele><time>2026-03-24T10:23:42Z</time></trkpt><trkpt lat="45.97836384056548" lon="12.092017740486089"><ele>1200.0</ele><time>2026-03-24T10:23:43Z</time></trkpt><trkpt lat="45.978433006515125" lon="12.092022086397618"><ele>1202.0</ele><time>2026-03-24T10:23:44Z</time></trkpt><trkpt lat="45.978502954203435" lon="12.092021175571329"><ele>1202.0</ele><time>2026-03-24T10:23:45Z</time></trkpt><trkpt lat="45.978567897256454" lon="12.092007693718951"><ele>1202.0</ele><time>2026-03-24T10:23:48Z</time></trkpt><trkpt lat="45.97849546047232" lon="12.092008158391687"><ele>1202.0</ele><time>2026-03-24T10:24:17Z</time></trkpt><trkpt lat="45.9784172892289" lon="12.092013668665913"><ele>1202.0</ele><time>2026-03-24T10:24:20Z</time></trkpt><trkpt lat="45.97851043228928" lon="12.092007103029115"><ele>1202.0</ele><time>2026-03-24T10:24:24Z</time></trkpt><trkpt lat="45.97862164526658" lon="12.09199926364907"><ele>1202.0</ele><time>2026-03-24T10:24:26Z</time></trkpt><trkpt lat="45.9786920604292" lon="12.091994300095525"><ele>1202.0</ele><time>2026-03-24T10:24:27Z</time></trkpt><trkpt lat="45.97880885906935" lon="12.092012676731356"><ele>1202.0</ele><time>2026-03-24T10:24:29Z</time></trkpt><trkpt lat="45.97889288729276" lon="12.092020095061422"><ele>1202.0</ele><time>2026-03-24T10:24:31Z</time></trkpt><trkpt lat="45.97896935956392" lon="12.092031537555952"><ele>1202.0</ele><time>2026-03-24T10:24:32Z</time></trkpt><trkpt lat="45.979068815324446" lon="12.092060538331804"><ele>1202.0</ele><time>2026-03-24T10:24:34Z</time></trkpt><trkpt lat="45.97914163231007" lon="12.09208196025248"><ele>1202.5</ele><time>2026-03-24T10:24:35Z</time></trkpt><trkpt lat="45.97927846945196" lon="12.092109324646922"><ele>1203.0</ele><time>2026-03-24T10:24:36Z</time></trkpt><trkpt lat="45.97940877754689" lon="12.09208173010803"><ele>1203.5</ele><time>2026-03-24T10:24:37Z</time></trkpt><trkpt lat="45.97949501428193" lon="12.092040740767342"><ele>1204.0</ele><time>2026-03-24T10:24:38Z</time></trkpt><trkpt lat="45.97961444281185" lon="12.091983102516163"><ele>1204.0</ele><time>2026-03-24T10:24:40Z</time></trkpt><trkpt lat="45.97973313063468" lon="12.091937716718906"><ele>1204.0</ele><time>2026-03-24T10:24:42Z</time></trkpt><trkpt lat="45.97982165673567" lon="12.091961317177654"><ele>1204.0</ele><time>2026-03-24T10:24:52Z</time></trkpt><trkpt lat="45.97990014952711" lon="12.092024574983679"><ele>1204.0</ele><time>2026-03-24T10:24:54Z</time></trkpt><trkpt lat="45.98000383959136" lon="12.092153970349646"><ele>1204.0</ele><time>2026-03-24T10:24:56Z</time></trkpt><trkpt lat="45.98008811125404" lon="12.092224915087218"><ele>1204.0</ele><time>2026-03-24T10:24:57Z</time></trkpt><trkpt lat="45.98014864825883" lon="12.092274888494709"><ele>1204.0</ele><time>2026-03-24T10:24:58Z</time></trkpt><trkpt lat="45.9802565611562" lon="12.092372927856822"><ele>1204.0</ele><time>2026-03-24T10:25:00Z</time></trkpt><trkpt lat="45.98032864131047" lon="12.092442620873962"><ele>1204.0</ele><time>2026-03-24T10:25:01Z</time></trkpt><trkpt lat="45.98041080920538" lon="12.09254360939772"><ele>1204.0</ele><time>2026-03-24T10:25:03Z</time></trkpt><trkpt lat="45.98049890985951" lon="12.092663071136785"><ele>1203.0</ele><time>2026-03-24T10:25:05Z</time></trkpt><trkpt lat="45.98133310674332" lon="12.092859335118167"><ele>1178.0</ele><time>2026-03-24T10:25:09Z</time></trkpt><trkpt lat="45.98138690727331" lon="12.09185122980232"><ele>1178.0</ele><time>2026-03-24T10:25:15Z</time></trkpt><trkpt lat="45.98141307602204" lon="12.09175650896201"><ele>1178.0</ele><time>2026-03-24T10:25:17Z</time></trkpt><trkpt lat="45.9814763472724" lon="12.091656326976416"><ele>1178.0</ele><time>2026-03-24T10:25:21Z</time></trkpt><trkpt lat="45.98154257171472" lon="12.091614498294087"><ele>1178.0</ele><time>2026-03-24T10:25:23Z</time></trkpt><trkpt lat="45.98163207381482" lon="12.09153882902302"><ele>1178.0</ele><time>2026-03-24T10:26:09Z</time></trkpt><trkpt lat="45.98174424258359" lon="12.091481709655245"><ele>1171.1666666666667</ele><time>2026-03-24T10:26:11Z</time></trkpt><trkpt lat="45.98181259770598" lon="12.091449959649735"><ele>1164.3333333333335</ele><time>2026-03-24T10:26:12Z</time></trkpt><trkpt lat="45.98188360496519" lon="12.091440935062689"><ele>1157.5</ele><time>2026-03-24T10:26:13Z</time></trkpt><trkpt lat="45.98196221795411" lon="12.09141458793944"><ele>1150.6666666666667</ele><time>2026-03-24T10:26:14Z</time></trkpt><trkpt lat="45.98204783558962" lon="12.091386751058709"><ele>1143.8333333333333</ele><time>2026-03-24T10:26:15Z</time></trkpt><trkpt lat="45.98214724408943" lon="12.091385843871004"><ele>1137.0</ele><time>2026-03-24T10:26:16Z</time></trkpt><trkpt lat="45.98225259584455" lon="12.091366691311666"><ele>1137.0</ele><time>2026-03-24T10:26:17Z</time></trkpt><trkpt lat="45.982336311347986" lon="12.091366484261568"><ele>1137.0</ele><time>2026-03-24T10:26:18Z</time></trkpt><trkpt lat="45.98246794309483" lon="12.091385480030844"><ele>1137.0</ele><time>2026-03-24T10:26:20.001Z</time></trkpt><trkpt lat="45.982535788112486" lon="12.091445190577014"><ele>1137.0</ele><time>2026-03-24T10:26:21.001Z</time></trkpt><trkpt lat="45.982586739455144" lon="12.09164366014014"><ele>1137.0</ele><time>2026-03-24T10:26:23.001Z</time></trkpt><trkpt lat="45.98260585753187" lon="12.091776043895237"><ele>1136.0</ele><time>2026-03-24T10:26:24.001Z</time></trkpt><trkpt lat="45.982608464686564" lon="12.091889685580723"><ele>1135.0</ele><time>2026-03-24T10:26:25.001Z</time></trkpt><trkpt lat="45.98263536716639" lon="12.092009106232886"><ele>1134.0</ele><time>2026-03-24T10:26:26.001Z</time></trkpt><trkpt lat="45.9826869547886" lon="12.092105282065642"><ele>1133.0</ele><time>2026-03-24T10:26:27.001Z</time></trkpt><trkpt lat="45.98276117730681" lon="12.092192875346319"><ele>1132.0</ele><time>2026-03-24T10:26:28.001Z</time></trkpt><trkpt lat="45.98286751121244" lon="12.092278255599975"><ele>1132.0</ele><time>2026-03-24T10:26:29.001Z</time></trkpt><trkpt lat="45.98295822724638" lon="12.092352211416408"><ele>1132.0</ele><time>2026-03-24T10:26:30.001Z</time></trkpt><trkpt lat="45.98303336246271" lon="12.092443650126517"><ele>1132.0</ele><time>2026-03-24T10:26:31.001Z</time></trkpt><trkpt lat="45.98309739968774" lon="12.09250925817843"><ele>1132.0</ele><time>2026-03-24T10:26:32.001Z</time></trkpt><trkpt lat="45.98316373966237" lon="12.092592235985995"><ele>1132.0</ele><time>2026-03-24T10:26:34Z</time></trkpt><trkpt lat="45.983223373389684" lon="12.092634756186671"><ele>1132.0</ele><time>2026-03-24T10:26:35Z</time></trkpt><trkpt lat="45.983300742126076" lon="12.092574775195523"><ele>1134.0</ele><time>2026-03-24T10:26:37Z</time></trkpt><trkpt lat="45.98335087537238" lon="12.092413061955117"><ele>1136.0</ele><time>2026-03-24T10:26:39Z</time></trkpt><trkpt lat="45.983410175652175" lon="12.09233299371769"><ele>1138.0</ele><time>2026-03-24T10:26:40Z</time></trkpt><trkpt lat="45.983499577494186" lon="12.092194366705447"><ele>1140.0</ele><time>2026-03-24T10:26:42Z</time></trkpt><trkpt lat="45.983567524275394" lon="12.092098736486758"><ele>1142.0</ele><time>2026-03-24T10:26:43Z</time></trkpt><trkpt lat="45.9836575932935" lon="12.092041602556444"><ele>1142.0</ele><time>2026-03-24T10:26:44Z</time></trkpt><trkpt lat="45.983734211571374" lon="12.091983938310769"><ele>1142.0</ele><time>2026-03-24T10:26:45Z</time></trkpt><trkpt lat="45.98382423394165" lon="12.091938680103526"><ele>1142.0</ele><time>2026-03-24T10:26:46Z</time></trkpt><trkpt lat="45.98389783544855" lon="12.091889448326391"><ele>1142.0</ele><time>2026-03-24T10:26:47Z</time></trkpt><trkpt lat="45.98396022535342" lon="12.09183538296584"><ele>1142.0</ele><time>2026-03-24T10:26:48Z</time></trkpt><trkpt lat="45.98406161983908" lon="12.091783314525063"><ele>1142.0</ele><time>2026-03-24T10:26:50Z</time></trkpt><trkpt lat="45.984126917883465" lon="12.091787594428748"><ele>1140.8333333333335</ele><time>2026-03-24T10:26:51Z</time></trkpt><trkpt lat="45.98422534992242" lon="12.09178333277658"><ele>1139.6666666666667</ele><time>2026-03-24T10:26:53Z</time></trkpt><trkpt lat="45.984265905796946" lon="12.091711490906063"><ele>1138.5</ele><time>2026-03-24T10:26:54Z</time></trkpt><trkpt lat="45.98428910183779" lon="12.091626567682932"><ele>1137.3333333333333</ele><time>2026-03-24T10:26:55Z</time></trkpt><trkpt lat="45.984317758469004" lon="12.091510193268409"><ele>1136.1666666666665</ele><time>2026-03-24T10:26:56Z</time></trkpt><trkpt lat="45.98435147768189" lon="12.091370013743417"><ele>1135.0</ele><time>2026-03-24T10:26:57Z</time></trkpt><trkpt lat="45.98438141733713" lon="12.091255742950242"><ele>1135.0</ele><time>2026-03-24T10:26:58Z</time></trkpt><trkpt lat="45.98443094611787" lon="12.091163756035936"><ele>1135.0</ele><time>2026-03-24T10:26:59Z</time></trkpt><trkpt lat="45.98449498803899" lon="12.091069618227078"><ele>1135.0</ele><time>2026-03-24T10:27:00Z</time></trkpt><trkpt lat="45.98456957821457" lon="12.090922964408028"><ele>1135.0</ele><time>2026-03-24T10:27:01Z</time></trkpt><trkpt lat="45.98462240513649" lon="12.09082464386704"><ele>1135.0</ele><time>2026-03-24T10:27:02Z</time></trkpt><trkpt lat="45.984670686400435" lon="12.090747251850471"><ele>1128.6</ele><time>2026-03-24T10:27:03Z</time></trkpt><trkpt lat="45.98473060541185" lon="12.090604091166743"><ele>1122.2</ele><time>2026-03-24T10:27:05Z</time></trkpt><trkpt lat="45.98477798654599" lon="12.090515430643766"><ele>1115.8</ele><time>2026-03-24T10:27:07Z</time></trkpt><trkpt lat="45.9848511241307" lon="12.090458537030747"><ele>1109.4</ele><time>2026-03-24T10:27:09Z</time></trkpt><trkpt lat="45.98494927390112" lon="12.090465261867264"><ele>1103.0</ele><time>2026-03-24T10:27:11Z</time></trkpt><trkpt lat="45.98508286296438" lon="12.09056749701466"><ele>1102.4</ele><time>2026-03-24T10:27:13Z</time></trkpt><trkpt lat="45.985158347668296" lon="12.090610512685338"><ele>1101.8</ele><time>2026-03-24T10:27:14Z</time></trkpt><trkpt lat="45.98524562430073" lon="12.090656513487039"><ele>1101.2</ele><time>2026-03-24T10:27:15Z</time></trkpt><trkpt lat="45.98533178124406" lon="12.090717091290184"><ele>1100.6</ele><time>2026-03-24T10:27:16Z</time></trkpt><trkpt lat="45.98539825919552" lon="12.090774267801203"><ele>1100.0</ele><time>2026-03-24T10:27:17Z</time></trkpt><trkpt lat="45.98552291069718" lon="12.090758691917914"><ele>1100.0</ele><time>2026-03-24T10:27:19Z</time></trkpt><trkpt lat="45.98560015803543" lon="12.090698366324547"><ele>1100.0</ele><time>2026-03-24T10:27:20Z</time></trkpt><trkpt lat="45.985669874151085" lon="12.090614344539983"><ele>1100.0</ele><time>2026-03-24T10:27:21Z</time></trkpt><trkpt lat="45.98574947735537" lon="12.090561153614757"><ele>1100.0</ele><time>2026-03-24T10:27:22Z</time></trkpt><trkpt lat="45.98581383862296" lon="12.090562131978002"><ele>1100.0</ele><time>2026-03-24T10:27:23Z</time></trkpt><trkpt lat="45.98596051872966" lon="12.090646591368001"><ele>1105.0</ele><time>2026-03-24T10:27:25Z</time></trkpt><trkpt lat="45.98606472362398" lon="12.090715715467155"><ele>1110.0</ele><time>2026-03-24T10:27:26Z</time></trkpt><trkpt lat="45.98615952771661" lon="12.090762895641603"><ele>1115.0</ele><time>2026-03-24T10:27:27Z</time></trkpt><trkpt lat="45.98623028721279" lon="12.09081692382733"><ele>1120.0</ele><time>2026-03-24T10:27:28Z</time></trkpt><trkpt lat="45.98631975552835" lon="12.090837611482716"><ele>1125.0</ele><time>2026-03-24T10:27:30Z</time></trkpt><trkpt lat="45.98637378005496" lon="12.090704240634714"><ele>1125.0</ele><time>2026-03-24T10:27:32Z</time></trkpt><trkpt lat="45.986386072860086" lon="12.090590079222519"><ele>1125.0</ele><time>2026-03-24T10:27:33Z</time></trkpt><trkpt lat="45.986381982030615" lon="12.09043971703396"><ele>1125.0</ele><time>2026-03-24T10:27:34Z</time></trkpt><trkpt lat="45.986371996110684" lon="12.090307913413726"><ele>1125.0</ele><time>2026-03-24T10:27:35Z</time></trkpt><trkpt lat="45.98637886125043" lon="12.090115162144686"><ele>1125.0</ele><time>2026-03-24T10:27:36Z</time></trkpt><trkpt lat="45.98638819317413" lon="12.089952584716901"><ele>1123.3333333333333</ele><time>2026-03-24T10:27:37Z</time></trkpt><trkpt lat="45.98637989933376" lon="12.089840184081657"><ele>1121.6666666666667</ele><time>2026-03-24T10:27:38Z</time></trkpt><trkpt lat="45.986381777032236" lon="12.089737629028422"><ele>1120.0</ele><time>2026-03-24T10:27:39Z</time></trkpt><trkpt lat="45.98642980823336" lon="12.08961110216569"><ele>1118.3333333333335</ele><time>2026-03-24T10:27:41Z</time></trkpt><trkpt lat="45.98651375741596" lon="12.089570008693581"><ele>1116.6666666666667</ele><time>2026-03-24T10:27:42Z</time></trkpt><trkpt lat="45.986619514299505" lon="12.089535689394797"><ele>1115.0</ele><time>2026-03-24T10:27:43Z</time></trkpt><trkpt lat="45.986743321413684" lon="12.089523513987853"><ele>1115.0</ele><time>2026-03-24T10:27:44Z</time></trkpt><trkpt lat="45.98686210167553" lon="12.08948471623714"><ele>1115.0</ele><time>2026-03-24T10:27:45Z</time></trkpt><trkpt lat="45.98695352474761" lon="12.089428844178926"><ele>1115.0</ele><time>2026-03-24T10:27:46Z</time></trkpt><trkpt lat="45.987011355278135" lon="12.089365855992039"><ele>1115.0</ele><time>2026-03-24T10:27:47Z</time></trkpt><trkpt lat="45.9870737644771" lon="12.089269998370526"><ele>1115.0</ele><time>2026-03-24T10:27:48Z</time></trkpt><trkpt lat="45.98713639190302" lon="12.089158431263677"><ele>1115.0</ele><time>2026-03-24T10:27:49Z</time></trkpt><trkpt lat="45.987192812107786" lon="12.089093381377927"><ele>1115.0</ele><time>2026-03-24T10:27:50Z</time></trkpt><trkpt lat="45.98727299094472" lon="12.089030305626736"><ele>1115.0</ele><time>2026-03-24T10:27:51Z</time></trkpt><trkpt lat="45.987350022356246" lon="12.089021106979017"><ele>1115.0</ele><time>2026-03-24T10:27:52Z</time></trkpt><trkpt lat="45.98743578853368" lon="12.089022800394147"><ele>1115.0</ele><time>2026-03-24T10:27:53Z</time></trkpt><trkpt lat="45.987530570701324" lon="12.088998794600004"><ele>1115.0</ele><time>2026-03-24T10:27:54Z</time></trkpt><trkpt lat="45.98760470113153" lon="12.089002409106758"><ele>1110.1666666666667</ele><time>2026-03-24T10:27:55Z</time></trkpt><trkpt lat="45.987670259136756" lon="12.088948830121671"><ele>1105.3333333333335</ele><time>2026-03-24T10:27:56Z</time></trkpt><trkpt lat="45.98773149797937" lon="12.088868769005876"><ele>1100.5</ele><time>2026-03-24T10:27:57Z</time></trkpt><trkpt lat="45.987764487295166" lon="12.088747200541597"><ele>1095.6666666666667</ele><time>2026-03-24T10:27:58Z</time></trkpt><trkpt lat="45.98781748219581" lon="12.088642017825583"><ele>1090.8333333333333</ele><time>2026-03-24T10:27:59Z</time></trkpt><trkpt lat="45.98785915295665" lon="12.088554690991158"><ele>1086.0</ele><time>2026-03-24T10:28:00Z</time></trkpt><trkpt lat="45.987906641914975" lon="12.08848278334211"><ele>1086.0</ele><time>2026-03-24T10:28:01Z</time></trkpt><trkpt lat="45.988025045617526" lon="12.088462160131124"><ele>1086.0</ele><time>2026-03-24T10:28:03Z</time></trkpt><trkpt lat="45.988096616638074" lon="12.088527336197433"><ele>1086.0</ele><time>2026-03-24T10:28:04Z</time></trkpt><trkpt lat="45.98818344316537" lon="12.088625726016787"><ele>1086.0</ele><time>2026-03-24T10:28:05Z</time></trkpt><trkpt lat="45.988253063313564" lon="12.088746766501512"><ele>1086.0</ele><time>2026-03-24T10:28:06Z</time></trkpt><trkpt lat="45.988340718009674" lon="12.088733300893725"><ele>1087.8</ele><time>2026-03-24T10:28:07Z</time></trkpt><trkpt lat="45.988433283882294" lon="12.088737969239173"><ele>1089.6</ele><time>2026-03-24T10:28:08Z</time></trkpt><trkpt lat="45.9885035676779" lon="12.088716488325748"><ele>1091.4</ele><time>2026-03-24T10:28:09Z</time></trkpt><trkpt lat="45.98859551912591" lon="12.088696152126552"><ele>1093.2</ele><time>2026-03-24T10:28:10Z</time></trkpt><trkpt lat="45.98868943103857" lon="12.088706468877936"><ele>1095.0</ele><time>2026-03-24T10:28:11Z</time></trkpt><trkpt lat="45.988794349010355" lon="12.088673761553416"><ele>1095.0</ele><time>2026-03-24T10:28:12Z</time></trkpt><trkpt lat="45.98887281053057" lon="12.088621799684992"><ele>1095.0</ele><time>2026-03-24T10:28:13Z</time></trkpt><trkpt lat="45.98894941350046" lon="12.08856346585959"><ele>1095.0</ele><time>2026-03-24T10:28:14Z</time></trkpt><trkpt lat="45.989023781059394" lon="12.088514854566245"><ele>1095.0</ele><time>2026-03-24T10:28:15Z</time></trkpt><trkpt lat="45.98909781458505" lon="12.088511525956674"><ele>1095.0</ele><time>2026-03-24T10:28:16Z</time></trkpt><trkpt lat="45.98918166661987" lon="12.088508545725324"><ele>1095.0</ele><time>2026-03-24T10:28:17Z</time></trkpt><trkpt lat="45.989279090574406" lon="12.08854581259721"><ele>1095.8333333333333</ele><time>2026-03-24T10:28:19Z</time></trkpt><trkpt lat="45.98934645416348" lon="12.088582431218647"><ele>1096.6666666666667</ele><time>2026-03-24T10:28:21Z</time></trkpt><trkpt lat="45.98941092538882" lon="12.088573490591456"><ele>1097.5</ele><time>2026-03-24T10:28:22Z</time></trkpt><trkpt lat="45.989451622700074" lon="12.088494938147939"><ele>1098.3333333333335</ele><time>2026-03-24T10:28:23Z</time></trkpt><trkpt lat="45.989450011722646" lon="12.088347251758766"><ele>1099.1666666666667</ele><time>2026-03-24T10:28:25Z</time></trkpt><trkpt lat="45.989444647849105" lon="12.08824410767384"><ele>1100.0</ele><time>2026-03-24T10:28:27.001Z</time></trkpt><trkpt lat="45.98948656271136" lon="12.088158179753632"><ele>1100.0</ele><time>2026-03-24T10:28:29.001Z</time></trkpt><trkpt lat="45.98953275469359" lon="12.088093612769342"><ele>1100.0</ele><time>2026-03-24T10:28:31.001Z</time></trkpt><trkpt lat="45.98958948927461" lon="12.087918060679312"><ele>1100.0</ele><time>2026-03-24T10:28:33.001Z</time></trkpt><trkpt lat="45.9896242697843" lon="12.08781780342203"><ele>1100.0</ele><time>2026-03-24T10:28:34Z</time></trkpt><trkpt lat="45.98966633392278" lon="12.087689870458526"><ele>1100.0</ele><time>2026-03-24T10:28:35Z</time></trkpt><trkpt lat="45.98970360749032" lon="12.087589755378174"><ele>1100.0</ele><time>2026-03-24T10:28:36Z</time></trkpt><trkpt lat="45.98975055887445" lon="12.087498874149235"><ele>1100.0</ele><time>2026-03-24T10:28:37Z</time></trkpt><trkpt lat="45.98979438789046" lon="12.087422533388844"><ele>1100.0</ele><time>2026-03-24T10:28:38Z</time></trkpt><trkpt lat="45.98981872943882" lon="12.087288180608342"><ele>1100.0</ele><time>2026-03-24T10:28:39Z</time></trkpt><trkpt lat="45.9898277171932" lon="12.087112783514758"><ele>1100.0</ele><time>2026-03-24T10:28:41Z</time></trkpt><trkpt lat="45.9898729147906" lon="12.08692532962192"><ele>1095.0</ele><time>2026-03-24T10:28:43Z</time></trkpt><trkpt lat="45.98988557510612" lon="12.086799858207792"><ele>1090.0</ele><time>2026-03-24T10:28:44Z</time></trkpt><trkpt lat="45.98993203741109" lon="12.086693477818452"><ele>1085.0</ele><time>2026-03-24T10:28:46Z</time></trkpt><trkpt lat="45.99001495277158" lon="12.086563165937635"><ele>1080.0</ele><time>2026-03-24T10:28:48Z</time></trkpt><trkpt lat="45.99014248143901" lon="12.086509656246445"><ele>1075.0</ele><time>2026-03-24T10:28:50Z</time></trkpt><trkpt lat="45.990277342065944" lon="12.08651153656251"><ele>1075.0</ele><time>2026-03-24T10:28:52Z</time></trkpt><trkpt lat="45.99035464661913" lon="12.086527949737304"><ele>1075.0</ele><time>2026-03-24T10:28:53Z</time></trkpt><trkpt lat="45.99043547711322" lon="12.086548792805845"><ele>1075.0</ele><time>2026-03-24T10:28:54Z</time></trkpt><trkpt lat="45.99049720531771" lon="12.086528497734658"><ele>1075.0</ele><time>2026-03-24T10:28:55Z</time></trkpt><trkpt lat="45.99056403333128" lon="12.086448097839815"><ele>1075.0</ele><time>2026-03-24T10:28:56Z</time></trkpt><trkpt lat="45.99063682626047" lon="12.086337130776537"><ele>1075.0</ele><time>2026-03-24T10:28:57Z</time></trkpt><trkpt lat="45.99069089158699" lon="12.086218096364943"><ele>1075.0</ele><time>2026-03-24T10:28:58Z</time></trkpt><trkpt lat="45.99075083720867" lon="12.086089007624453"><ele>1075.0</ele><time>2026-03-24T10:28:59Z</time></trkpt><trkpt lat="45.99080205547755" lon="12.08591740769796"><ele>1075.0</ele><time>2026-03-24T10:29:00Z</time></trkpt><trkpt lat="45.99085310651098" lon="12.08574709642618"><ele>1075.0</ele><time>2026-03-24T10:29:01Z</time></trkpt><trkpt lat="45.9908833481356" lon="12.085590672167335"><ele>1075.0</ele><time>2026-03-24T10:29:02Z</time></trkpt><trkpt lat="45.99091409133158" lon="12.085409283287753"><ele>1075.0</ele><time>2026-03-24T10:29:03Z</time></trkpt><trkpt lat="45.99094825740038" lon="12.085253733625873"><ele>1075.0</ele><time>2026-03-24T10:29:04Z</time></trkpt><trkpt lat="45.99098685811838" lon="12.085113090231749"><ele>1075.0</ele><time>2026-03-24T10:29:05Z</time></trkpt><trkpt lat="45.99098695293752" lon="12.084991470849484"><ele>1075.0</ele><time>2026-03-24T10:29:06Z</time></trkpt><trkpt lat="45.99099938975768" lon="12.08486840479805"><ele>1075.0</ele><time>2026-03-24T10:29:07Z</time></trkpt><trkpt lat="45.99103105828042" lon="12.084749141830173"><ele>1075.0</ele><time>2026-03-24T10:29:08Z</time></trkpt><trkpt lat="45.991062080096356" lon="12.08462156021227"><ele>1075.0</ele><time>2026-03-24T10:29:09Z</time></trkpt><trkpt lat="45.991102695530735" lon="12.084525323552903"><ele>1075.0</ele><time>2026-03-24T10:29:10Z</time></trkpt><trkpt lat="45.99110329709378" lon="12.08441200476451"><ele>1075.0</ele><time>2026-03-24T10:29:11Z</time></trkpt><trkpt lat="45.99109896993643" lon="12.084297806974815"><ele>1075.0</ele><time>2026-03-24T10:29:12Z</time></trkpt><trkpt lat="45.991125923388516" lon="12.084195258905726"><ele>1069.0</ele><time>2026-03-24T10:29:13Z</time></trkpt><trkpt lat="45.99114292205337" lon="12.08409079848163"><ele>1063.0</ele><time>2026-03-24T10:29:14Z</time></trkpt><trkpt lat="45.99118008534523" lon="12.083985490701362"><ele>1057.0</ele><time>2026-03-24T10:29:15Z</time></trkpt><trkpt lat="45.99121150345159" lon="12.083812307500812"><ele>1051.0</ele><time>2026-03-24T10:29:17Z</time></trkpt><trkpt lat="45.991271719268795" lon="12.08366664123707"><ele>1045.0</ele><time>2026-03-24T10:29:19Z</time></trkpt><trkpt lat="45.99132615929636" lon="12.083603274347366"><ele>1045.0</ele><time>2026-03-24T10:29:20Z</time></trkpt><trkpt lat="45.99139691924555" lon="12.083541400741575"><ele>1045.0</ele><time>2026-03-24T10:29:21Z</time></trkpt><trkpt lat="45.99150970483814" lon="12.083461955092398"><ele>1045.0</ele><time>2026-03-24T10:29:22Z</time></trkpt><trkpt lat="45.991603648439636" lon="12.083382340064846"><ele>1045.0</ele><time>2026-03-24T10:29:23Z</time></trkpt><trkpt lat="45.99166801536739" lon="12.08331388569274"><ele>1045.0</ele><time>2026-03-24T10:29:24Z</time></trkpt><trkpt lat="45.991737203410246" lon="12.08325014739074"><ele>1042.6</ele><time>2026-03-24T10:29:25Z</time></trkpt><trkpt lat="45.99179123758366" lon="12.083197965813438"><ele>1040.2</ele><time>2026-03-24T10:29:26Z</time></trkpt><trkpt lat="45.991866948538416" lon="12.083169757459148"><ele>1037.8</ele><time>2026-03-24T10:29:28Z</time></trkpt><trkpt lat="45.991948329064414" lon="12.08324923623642"><ele>1035.4</ele><time>2026-03-24T10:29:31Z</time></trkpt><trkpt lat="45.991989585394585" lon="12.083342074593153"><ele>1033.0</ele><time>2026-03-24T10:29:32Z</time></trkpt><trkpt lat="45.99207581511249" lon="12.083485130307299"><ele>1033.0</ele><time>2026-03-24T10:29:34Z</time></trkpt><trkpt lat="45.99218752406719" lon="12.083549843124159"><ele>1033.0</ele><time>2026-03-24T10:29:36Z</time></trkpt><trkpt lat="45.99225706946477" lon="12.083582719816354"><ele>1033.0</ele><time>2026-03-24T10:29:37Z</time></trkpt><trkpt lat="45.99232881850325" lon="12.083604688630917"><ele>1033.0</ele><time>2026-03-24T10:29:38Z</time></trkpt><trkpt lat="45.99239797226094" lon="12.08361666769282"><ele>1033.0</ele><time>2026-03-24T10:29:39Z</time></trkpt><trkpt lat="45.99247726909708" lon="12.083653651581692"><ele>1033.0</ele><time>2026-03-24T10:29:40Z</time></trkpt><trkpt lat="45.9925496427969" lon="12.08371590005282"><ele>1029.6666666666665</ele><time>2026-03-24T10:29:41Z</time></trkpt><trkpt lat="45.992608187643995" lon="12.083771288904455"><ele>1026.3333333333333</ele><time>2026-03-24T10:29:42Z</time></trkpt><trkpt lat="45.992681172952345" lon="12.08377371952495"><ele>1023.0</ele><time>2026-03-24T10:29:43Z</time></trkpt><trkpt lat="45.992746481975075" lon="12.083732939754247"><ele>1019.6666666666667</ele><time>2026-03-24T10:29:44Z</time></trkpt><trkpt lat="45.99282368146656" lon="12.083662745600268"><ele>1016.3333333333334</ele><time>2026-03-24T10:29:45Z</time></trkpt><trkpt lat="45.99290766724581" lon="12.08361555303134"><ele>1013.0</ele><time>2026-03-24T10:29:47Z</time></trkpt><trkpt lat="45.99296438657656" lon="12.083659743857337"><ele>1013.0000000000001</ele><time>2026-03-24T10:29:48Z</time></trkpt><trkpt lat="45.99302175775993" lon="12.083745658732449"><ele>1013.0</ele><time>2026-03-24T10:29:49Z</time></trkpt><trkpt lat="45.99308512960487" lon="12.08384636364986"><ele>1013.0</ele><time>2026-03-24T10:29:50Z</time></trkpt><trkpt lat="45.99314779877546" lon="12.083895123010645"><ele>1013.0</ele><time>2026-03-24T10:29:51Z</time></trkpt><trkpt lat="45.993228710321354" lon="12.083922463784136"><ele>1013.0000000000001</ele><time>2026-03-24T10:29:52Z</time></trkpt><trkpt lat="45.99330998885464" lon="12.083911356010747"><ele>1013.0</ele><time>2026-03-24T10:29:53Z</time></trkpt><trkpt lat="45.99337686350528" lon="12.083854927180937"><ele>1013.3333333333334</ele><time>2026-03-24T10:29:54Z</time></trkpt><trkpt lat="45.99344618763599" lon="12.083801762511394"><ele>1013.6666666666667</ele><time>2026-03-24T10:29:55Z</time></trkpt><trkpt lat="45.9935828499831" lon="12.083838101587382"><ele>1014.0</ele><time>2026-03-24T10:29:57Z</time></trkpt><trkpt lat="45.99365485978534" lon="12.083854196817898"><ele>1014.3333333333333</ele><time>2026-03-24T10:29:58Z</time></trkpt><trkpt lat="45.99372020012127" lon="12.083822740117677"><ele>1014.6666666666666</ele><time>2026-03-24T10:29:59Z</time></trkpt><trkpt lat="45.99379066361396" lon="12.08376083066558"><ele>1015.0</ele><time>2026-03-24T10:30:00Z</time></trkpt><trkpt lat="45.99384769471207" lon="12.083704482624494"><ele>1015.0</ele><time>2026-03-24T10:30:01Z</time></trkpt><trkpt lat="45.99398794172448" lon="12.0837116782798"><ele>1015.0</ele><time>2026-03-24T10:30:03Z</time></trkpt><trkpt lat="45.99407188495438" lon="12.083737958795952"><ele>1015.0</ele><time>2026-03-24T10:30:04Z</time></trkpt><trkpt lat="45.99415756397341" lon="12.083748978346279"><ele>1015.0</ele><time>2026-03-24T10:30:05Z</time></trkpt><trkpt lat="45.99423355710853" lon="12.083731087268976"><ele>1015.0</ele><time>2026-03-24T10:30:06Z</time></trkpt><trkpt lat="45.99430338629671" lon="12.08371376383749"><ele>1012.6666666666666</ele><time>2026-03-24T10:30:07Z</time></trkpt><trkpt lat="45.99438060948633" lon="12.083694014278791"><ele>1010.3333333333333</ele><time>2026-03-24T10:30:08Z</time></trkpt><trkpt lat="45.99444833780239" lon="12.083670259630589"><ele>1008.0</ele><time>2026-03-24T10:30:09Z</time></trkpt><trkpt lat="45.994558646035486" lon="12.083646509789329"><ele>1005.6666666666667</ele><time>2026-03-24T10:30:11Z</time></trkpt><trkpt lat="45.994622884707276" lon="12.083643916790209"><ele>1003.3333333333334</ele><time>2026-03-24T10:30:12Z</time></trkpt><trkpt lat="45.99468798126809" lon="12.083639851923017"><ele>1001.0</ele><time>2026-03-24T10:30:13Z</time></trkpt><trkpt lat="45.99477856264087" lon="12.08366237071908"><ele>1001.0</ele><time>2026-03-24T10:30:14Z</time></trkpt><trkpt lat="45.994877117941954" lon="12.083675437336645"><ele>1000.9999999999999</ele><time>2026-03-24T10:30:15Z</time></trkpt><trkpt lat="45.99497375048373" lon="12.083686449896488"><ele>1000.9999999999999</ele><time>2026-03-24T10:30:16Z</time></trkpt><trkpt lat="45.99506033729926" lon="12.08370837251109"><ele>1001.0</ele><time>2026-03-24T10:30:17Z</time></trkpt><trkpt lat="45.99516462140027" lon="12.0837480517595"><ele>1001.0</ele><time>2026-03-24T10:30:18Z</time></trkpt><trkpt lat="45.99527445417692" lon="12.083802699058326"><ele>1000.1999999999999</ele><time>2026-03-24T10:30:19Z</time></trkpt><trkpt lat="45.99538724652816" lon="12.083840586631709"><ele>999.3999999999999</ele><time>2026-03-24T10:30:20Z</time></trkpt><trkpt lat="45.99547680218054" lon="12.083869251736097"><ele>998.6</ele><time>2026-03-24T10:30:21Z</time></trkpt><trkpt lat="45.99557208337436" lon="12.083901145979883"><ele>997.8</ele><time>2026-03-24T10:30:22Z</time></trkpt><trkpt lat="45.99566315136958" lon="12.083904661035106"><ele>997.0</ele><time>2026-03-24T10:30:23Z</time></trkpt><trkpt lat="45.995758264068776" lon="12.083886921664542"><ele>995.1666666666666</ele><time>2026-03-24T10:30:24Z</time></trkpt><trkpt lat="45.99584694414772" lon="12.08385712264019"><ele>993.3333333333333</ele><time>2026-03-24T10:30:25Z</time></trkpt><trkpt lat="45.99592384811144" lon="12.083835090843413"><ele>991.5</ele><time>2026-03-24T10:30:26Z</time></trkpt><trkpt lat="45.99598896812139" lon="12.08383345901549"><ele>989.6666666666667</ele><time>2026-03-24T10:30:27Z</time></trkpt><trkpt lat="45.99608920729502" lon="12.08388091350741"><ele>987.8333333333334</ele><time>2026-03-24T10:30:29Z</time></trkpt><trkpt lat="45.99617181825187" lon="12.083921542173611"><ele>986.0</ele><time>2026-03-24T10:30:31Z</time></trkpt><trkpt lat="45.99622925816459" lon="12.083961023409204"><ele>986.0000000000001</ele><time>2026-03-24T10:30:34Z</time></trkpt><trkpt lat="45.996244884317115" lon="12.084063430368637"><ele>986.0</ele><time>2026-03-24T10:31:00Z</time></trkpt><trkpt lat="45.99623977847922" lon="12.084234535293765"><ele>986.0</ele><time>2026-03-24T10:31:02Z</time></trkpt><trkpt lat="45.99625527659707" lon="12.08433393279214"><ele>986.0</ele><time>2026-03-24T10:31:03Z</time></trkpt><trkpt lat="45.996252967225445" lon="12.084447323245385"><ele>986.0000000000001</ele><time>2026-03-24T10:31:05Z</time></trkpt><trkpt lat="45.996226220967465" lon="12.084558676280585"><ele>986.0</ele><time>2026-03-24T10:31:07Z</time></trkpt><trkpt lat="45.99620420200806" lon="12.084712000014552"><ele>988.5000000000001</ele><time>2026-03-24T10:31:09Z</time></trkpt><trkpt lat="45.996184148993" lon="12.084839517045147"><ele>991.0</ele><time>2026-03-24T10:31:11Z</time></trkpt><trkpt lat="45.99616267195527" lon="12.084951294570114"><ele>993.5</ele><time>2026-03-24T10:31:13Z</time></trkpt><trkpt lat="45.9961589356433" lon="12.08505176901292"><ele>996.0</ele><time>2026-03-24T10:31:15Z</time></trkpt><trkpt lat="45.99615498761165" lon="12.085158032369703"><ele>998.5000000000001</ele><time>2026-03-24T10:31:18Z</time></trkpt><trkpt lat="45.99616062359859" lon="12.085304143165429"><ele>1001.0</ele><time>2026-03-24T10:31:21Z</time></trkpt><trkpt lat="45.99613992757757" lon="12.085440839881752"><ele>1001.0000000000001</ele><time>2026-03-24T10:31:23Z</time></trkpt><trkpt lat="45.996083926224124" lon="12.08556608110803"><ele>1001.0</ele><time>2026-03-24T10:31:25Z</time></trkpt><trkpt lat="45.99603012239817" lon="12.08573578694268"><ele>1001.0</ele><time>2026-03-24T10:31:27Z</time></trkpt><trkpt lat="45.99602307716651" lon="12.085831411570302"><ele>1001.0</ele><time>2026-03-24T10:31:28Z</time></trkpt><trkpt lat="45.99603393890437" lon="12.085921647911178"><ele>1001.0000000000001</ele><time>2026-03-24T10:31:29Z</time></trkpt><trkpt lat="45.996061245203904" lon="12.086038078037443"><ele>1001.0</ele><time>2026-03-24T10:31:30Z</time></trkpt><trkpt lat="45.99610086361481" lon="12.086149869520039"><ele>1001.5000000000001</ele><time>2026-03-24T10:31:31Z</time></trkpt><trkpt lat="45.996141940064675" lon="12.086254468635902"><ele>1002.0</ele><time>2026-03-24T10:31:32Z</time></trkpt><trkpt lat="45.99618736527366" lon="12.086382150180777"><ele>1002.5</ele><time>2026-03-24T10:31:33Z</time></trkpt><trkpt lat="45.99623131625997" lon="12.086493616342853"><ele>1003.0</ele><time>2026-03-24T10:31:34Z</time></trkpt><trkpt lat="45.9962705757012" lon="12.08658725830004"><ele>1003.5000000000001</ele><time>2026-03-24T10:31:35Z</time></trkpt><trkpt lat="45.99630134164248" lon="12.08666847186206"><ele>1004.0</ele><time>2026-03-24T10:31:36Z</time></trkpt><trkpt lat="45.99631712281191" lon="12.08681548537849"><ele>1004.1666666666667</ele><time>2026-03-24T10:31:38Z</time></trkpt><trkpt lat="45.99627429156074" lon="12.086895821449207"><ele>1004.3333333333334</ele><time>2026-03-24T10:31:39Z</time></trkpt><trkpt lat="45.99621165759514" lon="12.086987954070594"><ele>1004.5</ele><time>2026-03-24T10:31:40Z</time></trkpt><trkpt lat="45.99614361049579" lon="12.08706504475206"><ele>1004.6666666666667</ele><time>2026-03-24T10:31:41Z</time></trkpt><trkpt lat="45.99606896563768" lon="12.087144485043057"><ele>1004.8333333333334</ele><time>2026-03-24T10:31:42Z</time></trkpt><trkpt lat="45.99600282470859" lon="12.08722580030163"><ele>1005.0</ele><time>2026-03-24T10:31:43Z</time></trkpt><trkpt lat="45.99596140679556" lon="12.087313384949443"><ele>1005.0</ele><time>2026-03-24T10:31:44Z</time></trkpt><trkpt lat="45.995861450859856" lon="12.087403602161892"><ele>1005.0</ele><time>2026-03-24T10:31:46Z</time></trkpt><trkpt lat="45.99580477933029" lon="12.087504823454674"><ele>1005.0</ele><time>2026-03-24T10:31:48Z</time></trkpt><trkpt lat="45.99583390196136" lon="12.087682652916401"><ele>1005.0</ele><time>2026-03-24T10:31:50Z</time></trkpt><trkpt lat="45.99585464810801" lon="12.087787786830418"><ele>1005.0</ele><time>2026-03-24T10:31:51Z</time></trkpt><trkpt lat="45.99587369723897" lon="12.087909985256283"><ele>1004.0</ele><time>2026-03-24T10:31:52Z</time></trkpt><trkpt lat="45.99588704176599" lon="12.088049201720015"><ele>1003.0</ele><time>2026-03-24T10:31:53Z</time></trkpt><trkpt lat="45.99589473111132" lon="12.08816874374163"><ele>1002.0</ele><time>2026-03-24T10:31:54Z</time></trkpt><trkpt lat="45.995907784492005" lon="12.088279155393364"><ele>1001.0</ele><time>2026-03-24T10:31:55Z</time></trkpt><trkpt lat="45.99593863124067" lon="12.088379716978393"><ele>1000.0</ele><time>2026-03-24T10:31:56Z</time></trkpt><trkpt lat="45.995935470630265" lon="12.088509536952133"><ele>999.0</ele><time>2026-03-24T10:31:58Z</time></trkpt><trkpt lat="45.99588378560745" lon="12.088573881732096"><ele>1008.0</ele><time>2026-03-24T10:31:59Z</time></trkpt><trkpt lat="45.995819997600904" lon="12.088620902591423"><ele>1017.0</ele><time>2026-03-24T10:32:00Z</time></trkpt><trkpt lat="45.995741757014834" lon="12.088669654004503"><ele>1026.0</ele><time>2026-03-24T10:32:01Z</time></trkpt><trkpt lat="45.995663191544885" lon="12.088731462814147"><ele>1035.0</ele><time>2026-03-24T10:32:02Z</time></trkpt><trkpt lat="45.99557770635636" lon="12.088777342731692"><ele>1044.0</ele><time>2026-03-24T10:32:03Z</time></trkpt><trkpt lat="45.99547905714242" lon="12.08882757271157"><ele>1053.0</ele><time>2026-03-24T10:32:04Z</time></trkpt><trkpt lat="45.99538442705479" lon="12.08888083045893"><ele>1053.0</ele><time>2026-03-24T10:32:05Z</time></trkpt><trkpt lat="45.9952988514506" lon="12.088956836450468"><ele>1053.0</ele><time>2026-03-24T10:32:06Z</time></trkpt><trkpt lat="45.995200926321296" lon="12.089046514574584"><ele>1053.0</ele><time>2026-03-24T10:32:07Z</time></trkpt><trkpt lat="45.995107522514715" lon="12.089143532327995"><ele>1053.0</ele><time>2026-03-24T10:32:08Z</time></trkpt><trkpt lat="45.99501692773967" lon="12.08923215210874"><ele>1053.0</ele><time>2026-03-24T10:32:09Z</time></trkpt><trkpt lat="45.99492411071611" lon="12.08932347672568"><ele>1059.0</ele><time>2026-03-24T10:32:10Z</time></trkpt><trkpt lat="45.99485503778901" lon="12.089410147263054"><ele>1065.0</ele><time>2026-03-24T10:32:11Z</time></trkpt><trkpt lat="45.99476504568094" lon="12.089500986981461"><ele>1071.0</ele><time>2026-03-24T10:32:12Z</time></trkpt><trkpt lat="45.994699367682934" lon="12.089597687173974"><ele>1077.0</ele><time>2026-03-24T10:32:13Z</time></trkpt><trkpt lat="45.994629355564356" lon="12.08972105863015"><ele>1083.0</ele><time>2026-03-24T10:32:14Z</time></trkpt><trkpt lat="45.994564812250985" lon="12.089829079673995"><ele>1083.0</ele><time>2026-03-24T10:32:15Z</time></trkpt><trkpt lat="45.99451295321314" lon="12.08992221995596"><ele>1083.0</ele><time>2026-03-24T10:32:16Z</time></trkpt><trkpt lat="45.99440862400191" lon="12.08997711101376"><ele>1083.0</ele><time>2026-03-24T10:32:18Z</time></trkpt><trkpt lat="45.99434353480634" lon="12.090013959618213"><ele>1083.0</ele><time>2026-03-24T10:32:19Z</time></trkpt><trkpt lat="45.994272583513336" lon="12.090021006006156"><ele>1083.0</ele><time>2026-03-24T10:32:20Z</time></trkpt><trkpt lat="45.99420089946714" lon="12.089997578894533"><ele>1083.0</ele><time>2026-03-24T10:32:21Z</time></trkpt><trkpt lat="45.994129416694655" lon="12.089955512670642"><ele>1084.1666666666667</ele><time>2026-03-24T10:32:22Z</time></trkpt><trkpt lat="45.99405775896232" lon="12.089932115427326"><ele>1085.3333333333333</ele><time>2026-03-24T10:32:23Z</time></trkpt><trkpt lat="45.99398506134592" lon="12.089925657177139"><ele>1086.5</ele><time>2026-03-24T10:32:24Z</time></trkpt><trkpt lat="45.993900293298175" lon="12.089954584192165"><ele>1087.6666666666665</ele><time>2026-03-24T10:32:25Z</time></trkpt><trkpt lat="45.99381366510026" lon="12.089997178241951"><ele>1088.8333333333333</ele><time>2026-03-24T10:32:26Z</time></trkpt><trkpt lat="45.99373826548844" lon="12.09004086480602"><ele>1090.0</ele><time>2026-03-24T10:32:27Z</time></trkpt><trkpt lat="45.99366481631675" lon="12.09010259488268"><ele>1090.0</ele><time>2026-03-24T10:32:28Z</time></trkpt><trkpt lat="45.9935952409032" lon="12.090149976169085"><ele>1090.0</ele><time>2026-03-24T10:32:29Z</time></trkpt><trkpt lat="45.99350736611256" lon="12.09022182827185"><ele>1090.0</ele><time>2026-03-24T10:32:30Z</time></trkpt><trkpt lat="45.993424478951496" lon="12.09028347173748"><ele>1090.0</ele><time>2026-03-24T10:32:31Z</time></trkpt><trkpt lat="45.9933409323679" lon="12.090348598038192"><ele>1090.0</ele><time>2026-03-24T10:32:32Z</time></trkpt><trkpt lat="45.993288521267964" lon="12.090406668510878"><ele>1090.0</ele><time>2026-03-24T10:32:33Z</time></trkpt><trkpt lat="45.99319398441421" lon="12.090514774525987"><ele>1090.6</ele><time>2026-03-24T10:32:35Z</time></trkpt><trkpt lat="45.993130837564316" lon="12.090635312959341"><ele>1091.2</ele><time>2026-03-24T10:32:36Z</time></trkpt><trkpt lat="45.99305510988893" lon="12.090738444464064"><ele>1091.8</ele><time>2026-03-24T10:32:37Z</time></trkpt><trkpt lat="45.9929868249494" lon="12.09084478150732"><ele>1092.4</ele><time>2026-03-24T10:32:38Z</time></trkpt><trkpt lat="45.9929153655606" lon="12.090940738534627"><ele>1093.0</ele><time>2026-03-24T10:32:39Z</time></trkpt><trkpt lat="45.99284796824971" lon="12.09102990250667"><ele>1093.0</ele><time>2026-03-24T10:32:40Z</time></trkpt><trkpt lat="45.992759661470195" lon="12.091091276502949"><ele>1093.0</ele><time>2026-03-24T10:32:41Z</time></trkpt><trkpt lat="45.99268208730111" lon="12.091142651206725"><ele>1093.0</ele><time>2026-03-24T10:32:42Z</time></trkpt><trkpt lat="45.992595083413406" lon="12.091210844447234"><ele>1093.0</ele><time>2026-03-24T10:32:43Z</time></trkpt><trkpt lat="45.99251265433433" lon="12.091259461390859"><ele>1093.0</ele><time>2026-03-24T10:32:44Z</time></trkpt><trkpt lat="45.99243562374747" lon="12.091307260829911"><ele>1101.2</ele><time>2026-03-24T10:32:45Z</time></trkpt><trkpt lat="45.99232550485186" lon="12.091371096424997"><ele>1109.4</ele><time>2026-03-24T10:32:47Z</time></trkpt><trkpt lat="45.99222399186715" lon="12.091364150719373"><ele>1117.6000000000001</ele><time>2026-03-24T10:32:48Z</time></trkpt><trkpt lat="45.99214003636571" lon="12.091347632786055"><ele>1125.8</ele><time>2026-03-24T10:32:49Z</time></trkpt><trkpt lat="45.99207635726273" lon="12.091333034108422"><ele>1134.0</ele><time>2026-03-24T10:32:50Z</time></trkpt><trkpt lat="45.991994230290615" lon="12.09134807798675"><ele>1134.0</ele><time>2026-03-24T10:32:51Z</time></trkpt><trkpt lat="45.991912018883546" lon="12.091442816193137"><ele>1134.0</ele><time>2026-03-24T10:32:53Z</time></trkpt><trkpt lat="45.991798145268966" lon="12.091529897976859"><ele>1134.0</ele><time>2026-03-24T10:32:55Z</time></trkpt><trkpt lat="45.99173865651531" lon="12.09157377724144"><ele>1134.0</ele><time>2026-03-24T10:32:56Z</time></trkpt><trkpt lat="45.99164316917135" lon="12.091693053666578"><ele>1134.0</ele><time>2026-03-24T10:32:58Z</time></trkpt><trkpt lat="45.991590065159286" lon="12.091762228781029"><ele>1135.6000000000001</ele><time>2026-03-24T10:32:59Z</time></trkpt><trkpt lat="45.99154073667078" lon="12.0919072579072"><ele>1137.2</ele><time>2026-03-24T10:33:01Z</time></trkpt><trkpt lat="45.99151659085597" lon="12.092009663349696"><ele>1138.8000000000002</ele><time>2026-03-24T10:33:02Z</time></trkpt><trkpt lat="45.991491408930116" lon="12.092128673758896"><ele>1140.4</ele><time>2026-03-24T10:33:03Z</time></trkpt><trkpt lat="45.99148274577846" lon="12.092225959478396"><ele>1142.0</ele><time>2026-03-24T10:33:04Z</time></trkpt><trkpt lat="45.99139037574297" lon="12.092331885666914"><ele>1142.0</ele><time>2026-03-24T10:33:06Z</time></trkpt><trkpt lat="45.99131768452134" lon="12.092376084148597"><ele>1142.0</ele><time>2026-03-24T10:33:07Z</time></trkpt><trkpt lat="45.99123618122584" lon="12.09245714928544"><ele>1142.0</ele><time>2026-03-24T10:33:08Z</time></trkpt><trkpt lat="45.99114826260554" lon="12.09251430254923"><ele>1142.0</ele><time>2026-03-24T10:33:09Z</time></trkpt><trkpt lat="45.99107184413377" lon="12.092579589145377"><ele>1142.0</ele><time>2026-03-24T10:33:10Z</time></trkpt><trkpt lat="45.990972185528335" lon="12.092654840667247"><ele>1144.0</ele><time>2026-03-24T10:33:12Z</time></trkpt><trkpt lat="45.9908346772397" lon="12.092607735455912"><ele>1146.0</ele><time>2026-03-24T10:33:14Z</time></trkpt><trkpt lat="45.99075634639006" lon="12.092621502251365"><ele>1148.0</ele><time>2026-03-24T10:33:15Z</time></trkpt><trkpt lat="45.99066298083815" lon="12.09268770183789"><ele>1150.0</ele><time>2026-03-24T10:33:16Z</time></trkpt><trkpt lat="45.990565408467326" lon="12.092751887137009"><ele>1152.0</ele><time>2026-03-24T10:33:17Z</time></trkpt><trkpt lat="45.99049411732494" lon="12.092805319606347"><ele>1152.0000000000002</ele><time>2026-03-24T10:33:18Z</time></trkpt><trkpt lat="45.99043495812588" lon="12.092860963925117"><ele>1152.0</ele><time>2026-03-24T10:33:19Z</time></trkpt><trkpt lat="45.990382086700166" lon="12.09294629729323"><ele>1152.0</ele><time>2026-03-24T10:33:20Z</time></trkpt><trkpt lat="45.99036128277318" lon="12.093036157965361"><ele>1152.0</ele><time>2026-03-24T10:33:21Z</time></trkpt><trkpt lat="45.99032163465339" lon="12.09311180750388"><ele>1152.0</ele><time>2026-03-24T10:33:22Z</time></trkpt><trkpt lat="45.9902672253916" lon="12.09318092941683"><ele>1152.0000000000002</ele><time>2026-03-24T10:33:23Z</time></trkpt><trkpt lat="45.99021850414454" lon="12.093259470701371"><ele>1152.0</ele><time>2026-03-24T10:33:24Z</time></trkpt><trkpt lat="45.99017200962755" lon="12.093334251411434"><ele>1147.3333333333333</ele><time>2026-03-24T10:33:25Z</time></trkpt><trkpt lat="45.99014827005887" lon="12.093424941528403"><ele>1142.6666666666667</ele><time>2026-03-24T10:33:26Z</time></trkpt><trkpt lat="45.990134823070015" lon="12.093525695663752"><ele>1138.0</ele><time>2026-03-24T10:33:27Z</time></trkpt><trkpt lat="45.990113837773556" lon="12.093662351833963"><ele>1133.3333333333335</ele><time>2026-03-24T10:33:28Z</time></trkpt><trkpt lat="45.9901136134152" lon="12.093788308729357"><ele>1128.6666666666667</ele><time>2026-03-24T10:33:29Z</time></trkpt><trkpt lat="45.990111265222446" lon="12.093886495006894"><ele>1124.0</ele><time>2026-03-24T10:33:30Z</time></trkpt><trkpt lat="45.99009650284761" lon="12.093996789916973"><ele>1126.1428571428573</ele><time>2026-03-24T10:33:31Z</time></trkpt><trkpt lat="45.99007683871169" lon="12.094093448399626"><ele>1128.2857142857142</ele><time>2026-03-24T10:33:32Z</time></trkpt><trkpt lat="45.99005095182193" lon="12.094176150417828"><ele>1130.4285714285716</ele><time>2026-03-24T10:33:33Z</time></trkpt><trkpt lat="45.9899964017723" lon="12.0942376861789"><ele>1132.5714285714287</ele><time>2026-03-24T10:33:34Z</time></trkpt><trkpt lat="45.98992923590035" lon="12.094285937309737"><ele>1134.7142857142858</ele><time>2026-03-24T10:33:35Z</time></trkpt><trkpt lat="45.989853695555176" lon="12.094326545076743"><ele>1136.857142857143</ele><time>2026-03-24T10:33:36Z</time></trkpt><trkpt lat="45.989781458406824" lon="12.094349069734264"><ele>1139.0</ele><time>2026-03-24T10:33:37Z</time></trkpt><trkpt lat="45.98963641875617" lon="12.094370001435973"><ele>1139.0</ele><time>2026-03-24T10:33:39Z</time></trkpt><trkpt lat="45.98956221831269" lon="12.094377048241608"><ele>1139.0</ele><time>2026-03-24T10:33:40Z</time></trkpt><trkpt lat="45.98946370150316" lon="12.094408900171308"><ele>1139.0</ele><time>2026-03-24T10:33:41Z</time></trkpt><trkpt lat="45.98936999955465" lon="12.094417470896296"><ele>1139.0</ele><time>2026-03-24T10:33:42Z</time></trkpt><trkpt lat="45.989284610712346" lon="12.09441680852765"><ele>1139.0</ele><time>2026-03-24T10:33:43Z</time></trkpt><trkpt lat="45.98918586500581" lon="12.094430352231525"><ele>1145.3333333333335</ele><time>2026-03-24T10:33:44Z</time></trkpt><trkpt lat="45.9891115304858" lon="12.094466895212266"><ele>1151.6666666666667</ele><time>2026-03-24T10:33:45Z</time></trkpt><trkpt lat="45.9890317177803" lon="12.094498415473936"><ele>1158.0</ele><time>2026-03-24T10:33:46Z</time></trkpt><trkpt lat="45.988960804549464" lon="12.094535195628733"><ele>1164.3333333333333</ele><time>2026-03-24T10:33:47Z</time></trkpt><trkpt lat="45.988884029362985" lon="12.094566127387033"><ele>1170.6666666666665</ele><time>2026-03-24T10:33:48Z</time></trkpt><trkpt lat="45.98879353887056" lon="12.09462359824617"><ele>1177.0</ele><time>2026-03-24T10:33:49Z</time></trkpt><trkpt lat="45.98873351286288" lon="12.094681681106401"><ele>1177.0</ele><time>2026-03-24T10:33:50Z</time></trkpt><trkpt lat="45.98867054725575" lon="12.094726644213882"><ele>1177.0</ele><time>2026-03-24T10:33:51Z</time></trkpt><trkpt lat="45.98859864590922" lon="12.094783425082747"><ele>1177.0</ele><time>2026-03-24T10:33:52Z</time></trkpt><trkpt lat="45.98854173656878" lon="12.094832375835319"><ele>1177.0</ele><time>2026-03-24T10:33:53Z</time></trkpt><trkpt lat="45.9884662258906" lon="12.094979118104918"><ele>1177.0</ele><time>2026-03-24T10:33:55Z</time></trkpt><trkpt lat="45.98842375500613" lon="12.095047705151973"><ele>1177.0</ele><time>2026-03-24T10:33:56Z</time></trkpt><trkpt lat="45.988337794906045" lon="12.095115484709535"><ele>1178.8</ele><time>2026-03-24T10:33:58Z</time></trkpt><trkpt lat="45.98826773681249" lon="12.09518151632529"><ele>1180.6</ele><time>2026-03-24T10:34:02Z</time></trkpt><trkpt lat="45.988223607714616" lon="12.095302229262767"><ele>1182.3999999999999</ele><time>2026-03-24T10:34:05Z</time></trkpt><trkpt lat="45.98828708370243" lon="12.095403099339045"><ele>1184.2</ele><time>2026-03-24T10:34:08Z</time></trkpt><trkpt lat="45.98840288974233" lon="12.095484545951306"><ele>1186.0</ele><time>2026-03-24T10:34:10Z</time></trkpt><trkpt lat="45.98846881654529" lon="12.095545939751007"><ele>1180.6666666666665</ele><time>2026-03-24T10:34:11Z</time></trkpt><trkpt lat="45.98852285336877" lon="12.095622603699518"><ele>1175.3333333333333</ele><time>2026-03-24T10:34:12Z</time></trkpt><trkpt lat="45.98861782883551" lon="12.095731893560094"><ele>1170.0</ele><time>2026-03-24T10:34:14Z</time></trkpt><trkpt lat="45.988664982273335" lon="12.095827035621088"><ele>1164.6666666666667</ele><time>2026-03-24T10:34:15Z</time></trkpt><trkpt lat="45.98868262122017" lon="12.095928053501497"><ele>1159.3333333333335</ele><time>2026-03-24T10:34:16Z</time></trkpt><trkpt lat="45.98870615452941" lon="12.096037129118406"><ele>1154.0</ele><time>2026-03-24T10:34:17Z</time></trkpt><trkpt lat="45.98872944567884" lon="12.096127854219116"><ele>1154.0</ele><time>2026-03-24T10:34:18Z</time></trkpt><trkpt lat="45.988731805978865" lon="12.096273643607534"><ele>1154.0</ele><time>2026-03-24T10:34:20Z</time></trkpt><trkpt lat="45.988712199881995" lon="12.096362224285789"><ele>1154.0</ele><time>2026-03-24T10:34:21Z</time></trkpt><trkpt lat="45.98868127980726" lon="12.096504443214666"><ele>1154.0</ele><time>2026-03-24T10:34:23Z</time></trkpt><trkpt lat="45.98867914673122" lon="12.096637923494269"><ele>1154.0</ele><time>2026-03-24T10:34:25Z</time></trkpt><trkpt lat="45.9886592631936" lon="12.096728773205756"><ele>1154.0</ele><time>2026-03-24T10:34:26Z</time></trkpt><trkpt lat="45.98865686325673" lon="12.096824615131808"><ele>1155.6666666666667</ele><time>2026-03-24T10:34:27Z</time></trkpt><trkpt lat="45.9886615625516" lon="12.096998678164672"><ele>1157.3333333333335</ele><time>2026-03-24T10:34:29Z</time></trkpt><trkpt lat="45.988689411646504" lon="12.09708527920249"><ele>1159.0</ele><time>2026-03-24T10:34:30Z</time></trkpt><trkpt lat="45.98869841216413" lon="12.097181435002867"><ele>1160.6666666666667</ele><time>2026-03-24T10:34:31Z</time></trkpt><trkpt lat="45.98873919339944" lon="12.097328521699287"><ele>1162.3333333333333</ele><time>2026-03-24T10:34:33Z</time></trkpt><trkpt lat="45.98869476750137" lon="12.097428723396463"><ele>1164.0</ele><time>2026-03-24T10:34:35Z</time></trkpt><trkpt lat="45.98862965763747" lon="12.097521471054803"><ele>1164.1666666666667</ele><time>2026-03-24T10:34:37Z</time></trkpt><trkpt lat="45.988568167076174" lon="12.09763702971748"><ele>1164.3333333333333</ele><time>2026-03-24T10:34:39Z</time></trkpt><trkpt lat="45.988537029838625" lon="12.0977304122247"><ele>1164.5</ele><time>2026-03-24T10:34:42Z</time></trkpt><trkpt lat="45.98851407445282" lon="12.097824264306876"><ele>1164.6666666666665</ele><time>2026-03-24T10:34:45Z</time></trkpt><trkpt lat="45.988506423139846" lon="12.097942224334423"><ele>1164.8333333333333</ele><time>2026-03-24T10:34:48Z</time></trkpt><trkpt lat="45.988529739550806" lon="12.098044829425273"><ele>1165.0</ele><time>2026-03-24T10:34:51Z</time></trkpt><trkpt lat="45.98857384497744" lon="12.098119495549899"><ele>1165.0</ele><time>2026-03-24T10:34:53Z</time></trkpt><trkpt lat="45.988649668393315" lon="12.09820759911263"><ele>1165.0</ele><time>2026-03-24T10:34:55Z</time></trkpt><trkpt lat="45.98871447952431" lon="12.098271867995638"><ele>1165.0</ele><time>2026-03-24T10:34:57Z</time></trkpt><trkpt lat="45.98876801128586" lon="12.098362319576816"><ele>1165.0</ele><time>2026-03-24T10:34:59Z</time></trkpt><trkpt lat="45.988737638630475" lon="12.098469589322384"><ele>1165.0</ele><time>2026-03-24T10:35:01Z</time></trkpt><trkpt lat="45.98867953899907" lon="12.098634880823633"><ele>1165.1666666666665</ele><time>2026-03-24T10:35:03Z</time></trkpt><trkpt lat="45.988641182197725" lon="12.098713043944684"><ele>1165.3333333333333</ele><time>2026-03-24T10:35:04Z</time></trkpt><trkpt lat="45.98859979817387" lon="12.098785507639887"><ele>1165.5</ele><time>2026-03-24T10:35:05Z</time></trkpt><trkpt lat="45.98854320703813" lon="12.098887736922915"><ele>1165.6666666666667</ele><time>2026-03-24T10:35:07Z</time></trkpt><trkpt lat="45.988532601069224" lon="12.09900232018328"><ele>1165.8333333333335</ele><time>2026-03-24T10:35:09Z</time></trkpt><trkpt lat="45.98850513015333" lon="12.099125243063071"><ele>1166.0</ele><time>2026-03-24T10:35:12Z</time></trkpt><trkpt lat="45.98849888822773" lon="12.099218501384163"><ele>1166.0000000000002</ele><time>2026-03-24T10:36:18Z</time></trkpt><trkpt lat="45.98846389511978" lon="12.099299211211415"><ele>1166.0</ele><time>2026-03-24T10:36:23Z</time></trkpt><trkpt lat="45.9884458352158" lon="12.099387350433245"><ele>1166.0</ele><time>2026-03-24T10:36:55Z</time></trkpt><trkpt lat="45.9884517202042" lon="12.099488152009886"><ele>1166.0</ele><time>2026-03-24T10:36:59Z</time></trkpt><trkpt lat="45.988525470674986" lon="12.099565149040327"><ele>1166.0</ele><time>2026-03-24T10:37:03Z</time></trkpt><trkpt lat="45.98859300005964" lon="12.09957472115869"><ele>1166.0000000000002</ele><time>2026-03-24T10:37:05Z</time></trkpt><trkpt lat="45.98868068738226" lon="12.099546356725114"><ele>1166.0</ele><time>2026-03-24T10:37:07Z</time></trkpt><trkpt lat="45.98875055665335" lon="12.099510362007848"><ele>1166.0</ele><time>2026-03-24T10:37:09Z</time></trkpt><trkpt lat="45.98881618276687" lon="12.099476552645127"><ele>1166.0</ele><time>2026-03-24T10:37:11Z</time></trkpt><trkpt lat="45.988886277953426" lon="12.099443476815669"><ele>1166.0</ele><time>2026-03-24T10:37:12Z</time></trkpt><trkpt lat="45.988959036974634" lon="12.099431134151791"><ele>1166.0</ele><time>2026-03-24T10:37:13Z</time></trkpt><trkpt lat="45.98906567282652" lon="12.09935661143615"><ele>1166.0</ele><time>2026-03-24T10:37:15Z</time></trkpt><trkpt lat="45.989166819663176" lon="12.099340598798124"><ele>1166.0</ele><time>2026-03-24T10:37:17Z</time></trkpt><trkpt lat="45.98925992412904" lon="12.099403116975553"><ele>1161.2</ele><time>2026-03-24T10:37:20Z</time></trkpt><trkpt lat="45.989282708862696" lon="12.099537824450614"><ele>1156.3999999999999</ele><time>2026-03-24T10:37:22Z</time></trkpt><trkpt lat="45.98928935037834" lon="12.099666291489015"><ele>1151.6</ele><time>2026-03-24T10:37:24Z</time></trkpt><trkpt lat="45.989390878920126" lon="12.099760263252898"><ele>1146.8</ele><time>2026-03-24T10:37:26Z</time></trkpt><trkpt lat="45.98947196536122" lon="12.099817842410348"><ele>1142.0</ele><time>2026-03-24T10:37:27Z</time></trkpt><trkpt lat="45.9895563634099" lon="12.099858757642043"><ele>1145.5</ele><time>2026-03-24T10:37:28Z</time></trkpt><trkpt lat="45.98962026239218" lon="12.099919671638796"><ele>1149.0</ele><time>2026-03-24T10:37:29Z</time></trkpt><trkpt lat="45.989698513763315" lon="12.099988316296907"><ele>1152.5</ele><time>2026-03-24T10:37:30Z</time></trkpt><trkpt lat="45.989753894758834" lon="12.100039831165022"><ele>1156.0</ele><time>2026-03-24T10:37:31Z</time></trkpt><trkpt lat="45.989809907717124" lon="12.100092433123917"><ele>1159.5</ele><time>2026-03-24T10:37:32Z</time></trkpt><trkpt lat="45.98987255596929" lon="12.100175997915702"><ele>1163.0</ele><time>2026-03-24T10:37:34Z</time></trkpt><trkpt lat="45.98990892095596" lon="12.100284963340924"><ele>1163.0</ele><time>2026-03-24T10:37:36Z</time></trkpt><trkpt lat="45.989906737999625" lon="12.100407137047348"><ele>1163.0</ele><time>2026-03-24T10:37:38Z</time></trkpt><trkpt lat="45.98990793821848" lon="12.100527306813799"><ele>1163.0</ele><time>2026-03-24T10:37:40Z</time></trkpt><trkpt lat="45.98990092832761" lon="12.100696027043385"><ele>1163.0</ele><time>2026-03-24T10:37:42Z</time></trkpt><trkpt lat="45.989893058878266" lon="12.100818039512049"><ele>1163.0</ele><time>2026-03-24T10:37:44Z</time></trkpt><trkpt lat="45.9899051708921" lon="12.100923854706965"><ele>1163.0</ele><time>2026-03-24T10:37:46Z</time></trkpt><trkpt lat="45.9899608531041" lon="12.100995183655899"><ele>1162.6666666666667</ele><time>2026-03-24T10:37:50Z</time></trkpt><trkpt lat="45.99005711705234" lon="12.101011425087512"><ele>1162.3333333333335</ele><time>2026-03-24T10:37:53Z</time></trkpt><trkpt lat="45.990114209169" lon="12.100972833043274"><ele>1162.0</ele><time>2026-03-24T10:37:54Z</time></trkpt><trkpt lat="45.990230334389736" lon="12.10089134723628"><ele>1161.6666666666667</ele><time>2026-03-24T10:37:56Z</time></trkpt><trkpt lat="45.99028977573681" lon="12.100834870332328"><ele>1161.3333333333333</ele><time>2026-03-24T10:37:57Z</time></trkpt><trkpt lat="45.990345799090825" lon="12.1007867470426"><ele>1161.0</ele><time>2026-03-24T10:37:58Z</time></trkpt><trkpt lat="45.99040565622595" lon="12.10072705677844"><ele>1161.0</ele><time>2026-03-24T10:37:59Z</time></trkpt><trkpt lat="45.990460282497054" lon="12.100680061244415"><ele>1161.0</ele><time>2026-03-24T10:38:00Z</time></trkpt><trkpt lat="45.99057975835615" lon="12.100576855492966"><ele>1161.0</ele><time>2026-03-24T10:38:02Z</time></trkpt><trkpt lat="45.99063847357217" lon="12.100519575851989"><ele>1161.0</ele><time>2026-03-24T10:38:03Z</time></trkpt><trkpt lat="45.99069480093701" lon="12.100468347264517"><ele>1161.0</ele><time>2026-03-24T10:38:04Z</time></trkpt><trkpt lat="45.99079835693589" lon="12.100387757960787"><ele>1160.6</ele><time>2026-03-24T10:38:06Z</time></trkpt><trkpt lat="45.990882617939604" lon="12.100369433718301"><ele>1160.1999999999998</ele><time>2026-03-24T10:38:08Z</time></trkpt><trkpt lat="45.99096347790707" lon="12.100521342445099"><ele>1159.8000000000002</ele><time>2026-03-24T10:38:10Z</time></trkpt><trkpt lat="45.99100253892853" lon="12.100624630802002"><ele>1159.4</ele><time>2026-03-24T10:38:11Z</time></trkpt><trkpt lat="45.99106091244217" lon="12.100739459900982"><ele>1159.0</ele><time>2026-03-24T10:38:13Z</time></trkpt><trkpt lat="45.991177617652795" lon="12.100724839054447"><ele>1159.0</ele><time>2026-03-24T10:38:15Z</time></trkpt><trkpt lat="45.99125351951674" lon="12.100663543724156"><ele>1159.0</ele><time>2026-03-24T10:38:16Z</time></trkpt><trkpt lat="45.99132586211941" lon="12.100572730404178"><ele>1159.0</ele><time>2026-03-24T10:38:17Z</time></trkpt><trkpt lat="45.99141210315048" lon="12.100454795656455"><ele>1159.0</ele><time>2026-03-24T10:38:18Z</time></trkpt><trkpt lat="45.99147759531251" lon="12.10038409773067"><ele>1159.0</ele><time>2026-03-24T10:38:19Z</time></trkpt><trkpt lat="45.991548687482215" lon="12.100301477239707"><ele>1159.0</ele><time>2026-03-24T10:38:21Z</time></trkpt><trkpt lat="45.99164007814051" lon="12.10033832633954"><ele>1159.0</ele><time>2026-03-24T10:38:23Z</time></trkpt><trkpt lat="45.99169923536492" lon="12.10040186664601"><ele>1159.0</ele><time>2026-03-24T10:38:24Z</time></trkpt><trkpt lat="45.99176877209782" lon="12.100465465812114"><ele>1159.0</ele><time>2026-03-24T10:38:25Z</time></trkpt><trkpt lat="45.9918518804654" lon="12.100546983729844"><ele>1159.0</ele><time>2026-03-24T10:38:26Z</time></trkpt><trkpt lat="45.991941420404515" lon="12.100645491694982"><ele>1157.8333333333333</ele><time>2026-03-24T10:38:27Z</time></trkpt><trkpt lat="45.992006796402386" lon="12.100721250459213"><ele>1156.6666666666665</ele><time>2026-03-24T10:38:28Z</time></trkpt><trkpt lat="45.99205238122014" lon="12.100784738517351"><ele>1155.5</ele><time>2026-03-24T10:38:29Z</time></trkpt><trkpt lat="45.99209106115993" lon="12.100864032141688"><ele>1154.3333333333333</ele><time>2026-03-24T10:38:30Z</time></trkpt><trkpt lat="45.99210038779403" lon="12.101064613664295"><ele>1153.1666666666667</ele><time>2026-03-24T10:38:32Z</time></trkpt><trkpt lat="45.992089476292456" lon="12.101196936594127"><ele>1152.0</ele><time>2026-03-24T10:38:33Z</time></trkpt><trkpt lat="45.992081728129214" lon="12.101299439242453"><ele>1155.6</ele><time>2026-03-24T10:38:34Z</time></trkpt><trkpt lat="45.99210578035415" lon="12.101437769904098"><ele>1159.2</ele><time>2026-03-24T10:38:36Z</time></trkpt><trkpt lat="45.99218104349946" lon="12.101581472809242"><ele>1162.8</ele><time>2026-03-24T10:38:38Z</time></trkpt><trkpt lat="45.99221589247284" lon="12.101666062988551"><ele>1166.4</ele><time>2026-03-24T10:38:39Z</time></trkpt><trkpt lat="45.99223028632963" lon="12.10178379166038"><ele>1170.0</ele><time>2026-03-24T10:38:41Z</time></trkpt><trkpt lat="45.992277602433646" lon="12.101895941154615"><ele>1173.6</ele><time>2026-03-24T10:38:43Z</time></trkpt><trkpt lat="45.99234511650803" lon="12.10191377947094"><ele>1177.2</ele><time>2026-03-24T10:38:45Z</time></trkpt><trkpt lat="45.9924571205537" lon="12.10178642189793"><ele>1180.8</ele><time>2026-03-24T10:38:47Z</time></trkpt><trkpt lat="45.992519889996586" lon="12.101697849339882"><ele>1184.4</ele><time>2026-03-24T10:38:48Z</time></trkpt><trkpt lat="45.99258013934561" lon="12.101642489069256"><ele>1188.0</ele><time>2026-03-24T10:38:49Z</time></trkpt><trkpt lat="45.99266607866975" lon="12.101596889282197"><ele>1185.6</ele><time>2026-03-24T10:38:50Z</time></trkpt><trkpt lat="45.99274714292159" lon="12.101574558606982"><ele>1183.1999999999998</ele><time>2026-03-24T10:38:51Z</time></trkpt><trkpt lat="45.99283493578637" lon="12.101541048823876"><ele>1180.8</ele><time>2026-03-24T10:38:52Z</time></trkpt><trkpt lat="45.992937510708956" lon="12.10154997660381"><ele>1178.3999999999999</ele><time>2026-03-24T10:38:53Z</time></trkpt><trkpt lat="45.993031613768885" lon="12.101550272192156"><ele>1176.0</ele><time>2026-03-24T10:38:54Z</time></trkpt><trkpt lat="45.99312515862146" lon="12.10153218005691"><ele>1176.0</ele><time>2026-03-24T10:38:55Z</time></trkpt><trkpt lat="45.99321098181169" lon="12.101511721335287"><ele>1176.0</ele><time>2026-03-24T10:38:56Z</time></trkpt><trkpt lat="45.99330528150667" lon="12.101482767341539"><ele>1176.0</ele><time>2026-03-24T10:38:57Z</time></trkpt><trkpt lat="45.993409658671254" lon="12.1014361137873"><ele>1176.0</ele><time>2026-03-24T10:38:58Z</time></trkpt><trkpt lat="45.993502019064465" lon="12.101388825482614"><ele>1176.0</ele><time>2026-03-24T10:38:59Z</time></trkpt><trkpt lat="45.99358391506951" lon="12.10133698800945"><ele>1176.8333333333333</ele><time>2026-03-24T10:39:00Z</time></trkpt><trkpt lat="45.99363942439088" lon="12.101265903797858"><ele>1177.6666666666667</ele><time>2026-03-24T10:39:01Z</time></trkpt><trkpt lat="45.993707146037345" lon="12.101236852241211"><ele>1178.5</ele><time>2026-03-24T10:39:02Z</time></trkpt><trkpt lat="45.99383668404875" lon="12.10125233043565"><ele>1179.3333333333335</ele><time>2026-03-24T10:39:04Z</time></trkpt><trkpt lat="45.99390025791931" lon="12.101301121673908"><ele>1180.1666666666667</ele><time>2026-03-24T10:39:05Z</time></trkpt><trkpt lat="45.99395988669025" lon="12.101382964889048"><ele>1181.0</ele><time>2026-03-24T10:39:06Z</time></trkpt><trkpt lat="45.994007088761734" lon="12.101481107848707"><ele>1184.3999999999999</ele><time>2026-03-24T10:39:07Z</time></trkpt><trkpt lat="45.99403513504713" lon="12.101582129142354"><ele>1187.8</ele><time>2026-03-24T10:39:08Z</time></trkpt><trkpt lat="45.99402468922039" lon="12.101761387921433"><ele>1191.1999999999998</ele><time>2026-03-24T10:39:10Z</time></trkpt><trkpt lat="45.99400589993042" lon="12.101870885316973"><ele>1194.6</ele><time>2026-03-24T10:39:11Z</time></trkpt><trkpt lat="45.99399366332677" lon="12.101997371459364"><ele>1198.0</ele><time>2026-03-24T10:39:12Z</time></trkpt><trkpt lat="45.99398767637524" lon="12.102139362577347"><ele>1198.0</ele><time>2026-03-24T10:39:13Z</time></trkpt><trkpt lat="45.99398805997177" lon="12.102248445684548"><ele>1198.0</ele><time>2026-03-24T10:39:14Z</time></trkpt><trkpt lat="45.993979528306554" lon="12.102369730173283"><ele>1198.0</ele><time>2026-03-24T10:39:15Z</time></trkpt><trkpt lat="45.99396599133108" lon="12.10247511699487"><ele>1198.0</ele><time>2026-03-24T10:39:16Z</time></trkpt><trkpt lat="45.99399134423839" lon="12.102609509967069"><ele>1198.0</ele><time>2026-03-24T10:39:18Z</time></trkpt><trkpt lat="45.99406826085775" lon="12.102731993238137"><ele>1198.0</ele><time>2026-03-24T10:39:20Z</time></trkpt><trkpt lat="45.994186369880595" lon="12.102795782576788"><ele>1198.1666666666665</ele><time>2026-03-24T10:39:22Z</time></trkpt><trkpt lat="45.99425851074547" lon="12.102833023860159"><ele>1198.3333333333333</ele><time>2026-03-24T10:39:23Z</time></trkpt><trkpt lat="45.99434444985474" lon="12.10287030918219"><ele>1198.5</ele><time>2026-03-24T10:39:24Z</time></trkpt><trkpt lat="45.99442957256445" lon="12.102912598505613"><ele>1198.6666666666667</ele><time>2026-03-24T10:39:25Z</time></trkpt><trkpt lat="45.994493765949834" lon="12.102931799613957"><ele>1198.8333333333335</ele><time>2026-03-24T10:39:26Z</time></trkpt><trkpt lat="45.99456029255329" lon="12.102947689002816"><ele>1199.0</ele><time>2026-03-24T10:39:27Z</time></trkpt><trkpt lat="45.99462316280641" lon="12.10295942657679"><ele>1199.0</ele><time>2026-03-24T10:39:28Z</time></trkpt><trkpt lat="45.99469678401193" lon="12.102977168607046"><ele>1199.0</ele><time>2026-03-24T10:39:29Z</time></trkpt><trkpt lat="45.99481147779514" lon="12.103017206173252"><ele>1199.0</ele><time>2026-03-24T10:39:31Z</time></trkpt><trkpt lat="45.99494234224362" lon="12.102977948133397"><ele>1199.0</ele><time>2026-03-24T10:39:33Z</time></trkpt><trkpt lat="45.99501647057036" lon="12.102918759099106"><ele>1199.0</ele><time>2026-03-24T10:39:34Z</time></trkpt><trkpt lat="45.9950866532568" lon="12.102851623687554"><ele>1201.1666666666667</ele><time>2026-03-24T10:39:35Z</time></trkpt><trkpt lat="45.99515805089462" lon="12.102782803402347"><ele>1203.3333333333335</ele><time>2026-03-24T10:39:36Z</time></trkpt><trkpt lat="45.99522327383816" lon="12.102709683795513"><ele>1205.5</ele><time>2026-03-24T10:39:37Z</time></trkpt><trkpt lat="45.995290386305314" lon="12.102628594601665"><ele>1207.6666666666667</ele><time>2026-03-24T10:39:38Z</time></trkpt><trkpt lat="45.99536234890905" lon="12.10255378441624"><ele>1209.8333333333333</ele><time>2026-03-24T10:39:39Z</time></trkpt><trkpt lat="45.99544197836736" lon="12.10248611864462"><ele>1212.0</ele><time>2026-03-24T10:39:40Z</time></trkpt><trkpt lat="45.99552716631892" lon="12.102420978814436"><ele>1210.8</ele><time>2026-03-24T10:39:41Z</time></trkpt><trkpt lat="45.99561039660957" lon="12.102344900401098"><ele>1209.6</ele><time>2026-03-24T10:39:42Z</time></trkpt><trkpt lat="45.995685874522316" lon="12.102247375912667"><ele>1208.3999999999999</ele><time>2026-03-24T10:39:43Z</time></trkpt><trkpt lat="45.99576344345873" lon="12.102154633088787"><ele>1207.2</ele><time>2026-03-24T10:39:44Z</time></trkpt><trkpt lat="45.995833077315545" lon="12.102042811414409"><ele>1206.0</ele><time>2026-03-24T10:39:45Z</time></trkpt><trkpt lat="45.99590667291922" lon="12.101927596434246"><ele>1206.0</ele><time>2026-03-24T10:39:46Z</time></trkpt><trkpt lat="45.995985270653605" lon="12.101812721243704"><ele>1206.0</ele><time>2026-03-24T10:39:47Z</time></trkpt><trkpt lat="45.996061223736966" lon="12.101698874736343"><ele>1206.0</ele><time>2026-03-24T10:39:48Z</time></trkpt><trkpt lat="45.99614488257661" lon="12.101588868383812"><ele>1206.0</ele><time>2026-03-24T10:39:49Z</time></trkpt><trkpt lat="45.99623308697078" lon="12.101478554543476"><ele>1197.75</ele><time>2026-03-24T10:39:50Z</time></trkpt><trkpt lat="45.9963063928193" lon="12.101347847246238"><ele>1189.5</ele><time>2026-03-24T10:39:51Z</time></trkpt><trkpt lat="45.99636997223353" lon="12.101223129215613"><ele>1181.25</ele><time>2026-03-24T10:39:52Z</time></trkpt><trkpt lat="45.996433178717965" lon="12.101087365255713"><ele>1173.0</ele><time>2026-03-24T10:39:53Z</time></trkpt><trkpt lat="45.99649763995374" lon="12.100938677026887"><ele>1173.0</ele><time>2026-03-24T10:39:54Z</time></trkpt><trkpt lat="45.99657022670892" lon="12.10079403599351"><ele>1173.0</ele><time>2026-03-24T10:39:55Z</time></trkpt><trkpt lat="45.996667497903715" lon="12.100665448339265"><ele>1173.0</ele><time>2026-03-24T10:39:56Z</time></trkpt><trkpt lat="45.99674895319259" lon="12.100515845488816"><ele>1173.0</ele><time>2026-03-24T10:39:57Z</time></trkpt><trkpt lat="45.99683387962147" lon="12.100374026448726"><ele>1174.0</ele><time>2026-03-24T10:39:58Z</time></trkpt><trkpt lat="45.99691369865728" lon="12.100218706262519"><ele>1175.0</ele><time>2026-03-24T10:39:59Z</time></trkpt><trkpt lat="45.99698629172814" lon="12.100055666224344"><ele>1176.0</ele><time>2026-03-24T10:40:00Z</time></trkpt><trkpt lat="45.997059132573014" lon="12.099893217628255"><ele>1177.0</ele><time>2026-03-24T10:40:01Z</time></trkpt><trkpt lat="45.9971412519049" lon="12.09972529218614"><ele>1167.25</ele><time>2026-03-24T10:40:02Z</time></trkpt><trkpt lat="45.99722812830204" lon="12.099562641136803"><ele>1157.5</ele><time>2026-03-24T10:40:03Z</time></trkpt><trkpt lat="45.99731967994948" lon="12.099413909603879"><ele>1147.75</ele><time>2026-03-24T10:40:04Z</time></trkpt><trkpt lat="45.99740524944789" lon="12.099270092300419"><ele>1138.0</ele><time>2026-03-24T10:40:05Z</time></trkpt><trkpt lat="45.99749283365721" lon="12.099145346333218"><ele>1134.75</ele><time>2026-03-24T10:40:06Z</time></trkpt><trkpt lat="45.997570487828554" lon="12.09901751993189"><ele>1131.5</ele><time>2026-03-24T10:40:07Z</time></trkpt><trkpt lat="45.99764320213922" lon="12.098884065721952"><ele>1128.25</ele><time>2026-03-24T10:40:08Z</time></trkpt><trkpt lat="45.99772043388163" lon="12.098766968469617"><ele>1125.0</ele><time>2026-03-24T10:40:09Z</time></trkpt><trkpt lat="45.99779583724293" lon="12.098661002687628"><ele>1125.0</ele><time>2026-03-24T10:40:10Z</time></trkpt><trkpt lat="45.99786990671694" lon="12.098577085476226"><ele>1125.0</ele><time>2026-03-24T10:40:11Z</time></trkpt><trkpt lat="45.99795038379237" lon="12.098507810979628"><ele>1125.0</ele><time>2026-03-24T10:40:12Z</time></trkpt><trkpt lat="45.9980292813785" lon="12.098458698562576"><ele>1125.0</ele><time>2026-03-24T10:40:13Z</time></trkpt><trkpt lat="45.9981242748774" lon="12.098434827948955"><ele>1125.0</ele><time>2026-03-24T10:40:14Z</time></trkpt><trkpt lat="45.99822048512021" lon="12.098464973387916"><ele>1125.0</ele><time>2026-03-24T10:40:15Z</time></trkpt><trkpt lat="45.99831668961979" lon="12.098489346003355"><ele>1125.0</ele><time>2026-03-24T10:40:16Z</time></trkpt><trkpt lat="45.99840405988982" lon="12.098509472085892"><ele>1125.0</ele><time>2026-03-24T10:40:17Z</time></trkpt><trkpt lat="45.998481008831085" lon="12.098547185354143"><ele>1125.0</ele><time>2026-03-24T10:40:18Z</time></trkpt><trkpt lat="45.99855684363666" lon="12.098592753071658"><ele>1125.0</ele><time>2026-03-24T10:40:19Z</time></trkpt><trkpt lat="45.99862718472484" lon="12.09863361353438"><ele>1125.0</ele><time>2026-03-24T10:40:20Z</time></trkpt><trkpt lat="45.998722399850735" lon="12.098634676993132"><ele>1125.2</ele><time>2026-03-24T10:40:21Z</time></trkpt><trkpt lat="45.99880769698722" lon="12.098610656901434"><ele>1125.4</ele><time>2026-03-24T10:40:22Z</time></trkpt><trkpt lat="45.998898688835595" lon="12.098559560755968"><ele>1125.6</ele><time>2026-03-24T10:40:23Z</time></trkpt><trkpt lat="45.998990921195166" lon="12.098484661270248"><ele>1125.8</ele><time>2026-03-24T10:40:24Z</time></trkpt><trkpt lat="45.99907708106467" lon="12.098412983207625"><ele>1126.0</ele><time>2026-03-24T10:40:25Z</time></trkpt><trkpt lat="45.999153824129436" lon="12.098357445981216"><ele>1125.8</ele><time>2026-03-24T10:40:26Z</time></trkpt><trkpt lat="45.99923473220701" lon="12.098320802828995"><ele>1125.6</ele><time>2026-03-24T10:40:27Z</time></trkpt><trkpt lat="45.99932870099315" lon="12.098306645849737"><ele>1125.4</ele><time>2026-03-24T10:40:28Z</time></trkpt><trkpt lat="45.99943822332285" lon="12.098302209913243"><ele>1125.2</ele><time>2026-03-24T10:40:29Z</time></trkpt><trkpt lat="45.99954214062395" lon="12.098310963972871"><ele>1125.0</ele><time>2026-03-24T10:40:30Z</time></trkpt><trkpt lat="45.99964313787414" lon="12.098311145962048"><ele>1125.0</ele><time>2026-03-24T10:40:31Z</time></trkpt><trkpt lat="45.9997360958978" lon="12.098325328396273"><ele>1125.0</ele><time>2026-03-24T10:40:32Z</time></trkpt><trkpt lat="45.99983200076401" lon="12.098323527285853"><ele>1125.0</ele><time>2026-03-24T10:40:33Z</time></trkpt><trkpt lat="45.99992696451055" lon="12.098307085797076"><ele>1125.0</ele><time>2026-03-24T10:40:34Z</time></trkpt><trkpt lat="46.000024564749296" lon="12.098287406847312"><ele>1125.0</ele><time>2026-03-24T10:40:35Z</time></trkpt><trkpt lat="46.00010126354675" lon="12.09822807246136"><ele>1117.6</ele><time>2026-03-24T10:40:36Z</time></trkpt><trkpt lat="46.0001808380875" lon="12.098157833400629"><ele>1110.2</ele><time>2026-03-24T10:40:37Z</time></trkpt><trkpt lat="46.0002573633311" lon="12.098083041000518"><ele>1102.8</ele><time>2026-03-24T10:40:38Z</time></trkpt><trkpt lat="46.000337462487536" lon="12.097990997183183"><ele>1095.4</ele><time>2026-03-24T10:40:39Z</time></trkpt><trkpt lat="46.00041300211556" lon="12.097905970484408"><ele>1088.0</ele><time>2026-03-24T10:40:40Z</time></trkpt><trkpt lat="46.00050215394479" lon="12.097864598439278"><ele>1088.0</ele><time>2026-03-24T10:40:41Z</time></trkpt><trkpt lat="46.00060745488507" lon="12.097877132651687"><ele>1088.0</ele><time>2026-03-24T10:40:42Z</time></trkpt><trkpt lat="46.00071688747674" lon="12.097903789980066"><ele>1088.0</ele><time>2026-03-24T10:40:43Z</time></trkpt><trkpt lat="46.00083264396071" lon="12.097923984491352"><ele>1088.0</ele><time>2026-03-24T10:40:44Z</time></trkpt><trkpt lat="46.00094325412951" lon="12.097947306443004"><ele>1088.0</ele><time>2026-03-24T10:40:45Z</time></trkpt><trkpt lat="46.00104016524635" lon="12.097962679147368"><ele>1086.8</ele><time>2026-03-24T10:40:46Z</time></trkpt><trkpt lat="46.00113501502719" lon="12.097955041091879"><ele>1085.6</ele><time>2026-03-24T10:40:47Z</time></trkpt><trkpt lat="46.00124137510235" lon="12.097978801898819"><ele>1084.4</ele><time>2026-03-24T10:40:48Z</time></trkpt><trkpt lat="46.00135236010882" lon="12.097973317360474"><ele>1083.2</ele><time>2026-03-24T10:40:49Z</time></trkpt><trkpt lat="46.001466091090336" lon="12.097951596925212"><ele>1082.0</ele><time>2026-03-24T10:40:50Z</time></trkpt><trkpt lat="46.00158209215738" lon="12.097931442966814"><ele>1081.6</ele><time>2026-03-24T10:40:51Z</time></trkpt><trkpt lat="46.001687129127845" lon="12.097890881963544"><ele>1081.2</ele><time>2026-03-24T10:40:52Z</time></trkpt><trkpt lat="46.001782926959265" lon="12.097857502808695"><ele>1080.8</ele><time>2026-03-24T10:40:53Z</time></trkpt><trkpt lat="46.001882629420436" lon="12.097798915214106"><ele>1080.4</ele><time>2026-03-24T10:40:54Z</time></trkpt><trkpt lat="46.001981784554566" lon="12.097739818933245"><ele>1080.0</ele><time>2026-03-24T10:40:55Z</time></trkpt><trkpt lat="46.002059671472" lon="12.0976260909334"><ele>1080.0</ele><time>2026-03-24T10:40:56Z</time></trkpt><trkpt lat="46.0021448559778" lon="12.097530321835304"><ele>1080.0</ele><time>2026-03-24T10:40:57Z</time></trkpt><trkpt lat="46.00220087089304" lon="12.097421835729067"><ele>1080.0</ele><time>2026-03-24T10:40:58Z</time></trkpt><trkpt lat="46.00224260208272" lon="12.097324000445008"><ele>1080.0</ele><time>2026-03-24T10:40:59Z</time></trkpt><trkpt lat="46.00228612038567" lon="12.097214538185085"><ele>1080.0</ele><time>2026-03-24T10:41:00Z</time></trkpt><trkpt lat="46.00231545393036" lon="12.09706934689538"><ele>1078.0</ele><time>2026-03-24T10:41:01Z</time></trkpt><trkpt lat="46.0023422485625" lon="12.096962906967253"><ele>1076.0</ele><time>2026-03-24T10:41:02Z</time></trkpt><trkpt lat="46.00237829178643" lon="12.096884770961365"><ele>1074.0</ele><time>2026-03-24T10:41:03Z</time></trkpt><trkpt lat="46.00241467688305" lon="12.096803996893765"><ele>1072.0</ele><time>2026-03-24T10:41:04Z</time></trkpt><trkpt lat="46.00245250030881" lon="12.096726926480828"><ele>1070.0</ele><time>2026-03-24T10:41:05Z</time></trkpt><trkpt lat="46.00251691164269" lon="12.096708741239079"><ele>1068.0</ele><time>2026-03-24T10:41:06Z</time></trkpt><trkpt lat="46.0025988411671" lon="12.096721914631534"><ele>1066.0</ele><time>2026-03-24T10:41:07Z</time></trkpt><trkpt lat="46.002676661748325" lon="12.096806406259686"><ele>1066.0</ele><time>2026-03-24T10:41:08Z</time></trkpt><trkpt lat="46.00276487043419" lon="12.096793393497194"><ele>1066.0</ele><time>2026-03-24T10:41:09Z</time></trkpt><trkpt lat="46.002838849089834" lon="12.096747974303787"><ele>1066.0</ele><time>2026-03-24T10:41:10Z</time></trkpt><trkpt lat="46.00290521747207" lon="12.096660231128638"><ele>1066.0</ele><time>2026-03-24T10:41:11Z</time></trkpt><trkpt lat="46.00298727517741" lon="12.096584924794426"><ele>1066.0</ele><time>2026-03-24T10:41:12Z</time></trkpt><trkpt lat="46.00307419797215" lon="12.096492499023308"><ele>1060.0</ele><time>2026-03-24T10:41:13Z</time></trkpt><trkpt lat="46.00317110434528" lon="12.096381522718655"><ele>1054.0</ele><time>2026-03-24T10:41:14Z</time></trkpt><trkpt lat="46.00325639153964" lon="12.096257600211992"><ele>1048.0</ele><time>2026-03-24T10:41:15Z</time></trkpt><trkpt lat="46.00335801983351" lon="12.096147394105383"><ele>1042.0</ele><time>2026-03-24T10:41:16Z</time></trkpt><trkpt lat="46.00345322321391" lon="12.096022857120243"><ele>1042.0</ele><time>2026-03-24T10:41:17Z</time></trkpt><trkpt lat="46.00354341197579" lon="12.095886647141889"><ele>1042.0</ele><time>2026-03-24T10:41:18Z</time></trkpt><trkpt lat="46.00362486839848" lon="12.09576231240341"><ele>1042.0</ele><time>2026-03-24T10:41:19Z</time></trkpt><trkpt lat="46.00370183735529" lon="12.095637852758172"><ele>1042.0</ele><time>2026-03-24T10:41:20Z</time></trkpt><trkpt lat="46.003788053215665" lon="12.095514210341321"><ele>1035.6</ele><time>2026-03-24T10:41:21Z</time></trkpt><trkpt lat="46.003860526004274" lon="12.095382961156893"><ele>1029.2</ele><time>2026-03-24T10:41:22Z</time></trkpt><trkpt lat="46.003906664250366" lon="12.095260659355427"><ele>1022.8</ele><time>2026-03-24T10:41:23Z</time></trkpt><trkpt lat="46.003943343312066" lon="12.095139773372667"><ele>1016.4</ele><time>2026-03-24T10:41:24Z</time></trkpt><trkpt lat="46.003977285361785" lon="12.095038672155713"><ele>1010.0</ele><time>2026-03-24T10:41:25Z</time></trkpt><trkpt lat="46.004050480007926" lon="12.094921987298681"><ele>1013.75</ele><time>2026-03-24T10:41:27Z</time></trkpt><trkpt lat="46.004205702285695" lon="12.095005123509987"><ele>1017.5</ele><time>2026-03-24T10:41:29Z</time></trkpt><trkpt lat="46.004297301115535" lon="12.095010003577503"><ele>1021.25</ele><time>2026-03-24T10:41:30Z</time></trkpt><trkpt lat="46.00440730041646" lon="12.094955094284078"><ele>1025.0</ele><time>2026-03-24T10:41:31Z</time></trkpt><trkpt lat="46.0045161228317" lon="12.094900125847229"><ele>1018.6</ele><time>2026-03-24T10:41:32Z</time></trkpt><trkpt lat="46.004622326641964" lon="12.094843734823215"><ele>1012.2</ele><time>2026-03-24T10:41:33Z</time></trkpt><trkpt lat="46.00473715164546" lon="12.094850433145046"><ele>1005.8</ele><time>2026-03-24T10:41:34Z</time></trkpt><trkpt lat="46.00484910038267" lon="12.094844244242365"><ele>999.4</ele><time>2026-03-24T10:41:35Z</time></trkpt><trkpt lat="46.00495281283774" lon="12.094819776753884"><ele>993.0</ele><time>2026-03-24T10:41:36Z</time></trkpt><trkpt lat="46.00505708577203" lon="12.094816277115033"><ele>992.4</ele><time>2026-03-24T10:41:37Z</time></trkpt><trkpt lat="46.00515412535129" lon="12.094769634465395"><ele>991.8</ele><time>2026-03-24T10:41:38Z</time></trkpt><trkpt lat="46.005259870734385" lon="12.094720681254115"><ele>991.2</ele><time>2026-03-24T10:41:39Z</time></trkpt><trkpt lat="46.00536394177024" lon="12.09469610885278"><ele>990.6</ele><time>2026-03-24T10:41:40Z</time></trkpt><trkpt lat="46.00547084438028" lon="12.094685133926367"><ele>990.0</ele><time>2026-03-24T10:41:41Z</time></trkpt><trkpt lat="46.0055777475392" lon="12.094675158337004"><ele>990.0</ele><time>2026-03-24T10:41:42Z</time></trkpt><trkpt lat="46.0056822465749" lon="12.094659512123386"><ele>990.0</ele><time>2026-03-24T10:41:43Z</time></trkpt><trkpt lat="46.00577320194582" lon="12.094624915571435"><ele>990.0</ele><time>2026-03-24T10:41:44Z</time></trkpt><trkpt lat="46.005875399139114" lon="12.094595372335545"><ele>990.0</ele><time>2026-03-24T10:41:45Z</time></trkpt><trkpt lat="46.00595337538549" lon="12.094492493461145"><ele>990.0</ele><time>2026-03-24T10:41:46Z</time></trkpt><trkpt lat="46.00601857646009" lon="12.09437595951564"><ele>990.8</ele><time>2026-03-24T10:41:47Z</time></trkpt><trkpt lat="46.0060835751867" lon="12.0942559911247"><ele>991.6</ele><time>2026-03-24T10:41:48Z</time></trkpt><trkpt lat="46.00614335427534" lon="12.094160977667935"><ele>992.4000000000001</ele><time>2026-03-24T10:41:49Z</time></trkpt><trkpt lat="46.006209526669316" lon="12.094082615012434"><ele>993.2</ele><time>2026-03-24T10:41:50Z</time></trkpt><trkpt lat="46.00628152080652" lon="12.093931097842356"><ele>994.0</ele><time>2026-03-24T10:41:52Z</time></trkpt><trkpt lat="46.006340877005115" lon="12.093821543592735"><ele>989.8333333333333</ele><time>2026-03-24T10:41:54Z</time></trkpt><trkpt lat="46.00642306995019" lon="12.09372358995578"><ele>985.6666666666666</ele><time>2026-03-24T10:41:56Z</time></trkpt><trkpt lat="46.00649280695723" lon="12.093711079230022"><ele>981.5</ele><time>2026-03-24T10:41:57Z</time></trkpt><trkpt lat="46.006565915014896" lon="12.093733600550959"><ele>977.3333333333333</ele><time>2026-03-24T10:41:58Z</time></trkpt><trkpt lat="46.00663095541441" lon="12.09381594305595"><ele>973.1666666666666</ele><time>2026-03-24T10:41:59Z</time></trkpt><trkpt lat="46.00671521803489" lon="12.093851273315057"><ele>969.0</ele><time>2026-03-24T10:42:00Z</time></trkpt><trkpt lat="46.00679698558726" lon="12.093899768740572"><ele>969.0</ele><time>2026-03-24T10:42:01Z</time></trkpt><trkpt lat="46.006874510617386" lon="12.093952007140974"><ele>969.0000000000001</ele><time>2026-03-24T10:42:02Z</time></trkpt><trkpt lat="46.006950160377585" lon="12.094033084746327"><ele>969.0000000000001</ele><time>2026-03-24T10:42:03Z</time></trkpt><trkpt lat="46.007029683744086" lon="12.094111645452902"><ele>969.0</ele><time>2026-03-24T10:42:04Z</time></trkpt><trkpt lat="46.00712786995425" lon="12.094178077904296"><ele>969.0</ele><time>2026-03-24T10:42:05Z</time></trkpt><trkpt lat="46.00723236356962" lon="12.094239871002014"><ele>966.8000000000001</ele><time>2026-03-24T10:42:06Z</time></trkpt><trkpt lat="46.007332885583295" lon="12.094301674212687"><ele>964.6000000000001</ele><time>2026-03-24T10:42:07Z</time></trkpt><trkpt lat="46.00743023427819" lon="12.094366889388308"><ele>962.4</ele><time>2026-03-24T10:42:08Z</time></trkpt><trkpt lat="46.00752922081626" lon="12.09444374177397"><ele>960.2</ele><time>2026-03-24T10:42:09Z</time></trkpt><trkpt lat="46.007626286796295" lon="12.094530007331727"><ele>958.0</ele><time>2026-03-24T10:42:10Z</time></trkpt><trkpt lat="46.00770709213216" lon="12.094651835844752"><ele>958.0</ele><time>2026-03-24T10:42:11Z</time></trkpt><trkpt lat="46.007799971811735" lon="12.094746291544803"><ele>958.0</ele><time>2026-03-24T10:42:12Z</time></trkpt><trkpt lat="46.00787317188659" lon="12.094878705518315"><ele>958.0</ele><time>2026-03-24T10:42:13Z</time></trkpt><trkpt lat="46.00794717886394" lon="12.094985296153972"><ele>958.0</ele><time>2026-03-24T10:42:14Z</time></trkpt><trkpt lat="46.00800809917882" lon="12.09508937750348"><ele>958.0</ele><time>2026-03-24T10:42:15Z</time></trkpt><trkpt lat="46.0080589964336" lon="12.095205040444153"><ele>961.2</ele><time>2026-03-24T10:42:16Z</time></trkpt><trkpt lat="46.00810175594745" lon="12.095335477023232"><ele>964.4</ele><time>2026-03-24T10:42:17Z</time></trkpt><trkpt lat="46.00814992411367" lon="12.09548198657481"><ele>967.6000000000001</ele><time>2026-03-24T10:42:18Z</time></trkpt><trkpt lat="46.00819789537469" lon="12.095625828776878"><ele>970.8000000000001</ele><time>2026-03-24T10:42:19Z</time></trkpt><trkpt lat="46.00824897419735" lon="12.095776501106846"><ele>974.0</ele><time>2026-03-24T10:42:20Z</time></trkpt><trkpt lat="46.008291320984384" lon="12.095929888270087"><ele>976.25</ele><time>2026-03-24T10:42:21Z</time></trkpt><trkpt lat="46.008302363369125" lon="12.096099913468738"><ele>978.5</ele><time>2026-03-24T10:42:22Z</time></trkpt><trkpt lat="46.00834463481492" lon="12.096262653615925"><ele>980.75</ele><time>2026-03-24T10:42:23Z</time></trkpt><trkpt lat="46.008367357917145" lon="12.096426454722025"><ele>983.0</ele><time>2026-03-24T10:42:24Z</time></trkpt><trkpt lat="46.00840492296662" lon="12.096587951396948"><ele>976.0</ele><time>2026-03-24T10:42:25Z</time></trkpt><trkpt lat="46.00844828212177" lon="12.09674964197404"><ele>969.0</ele><time>2026-03-24T10:42:26Z</time></trkpt><trkpt lat="46.008464816655255" lon="12.096907585284582"><ele>962.0</ele><time>2026-03-24T10:42:27Z</time></trkpt><trkpt lat="46.00847574964385" lon="12.097061346108442"><ele>955.0</ele><time>2026-03-24T10:42:28Z</time></trkpt><trkpt lat="46.00849528460592" lon="12.097206659826531"><ele>948.0</ele><time>2026-03-24T10:42:29Z</time></trkpt><trkpt lat="46.00851561975624" lon="12.097351369499432"><ele>946.6666666666666</ele><time>2026-03-24T10:42:30Z</time></trkpt><trkpt lat="46.00851936934643" lon="12.097470357369156"><ele>945.3333333333333</ele><time>2026-03-24T10:42:31Z</time></trkpt><trkpt lat="46.00850613122627" lon="12.09758665914738"><ele>944.0</ele><time>2026-03-24T10:42:32Z</time></trkpt><trkpt lat="46.00847090531696" lon="12.097712544391344"><ele>942.6666666666666</ele><time>2026-03-24T10:42:33Z</time></trkpt><trkpt lat="46.00842740224077" lon="12.097838502758753"><ele>941.3333333333333</ele><time>2026-03-24T10:42:34Z</time></trkpt><trkpt lat="46.008352653498996" lon="12.097913702799312"><ele>940.0</ele><time>2026-03-24T10:42:35Z</time></trkpt><trkpt lat="46.00828209749371" lon="12.098002145267676"><ele>941.9999999999999</ele><time>2026-03-24T10:42:36Z</time></trkpt><trkpt lat="46.008206364331706" lon="12.098067765305212"><ele>944.0</ele><time>2026-03-24T10:42:37Z</time></trkpt><trkpt lat="46.008121151575715" lon="12.098111346847958"><ele>946.0</ele><time>2026-03-24T10:42:38Z</time></trkpt><trkpt lat="46.00802677856006" lon="12.098144854465351"><ele>948.0</ele><time>2026-03-24T10:42:39Z</time></trkpt><trkpt lat="46.00795737172845" lon="12.098204565631432"><ele>949.9999999999999</ele><time>2026-03-24T10:42:40Z</time></trkpt><trkpt lat="46.00789210163876" lon="12.098298751200208"><ele>952.0</ele><time>2026-03-24T10:42:41Z</time></trkpt><trkpt lat="46.007830135040315" lon="12.098394045012851"><ele>952.0</ele><time>2026-03-24T10:42:42Z</time></trkpt><trkpt lat="46.007765096017835" lon="12.098469506031137"><ele>952.0</ele><time>2026-03-24T10:42:43Z</time></trkpt><trkpt lat="46.007719499695234" lon="12.098573452101128"><ele>952.0</ele><time>2026-03-24T10:42:44Z</time></trkpt><trkpt lat="46.007686748856976" lon="12.098694137907277"><ele>952.0</ele><time>2026-03-24T10:42:45Z</time></trkpt><trkpt lat="46.00766506075492" lon="12.098829200560138"><ele>952.0</ele><time>2026-03-24T10:42:46Z</time></trkpt><trkpt lat="46.00766025842914" lon="12.098983797490126"><ele>948.6</ele><time>2026-03-24T10:42:47Z</time></trkpt><trkpt lat="46.00768767692135" lon="12.099132689918871"><ele>945.2</ele><time>2026-03-24T10:42:48Z</time></trkpt><trkpt lat="46.00770979199527" lon="12.099267448492148"><ele>941.8</ele><time>2026-03-24T10:42:49Z</time></trkpt><trkpt lat="46.00775195559297" lon="12.099375480277583"><ele>938.4</ele><time>2026-03-24T10:42:50Z</time></trkpt><trkpt lat="46.00776115723229" lon="12.099468698499747"><ele>935.0</ele><time>2026-03-24T10:42:51Z</time></trkpt><trkpt lat="46.00775683813039" lon="12.099641610105653"><ele>935.0000000000001</ele><time>2026-03-24T10:42:53Z</time></trkpt><trkpt lat="46.007725977970054" lon="12.099757500727678"><ele>935.0</ele><time>2026-03-24T10:42:54Z</time></trkpt><trkpt lat="46.00771102314704" lon="12.099887305663039"><ele>935.0</ele><time>2026-03-24T10:42:55Z</time></trkpt><trkpt lat="46.007677243353356" lon="12.100004503351727"><ele>935.0</ele><time>2026-03-24T10:42:56Z</time></trkpt><trkpt lat="46.00765437594803" lon="12.10011665712906"><ele>935.0000000000001</ele><time>2026-03-24T10:42:57Z</time></trkpt><trkpt lat="46.00762092665808" lon="12.100222326398105"><ele>935.0</ele><time>2026-03-24T10:42:58Z</time></trkpt><trkpt lat="46.0075995916736" lon="12.100314654745178"><ele>934.1666666666667</ele><time>2026-03-24T10:42:59Z</time></trkpt><trkpt lat="46.007613401532055" lon="12.100406978528353"><ele>933.3333333333334</ele><time>2026-03-24T10:43:00Z</time></trkpt><trkpt lat="46.007650444524096" lon="12.100504593820437"><ele>932.5</ele><time>2026-03-24T10:43:01Z</time></trkpt><trkpt lat="46.0077183587593" lon="12.100608043608833"><ele>931.6666666666667</ele><time>2026-03-24T10:43:02Z</time></trkpt><trkpt lat="46.00776268249237" lon="12.100692118331121"><ele>930.8333333333334</ele><time>2026-03-24T10:43:03Z</time></trkpt><trkpt lat="46.00781883412401" lon="12.10077225189878"><ele>930.0</ele><time>2026-03-24T10:43:04Z</time></trkpt><trkpt lat="46.007824746409504" lon="12.100887927776649"><ele>929.5</ele><time>2026-03-24T10:43:05Z</time></trkpt><trkpt lat="46.00779023755787" lon="12.10101419068262"><ele>929.0</ele><time>2026-03-24T10:43:06Z</time></trkpt><trkpt lat="46.00776314092098" lon="12.101098664535792"><ele>928.5</ele><time>2026-03-24T10:43:07Z</time></trkpt><trkpt lat="46.007736481552186" lon="12.10118799099044"><ele>928.0</ele><time>2026-03-24T10:43:08Z</time></trkpt><trkpt lat="46.007696153413306" lon="12.101332364336812"><ele>927.5</ele><time>2026-03-24T10:43:10Z</time></trkpt><trkpt lat="46.007653461600185" lon="12.101402642061686"><ele>927.0</ele><time>2026-03-24T10:43:12Z</time></trkpt><trkpt lat="46.007749403734294" lon="12.101373070517097"><ele>927.0</ele><time>2026-03-24T10:43:17Z</time></trkpt><trkpt lat="46.00778612032426" lon="12.10129715363322"><ele>927.0</ele><time>2026-03-24T10:43:18Z</time></trkpt><trkpt lat="46.007843330749374" lon="12.101247699079668"><ele>927.0</ele><time>2026-03-24T10:43:19Z</time></trkpt><trkpt lat="46.00789064354483" lon="12.10118511412071"><ele>927.0</ele><time>2026-03-24T10:43:20Z</time></trkpt><trkpt lat="46.007972085671014" lon="12.101052887468501"><ele>927.0</ele><time>2026-03-24T10:43:22Z</time></trkpt><trkpt lat="46.00801858595511" lon="12.100965725307539"><ele>927.0</ele><time>2026-03-24T10:43:23Z</time></trkpt><trkpt lat="46.008049590663006" lon="12.100859598454905"><ele>927.0</ele><time>2026-03-24T10:43:24Z</time></trkpt><trkpt lat="46.008100189993144" lon="12.100770025246938"><ele>927.0</ele><time>2026-03-24T10:43:25Z</time></trkpt><trkpt lat="46.008120286937995" lon="12.100670935654797"><ele>927.0</ele><time>2026-03-24T10:43:26Z</time></trkpt><trkpt lat="46.008132538421215" lon="12.100569396245891"><ele>927.0</ele><time>2026-03-24T10:43:27Z</time></trkpt><trkpt lat="46.008133794468144" lon="12.100473988440124"><ele>927.0</ele><time>2026-03-24T10:43:28Z</time></trkpt><trkpt lat="46.0081397470799" lon="12.100311565161023"><ele>927.0</ele><time>2026-03-24T10:43:30Z</time></trkpt><trkpt lat="46.00818427423189" lon="12.100192884102613"><ele>927.6</ele><time>2026-03-24T10:43:32Z</time></trkpt><trkpt lat="46.00822939496107" lon="12.100125494084223"><ele>928.2</ele><time>2026-03-24T10:43:33Z</time></trkpt><trkpt lat="46.00829643171702" lon="12.100038288152616"><ele>928.8</ele><time>2026-03-24T10:43:34Z</time></trkpt><trkpt lat="46.00836735203361" lon="12.099954843506957"><ele>929.4</ele><time>2026-03-24T10:43:35Z</time></trkpt><trkpt lat="46.00845138201944" lon="12.099852204709165"><ele>930.0</ele><time>2026-03-24T10:43:36Z</time></trkpt><trkpt lat="46.00852121929562" lon="12.099750471412774"><ele>925.3333333333334</ele><time>2026-03-24T10:43:37Z</time></trkpt><trkpt lat="46.00857667669781" lon="12.099666424406724"><ele>920.6666666666667</ele><time>2026-03-24T10:43:38Z</time></trkpt><trkpt lat="46.00862547211602" lon="12.09958364588542"><ele>916.0</ele><time>2026-03-24T10:43:39Z</time></trkpt><trkpt lat="46.00865816053019" lon="12.09950036397559"><ele>911.3333333333334</ele><time>2026-03-24T10:43:40Z</time></trkpt><trkpt lat="46.00871039868685" lon="12.09940313702767"><ele>906.6666666666667</ele><time>2026-03-24T10:43:41Z</time></trkpt><trkpt lat="46.008727788142195" lon="12.099281610387331"><ele>902.0</ele><time>2026-03-24T10:43:42Z</time></trkpt><trkpt lat="46.00874958603018" lon="12.09916680237813"><ele>905.3333333333334</ele><time>2026-03-24T10:43:43Z</time></trkpt><trkpt lat="46.008776414265895" lon="12.099006846695545"><ele>908.6666666666667</ele><time>2026-03-24T10:43:45Z</time></trkpt><trkpt lat="46.008812477676734" lon="12.098925709659266"><ele>912.0</ele><time>2026-03-24T10:43:46Z</time></trkpt><trkpt lat="46.00887807450659" lon="12.098876956223876"><ele>915.3333333333333</ele><time>2026-03-24T10:43:47Z</time></trkpt><trkpt lat="46.008958764948545" lon="12.098826407137102"><ele>918.6666666666666</ele><time>2026-03-24T10:43:48Z</time></trkpt><trkpt lat="46.0090324357963" lon="12.09875901870706"><ele>922.0</ele><time>2026-03-24T10:43:49Z</time></trkpt><trkpt lat="46.00910558664378" lon="12.098734916555458"><ele>916.9999999999999</ele><time>2026-03-24T10:43:50Z</time></trkpt><trkpt lat="46.009177233751664" lon="12.098719275328522"><ele>912.0</ele><time>2026-03-24T10:43:51Z</time></trkpt><trkpt lat="46.0092469164161" lon="12.098712352731875"><ele>907.0</ele><time>2026-03-24T10:43:52Z</time></trkpt><trkpt lat="46.00933200647227" lon="12.098705692778053"><ele>902.0</ele><time>2026-03-24T10:43:53Z</time></trkpt><trkpt lat="46.00943058852072" lon="12.098692599575024"><ele>896.9999999999999</ele><time>2026-03-24T10:43:54Z</time></trkpt><trkpt lat="46.00952924440966" lon="12.098704591327468"><ele>892.0</ele><time>2026-03-24T10:43:55Z</time></trkpt><trkpt lat="46.00963373567594" lon="12.098672287465213"><ele>891.9999999999999</ele><time>2026-03-24T10:43:56Z</time></trkpt><trkpt lat="46.009721473322344" lon="12.098681341143868"><ele>892.0</ele><time>2026-03-24T10:43:57Z</time></trkpt><trkpt lat="46.00981279754367" lon="12.098699909058011"><ele>892.0</ele><time>2026-03-24T10:43:58Z</time></trkpt><trkpt lat="46.00988481073934" lon="12.098662360239773"><ele>892.0</ele><time>2026-03-24T10:43:59Z</time></trkpt><trkpt lat="46.009950842000926" lon="12.098628155061181"><ele>891.9999999999999</ele><time>2026-03-24T10:44:00Z</time></trkpt><trkpt lat="46.01002236187162" lon="12.098593025323131"><ele>892.0</ele><time>2026-03-24T10:44:01Z</time></trkpt><trkpt lat="46.01009864970739" lon="12.098475754501418"><ele>887.4000000000001</ele><time>2026-03-24T10:44:02Z</time></trkpt><trkpt lat="46.01014537853027" lon="12.098371168312173"><ele>882.8000000000001</ele><time>2026-03-24T10:44:03Z</time></trkpt><trkpt lat="46.010211486504616" lon="12.09822068066032"><ele>878.2</ele><time>2026-03-24T10:44:04Z</time></trkpt><trkpt lat="46.01027223080942" lon="12.098074482861072"><ele>873.6</ele><time>2026-03-24T10:44:05Z</time></trkpt><trkpt lat="46.01034053970595" lon="12.097936256207532"><ele>869.0</ele><time>2026-03-24T10:44:06Z</time></trkpt><trkpt lat="46.01040345968641" lon="12.097807144183056"><ele>869.0</ele><time>2026-03-24T10:44:07Z</time></trkpt><trkpt lat="46.01047024692782" lon="12.097669370451335"><ele>869.0</ele><time>2026-03-24T10:44:08Z</time></trkpt><trkpt lat="46.010533284702404" lon="12.097530548978874"><ele>869.0</ele><time>2026-03-24T10:44:09Z</time></trkpt><trkpt lat="46.01059912792999" lon="12.097398518578318"><ele>869.0</ele><time>2026-03-24T10:44:10Z</time></trkpt><trkpt lat="46.0106664132171" lon="12.097273197792166"><ele>870.4000000000001</ele><time>2026-03-24T10:44:11Z</time></trkpt><trkpt lat="46.01073125384759" lon="12.097150556734192"><ele>871.8000000000001</ele><time>2026-03-24T10:44:12Z</time></trkpt><trkpt lat="46.01078642382457" lon="12.09701882214402"><ele>873.1999999999999</ele><time>2026-03-24T10:44:13Z</time></trkpt><trkpt lat="46.010840181108684" lon="12.09689264400043"><ele>874.5999999999999</ele><time>2026-03-24T10:44:14Z</time></trkpt><trkpt lat="46.01091910638559" lon="12.096758724448746"><ele>876.0</ele><time>2026-03-24T10:44:15Z</time></trkpt><trkpt lat="46.01098258530147" lon="12.096642454607117"><ele>868.75</ele><time>2026-03-24T10:44:16Z</time></trkpt><trkpt lat="46.011053857493756" lon="12.096516350380957"><ele>861.5</ele><time>2026-03-24T10:44:17Z</time></trkpt><trkpt lat="46.01111751246588" lon="12.09638800080492"><ele>854.25</ele><time>2026-03-24T10:44:18Z</time></trkpt><trkpt lat="46.0111945395853" lon="12.096266286026914"><ele>847.0</ele><time>2026-03-24T10:44:19Z</time></trkpt><trkpt lat="46.011259162568074" lon="12.096117514884082"><ele>847.0</ele><time>2026-03-24T10:44:20Z</time></trkpt><trkpt lat="46.011309782461844" lon="12.095938012707721"><ele>847.0</ele><time>2026-03-24T10:44:21Z</time></trkpt><trkpt lat="46.01133883686044" lon="12.0957156607595"><ele>847.0</ele><time>2026-03-24T10:44:22Z</time></trkpt><trkpt lat="46.011388700563984" lon="12.095549068559006"><ele>847.0</ele><time>2026-03-24T10:44:23Z</time></trkpt><trkpt lat="46.01147352773383" lon="12.095392572999161"><ele>847.0</ele><time>2026-03-24T10:44:24Z</time></trkpt><trkpt lat="46.01153775074245" lon="12.09521280390281"><ele>847.0</ele><time>2026-03-24T10:44:25Z</time></trkpt><trkpt lat="46.01160129749251" lon="12.095052360571351"><ele>847.0</ele><time>2026-03-24T10:44:26Z</time></trkpt><trkpt lat="46.0116512720457" lon="12.09485661917506"><ele>847.0</ele><time>2026-03-24T10:44:27Z</time></trkpt><trkpt lat="46.011700946904575" lon="12.094688748167242"><ele>842.2</ele><time>2026-03-24T10:44:28Z</time></trkpt><trkpt lat="46.011750213355086" lon="12.094541904448185"><ele>837.4000000000001</ele><time>2026-03-24T10:44:29Z</time></trkpt><trkpt lat="46.0117946053659" lon="12.094398860644144"><ele>832.5999999999999</ele><time>2026-03-24T10:44:30Z</time></trkpt><trkpt lat="46.011837875945474" lon="12.094258867574512"><ele>827.8</ele><time>2026-03-24T10:44:31Z</time></trkpt><trkpt lat="46.01187662234651" lon="12.094119301809352"><ele>823.0</ele><time>2026-03-24T10:44:32Z</time></trkpt><trkpt lat="46.011932329418954" lon="12.09397707884306"><ele>822.6666666666666</ele><time>2026-03-24T10:44:33Z</time></trkpt><trkpt lat="46.01199110598773" lon="12.093852853503934"><ele>822.3333333333333</ele><time>2026-03-24T10:44:34Z</time></trkpt><trkpt lat="46.01204753058831" lon="12.093764264098692"><ele>822.0</ele><time>2026-03-24T10:44:35Z</time></trkpt><trkpt lat="46.01211201405812" lon="12.093691573376177"><ele>821.6666666666667</ele><time>2026-03-24T10:44:36Z</time></trkpt><trkpt lat="46.01219019912938" lon="12.093637343972247"><ele>821.3333333333334</ele><time>2026-03-24T10:44:37Z</time></trkpt><trkpt lat="46.01227274150767" lon="12.093584831128183"><ele>821.0</ele><time>2026-03-24T10:44:38Z</time></trkpt><trkpt lat="46.01233744096604" lon="12.0935385005764"><ele>821.0000000000001</ele><time>2026-03-24T10:44:39Z</time></trkpt><trkpt lat="46.012397713106196" lon="12.093495868804393"><ele>821.0</ele><time>2026-03-24T10:44:40Z</time></trkpt><trkpt lat="46.01250878126768" lon="12.093434646867935"><ele>821.0</ele><time>2026-03-24T10:44:42Z</time></trkpt><trkpt lat="46.01257824885186" lon="12.093379653658772"><ele>821.0</ele><time>2026-03-24T10:44:43Z</time></trkpt><trkpt lat="46.01266140321102" lon="12.093330971898839"><ele>821.0000000000001</ele><time>2026-03-24T10:44:44Z</time></trkpt><trkpt lat="46.01273403651787" lon="12.093261537643222"><ele>821.0</ele><time>2026-03-24T10:44:45Z</time></trkpt><trkpt lat="46.012770234919756" lon="12.093123270487329"><ele>818.8</ele><time>2026-03-24T10:44:46Z</time></trkpt><trkpt lat="46.01282930349132" lon="12.093020815318246"><ele>816.5999999999999</ele><time>2026-03-24T10:44:47Z</time></trkpt><trkpt lat="46.012817992822164" lon="12.092851932556583"><ele>814.4</ele><time>2026-03-24T10:44:48Z</time></trkpt><trkpt lat="46.01280614670701" lon="12.092718684233224"><ele>812.2</ele><time>2026-03-24T10:44:49Z</time></trkpt><trkpt lat="46.012830313245765" lon="12.092595787814204"><ele>810.0</ele><time>2026-03-24T10:44:50Z</time></trkpt><trkpt lat="46.01283790763594" lon="12.092478500758062"><ele>809.6</ele><time>2026-03-24T10:44:51Z</time></trkpt><trkpt lat="46.01284774635377" lon="12.092367009119524"><ele>809.2</ele><time>2026-03-24T10:44:52Z</time></trkpt><trkpt lat="46.01286475013138" lon="12.092259259514146"><ele>808.8</ele><time>2026-03-24T10:44:53Z</time></trkpt><trkpt lat="46.012874835339055" lon="12.092156129357413"><ele>808.4</ele><time>2026-03-24T10:44:54Z</time></trkpt><trkpt lat="46.012897265626336" lon="12.092011091845372"><ele>808.0</ele><time>2026-03-24T10:44:56Z</time></trkpt><trkpt lat="46.01289722784323" lon="12.091825650037737"><ele>808.0</ele><time>2026-03-24T10:44:58Z</time></trkpt><trkpt lat="46.012860407206965" lon="12.091718601625972"><ele>808.0</ele><time>2026-03-24T10:45:00Z</time></trkpt><trkpt lat="46.01275514802604" lon="12.091697869063356"><ele>808.0</ele><time>2026-03-24T10:45:01Z</time></trkpt><trkpt lat="46.012666247524415" lon="12.091749714580548"><ele>808.0</ele><time>2026-03-24T10:45:02Z</time></trkpt><trkpt lat="46.01257642765723" lon="12.091720567986242"><ele>808.0</ele><time>2026-03-24T10:45:03Z</time></trkpt><trkpt lat="46.012485356496974" lon="12.091683081061301"><ele>808.8</ele><time>2026-03-24T10:45:04Z</time></trkpt><trkpt lat="46.01238602756739" lon="12.091635423161643"><ele>809.5999999999999</ele><time>2026-03-24T10:45:05Z</time></trkpt><trkpt lat="46.012310425762145" lon="12.091573264642717"><ele>810.4000000000001</ele><time>2026-03-24T10:45:06Z</time></trkpt><trkpt lat="46.0122141143811" lon="12.09149006604225"><ele>811.2</ele><time>2026-03-24T10:45:07Z</time></trkpt><trkpt lat="46.0121100739864" lon="12.091430228878464"><ele>812.0</ele><time>2026-03-24T10:45:08Z</time></trkpt><trkpt lat="46.011999164268836" lon="12.091378433212444"><ele>812.0</ele><time>2026-03-24T10:45:09Z</time></trkpt><trkpt lat="46.011889441038065" lon="12.091328728759304"><ele>812.0</ele><time>2026-03-24T10:45:10Z</time></trkpt><trkpt lat="46.01177518555091" lon="12.091276971254091"><ele>812.0</ele><time>2026-03-24T10:45:11Z</time></trkpt><trkpt lat="46.011651912336326" lon="12.09124294286425"><ele>812.0</ele><time>2026-03-24T10:45:12Z</time></trkpt><trkpt lat="46.01153409861102" lon="12.091162783762716"><ele>814.5</ele><time>2026-03-24T10:45:13Z</time></trkpt><trkpt lat="46.01140731680869" lon="12.091087365777216"><ele>817.0</ele><time>2026-03-24T10:45:14Z</time></trkpt><trkpt lat="46.01128376967662" lon="12.091000431494072"><ele>819.5</ele><time>2026-03-24T10:45:15Z</time></trkpt><trkpt lat="46.011158242334346" lon="12.090921182424644"><ele>822.0</ele><time>2026-03-24T10:45:16Z</time></trkpt><trkpt lat="46.011040459773604" lon="12.090841898135025"><ele>822.0</ele><time>2026-03-24T10:45:17Z</time></trkpt><trkpt lat="46.01094181882835" lon="12.090772485045274"><ele>822.0</ele><time>2026-03-24T10:45:18Z</time></trkpt><trkpt lat="46.01085489163661" lon="12.090682924331508"><ele>822.0</ele><time>2026-03-24T10:45:19Z</time></trkpt><trkpt lat="46.01076125902415" lon="12.09061659441572"><ele>822.0</ele><time>2026-03-24T10:45:20Z</time></trkpt><trkpt lat="46.01065487187915" lon="12.090564658521936"><ele>822.0</ele><time>2026-03-24T10:45:21Z</time></trkpt><trkpt lat="46.010556899733494" lon="12.090482240494541"><ele>823.5</ele><time>2026-03-24T10:45:22Z</time></trkpt><trkpt lat="46.01045444050981" lon="12.090408225954723"><ele>825.0</ele><time>2026-03-24T10:45:23Z</time></trkpt><trkpt lat="46.01034944726915" lon="12.090339949943859"><ele>826.5</ele><time>2026-03-24T10:45:24Z</time></trkpt><trkpt lat="46.01024230674272" lon="12.090284316655273"><ele>828.0</ele><time>2026-03-24T10:45:25Z</time></trkpt><trkpt lat="46.010136368783094" lon="12.090239396865282"><ele>828.0</ele><time>2026-03-24T10:45:26Z</time></trkpt><trkpt lat="46.01003384764301" lon="12.090200803810925"><ele>828.0</ele><time>2026-03-24T10:45:27Z</time></trkpt><trkpt lat="46.00993601478647" lon="12.090158145179705"><ele>828.0</ele><time>2026-03-24T10:45:28Z</time></trkpt><trkpt lat="46.00985249739011" lon="12.090135745441245"><ele>828.0</ele><time>2026-03-24T10:45:29Z</time></trkpt><trkpt lat="46.009754382681784" lon="12.090134241326169"><ele>828.0</ele><time>2026-03-24T10:45:30Z</time></trkpt><trkpt lat="46.009675221743294" lon="12.09011408947404"><ele>830.8333333333334</ele><time>2026-03-24T10:45:31Z</time></trkpt><trkpt lat="46.009575662338584" lon="12.090071283309861"><ele>833.6666666666667</ele><time>2026-03-24T10:45:32Z</time></trkpt><trkpt lat="46.009508541084685" lon="12.090049404585077"><ele>836.5</ele><time>2026-03-24T10:45:33Z</time></trkpt><trkpt lat="46.00944074298944" lon="12.090032105906525"><ele>839.3333333333334</ele><time>2026-03-24T10:45:34Z</time></trkpt><trkpt lat="46.0093689521236" lon="12.089985997285526"><ele>842.1666666666667</ele><time>2026-03-24T10:45:37Z</time></trkpt><trkpt lat="46.0092809344069" lon="12.089972550768774"><ele>845.0</ele><time>2026-03-24T10:53:51Z</time></trkpt><trkpt lat="46.00917431194382" lon="12.089942578057467"><ele>845.8333333333334</ele><time>2026-03-24T10:53:53Z</time></trkpt><trkpt lat="46.009110500047434" lon="12.089925291802478"><ele>846.6666666666667</ele><time>2026-03-24T10:53:54Z</time></trkpt><trkpt lat="46.009043746638504" lon="12.08992972477346"><ele>847.5</ele><time>2026-03-24T10:53:55Z</time></trkpt><trkpt lat="46.00900156745807" lon="12.089818579572917"><ele>848.3333333333333</ele><time>2026-03-24T10:53:56Z</time></trkpt><trkpt lat="46.00897696906798" lon="12.089734584127278"><ele>849.1666666666666</ele><time>2026-03-24T10:53:57Z</time></trkpt><trkpt lat="46.0089395683524" lon="12.089624780657548"><ele>850.0</ele><time>2026-03-24T10:53:58Z</time></trkpt><trkpt lat="46.00889438062386" lon="12.089507045390539"><ele>849.9999999999999</ele><time>2026-03-24T10:53:59Z</time></trkpt><trkpt lat="46.00884700581883" lon="12.089412471786565"><ele>850.0</ele><time>2026-03-24T10:54:00Z</time></trkpt><trkpt lat="46.008798509623176" lon="12.089334515674533"><ele>850.0</ele><time>2026-03-24T10:54:01Z</time></trkpt><trkpt lat="46.00874295479299" lon="12.089273623920032"><ele>850.0</ele><time>2026-03-24T10:54:02Z</time></trkpt><trkpt lat="46.0086525232921" lon="12.089215490841296"><ele>849.9999999999999</ele><time>2026-03-24T10:54:03Z</time></trkpt><trkpt lat="46.00855967568516" lon="12.089186459412538"><ele>850.0</ele><time>2026-03-24T10:54:04Z</time></trkpt><trkpt lat="46.008498347028" lon="12.089148788530611"><ele>848.6</ele><time>2026-03-24T10:54:05Z</time></trkpt><trkpt lat="46.00843412819419" lon="12.089066137557722"><ele>847.2</ele><time>2026-03-24T10:54:06Z</time></trkpt><trkpt lat="46.00836805335944" lon="12.08897063978879"><ele>845.8</ele><time>2026-03-24T10:54:07Z</time></trkpt><trkpt lat="46.00829564818631" lon="12.088880179931659"><ele>844.4</ele><time>2026-03-24T10:54:08Z</time></trkpt><trkpt lat="46.00821523221666" lon="12.088824204182874"><ele>843.0</ele><time>2026-03-24T10:54:09Z</time></trkpt><trkpt lat="46.008132559802846" lon="12.088754364570427"><ele>843.0</ele><time>2026-03-24T10:54:10Z</time></trkpt><trkpt lat="46.00804766191407" lon="12.088676996455883"><ele>843.0</ele><time>2026-03-24T10:54:11Z</time></trkpt><trkpt lat="46.00796409996114" lon="12.088600852336246"><ele>843.0</ele><time>2026-03-24T10:54:12Z</time></trkpt><trkpt lat="46.00786387083361" lon="12.088515269366361"><ele>843.0</ele><time>2026-03-24T10:54:13Z</time></trkpt><trkpt lat="46.00776996424488" lon="12.08844359810382"><ele>843.0</ele><time>2026-03-24T10:54:14Z</time></trkpt><trkpt lat="46.00768523570343" lon="12.088380680763127"><ele>843.0</ele><time>2026-03-24T10:54:15Z</time></trkpt><trkpt lat="46.00760613835663" lon="12.088323002111807"><ele>843.0</ele><time>2026-03-24T10:54:16Z</time></trkpt><trkpt lat="46.00753684938477" lon="12.088298621935849"><ele>843.0</ele><time>2026-03-24T10:54:17Z</time></trkpt><trkpt lat="46.00747670488567" lon="12.088242460949434"><ele>843.0</ele><time>2026-03-24T10:54:18Z</time></trkpt><trkpt lat="46.00735996327458" lon="12.088175758991314"><ele>843.0</ele><time>2026-03-24T10:54:20Z</time></trkpt><trkpt lat="46.00729724499362" lon="12.088142382577617"><ele>843.0</ele><time>2026-03-24T10:54:21Z</time></trkpt><trkpt lat="46.00717392302618" lon="12.088107359793295"><ele>836.2</ele><time>2026-03-24T10:54:23Z</time></trkpt><trkpt lat="46.00709734141437" lon="12.088100920601141"><ele>829.4</ele><time>2026-03-24T10:54:24Z</time></trkpt><trkpt lat="46.00701658725099" lon="12.088108072918477"><ele>822.6</ele><time>2026-03-24T10:54:25Z</time></trkpt><trkpt lat="46.00692282308976" lon="12.088123277916301"><ele>815.8000000000001</ele><time>2026-03-24T10:54:26Z</time></trkpt><trkpt lat="46.00682742257892" lon="12.088157301553379"><ele>809.0</ele><time>2026-03-24T10:54:27Z</time></trkpt><trkpt lat="46.00671931136092" lon="12.088198461858468"><ele>805.8000000000001</ele><time>2026-03-24T10:54:28Z</time></trkpt><trkpt lat="46.006615919005874" lon="12.088221449447515"><ele>802.6</ele><time>2026-03-24T10:54:29Z</time></trkpt><trkpt lat="46.00653543247147" lon="12.088266933026"><ele>799.4</ele><time>2026-03-24T10:54:30Z</time></trkpt><trkpt lat="46.00644600329617" lon="12.088319235774135"><ele>796.2</ele><time>2026-03-24T10:54:31Z</time></trkpt><trkpt lat="46.00634588379483" lon="12.08835425178432"><ele>793.0</ele><time>2026-03-24T10:54:32Z</time></trkpt><trkpt lat="46.00625778822247" lon="12.088402540260368"><ele>796.5999999999999</ele><time>2026-03-24T10:54:33Z</time></trkpt><trkpt lat="46.00616838729774" lon="12.088476778318235"><ele>800.1999999999999</ele><time>2026-03-24T10:54:34Z</time></trkpt><trkpt lat="46.006041788070235" lon="12.088521313041259"><ele>803.8</ele><time>2026-03-24T10:54:35Z</time></trkpt><trkpt lat="46.005956748203936" lon="12.088585736754867"><ele>807.4</ele><time>2026-03-24T10:54:36Z</time></trkpt><trkpt lat="46.00586122534823" lon="12.088637012137774"><ele>811.0</ele><time>2026-03-24T10:54:37Z</time></trkpt><trkpt lat="46.00579124777827" lon="12.088676719661992"><ele>811.0</ele><time>2026-03-24T10:54:38Z</time></trkpt><trkpt lat="46.005649021306596" lon="12.088765537762391"><ele>811.0</ele><time>2026-03-24T10:54:40Z</time></trkpt><trkpt lat="46.00555300425508" lon="12.088814270589848"><ele>811.0</ele><time>2026-03-24T10:54:41Z</time></trkpt><trkpt lat="46.005470232559155" lon="12.08885632200967"><ele>811.0</ele><time>2026-03-24T10:54:42Z</time></trkpt><trkpt lat="46.00540568201683" lon="12.08888304638001"><ele>811.0</ele><time>2026-03-24T10:54:43Z</time></trkpt><trkpt lat="46.0053233373225" lon="12.088923038655887"><ele>811.0</ele><time>2026-03-24T10:54:44Z</time></trkpt><trkpt lat="46.00525032843007" lon="12.08895702714556"><ele>811.0</ele><time>2026-03-24T10:54:45Z</time></trkpt><trkpt lat="46.00518790074575" lon="12.08899202198749"><ele>811.0</ele><time>2026-03-24T10:54:46Z</time></trkpt><trkpt lat="46.0050821945866" lon="12.089064705574737"><ele>811.0</ele><time>2026-03-24T10:54:48Z</time></trkpt><trkpt lat="46.00503846347613" lon="12.089187982861562"><ele>811.0</ele><time>2026-03-24T10:54:50Z</time></trkpt><trkpt lat="46.005010471056806" lon="12.089381842136463"><ele>812.8333333333333</ele><time>2026-03-24T10:54:52Z</time></trkpt><trkpt lat="46.0050003914594" lon="12.08950359560748"><ele>814.6666666666666</ele><time>2026-03-24T10:54:53Z</time></trkpt><trkpt lat="46.005002715361215" lon="12.089635470685915"><ele>816.5</ele><time>2026-03-24T10:54:54Z</time></trkpt><trkpt lat="46.00499624249719" lon="12.089758392020597"><ele>818.3333333333333</ele><time>2026-03-24T10:54:55Z</time></trkpt><trkpt lat="46.00499776698357" lon="12.089893644530308"><ele>820.1666666666666</ele><time>2026-03-24T10:54:56Z</time></trkpt><trkpt lat="46.00500272468409" lon="12.090019339058978"><ele>822.0</ele><time>2026-03-24T10:54:57Z</time></trkpt><trkpt lat="46.00499157225769" lon="12.090138212451395"><ele>826.1666666666666</ele><time>2026-03-24T10:54:58Z</time></trkpt><trkpt lat="46.00500170750574" lon="12.090236856661345"><ele>830.3333333333333</ele><time>2026-03-24T10:54:59Z</time></trkpt><trkpt lat="46.00503107175804" lon="12.090359557180165"><ele>834.5</ele><time>2026-03-24T10:55:00Z</time></trkpt><trkpt lat="46.005036894993715" lon="12.0904719362977"><ele>838.6666666666666</ele><time>2026-03-24T10:55:01Z</time></trkpt><trkpt lat="46.005045074159845" lon="12.09058797925245"><ele>842.8333333333333</ele><time>2026-03-24T10:55:02Z</time></trkpt><trkpt lat="46.00505265824636" lon="12.090746578896184"><ele>847.0</ele><time>2026-03-24T10:55:04Z</time></trkpt><trkpt lat="46.00500713630042" lon="12.090870141306597"><ele>846.25</ele><time>2026-03-24T10:55:05Z</time></trkpt><trkpt lat="46.004939543960596" lon="12.090850240610488"><ele>845.5</ele><time>2026-03-24T10:55:06Z</time></trkpt><trkpt lat="46.00485719506006" lon="12.090811546280841"><ele>844.75</ele><time>2026-03-24T10:55:07Z</time></trkpt><trkpt lat="46.00479151849061" lon="12.091054211240136"><ele>844.0</ele><time>2026-03-24T10:55:10Z</time></trkpt><trkpt lat="46.004597983493525" lon="12.090860417262181"><ele>844.0</ele><time>2026-03-24T10:55:14Z</time></trkpt><trkpt lat="46.00450189285085" lon="12.090878415646767"><ele>844.0</ele><time>2026-03-24T10:55:15Z</time></trkpt><trkpt lat="46.00440125361418" lon="12.090896770470616"><ele>844.0</ele><time>2026-03-24T10:55:16Z</time></trkpt><trkpt lat="46.004283538160486" lon="12.090919032801303"><ele>844.0</ele><time>2026-03-24T10:55:17Z</time></trkpt><trkpt lat="46.00419970867277" lon="12.090926858414264"><ele>844.0</ele><time>2026-03-24T10:55:18Z</time></trkpt><trkpt lat="46.00411583211515" lon="12.090946821607238"><ele>845.4999999999999</ele><time>2026-03-24T10:55:19Z</time></trkpt><trkpt lat="46.004026574933434" lon="12.090923866791384"><ele>847.0</ele><time>2026-03-24T10:55:20Z</time></trkpt><trkpt lat="46.00392758590066" lon="12.090919219382434"><ele>848.5</ele><time>2026-03-24T10:55:21Z</time></trkpt><trkpt lat="46.00385220615643" lon="12.090874008484493"><ele>850.0</ele><time>2026-03-24T10:55:22Z</time></trkpt><trkpt lat="46.00377127040753" lon="12.090866080640659"><ele>851.4999999999999</ele><time>2026-03-24T10:55:23Z</time></trkpt><trkpt lat="46.00369788757512" lon="12.09080121424322"><ele>853.0</ele><time>2026-03-24T10:55:24Z</time></trkpt><trkpt lat="46.00360364483602" lon="12.090779411465965"><ele>846.8</ele><time>2026-03-24T10:55:25Z</time></trkpt><trkpt lat="46.00353790949667" lon="12.090743894824152"><ele>840.5999999999999</ele><time>2026-03-24T10:55:26Z</time></trkpt><trkpt lat="46.00343294104344" lon="12.090669349662486"><ele>834.4000000000001</ele><time>2026-03-24T10:55:28Z</time></trkpt><trkpt lat="46.003343686019555" lon="12.090589413067034"><ele>828.2</ele><time>2026-03-24T10:55:30Z</time></trkpt><trkpt lat="46.00321993089276" lon="12.09057209881073"><ele>822.0</ele><time>2026-03-24T10:55:32Z</time></trkpt><trkpt lat="46.003091414500524" lon="12.090598175790596"><ele>821.2</ele><time>2026-03-24T10:55:34Z</time></trkpt><trkpt lat="46.003026378177" lon="12.090630670809233"><ele>820.4000000000001</ele><time>2026-03-24T10:55:35Z</time></trkpt><trkpt lat="46.00296785164405" lon="12.090695374408577"><ele>819.5999999999999</ele><time>2026-03-24T10:55:36Z</time></trkpt><trkpt lat="46.002863717517705" lon="12.090810636373133"><ele>818.8</ele><time>2026-03-24T10:55:38Z</time></trkpt><trkpt lat="46.00280215278279" lon="12.090868398794075"><ele>818.0</ele><time>2026-03-24T10:55:39Z</time></trkpt><trkpt lat="46.002696923285704" lon="12.090865483642252"><ele>822.8</ele><time>2026-03-24T10:55:41Z</time></trkpt><trkpt lat="46.002627861048055" lon="12.090874452450487"><ele>827.5999999999999</ele><time>2026-03-24T10:55:43Z</time></trkpt><trkpt lat="46.00251140849171" lon="12.090947825396988"><ele>832.4000000000001</ele><time>2026-03-24T10:55:45Z</time></trkpt><trkpt lat="46.00240905839052" lon="12.091018435901482"><ele>837.2</ele><time>2026-03-24T10:55:47Z</time></trkpt><trkpt lat="46.00231215293815" lon="12.091005332991266"><ele>842.0</ele><time>2026-03-24T10:55:49Z</time></trkpt><trkpt lat="46.00218961986669" lon="12.090950532055041"><ele>842.1666666666667</ele><time>2026-03-24T10:55:51Z</time></trkpt><trkpt lat="46.00210215509683" lon="12.090842996007456"><ele>842.3333333333334</ele><time>2026-03-24T10:55:53Z</time></trkpt><trkpt lat="46.00205088519484" lon="12.090782280642872"><ele>842.5</ele><time>2026-03-24T10:55:54Z</time></trkpt><trkpt lat="46.00199699751439" lon="12.090717237482101"><ele>842.6666666666667</ele><time>2026-03-24T10:55:55Z</time></trkpt><trkpt lat="46.00197958388958" lon="12.090612031495553"><ele>842.8333333333334</ele><time>2026-03-24T10:55:56Z</time></trkpt><trkpt lat="46.00199589890518" lon="12.090474978795287"><ele>843.0</ele><time>2026-03-24T10:55:57Z</time></trkpt><trkpt lat="46.00197068244173" lon="12.090337575122943"><ele>843.0</ele><time>2026-03-24T10:55:58Z</time></trkpt><trkpt lat="46.00193598926013" lon="12.09022942874965"><ele>843.0</ele><time>2026-03-24T10:55:59Z</time></trkpt><trkpt lat="46.00186914779631" lon="12.090131538452004"><ele>843.0</ele><time>2026-03-24T10:56:00Z</time></trkpt><trkpt lat="46.00185532302404" lon="12.090041016746417"><ele>843.0</ele><time>2026-03-24T10:56:01Z</time></trkpt><trkpt lat="46.001845416942224" lon="12.08994107047008"><ele>843.0</ele><time>2026-03-24T10:56:02Z</time></trkpt><trkpt lat="46.00184676881116" lon="12.089828496921303"><ele>843.0</ele><time>2026-03-24T10:56:03Z</time></trkpt><trkpt lat="46.00184776404434" lon="12.0896930742842"><ele>837.5999999999999</ele><time>2026-03-24T10:56:04Z</time></trkpt><trkpt lat="46.00187018681229" lon="12.089605690995093"><ele>832.1999999999999</ele><time>2026-03-24T10:56:05Z</time></trkpt><trkpt lat="46.00191995596286" lon="12.089532930936622"><ele>826.8</ele><time>2026-03-24T10:56:06Z</time></trkpt><trkpt lat="46.00193159051083" lon="12.089428809682426"><ele>821.4</ele><time>2026-03-24T10:56:07Z</time></trkpt><trkpt lat="46.00192436810937" lon="12.089253593256796"><ele>816.0</ele><time>2026-03-24T10:56:09Z</time></trkpt><trkpt lat="46.00181443201246" lon="12.089158466449897"><ele>816.0</ele><time>2026-03-24T10:56:10Z</time></trkpt><trkpt lat="46.001725749176266" lon="12.089125330254438"><ele>816.0</ele><time>2026-03-24T10:56:11Z</time></trkpt><trkpt lat="46.00165009833102" lon="12.089092657880855"><ele>816.0</ele><time>2026-03-24T10:56:12Z</time></trkpt><trkpt lat="46.00157900599759" lon="12.089061953761346"><ele>816.0</ele><time>2026-03-24T10:56:13Z</time></trkpt><trkpt lat="46.001504997859676" lon="12.089029990332616"><ele>816.0</ele><time>2026-03-24T10:56:14Z</time></trkpt><trkpt lat="46.00138578104899" lon="12.089238284237137"><ele>816.1999999999999</ele><time>2026-03-24T10:56:15Z</time></trkpt><trkpt lat="46.00130957053581" lon="12.089288629576297"><ele>816.4</ele><time>2026-03-24T10:56:16Z</time></trkpt><trkpt lat="46.001237276263595" lon="12.08936665629772"><ele>816.6</ele><time>2026-03-24T10:56:17Z</time></trkpt><trkpt lat="46.00117083460086" lon="12.08944818409308"><ele>816.8</ele><time>2026-03-24T10:56:18Z</time></trkpt><trkpt lat="46.00108536648095" lon="12.089493573413991"><ele>817.0</ele><time>2026-03-24T10:56:19Z</time></trkpt><trkpt lat="46.00099466748436" lon="12.089543280318143"><ele>816.9999999999999</ele><time>2026-03-24T10:56:20Z</time></trkpt><trkpt lat="46.00091472299095" lon="12.089610242521177"><ele>817.0</ele><time>2026-03-24T10:56:21Z</time></trkpt><trkpt lat="46.00084123634532" lon="12.08966458638518"><ele>817.0</ele><time>2026-03-24T10:56:22Z</time></trkpt><trkpt lat="46.000761272375016" lon="12.089688435707094"><ele>817.0</ele><time>2026-03-24T10:56:23Z</time></trkpt><trkpt lat="46.00068263763021" lon="12.089721150335006"><ele>816.9999999999999</ele><time>2026-03-24T10:56:24Z</time></trkpt><trkpt lat="46.00060373308337" lon="12.089752398445674"><ele>817.0</ele><time>2026-03-24T10:56:25Z</time></trkpt><trkpt lat="46.00053123583167" lon="12.089781425074294"><ele>817.8</ele><time>2026-03-24T10:56:26Z</time></trkpt><trkpt lat="46.00042881043998" lon="12.089827952293625"><ele>818.6</ele><time>2026-03-24T10:56:28Z</time></trkpt><trkpt lat="46.00033424732966" lon="12.08973605867727"><ele>819.4</ele><time>2026-03-24T10:56:30Z</time></trkpt><trkpt lat="46.00033617519266" lon="12.089563856638634"><ele>820.1999999999999</ele><time>2026-03-24T10:56:32Z</time></trkpt><trkpt lat="46.00038140029326" lon="12.089452806882166"><ele>821.0</ele><time>2026-03-24T10:56:33Z</time></trkpt><trkpt lat="46.00039575375419" lon="12.089337887152253"><ele>821.0000000000001</ele><time>2026-03-24T10:56:34Z</time></trkpt><trkpt lat="46.00040147607606" lon="12.089226929557459"><ele>821.0</ele><time>2026-03-24T10:56:35Z</time></trkpt><trkpt lat="46.00037171207593" lon="12.089137011633863"><ele>821.0</ele><time>2026-03-24T10:56:36Z</time></trkpt><trkpt lat="46.000285415311964" lon="12.089106714080417"><ele>821.0</ele><time>2026-03-24T10:56:38Z</time></trkpt><trkpt lat="46.00021326130684" lon="12.089107128559554"><ele>821.0000000000001</ele><time>2026-03-24T10:56:39Z</time></trkpt><trkpt lat="46.00012898319826" lon="12.08911657826923"><ele>821.0</ele><time>2026-03-24T10:56:40Z</time></trkpt><trkpt lat="46.00005516281409" lon="12.0891181791733"><ele>821.0</ele><time>2026-03-24T10:56:41Z</time></trkpt><trkpt lat="45.99996531757587" lon="12.089159324383264"><ele>821.0</ele><time>2026-03-24T10:56:42Z</time></trkpt><trkpt lat="45.99986925747895" lon="12.089206000985211"><ele>821.0</ele><time>2026-03-24T10:56:43Z</time></trkpt><trkpt lat="45.99978324021362" lon="12.089257906655053"><ele>821.0</ele><time>2026-03-24T10:56:44Z</time></trkpt><trkpt lat="45.99969913428888" lon="12.08929669853932"><ele>821.0</ele><time>2026-03-24T10:56:45Z</time></trkpt><trkpt lat="45.99959660135409" lon="12.089326971683297"><ele>821.0000000000001</ele><time>2026-03-24T10:56:46Z</time></trkpt><trkpt lat="45.999514172110516" lon="12.08936719146346"><ele>821.0</ele><time>2026-03-24T10:56:47Z</time></trkpt><trkpt lat="45.9994446684271" lon="12.089412561666578"><ele>821.0</ele><time>2026-03-24T10:56:48Z</time></trkpt><trkpt lat="45.999382948164346" lon="12.08944967029526"><ele>821.0</ele><time>2026-03-24T10:56:49Z</time></trkpt><trkpt lat="45.99931117513322" lon="12.089492470864394"><ele>821.0000000000001</ele><time>2026-03-24T10:56:50Z</time></trkpt><trkpt lat="45.99920337135128" lon="12.089515479003563"><ele>821.0</ele><time>2026-03-24T10:56:52Z</time></trkpt><trkpt lat="45.999140651803835" lon="12.089470522991238"><ele>821.8333333333334</ele><time>2026-03-24T10:56:54Z</time></trkpt><trkpt lat="45.99905742629323" lon="12.089420595018487"><ele>822.6666666666667</ele><time>2026-03-24T10:57:18Z</time></trkpt><trkpt lat="45.99906094211796" lon="12.08928338041521"><ele>823.5</ele><time>2026-03-24T10:57:20Z</time></trkpt><trkpt lat="45.99911020719572" lon="12.089186280493447"><ele>824.3333333333333</ele><time>2026-03-24T10:57:21Z</time></trkpt><trkpt lat="45.99914213504201" lon="12.089075424905868"><ele>825.1666666666666</ele><time>2026-03-24T10:57:22Z</time></trkpt><trkpt lat="45.99916459268195" lon="12.088956783280633"><ele>826.0</ele><time>2026-03-24T10:57:23Z</time></trkpt><trkpt lat="45.99920225211569" lon="12.088843691447783"><ele>824.3333333333333</ele><time>2026-03-24T10:57:24Z</time></trkpt><trkpt lat="45.99925934505498" lon="12.088750450945597"><ele>822.6666666666666</ele><time>2026-03-24T10:57:25Z</time></trkpt><trkpt lat="45.99933240790377" lon="12.088674995810916"><ele>821.0</ele><time>2026-03-24T10:57:26Z</time></trkpt><trkpt lat="45.99938381823303" lon="12.088585670871565"><ele>819.3333333333333</ele><time>2026-03-24T10:57:27Z</time></trkpt><trkpt lat="45.99940587548394" lon="12.088466007509842"><ele>817.6666666666666</ele><time>2026-03-24T10:57:28Z</time></trkpt><trkpt lat="45.99943779055281" lon="12.088335827685496"><ele>816.0</ele><time>2026-03-24T10:57:29Z</time></trkpt><trkpt lat="45.99950081771675" lon="12.088249716054882"><ele>816.0</ele><time>2026-03-24T10:57:30Z</time></trkpt><trkpt lat="45.99957774152698" lon="12.08817319207717"><ele>816.0</ele><time>2026-03-24T10:57:31Z</time></trkpt><trkpt lat="45.99964005401568" lon="12.088070977886472"><ele>816.0</ele><time>2026-03-24T10:57:32Z</time></trkpt><trkpt lat="45.99970014478965" lon="12.087958431783827"><ele>816.0</ele><time>2026-03-24T10:57:33Z</time></trkpt><trkpt lat="45.999752579106726" lon="12.087848991286128"><ele>816.0</ele><time>2026-03-24T10:57:34Z</time></trkpt><trkpt lat="45.99981894706469" lon="12.087757236557575"><ele>816.0</ele><time>2026-03-24T10:57:35Z</time></trkpt><trkpt lat="45.999900959767814" lon="12.087689358073527"><ele>816.0</ele><time>2026-03-24T10:57:36Z</time></trkpt><trkpt lat="45.99997442176872" lon="12.08762991819483"><ele>816.0</ele><time>2026-03-24T10:57:37Z</time></trkpt><trkpt lat="46.00004940314862" lon="12.087523088947478"><ele>816.0</ele><time>2026-03-24T10:57:38Z</time></trkpt><trkpt lat="46.00009213578154" lon="12.087432370571934"><ele>816.0</ele><time>2026-03-24T10:57:39Z</time></trkpt><trkpt lat="46.00013294210293" lon="12.087315461576578"><ele>818.1999999999999</ele><time>2026-03-24T10:57:40Z</time></trkpt><trkpt lat="46.00010951529024" lon="12.087199956329899"><ele>820.4</ele><time>2026-03-24T10:57:42Z</time></trkpt><trkpt lat="45.9999886090556" lon="12.08709380158397"><ele>822.6</ele><time>2026-03-24T10:57:44Z</time></trkpt><trkpt lat="45.999936374104585" lon="12.08701295433896"><ele>824.8</ele><time>2026-03-24T10:57:45Z</time></trkpt><trkpt lat="45.999879199392566" lon="12.086877005815799"><ele>827.0</ele><time>2026-03-24T10:57:46Z</time></trkpt><trkpt lat="45.99983837653942" lon="12.086742478702027"><ele>827.0</ele><time>2026-03-24T10:57:47Z</time></trkpt><trkpt lat="45.999811508047195" lon="12.086647026524318"><ele>827.0</ele><time>2026-03-24T10:57:48Z</time></trkpt><trkpt lat="45.999876052781495" lon="12.086492484018654"><ele>827.0</ele><time>2026-03-24T10:57:50Z</time></trkpt><trkpt lat="45.99995043543665" lon="12.086445550164155"><ele>827.0</ele><time>2026-03-24T10:57:51Z</time></trkpt><trkpt lat="46.00003922257421" lon="12.08641460161147"><ele>827.0</ele><time>2026-03-24T10:57:52Z</time></trkpt><trkpt lat="46.00013824859322" lon="12.08636217263487"><ele>831.6</ele><time>2026-03-24T10:57:53Z</time></trkpt><trkpt lat="46.000205068261245" lon="12.086318192721833"><ele>836.2</ele><time>2026-03-24T10:57:54Z</time></trkpt><trkpt lat="46.000277763106595" lon="12.086238707009999"><ele>840.8</ele><time>2026-03-24T10:57:55Z</time></trkpt><trkpt lat="46.0003731919601" lon="12.086163991420099"><ele>845.4</ele><time>2026-03-24T10:57:57Z</time></trkpt><trkpt lat="46.000445503301506" lon="12.086195548589163"><ele>850.0</ele><time>2026-03-24T10:57:58Z</time></trkpt><trkpt lat="46.00055392839271" lon="12.086225147516423"><ele>850.0</ele><time>2026-03-24T10:58:00Z</time></trkpt><trkpt lat="46.000605844762546" lon="12.08611658266418"><ele>850.0</ele><time>2026-03-24T10:58:02Z</time></trkpt><trkpt lat="46.000657266859086" lon="12.085924453114737"><ele>850.0</ele><time>2026-03-24T10:58:04Z</time></trkpt><trkpt lat="46.00067243273135" lon="12.085816349665313"><ele>850.0</ele><time>2026-03-24T10:58:05Z</time></trkpt><trkpt lat="46.00076354931021" lon="12.0857555697621"><ele>850.0</ele><time>2026-03-24T10:58:07Z</time></trkpt><trkpt lat="46.00082984181219" lon="12.085772443753125"><ele>844.6</ele><time>2026-03-24T10:58:08Z</time></trkpt><trkpt lat="46.00091222441108" lon="12.085813247273807"><ele>839.2</ele><time>2026-03-24T10:58:09Z</time></trkpt><trkpt lat="46.00103212008031" lon="12.085846446631475"><ele>833.8</ele><time>2026-03-24T10:58:10Z</time></trkpt><trkpt lat="46.00113643158645" lon="12.085845020523493"><ele>828.4</ele><time>2026-03-24T10:58:11Z</time></trkpt><trkpt lat="46.00121263906472" lon="12.085855293075467"><ele>823.0</ele><time>2026-03-24T10:58:12Z</time></trkpt><trkpt lat="46.001317684419725" lon="12.085806998165722"><ele>828.4</ele><time>2026-03-24T10:58:14Z</time></trkpt><trkpt lat="46.00141601658109" lon="12.085652856892334"><ele>833.8</ele><time>2026-03-24T10:58:16Z</time></trkpt><trkpt lat="46.001452430239134" lon="12.085549318415369"><ele>839.2</ele><time>2026-03-24T10:58:17Z</time></trkpt><trkpt lat="46.001459962188534" lon="12.085448458355659"><ele>844.6</ele><time>2026-03-24T10:58:18Z</time></trkpt><trkpt lat="46.00146614792802" lon="12.085330754009577"><ele>850.0</ele><time>2026-03-24T10:58:19Z</time></trkpt><trkpt lat="46.00146375708925" lon="12.085223867646484"><ele>849.9999999999999</ele><time>2026-03-24T10:58:20Z</time></trkpt><trkpt lat="46.00151087877344" lon="12.085128152987151"><ele>850.0</ele><time>2026-03-24T10:58:21Z</time></trkpt><trkpt lat="46.00155887582201" lon="12.085061846478702"><ele>850.0</ele><time>2026-03-24T10:58:22Z</time></trkpt><trkpt lat="46.00162742075487" lon="12.085054378049582"><ele>850.0</ele><time>2026-03-24T10:58:23Z</time></trkpt><trkpt lat="46.00171235822204" lon="12.08509210987936"><ele>849.9999999999999</ele><time>2026-03-24T10:58:24Z</time></trkpt><trkpt lat="46.00181006943543" lon="12.085139058018298"><ele>850.0</ele><time>2026-03-24T10:58:25Z</time></trkpt><trkpt lat="46.001898490938785" lon="12.085174224535264"><ele>844.4999999999999</ele><time>2026-03-24T10:58:26Z</time></trkpt><trkpt lat="46.001974508977916" lon="12.085183492826372"><ele>839.0</ele><time>2026-03-24T10:58:27Z</time></trkpt><trkpt lat="46.002051170692496" lon="12.085176673993123"><ele>833.5</ele><time>2026-03-24T10:58:28Z</time></trkpt><trkpt lat="46.002121628366126" lon="12.085202557995016"><ele>828.0</ele><time>2026-03-24T10:58:29Z</time></trkpt><trkpt lat="46.002189231182975" lon="12.08523680019844"><ele>822.4999999999999</ele><time>2026-03-24T10:58:30Z</time></trkpt><trkpt lat="46.002292980250196" lon="12.08530444368617"><ele>817.0</ele><time>2026-03-24T10:58:32Z</time></trkpt><trkpt lat="46.00239222983166" lon="12.0853216664743"><ele>813.25</ele><time>2026-03-24T10:58:34Z</time></trkpt><trkpt lat="46.002513165315044" lon="12.08530458376936"><ele>809.5</ele><time>2026-03-24T10:58:36Z</time></trkpt><trkpt lat="46.00263462092113" lon="12.085255800349907"><ele>805.75</ele><time>2026-03-24T10:58:38Z</time></trkpt><trkpt lat="46.00275325595945" lon="12.085150598590776"><ele>802.0</ele><time>2026-03-24T10:58:40Z</time></trkpt><trkpt lat="46.002828886046615" lon="12.085082945425105"><ele>801.9999999999999</ele><time>2026-03-24T10:58:41Z</time></trkpt><trkpt lat="46.002896286783745" lon="12.085047894139207"><ele>802.0</ele><time>2026-03-24T10:58:42Z</time></trkpt><trkpt lat="46.00296644324263" lon="12.085038892582547"><ele>802.0</ele><time>2026-03-24T10:58:43Z</time></trkpt><trkpt lat="46.00304609397903" lon="12.085033982387637"><ele>802.0</ele><time>2026-03-24T10:58:44Z</time></trkpt><trkpt lat="46.003126602944455" lon="12.085019258348831"><ele>801.9999999999999</ele><time>2026-03-24T10:58:45Z</time></trkpt><trkpt lat="46.00320535563107" lon="12.085010857350186"><ele>802.0</ele><time>2026-03-24T10:58:46Z</time></trkpt><trkpt lat="46.003281855300926" lon="12.085010282333554"><ele>802.1666666666666</ele><time>2026-03-24T10:58:47Z</time></trkpt><trkpt lat="46.0033633295501" lon="12.084990279345007"><ele>802.3333333333333</ele><time>2026-03-24T10:58:48Z</time></trkpt><trkpt lat="46.00344974831958" lon="12.084957979206372"><ele>802.5</ele><time>2026-03-24T10:58:49Z</time></trkpt><trkpt lat="46.003533190517295" lon="12.08490028219435"><ele>802.6666666666667</ele><time>2026-03-24T10:58:50Z</time></trkpt><trkpt lat="46.003615887176856" lon="12.084847127148612"><ele>802.8333333333334</ele><time>2026-03-24T10:58:51Z</time></trkpt><trkpt lat="46.00367790797261" lon="12.084821075954522"><ele>803.0</ele><time>2026-03-24T10:58:52Z</time></trkpt><trkpt lat="46.003749304073295" lon="12.084799154805829"><ele>803.0000000000001</ele><time>2026-03-24T10:58:53Z</time></trkpt><trkpt lat="46.00381363546726" lon="12.084763523389839"><ele>803.0</ele><time>2026-03-24T10:58:54Z</time></trkpt><trkpt lat="46.00387770439818" lon="12.08473062795457"><ele>803.0</ele><time>2026-03-24T10:58:55Z</time></trkpt><trkpt lat="46.00399230978917" lon="12.084601772686803"><ele>803.0</ele><time>2026-03-24T10:58:57Z</time></trkpt><trkpt lat="46.00402775170607" lon="12.08449943002106"><ele>803.0000000000001</ele><time>2026-03-24T10:58:58Z</time></trkpt><trkpt lat="46.00403696010104" lon="12.084401944842819"><ele>803.0</ele><time>2026-03-24T10:58:59Z</time></trkpt><trkpt lat="46.004061569605746" lon="12.084299187277391"><ele>803.0</ele><time>2026-03-24T10:59:00Z</time></trkpt><trkpt lat="46.00411048395507" lon="12.084213607191149"><ele>803.0</ele><time>2026-03-24T10:59:01Z</time></trkpt><trkpt lat="46.004173051022754" lon="12.084164461504468"><ele>803.0</ele><time>2026-03-24T10:59:02Z</time></trkpt><trkpt lat="46.004294725765845" lon="12.084118075375939"><ele>803.0</ele><time>2026-03-24T10:59:04Z</time></trkpt><trkpt lat="46.004344202658935" lon="12.083992507236548"><ele>803.0</ele><time>2026-03-24T10:59:06Z</time></trkpt><trkpt lat="46.00433008152593" lon="12.083882835209192"><ele>799.6666666666667</ele><time>2026-03-24T10:59:07Z</time></trkpt><trkpt lat="46.00431842742784" lon="12.08376770644284"><ele>796.3333333333334</ele><time>2026-03-24T10:59:08Z</time></trkpt><trkpt lat="46.00434953113542" lon="12.0836613676861"><ele>793.0</ele><time>2026-03-24T10:59:09Z</time></trkpt><trkpt lat="46.004382725921715" lon="12.083578982658281"><ele>789.6666666666667</ele><time>2026-03-24T10:59:10Z</time></trkpt><trkpt lat="46.00444077559867" lon="12.0835335250731"><ele>786.3333333333334</ele><time>2026-03-24T10:59:11Z</time></trkpt><trkpt lat="46.00450898792632" lon="12.08349657081107"><ele>783.0</ele><time>2026-03-24T10:59:12Z</time></trkpt><trkpt lat="46.00460312770223" lon="12.083475414797839"><ele>783.0</ele><time>2026-03-24T10:59:13Z</time></trkpt><trkpt lat="46.004690085851955" lon="12.083470160974445"><ele>783.0</ele><time>2026-03-24T10:59:14Z</time></trkpt><trkpt lat="46.004802486707646" lon="12.083474906463758"><ele>783.0</ele><time>2026-03-24T10:59:15Z</time></trkpt><trkpt lat="46.00489298080333" lon="12.083498667384971"><ele>783.0</ele><time>2026-03-24T10:59:16Z</time></trkpt><trkpt lat="46.004966535757625" lon="12.083525828752745"><ele>783.0</ele><time>2026-03-24T10:59:17Z</time></trkpt><trkpt lat="46.00503546846997" lon="12.083555325627719"><ele>783.0</ele><time>2026-03-24T10:59:18Z</time></trkpt><trkpt lat="46.00514938668241" lon="12.08359294430839"><ele>778.8333333333334</ele><time>2026-03-24T10:59:20Z</time></trkpt><trkpt lat="46.0052652021022" lon="12.083527749954886"><ele>774.6666666666666</ele><time>2026-03-24T10:59:22Z</time></trkpt><trkpt lat="46.00533079270925" lon="12.083467296834188"><ele>770.5</ele><time>2026-03-24T10:59:23Z</time></trkpt><trkpt lat="46.00540952257724" lon="12.08343376874058"><ele>766.3333333333333</ele><time>2026-03-24T10:59:24Z</time></trkpt><trkpt lat="46.00549065724317" lon="12.083411443845488"><ele>762.1666666666666</ele><time>2026-03-24T10:59:25Z</time></trkpt><trkpt lat="46.005564015192505" lon="12.0833800961171"><ele>758.0</ele><time>2026-03-24T10:59:26Z</time></trkpt><trkpt lat="46.00563253363032" lon="12.08333722745106"><ele>758.0</ele><time>2026-03-24T10:59:27Z</time></trkpt><trkpt lat="46.005700294707594" lon="12.083292056209622"><ele>758.0</ele><time>2026-03-24T10:59:28Z</time></trkpt><trkpt lat="46.00575832726758" lon="12.083252495528273"><ele>758.0</ele><time>2026-03-24T10:59:29Z</time></trkpt><trkpt lat="46.00583182123292" lon="12.083166232311266"><ele>758.0</ele><time>2026-03-24T10:59:31Z</time></trkpt><trkpt lat="46.005867297642354" lon="12.082974205235242"><ele>758.0</ele><time>2026-03-24T10:59:33Z</time></trkpt><trkpt lat="46.00590973318041" lon="12.082878243983457"><ele>759.5999999999999</ele><time>2026-03-24T10:59:34Z</time></trkpt><trkpt lat="46.006002699092285" lon="12.08283056991774"><ele>761.1999999999999</ele><time>2026-03-24T10:59:35Z</time></trkpt><trkpt lat="46.00610170368853" lon="12.082802640287477"><ele>762.8</ele><time>2026-03-24T10:59:36Z</time></trkpt><trkpt lat="46.006216406677645" lon="12.082804742582432"><ele>764.4</ele><time>2026-03-24T10:59:37Z</time></trkpt><trkpt lat="46.00632101678305" lon="12.082794368263666"><ele>766.0</ele><time>2026-03-24T10:59:38Z</time></trkpt><trkpt lat="46.00641565907629" lon="12.08277186829234"><ele>766.0</ele><time>2026-03-24T10:59:39Z</time></trkpt><trkpt lat="46.006476808207786" lon="12.082750151177235"><ele>766.0</ele><time>2026-03-24T10:59:40Z</time></trkpt><trkpt lat="46.00660449336319" lon="12.082707190324243"><ele>766.0</ele><time>2026-03-24T10:59:42Z</time></trkpt><trkpt lat="46.00666614525355" lon="12.082687520318771"><ele>766.0</ele><time>2026-03-24T10:59:43Z</time></trkpt><trkpt lat="46.00677786590641" lon="12.082601412901479"><ele>766.0</ele><time>2026-03-24T10:59:45Z</time></trkpt><trkpt lat="46.00682399189915" lon="12.082522068599946"><ele>764.0</ele><time>2026-03-24T10:59:46Z</time></trkpt><trkpt lat="46.00686746453628" lon="12.08243607093749"><ele>762.0</ele><time>2026-03-24T10:59:47Z</time></trkpt><trkpt lat="46.00692019846983" lon="12.082331612154555"><ele>760.0</ele><time>2026-03-24T10:59:48Z</time></trkpt><trkpt lat="46.006968036283986" lon="12.08222241914825"><ele>758.0</ele><time>2026-03-24T10:59:49Z</time></trkpt><trkpt lat="46.00700991870799" lon="12.08210124979706"><ele>756.0</ele><time>2026-03-24T10:59:50Z</time></trkpt><trkpt lat="46.007058073539355" lon="12.081986887831857"><ele>754.0</ele><time>2026-03-24T10:59:51Z</time></trkpt><trkpt lat="46.007117326534065" lon="12.081846653567544"><ele>754.0</ele><time>2026-03-24T10:59:52Z</time></trkpt><trkpt lat="46.007191990425596" lon="12.08173481067012"><ele>754.0</ele><time>2026-03-24T10:59:53Z</time></trkpt><trkpt lat="46.00726550537499" lon="12.081620544452486"><ele>754.0</ele><time>2026-03-24T10:59:54Z</time></trkpt><trkpt lat="46.00733968513631" lon="12.081492853757622"><ele>754.0</ele><time>2026-03-24T10:59:55Z</time></trkpt><trkpt lat="46.007404481760055" lon="12.081371252569532"><ele>754.0</ele><time>2026-03-24T10:59:56Z</time></trkpt><trkpt lat="46.007466804385366" lon="12.08126787388678"><ele>750.2</ele><time>2026-03-24T10:59:57Z</time></trkpt><trkpt lat="46.007541586111884" lon="12.081158129214826"><ele>746.4000000000001</ele><time>2026-03-24T10:59:58Z</time></trkpt><trkpt lat="46.00762923444884" lon="12.081056738272487"><ele>742.6</ele><time>2026-03-24T10:59:59Z</time></trkpt><trkpt lat="46.00772186821647" lon="12.080942980575935"><ele>738.8</ele><time>2026-03-24T11:00:00Z</time></trkpt><trkpt lat="46.007814635279736" lon="12.080866421928084"><ele>735.0</ele><time>2026-03-24T11:00:01Z</time></trkpt><trkpt lat="46.00790616393632" lon="12.080813538098827"><ele>735.6</ele><time>2026-03-24T11:00:02Z</time></trkpt><trkpt lat="46.00800301950269" lon="12.080764903042223"><ele>736.2</ele><time>2026-03-24T11:00:03Z</time></trkpt><trkpt lat="46.00809602223672" lon="12.080725860929393"><ele>736.8</ele><time>2026-03-24T11:00:04Z</time></trkpt><trkpt lat="46.008202870838346" lon="12.080701618635764"><ele>737.4</ele><time>2026-03-24T11:00:05Z</time></trkpt><trkpt lat="46.00831479512957" lon="12.080691986000057"><ele>738.0</ele><time>2026-03-24T11:00:06Z</time></trkpt><trkpt lat="46.008426360922385" lon="12.080695889101062"><ele>738.0</ele><time>2026-03-24T11:00:07Z</time></trkpt><trkpt lat="46.008527943345925" lon="12.080709037629134"><ele>738.0</ele><time>2026-03-24T11:00:08Z</time></trkpt><trkpt lat="46.008621437480365" lon="12.080725668135363"><ele>738.0</ele><time>2026-03-24T11:00:09Z</time></trkpt><trkpt lat="46.008703006972084" lon="12.080737968432423"><ele>738.0</ele><time>2026-03-24T11:00:10Z</time></trkpt><trkpt lat="46.00877590847354" lon="12.080749349673612"><ele>738.0</ele><time>2026-03-24T11:00:11Z</time></trkpt><trkpt lat="46.00885016511594" lon="12.080760602195024"><ele>738.0</ele><time>2026-03-24T11:00:12Z</time></trkpt><trkpt lat="46.00892271817616" lon="12.08076352343216"><ele>738.0</ele><time>2026-03-24T11:00:13Z</time></trkpt><trkpt lat="46.00903046521782" lon="12.080754035434985"><ele>738.0</ele><time>2026-03-24T11:00:14Z</time></trkpt><trkpt lat="46.009117617840005" lon="12.080735996148757"><ele>738.0</ele><time>2026-03-24T11:00:15Z</time></trkpt><trkpt lat="46.009208974844185" lon="12.080686000509392"><ele>738.0</ele><time>2026-03-24T11:00:16Z</time></trkpt><trkpt lat="46.009291701873124" lon="12.080618781253712"><ele>738.0</ele><time>2026-03-24T11:00:17Z</time></trkpt><trkpt lat="46.009370601299224" lon="12.080536326003038"><ele>736.1666666666666</ele><time>2026-03-24T11:00:18Z</time></trkpt><trkpt lat="46.00947001614994" lon="12.080459779680925"><ele>734.3333333333334</ele><time>2026-03-24T11:00:19Z</time></trkpt><trkpt lat="46.00955190297402" lon="12.080424439422433"><ele>732.5</ele><time>2026-03-24T11:00:20Z</time></trkpt><trkpt lat="46.009632580073195" lon="12.080409935787216"><ele>730.6666666666667</ele><time>2026-03-24T11:00:21Z</time></trkpt><trkpt lat="46.00971002603385" lon="12.08042274964315"><ele>728.8333333333334</ele><time>2026-03-24T11:00:22Z</time></trkpt><trkpt lat="46.00978699292147" lon="12.080442318640339"><ele>727.0</ele><time>2026-03-24T11:00:23Z</time></trkpt><trkpt lat="46.00986800604932" lon="12.080439065357542"><ele>727.0</ele><time>2026-03-24T11:00:24Z</time></trkpt><trkpt lat="46.009937223096294" lon="12.080437240497385"><ele>727.0</ele><time>2026-03-24T11:00:25Z</time></trkpt><trkpt lat="46.01004501751945" lon="12.080440512986181"><ele>727.0</ele><time>2026-03-24T11:00:26Z</time></trkpt><trkpt lat="46.0101349595609" lon="12.080465668697505"><ele>727.0</ele><time>2026-03-24T11:00:27Z</time></trkpt><trkpt lat="46.010218481952315" lon="12.080496879566349"><ele>727.0</ele><time>2026-03-24T11:00:28Z</time></trkpt><trkpt lat="46.01031332586154" lon="12.08051327054012"><ele>725.0</ele><time>2026-03-24T11:00:29Z</time></trkpt><trkpt lat="46.01040753831811" lon="12.080506372707807"><ele>723.0</ele><time>2026-03-24T11:00:30Z</time></trkpt><trkpt lat="46.01049905944734" lon="12.080511579429869"><ele>721.0</ele><time>2026-03-24T11:00:31Z</time></trkpt><trkpt lat="46.010596484005546" lon="12.080511296982108"><ele>719.0</ele><time>2026-03-24T11:00:32Z</time></trkpt><trkpt lat="46.01068868289759" lon="12.080513126905979"><ele>717.0</ele><time>2026-03-24T11:00:33Z</time></trkpt><trkpt lat="46.010790055909304" lon="12.080499209563555"><ele>715.2</ele><time>2026-03-24T11:00:34Z</time></trkpt><trkpt lat="46.01089914397939" lon="12.080467548921893"><ele>713.4000000000001</ele><time>2026-03-24T11:00:35Z</time></trkpt><trkpt lat="46.01099838107783" lon="12.080446231079321"><ele>711.5999999999999</ele><time>2026-03-24T11:00:36Z</time></trkpt><trkpt lat="46.011099248736194" lon="12.080408737843909"><ele>709.8</ele><time>2026-03-24T11:00:37Z</time></trkpt><trkpt lat="46.01120966301869" lon="12.080381342598692"><ele>708.0</ele><time>2026-03-24T11:00:38Z</time></trkpt><trkpt lat="46.01131237071549" lon="12.080378277873214"><ele>708.0</ele><time>2026-03-24T11:00:39Z</time></trkpt><trkpt lat="46.01139643009467" lon="12.080399471915364"><ele>708.0</ele><time>2026-03-24T11:00:40Z</time></trkpt><trkpt lat="46.011480965479166" lon="12.080407049017273"><ele>708.0</ele><time>2026-03-24T11:00:41Z</time></trkpt><trkpt lat="46.01159569338543" lon="12.080365724152003"><ele>708.0</ele><time>2026-03-24T11:00:43Z</time></trkpt><trkpt lat="46.01161702903265" lon="12.080272689839829"><ele>708.0</ele><time>2026-03-24T11:00:44Z</time></trkpt><trkpt lat="46.01165422191627" lon="12.080169914226135"><ele>708.0</ele><time>2026-03-24T11:00:45Z</time></trkpt><trkpt lat="46.01170805165206" lon="12.08002713080155"><ele>711.75</ele><time>2026-03-24T11:00:46Z</time></trkpt><trkpt lat="46.011779005234075" lon="12.079914065569776"><ele>715.5</ele><time>2026-03-24T11:00:47Z</time></trkpt><trkpt lat="46.011894661157314" lon="12.079846101108926"><ele>719.25</ele><time>2026-03-24T11:00:48Z</time></trkpt><trkpt lat="46.01201013369561" lon="12.079750891819169"><ele>723.0</ele><time>2026-03-24T11:00:49Z</time></trkpt><trkpt lat="46.01211295165509" lon="12.079640378161695"><ele>723.0</ele><time>2026-03-24T11:00:50Z</time></trkpt><trkpt lat="46.01217508952403" lon="12.0795633851182"><ele>723.0</ele><time>2026-03-24T11:00:51Z</time></trkpt><trkpt lat="46.01222377710563" lon="12.079476906162439"><ele>723.0</ele><time>2026-03-24T11:00:52Z</time></trkpt><trkpt lat="46.01225683366698" lon="12.079396381035417"><ele>723.0</ele><time>2026-03-24T11:00:53Z</time></trkpt><trkpt lat="46.0123234414286" lon="12.079334769230087"><ele>723.0</ele><time>2026-03-24T11:00:55Z</time></trkpt><trkpt lat="46.01242962538128" lon="12.079405423915397"><ele>723.0</ele><time>2026-03-24T11:00:57Z</time></trkpt><trkpt lat="46.01252674701648" lon="12.079448528237188"><ele>719.5999999999999</ele><time>2026-03-24T11:00:58Z</time></trkpt><trkpt lat="46.01264189596778" lon="12.079497460616842"><ele>716.1999999999999</ele><time>2026-03-24T11:00:59Z</time></trkpt><trkpt lat="46.01274909190786" lon="12.079563341547157"><ele>712.8</ele><time>2026-03-24T11:01:00Z</time></trkpt><trkpt lat="46.01283941041659" lon="12.079625961933159"><ele>709.4</ele><time>2026-03-24T11:01:01Z</time></trkpt><trkpt lat="46.01294132618031" lon="12.079680844471003"><ele>706.0</ele><time>2026-03-24T11:01:02Z</time></trkpt><trkpt lat="46.01302887066182" lon="12.079714080957535"><ele>706.0</ele><time>2026-03-24T11:01:03Z</time></trkpt><trkpt lat="46.013107687863155" lon="12.079755994007531"><ele>706.0</ele><time>2026-03-24T11:01:04Z</time></trkpt><trkpt lat="46.013197839379536" lon="12.079726032438229"><ele>706.0</ele><time>2026-03-24T11:01:05Z</time></trkpt><trkpt lat="46.01331599565255" lon="12.079694999301228"><ele>706.0</ele><time>2026-03-24T11:01:06Z</time></trkpt><trkpt lat="46.01344325019808" lon="12.079684334252095"><ele>706.0</ele><time>2026-03-24T11:01:07Z</time></trkpt><trkpt lat="46.01356100155173" lon="12.079687252006746"><ele>706.4</ele><time>2026-03-24T11:01:08Z</time></trkpt><trkpt lat="46.013682651270116" lon="12.079673820608138"><ele>706.8</ele><time>2026-03-24T11:01:09Z</time></trkpt><trkpt lat="46.01376074799098" lon="12.079649343374816"><ele>707.1999999999999</ele><time>2026-03-24T11:01:10Z</time></trkpt><trkpt lat="46.01381216240662" lon="12.079512917330455"><ele>707.5999999999999</ele><time>2026-03-24T11:01:12Z</time></trkpt><trkpt lat="46.013803565568665" lon="12.079394340284113"><ele>708.0</ele><time>2026-03-24T11:01:13Z</time></trkpt><trkpt lat="46.01383151848733" lon="12.079285803440817"><ele>708.0</ele><time>2026-03-24T11:01:14Z</time></trkpt><trkpt lat="46.01393981597055" lon="12.07924062711768"><ele>708.0</ele><time>2026-03-24T11:01:16Z</time></trkpt><trkpt lat="46.014077862787545" lon="12.07937506614259"><ele>708.0</ele><time>2026-03-24T11:01:18Z</time></trkpt><trkpt lat="46.01412900356864" lon="12.07944620317689"><ele>708.0</ele><time>2026-03-24T11:01:19Z</time></trkpt><trkpt lat="46.01426708730451" lon="12.079467784675654"><ele>706.75</ele><time>2026-03-24T11:01:21Z</time></trkpt><trkpt lat="46.014376699361875" lon="12.079449644292021"><ele>705.5</ele><time>2026-03-24T11:01:22Z</time></trkpt><trkpt lat="46.01448475831057" lon="12.079406177925502"><ele>704.25</ele><time>2026-03-24T11:01:23Z</time></trkpt><trkpt lat="46.014582111665696" lon="12.079344077961183"><ele>703.0</ele><time>2026-03-24T11:01:24Z</time></trkpt><trkpt lat="46.01471406889432" lon="12.079252032092885"><ele>703.0</ele><time>2026-03-24T11:01:25Z</time></trkpt><trkpt lat="46.01483360331912" lon="12.07917159003354"><ele>703.0</ele><time>2026-03-24T11:01:26Z</time></trkpt><trkpt lat="46.01494070101099" lon="12.079098445963531"><ele>703.0</ele><time>2026-03-24T11:01:27Z</time></trkpt><trkpt lat="46.01505088504526" lon="12.079038016939377"><ele>703.0</ele><time>2026-03-24T11:01:28Z</time></trkpt><trkpt lat="46.015166887308474" lon="12.079004497885402"><ele>709.8</ele><time>2026-03-24T11:01:29Z</time></trkpt><trkpt lat="46.015269319212216" lon="12.078987711006944"><ele>716.5999999999999</ele><time>2026-03-24T11:01:30Z</time></trkpt><trkpt lat="46.01535336627595" lon="12.078955073372345"><ele>723.4000000000001</ele><time>2026-03-24T11:01:31Z</time></trkpt><trkpt lat="46.01544066265145" lon="12.078930480237084"><ele>730.2</ele><time>2026-03-24T11:01:32Z</time></trkpt><trkpt lat="46.015534213247015" lon="12.078902036344132"><ele>737.0</ele><time>2026-03-24T11:01:33Z</time></trkpt><trkpt lat="46.01561754168523" lon="12.078947779749171"><ele>737.0</ele><time>2026-03-24T11:01:34Z</time></trkpt><trkpt lat="46.015705134027854" lon="12.078960608903943"><ele>737.0</ele><time>2026-03-24T11:01:35Z</time></trkpt><trkpt lat="46.015798607418326" lon="12.078948188383919"><ele>737.0</ele><time>2026-03-24T11:01:36Z</time></trkpt><trkpt lat="46.01590279833193" lon="12.078918028238299"><ele>737.0</ele><time>2026-03-24T11:01:37Z</time></trkpt><trkpt lat="46.016012648867154" lon="12.078884025925186"><ele>737.0</ele><time>2026-03-24T11:01:38Z</time></trkpt><trkpt lat="46.01613584608775" lon="12.078872242495416"><ele>734.6</ele><time>2026-03-24T11:01:39Z</time></trkpt><trkpt lat="46.016241140068836" lon="12.078883166845872"><ele>732.2</ele><time>2026-03-24T11:01:40Z</time></trkpt><trkpt lat="46.01634203934786" lon="12.078905437190592"><ele>729.8</ele><time>2026-03-24T11:01:41Z</time></trkpt><trkpt lat="46.0164448971373" lon="12.078900649130157"><ele>727.4</ele><time>2026-03-24T11:01:42Z</time></trkpt><trkpt lat="46.01655391809536" lon="12.0788570034968"><ele>725.0</ele><time>2026-03-24T11:01:43Z</time></trkpt><trkpt lat="46.016656776244666" lon="12.078772820175955"><ele>723.3333333333333</ele><time>2026-03-24T11:01:44Z</time></trkpt><trkpt lat="46.01673531109055" lon="12.078706411471062"><ele>721.6666666666666</ele><time>2026-03-24T11:01:45Z</time></trkpt><trkpt lat="46.01680027969655" lon="12.078639476145298"><ele>720.0</ele><time>2026-03-24T11:01:46Z</time></trkpt><trkpt lat="46.016869093078924" lon="12.07863788199414"><ele>718.3333333333334</ele><time>2026-03-24T11:01:47Z</time></trkpt><trkpt lat="46.01694353076851" lon="12.078695215474827"><ele>716.6666666666667</ele><time>2026-03-24T11:01:48Z</time></trkpt><trkpt lat="46.01702520473835" lon="12.078734092498658"><ele>715.0</ele><time>2026-03-24T11:01:49Z</time></trkpt><trkpt lat="46.017113261884916" lon="12.07872702135586"><ele>715.0</ele><time>2026-03-24T11:01:50Z</time></trkpt><trkpt lat="46.01722903529235" lon="12.078673502318331"><ele>715.0</ele><time>2026-03-24T11:01:51Z</time></trkpt><trkpt lat="46.0173508229668" lon="12.078613055568193"><ele>715.0</ele><time>2026-03-24T11:01:52Z</time></trkpt><trkpt lat="46.017465651041434" lon="12.078547833360368"><ele>715.0</ele><time>2026-03-24T11:01:53Z</time></trkpt><trkpt lat="46.01758378225923" lon="12.078526953801337"><ele>714.4</ele><time>2026-03-24T11:01:54Z</time></trkpt><trkpt lat="46.01767705941705" lon="12.078498896116368"><ele>713.8</ele><time>2026-03-24T11:01:55Z</time></trkpt><trkpt lat="46.01777572027324" lon="12.078449415299515"><ele>713.2</ele><time>2026-03-24T11:01:56Z</time></trkpt><trkpt lat="46.01787041194462" lon="12.078370421222397"><ele>712.6</ele><time>2026-03-24T11:01:57Z</time></trkpt><trkpt lat="46.01795882016412" lon="12.07833509774155"><ele>712.0</ele><time>2026-03-24T11:01:58Z</time></trkpt><trkpt lat="46.01805454011218" lon="12.07832939558203"><ele>712.0</ele><time>2026-03-24T11:01:59Z</time></trkpt><trkpt lat="46.01814780000765" lon="12.07837358364446"><ele>712.0</ele><time>2026-03-24T11:02:00Z</time></trkpt><trkpt lat="46.01825127315218" lon="12.07842233019503"><ele>712.0</ele><time>2026-03-24T11:02:01Z</time></trkpt><trkpt lat="46.01835626330875" lon="12.07848076339422"><ele>712.0</ele><time>2026-03-24T11:02:02Z</time></trkpt><trkpt lat="46.01850262530458" lon="12.078432166520324"><ele>709.6</ele><time>2026-03-24T11:02:04Z</time></trkpt><trkpt lat="46.01858750361537" lon="12.078368798911024"><ele>707.2</ele><time>2026-03-24T11:02:05Z</time></trkpt><trkpt lat="46.01868617486852" lon="12.078296532613306"><ele>704.8</ele><time>2026-03-24T11:02:06Z</time></trkpt><trkpt lat="46.01878092178924" lon="12.078243072760813"><ele>702.4</ele><time>2026-03-24T11:02:07Z</time></trkpt><trkpt lat="46.01886937739633" lon="12.078174781664941"><ele>700.0</ele><time>2026-03-24T11:02:08Z</time></trkpt><trkpt lat="46.01893094630879" lon="12.078113281445203"><ele>706.2</ele><time>2026-03-24T11:02:09Z</time></trkpt><trkpt lat="46.01898185535306" lon="12.078041120574644"><ele>712.4</ele><time>2026-03-24T11:02:10Z</time></trkpt><trkpt lat="46.01900750541761" lon="12.07794940962013"><ele>718.5999999999999</ele><time>2026-03-24T11:02:11Z</time></trkpt><trkpt lat="46.0190338205267" lon="12.077826454620485"><ele>724.8</ele><time>2026-03-24T11:02:12Z</time></trkpt><trkpt lat="46.01892260754991" lon="12.077662180329362"><ele>731.0</ele><time>2026-03-24T11:02:13Z</time></trkpt><trkpt lat="46.01894954781209" lon="12.077360917299842"><ele>733.0</ele><time>2026-03-24T11:02:15Z</time></trkpt><trkpt lat="46.01917671700403" lon="12.077273084973086"><ele>735.0</ele><time>2026-03-24T11:02:16Z</time></trkpt><trkpt lat="46.0192580765761" lon="12.077271198880224"><ele>737.0</ele><time>2026-03-24T11:02:17Z</time></trkpt><trkpt lat="46.01937558438392" lon="12.077451817078096"><ele>731.4000000000001</ele><time>2026-03-24T11:02:18Z</time></trkpt><trkpt lat="46.01949529268487" lon="12.077480972479515"><ele>725.8000000000001</ele><time>2026-03-24T11:02:19Z</time></trkpt><trkpt lat="46.01965616469299" lon="12.07747336760927"><ele>720.2</ele><time>2026-03-24T11:02:21Z</time></trkpt><trkpt lat="46.01972143157457" lon="12.077481253733461"><ele>714.6</ele><time>2026-03-24T11:02:22Z</time></trkpt><trkpt lat="46.01981865271576" lon="12.077492004969638"><ele>709.0</ele><time>2026-03-24T11:02:23Z</time></trkpt><trkpt lat="46.019892795484495" lon="12.077484610114166"><ele>709.0</ele><time>2026-03-24T11:02:25Z</time></trkpt><trkpt lat="46.01976121792014" lon="12.077457648391102"><ele>709.0</ele><time>2026-03-24T11:02:31Z</time></trkpt><trkpt lat="46.01966968332855" lon="12.077448475948657"><ele>709.0</ele><time>2026-03-24T11:02:32Z</time></trkpt><trkpt lat="46.01957293655259" lon="12.07744750966249"><ele>709.0</ele><time>2026-03-24T11:02:33Z</time></trkpt><trkpt lat="46.01948158174701" lon="12.077445868649267"><ele>709.0</ele><time>2026-03-24T11:02:34Z</time></trkpt><trkpt lat="46.01939031184048" lon="12.077428625709189"><ele>714.6</ele><time>2026-03-24T11:02:35Z</time></trkpt><trkpt lat="46.019308246446315" lon="12.077367409533467"><ele>720.2</ele><time>2026-03-24T11:02:36Z</time></trkpt><trkpt lat="46.0192376836651" lon="12.077275152910062"><ele>725.8000000000001</ele><time>2026-03-24T11:02:37Z</time></trkpt><trkpt lat="46.019145951166365" lon="12.07723431600832"><ele>731.4000000000001</ele><time>2026-03-24T11:02:38Z</time></trkpt><trkpt lat="46.01903867665471" lon="12.077254169371805"><ele>737.0</ele><time>2026-03-24T11:02:39Z</time></trkpt><trkpt lat="46.0189513955093" lon="12.077290995705043"><ele>736.0</ele><time>2026-03-24T11:02:40Z</time></trkpt><trkpt lat="46.018883503988256" lon="12.077387743233494"><ele>735.0</ele><time>2026-03-24T11:02:41Z</time></trkpt><trkpt lat="46.01886537162575" lon="12.077514793039269"><ele>734.0</ele><time>2026-03-24T11:02:42Z</time></trkpt><trkpt lat="46.01885610143823" lon="12.077656585716976"><ele>733.0</ele><time>2026-03-24T11:02:43Z</time></trkpt><trkpt lat="46.01886913530404" lon="12.077775200119797"><ele>732.0</ele><time>2026-03-24T11:02:44Z</time></trkpt><trkpt lat="46.01882916236695" lon="12.077860473311821"><ele>731.0</ele><time>2026-03-24T11:02:45Z</time></trkpt><trkpt lat="46.0187489800073" lon="12.077899055300495"><ele>731.0</ele><time>2026-03-24T11:02:46Z</time></trkpt><trkpt lat="46.018653402139506" lon="12.07792176170574"><ele>731.0</ele><time>2026-03-24T11:02:47Z</time></trkpt><trkpt lat="46.01854699790381" lon="12.077921022006876"><ele>731.0</ele><time>2026-03-24T11:02:48Z</time></trkpt><trkpt lat="46.01843489816196" lon="12.077890660262211"><ele>731.0</ele><time>2026-03-24T11:02:49Z</time></trkpt><trkpt lat="46.01832494306475" lon="12.077915405382505"><ele>731.0</ele><time>2026-03-24T11:02:50Z</time></trkpt><trkpt lat="46.01821485267901" lon="12.077932151174988"><ele>731.8</ele><time>2026-03-24T11:02:51Z</time></trkpt><trkpt lat="46.01810939979626" lon="12.077928188372455"><ele>732.5999999999999</ele><time>2026-03-24T11:02:52Z</time></trkpt><trkpt lat="46.018014773008254" lon="12.077909050777484"><ele>733.4</ele><time>2026-03-24T11:02:53Z</time></trkpt><trkpt lat="46.01791810696778" lon="12.07785521861068"><ele>734.2</ele><time>2026-03-24T11:02:54Z</time></trkpt><trkpt lat="46.01781950535041" lon="12.077802373841116"><ele>735.0</ele><time>2026-03-24T11:02:55Z</time></trkpt><trkpt lat="46.01771131678573" lon="12.077758073187374"><ele>735.0</ele><time>2026-03-24T11:02:56Z</time></trkpt><trkpt lat="46.01760770496377" lon="12.077741811634558"><ele>735.0</ele><time>2026-03-24T11:02:57Z</time></trkpt><trkpt lat="46.01750942255077" lon="12.07766048899572"><ele>735.0</ele><time>2026-03-24T11:02:58Z</time></trkpt><trkpt lat="46.01741860317011" lon="12.07758760082697"><ele>735.0</ele><time>2026-03-24T11:02:59Z</time></trkpt><trkpt lat="46.01735480242351" lon="12.07747386100558"><ele>735.0</ele><time>2026-03-24T11:03:00Z</time></trkpt><trkpt lat="46.01725517279162" lon="12.077393683929783"><ele>744.75</ele><time>2026-03-24T11:03:01Z</time></trkpt><trkpt lat="46.017115966715" lon="12.077401575211224"><ele>754.5</ele><time>2026-03-24T11:03:02Z</time></trkpt><trkpt lat="46.01699964573585" lon="12.0774308914199"><ele>764.25</ele><time>2026-03-24T11:03:03Z</time></trkpt><trkpt lat="46.01689581926413" lon="12.077417337813163"><ele>774.0</ele><time>2026-03-24T11:03:04Z</time></trkpt><trkpt lat="46.016794915710605" lon="12.077335645263299"><ele>774.0</ele><time>2026-03-24T11:03:05Z</time></trkpt><trkpt lat="46.01668101131012" lon="12.077321313223486"><ele>774.0</ele><time>2026-03-24T11:03:06Z</time></trkpt><trkpt lat="46.016564784912475" lon="12.077356954466664"><ele>774.0</ele><time>2026-03-24T11:03:07Z</time></trkpt><trkpt lat="46.016472072826396" lon="12.077380480163578"><ele>774.0</ele><time>2026-03-24T11:03:08Z</time></trkpt><trkpt lat="46.016368427679566" lon="12.077391599677899"><ele>774.0</ele><time>2026-03-24T11:03:09Z</time></trkpt><trkpt lat="46.01627346292482" lon="12.077360037212836"><ele>774.8000000000001</ele><time>2026-03-24T11:03:10Z</time></trkpt><trkpt lat="46.016179349642094" lon="12.077319666650181"><ele>775.6</ele><time>2026-03-24T11:03:11Z</time></trkpt><trkpt lat="46.01612608480348" lon="12.077224958341578"><ele>776.4</ele><time>2026-03-24T11:03:12Z</time></trkpt><trkpt lat="46.01608423257839" lon="12.077107667413603"><ele>777.2</ele><time>2026-03-24T11:03:13Z</time></trkpt><trkpt lat="46.01602638603292" lon="12.077005885757904"><ele>778.0</ele><time>2026-03-24T11:03:14Z</time></trkpt><trkpt lat="46.01595662124388" lon="12.076939004038952"><ele>778.0</ele><time>2026-03-24T11:03:15Z</time></trkpt><trkpt lat="46.015856186288275" lon="12.076942008456555"><ele>778.0</ele><time>2026-03-24T11:03:16Z</time></trkpt><trkpt lat="46.01574658645017" lon="12.077047995698292"><ele>778.0</ele><time>2026-03-24T11:03:17Z</time></trkpt><trkpt lat="46.01565093902285" lon="12.077088244277798"><ele>778.0</ele><time>2026-03-24T11:03:18Z</time></trkpt><trkpt lat="46.01554763446861" lon="12.077083468646617"><ele>778.0</ele><time>2026-03-24T11:03:19Z</time></trkpt><trkpt lat="46.01543395761462" lon="12.077067150464545"><ele>779.5999999999999</ele><time>2026-03-24T11:03:20Z</time></trkpt><trkpt lat="46.01532647781066" lon="12.077023016116335"><ele>781.1999999999999</ele><time>2026-03-24T11:03:21Z</time></trkpt><trkpt lat="46.015237484031516" lon="12.07695200015089"><ele>782.8</ele><time>2026-03-24T11:03:22Z</time></trkpt><trkpt lat="46.01515211424238" lon="12.076900511023746"><ele>784.4</ele><time>2026-03-24T11:03:23Z</time></trkpt><trkpt lat="46.01504004412878" lon="12.0768862756595"><ele>786.0</ele><time>2026-03-24T11:03:24Z</time></trkpt><trkpt lat="46.01492150746359" lon="12.07696630219872"><ele>788.8</ele><time>2026-03-24T11:03:25Z</time></trkpt><trkpt lat="46.01481176574276" lon="12.076997215149046"><ele>791.5999999999999</ele><time>2026-03-24T11:03:26Z</time></trkpt><trkpt lat="46.014708734463596" lon="12.076965647225546"><ele>794.4</ele><time>2026-03-24T11:03:27Z</time></trkpt><trkpt lat="46.014612230574585" lon="12.07694970604512"><ele>797.2</ele><time>2026-03-24T11:03:28Z</time></trkpt><trkpt lat="46.01448392629017" lon="12.076975370957635"><ele>800.0</ele><time>2026-03-24T11:03:29Z</time></trkpt><trkpt lat="46.014386288233986" lon="12.076965404629627"><ele>800.0</ele><time>2026-03-24T11:03:30Z</time></trkpt><trkpt lat="46.01431207967629" lon="12.076912319548086"><ele>800.0</ele><time>2026-03-24T11:03:31Z</time></trkpt><trkpt lat="46.0142356220135" lon="12.076844756305062"><ele>800.0</ele><time>2026-03-24T11:03:32Z</time></trkpt><trkpt lat="46.01415604821663" lon="12.076757792216185"><ele>800.0</ele><time>2026-03-24T11:03:33Z</time></trkpt><trkpt lat="46.014077442329764" lon="12.076678587102634"><ele>800.0</ele><time>2026-03-24T11:03:34Z</time></trkpt><trkpt lat="46.01398467868882" lon="12.076626447706847"><ele>800.6</ele><time>2026-03-24T11:03:35Z</time></trkpt><trkpt lat="46.013863819960804" lon="12.07672772971105"><ele>801.2</ele><time>2026-03-24T11:03:36Z</time></trkpt><trkpt lat="46.01377242888255" lon="12.07668617201695"><ele>801.8</ele><time>2026-03-24T11:03:37Z</time></trkpt><trkpt lat="46.01369915209169" lon="12.076596095433736"><ele>802.4</ele><time>2026-03-24T11:03:38Z</time></trkpt><trkpt lat="46.01359309902503" lon="12.076552326611093"><ele>803.0</ele><time>2026-03-24T11:03:39Z</time></trkpt><trkpt lat="46.013478105356405" lon="12.076629423503755"><ele>803.0</ele><time>2026-03-24T11:03:40Z</time></trkpt><trkpt lat="46.013377782942335" lon="12.076608748787317"><ele>803.0</ele><time>2026-03-24T11:03:41Z</time></trkpt><trkpt lat="46.01328234392437" lon="12.07656148210155"><ele>803.0</ele><time>2026-03-24T11:03:42Z</time></trkpt><trkpt lat="46.013183457799364" lon="12.076508245431228"><ele>803.0</ele><time>2026-03-24T11:03:43Z</time></trkpt><trkpt lat="46.01307228917643" lon="12.076453689904632"><ele>803.0</ele><time>2026-03-24T11:03:44Z</time></trkpt><trkpt lat="46.01295514556514" lon="12.076422349521733"><ele>814.0</ele><time>2026-03-24T11:03:45Z</time></trkpt><trkpt lat="46.01283176602058" lon="12.07641262212888"><ele>825.0</ele><time>2026-03-24T11:03:46Z</time></trkpt><trkpt lat="46.01271732058552" lon="12.076410582996356"><ele>836.0</ele><time>2026-03-24T11:03:47Z</time></trkpt><trkpt lat="46.01260288537986" lon="12.076406824097019"><ele>847.0</ele><time>2026-03-24T11:03:48Z</time></trkpt><trkpt lat="46.01248509026249" lon="12.076375028663117"><ele>850.25</ele><time>2026-03-24T11:03:49Z</time></trkpt><trkpt lat="46.01234841939398" lon="12.076354313487116"><ele>853.5</ele><time>2026-03-24T11:03:50Z</time></trkpt><trkpt lat="46.012219842954714" lon="12.076385674977217"><ele>856.75</ele><time>2026-03-24T11:03:51Z</time></trkpt><trkpt lat="46.01206735068283" lon="12.07638756697395"><ele>860.0</ele><time>2026-03-24T11:03:52Z</time></trkpt><trkpt lat="46.011909692659216" lon="12.076413601741411"><ele>860.0</ele><time>2026-03-24T11:03:53Z</time></trkpt><trkpt lat="46.01175911502371" lon="12.076528671293062"><ele>860.0</ele><time>2026-03-24T11:03:54Z</time></trkpt><trkpt lat="46.011616425824755" lon="12.076621114986267"><ele>860.0</ele><time>2026-03-24T11:03:55Z</time></trkpt><trkpt lat="46.01146030870012" lon="12.076673909404045"><ele>856.6666666666667</ele><time>2026-03-24T11:03:56Z</time></trkpt><trkpt lat="46.01131422952695" lon="12.076725785959344"><ele>853.3333333333333</ele><time>2026-03-24T11:03:57Z</time></trkpt><trkpt lat="46.0111608688244" lon="12.076778407166476"><ele>850.0</ele><time>2026-03-24T11:03:58Z</time></trkpt><trkpt lat="46.011010603346925" lon="12.076822273299527"><ele>850.0</ele><time>2026-03-24T11:03:59Z</time></trkpt><trkpt lat="46.0108569983883" lon="12.076838745469521"><ele>850.0</ele><time>2026-03-24T11:04:00Z</time></trkpt><trkpt lat="46.0107073090037" lon="12.07686294798341"><ele>850.0</ele><time>2026-03-24T11:04:01Z</time></trkpt><trkpt lat="46.01059178092876" lon="12.07693658728559"><ele>850.0</ele><time>2026-03-24T11:04:02Z</time></trkpt><trkpt lat="46.010474725263585" lon="12.077034613665377"><ele>855.25</ele><time>2026-03-24T11:04:03Z</time></trkpt><trkpt lat="46.01035732669357" lon="12.077102740720212"><ele>860.5</ele><time>2026-03-24T11:04:04Z</time></trkpt><trkpt lat="46.010263141270116" lon="12.077160977199913"><ele>865.75</ele><time>2026-03-24T11:04:05Z</time></trkpt><trkpt lat="46.01015292291237" lon="12.077196621249474"><ele>871.0</ele><time>2026-03-24T11:04:06Z</time></trkpt><trkpt lat="46.010034947333246" lon="12.077237739048869"><ele>875.75</ele><time>2026-03-24T11:04:07Z</time></trkpt><trkpt lat="46.00991976105882" lon="12.077277190819334"><ele>880.5</ele><time>2026-03-24T11:04:08Z</time></trkpt><trkpt lat="46.009800900778586" lon="12.077312672839323"><ele>885.25</ele><time>2026-03-24T11:04:09Z</time></trkpt><trkpt lat="46.00968094577817" lon="12.077343335382917"><ele>890.0</ele><time>2026-03-24T11:04:10Z</time></trkpt><trkpt lat="46.009552311218364" lon="12.077384598284505"><ele>890.0</ele><time>2026-03-24T11:04:11Z</time></trkpt><trkpt lat="46.00941930170189" lon="12.077397846046662"><ele>890.0</ele><time>2026-03-24T11:04:12Z</time></trkpt><trkpt lat="46.00927746146579" lon="12.077420165817669"><ele>890.0</ele><time>2026-03-24T11:04:13Z</time></trkpt><trkpt lat="46.00914634947292" lon="12.077435890486832"><ele>890.0</ele><time>2026-03-24T11:04:14Z</time></trkpt><trkpt lat="46.00900289289838" lon="12.077463285635012"><ele>892.5</ele><time>2026-03-24T11:04:15Z</time></trkpt><trkpt lat="46.00885737545273" lon="12.077470333914745"><ele>895.0</ele><time>2026-03-24T11:04:16Z</time></trkpt><trkpt lat="46.00871253270442" lon="12.07743194909706"><ele>897.5</ele><time>2026-03-24T11:04:17Z</time></trkpt><trkpt lat="46.008561293197616" lon="12.077428079338775"><ele>900.0</ele><time>2026-03-24T11:04:18Z</time></trkpt><trkpt lat="46.0084117264084" lon="12.077446890453139"><ele>896.0</ele><time>2026-03-24T11:04:19Z</time></trkpt><trkpt lat="46.00825288211886" lon="12.077439447867887"><ele>892.0</ele><time>2026-03-24T11:04:20Z</time></trkpt><trkpt lat="46.008099074105616" lon="12.077445605098767"><ele>888.0</ele><time>2026-03-24T11:04:21Z</time></trkpt><trkpt lat="46.00795315030164" lon="12.077452211381845"><ele>888.0</ele><time>2026-03-24T11:04:22Z</time></trkpt><trkpt lat="46.007810830771035" lon="12.077459510991215"><ele>888.0</ele><time>2026-03-24T11:04:23Z</time></trkpt><trkpt lat="46.007669717842646" lon="12.077466851652904"><ele>888.0</ele><time>2026-03-24T11:04:24Z</time></trkpt><trkpt lat="46.00753063290663" lon="12.077474360942418"><ele>888.0</ele><time>2026-03-24T11:04:25Z</time></trkpt><trkpt lat="46.007398792499714" lon="12.077481479070602"><ele>891.0</ele><time>2026-03-24T11:04:26Z</time></trkpt><trkpt lat="46.00727432101776" lon="12.077494686898465"><ele>894.0</ele><time>2026-03-24T11:04:27Z</time></trkpt><trkpt lat="46.00714406319048" lon="12.077519190187697"><ele>897.0</ele><time>2026-03-24T11:04:28Z</time></trkpt><trkpt lat="46.007025182100136" lon="12.077556366753356"><ele>900.0</ele><time>2026-03-24T11:04:29Z</time></trkpt><trkpt lat="46.00690080061848" lon="12.077602896098803"><ele>900.0</ele><time>2026-03-24T11:04:30Z</time></trkpt><trkpt lat="46.00678564285242" lon="12.077648370242072"><ele>900.0</ele><time>2026-03-24T11:04:31Z</time></trkpt><trkpt lat="46.006686069416084" lon="12.077710461591751"><ele>900.0</ele><time>2026-03-24T11:04:32Z</time></trkpt><trkpt lat="46.006573766572174" lon="12.07772482958377"><ele>900.0</ele><time>2026-03-24T11:04:33Z</time></trkpt><trkpt lat="46.00644948155048" lon="12.07774012986382"><ele>901.25</ele><time>2026-03-24T11:04:34Z</time></trkpt><trkpt lat="46.006329660994666" lon="12.077718374431795"><ele>902.5</ele><time>2026-03-24T11:04:35Z</time></trkpt><trkpt lat="46.006213438321744" lon="12.077675127295569"><ele>903.75</ele><time>2026-03-24T11:04:36Z</time></trkpt><trkpt lat="46.006100830859666" lon="12.077628408774085"><ele>905.0</ele><time>2026-03-24T11:04:37Z</time></trkpt><trkpt lat="46.00599240360257" lon="12.077578809274495"><ele>905.0</ele><time>2026-03-24T11:04:38Z</time></trkpt><trkpt lat="46.005879090605504" lon="12.07751332027721"><ele>905.0</ele><time>2026-03-24T11:04:39Z</time></trkpt><trkpt lat="46.00575772633645" lon="12.077430690327272"><ele>905.0</ele><time>2026-03-24T11:04:40Z</time></trkpt><trkpt lat="46.005630358271475" lon="12.077376915985043"><ele>905.0</ele><time>2026-03-24T11:04:41Z</time></trkpt><trkpt lat="46.00550086525652" lon="12.07733529944049"><ele>907.75</ele><time>2026-03-24T11:04:42Z</time></trkpt><trkpt lat="46.00537366304945" lon="12.077294669038029"><ele>910.5</ele><time>2026-03-24T11:04:43Z</time></trkpt><trkpt lat="46.00524111713501" lon="12.077252331761981"><ele>913.25</ele><time>2026-03-24T11:04:44Z</time></trkpt><trkpt lat="46.0051158613824" lon="12.077195477053827"><ele>916.0</ele><time>2026-03-24T11:04:45Z</time></trkpt><trkpt lat="46.00500163849836" lon="12.0771158892017"><ele>915.75</ele><time>2026-03-24T11:04:46Z</time></trkpt><trkpt lat="46.004893912468965" lon="12.077076154973328"><ele>915.5</ele><time>2026-03-24T11:04:47Z</time></trkpt><trkpt lat="46.004793315488044" lon="12.07701406004883"><ele>915.25</ele><time>2026-03-24T11:04:48Z</time></trkpt><trkpt lat="46.0046737971592" lon="12.076963392911026"><ele>915.0</ele><time>2026-03-24T11:04:49Z</time></trkpt><trkpt lat="46.004535808728384" lon="12.076987849652271"><ele>915.0</ele><time>2026-03-24T11:04:50Z</time></trkpt><trkpt lat="46.004410924423354" lon="12.077082165265589"><ele>915.0</ele><time>2026-03-24T11:04:51Z</time></trkpt><trkpt lat="46.00430171713134" lon="12.07715262576682"><ele>915.0</ele><time>2026-03-24T11:04:52Z</time></trkpt><trkpt lat="46.00420685455799" lon="12.07718696808459"><ele>915.0</ele><time>2026-03-24T11:04:53Z</time></trkpt><trkpt lat="46.00413263505328" lon="12.077227559799727"><ele>915.0</ele><time>2026-03-24T11:04:54Z</time></trkpt><trkpt lat="46.0040654830508" lon="12.077261910734826"><ele>910.5</ele><time>2026-03-24T11:04:55Z</time></trkpt><trkpt lat="46.00399416808561" lon="12.077297993287445"><ele>906.0</ele><time>2026-03-24T11:04:56Z</time></trkpt><trkpt lat="46.003927994906135" lon="12.077330133098297"><ele>901.5</ele><time>2026-03-24T11:04:57Z</time></trkpt><trkpt lat="46.003866174746726" lon="12.077359105322156"><ele>897.0</ele><time>2026-03-24T11:04:58Z</time></trkpt><trkpt lat="46.003785070207336" lon="12.07740887507257"><ele>892.5</ele><time>2026-03-24T11:05:00Z</time></trkpt><trkpt lat="46.00377849875766" lon="12.07726146665927"><ele>888.0</ele><time>2026-03-24T11:30:00Z</time></trkpt><trkpt lat="46.00384137431905" lon="12.077217377372845"><ele>888.0</ele><time>2026-03-24T11:30:02Z</time></trkpt><trkpt lat="46.0039132564952" lon="12.077187316100854"><ele>888.0</ele><time>2026-03-24T11:30:04Z</time></trkpt><trkpt lat="46.00398786963678" lon="12.077203934175497"><ele>888.0</ele><time>2026-03-24T11:30:07Z</time></trkpt><trkpt lat="46.004039941940064" lon="12.077306785276944"><ele>888.0</ele><time>2026-03-24T11:30:10Z</time></trkpt><trkpt lat="46.003960263639755" lon="12.077375979387716"><ele>888.0</ele><time>2026-03-24T11:30:13Z</time></trkpt><trkpt lat="46.00388119353912" lon="12.077392985843364"><ele>888.0</ele><time>2026-03-24T11:30:15Z</time></trkpt><trkpt lat="46.00378904383699" lon="12.07741660713136"><ele>888.0</ele><time>2026-03-24T11:30:18Z</time></trkpt><trkpt lat="46.003726762321776" lon="12.077392332874124"><ele>888.0</ele><time>2026-03-24T11:30:42.001Z</time></trkpt><trkpt lat="46.00363106093148" lon="12.077400507113396"><ele>888.0</ele><time>2026-03-24T11:30:44.001Z</time></trkpt><trkpt lat="46.00352295626203" lon="12.077428715081632"><ele>888.0</ele><time>2026-03-24T11:30:46.001Z</time></trkpt><trkpt lat="46.003395519598826" lon="12.077370853699481"><ele>888.0</ele><time>2026-03-24T11:30:48.001Z</time></trkpt><trkpt lat="46.00332292878199" lon="12.077381493227042"><ele>885.5</ele><time>2026-03-24T11:30:49.001Z</time></trkpt><trkpt lat="46.00325172308387" lon="12.077390147644865"><ele>883.0</ele><time>2026-03-24T11:30:50.001Z</time></trkpt><trkpt lat="46.00317401174437" lon="12.077398607360221"><ele>880.5</ele><time>2026-03-24T11:30:51.001Z</time></trkpt><trkpt lat="46.0030970157725" lon="12.077406989197845"><ele>878.0</ele><time>2026-03-24T11:30:52.001Z</time></trkpt><trkpt lat="46.00302585486309" lon="12.077423930018401"><ele>875.5</ele><time>2026-03-24T11:30:53.001Z</time></trkpt><trkpt lat="46.00296132589945" lon="12.077426315746058"><ele>873.0</ele><time>2026-03-24T11:30:54.001Z</time></trkpt><trkpt lat="46.00285531170684" lon="12.077465193390912"><ele>878.3333333333334</ele><time>2026-03-24T11:30:56.001Z</time></trkpt><trkpt lat="46.00275729240892" lon="12.077489922008649"><ele>883.6666666666667</ele><time>2026-03-24T11:30:58.001Z</time></trkpt><trkpt lat="46.00264802699134" lon="12.077522922995634"><ele>889.0</ele><time>2026-03-24T11:31:00.001Z</time></trkpt><trkpt lat="46.00258446324789" lon="12.077530845631559"><ele>894.3333333333334</ele><time>2026-03-24T11:31:01.001Z</time></trkpt><trkpt lat="46.00252017771311" lon="12.077567365725846"><ele>899.6666666666667</ele><time>2026-03-24T11:31:02.001Z</time></trkpt><trkpt lat="46.002456768401274" lon="12.077596919252958"><ele>905.0</ele><time>2026-03-24T11:31:03.001Z</time></trkpt><trkpt lat="46.00238528568964" lon="12.077618749495304"><ele>905.0000000000001</ele><time>2026-03-24T11:31:04.001Z</time></trkpt><trkpt lat="46.00230744221862" lon="12.077645055793306"><ele>905.0</ele><time>2026-03-24T11:31:05.001Z</time></trkpt><trkpt lat="46.00222476378939" lon="12.077678168089149"><ele>905.0</ele><time>2026-03-24T11:31:06.001Z</time></trkpt><trkpt lat="46.002144529492135" lon="12.07770008879615"><ele>905.0</ele><time>2026-03-24T11:31:07.001Z</time></trkpt><trkpt lat="46.002067144825816" lon="12.077703218736984"><ele>905.0000000000001</ele><time>2026-03-24T11:31:08.001Z</time></trkpt><trkpt lat="46.00198068932469" lon="12.077748206183857"><ele>905.0</ele><time>2026-03-24T11:31:09.001Z</time></trkpt><trkpt lat="46.001899033035734" lon="12.077736431178026"><ele>905.0000000000001</ele><time>2026-03-24T11:31:10.001Z</time></trkpt><trkpt lat="46.001806838209205" lon="12.07773215700332"><ele>905.0</ele><time>2026-03-24T11:31:11.001Z</time></trkpt><trkpt lat="46.00172422891386" lon="12.077693446076697"><ele>905.0</ele><time>2026-03-24T11:31:12.001Z</time></trkpt><trkpt lat="46.001660940156235" lon="12.077606634521453"><ele>905.0</ele><time>2026-03-24T11:31:13.001Z</time></trkpt><trkpt lat="46.00160652910659" lon="12.077528387896532"><ele>905.0000000000001</ele><time>2026-03-24T11:31:14.001Z</time></trkpt><trkpt lat="46.00155852059238" lon="12.077448562621266"><ele>905.0</ele><time>2026-03-24T11:31:15.001Z</time></trkpt><trkpt lat="46.001457605026744" lon="12.077362270999496"><ele>900.3333333333334</ele><time>2026-03-24T11:31:17.001Z</time></trkpt><trkpt lat="46.00138453331365" lon="12.077342807157095"><ele>895.6666666666667</ele><time>2026-03-24T11:31:18.001Z</time></trkpt><trkpt lat="46.00132358126885" lon="12.077280427090379"><ele>891.0</ele><time>2026-03-24T11:31:19.001Z</time></trkpt><trkpt lat="46.001202846820064" lon="12.077208756309352"><ele>886.3333333333333</ele><time>2026-03-24T11:31:21.001Z</time></trkpt><trkpt lat="46.00113558489592" lon="12.077168514111753"><ele>881.6666666666666</ele><time>2026-03-24T11:31:22.001Z</time></trkpt><trkpt lat="46.00106439963783" lon="12.077149286839953"><ele>877.0</ele><time>2026-03-24T11:31:23.001Z</time></trkpt><trkpt lat="46.0009970382578" lon="12.077099010333333"><ele>876.9999999999999</ele><time>2026-03-24T11:31:24.001Z</time></trkpt><trkpt lat="46.00092323914455" lon="12.077035583107486"><ele>877.0</ele><time>2026-03-24T11:31:25Z</time></trkpt><trkpt lat="46.0008457503025" lon="12.076998205933515"><ele>877.0</ele><time>2026-03-24T11:31:26Z</time></trkpt><trkpt lat="46.0007848157747" lon="12.076919693704395"><ele>877.0</ele><time>2026-03-24T11:31:27Z</time></trkpt><trkpt lat="46.00072140569789" lon="12.076866729863031"><ele>876.9999999999999</ele><time>2026-03-24T11:31:28Z</time></trkpt><trkpt lat="46.00063879728315" lon="12.07683007671219"><ele>877.0</ele><time>2026-03-24T11:31:29Z</time></trkpt><trkpt lat="46.000525948335344" lon="12.07677939870334"><ele>874.9999999999999</ele><time>2026-03-24T11:31:31Z</time></trkpt><trkpt lat="46.00043617641159" lon="12.076753088068623"><ele>873.0</ele><time>2026-03-24T11:31:32Z</time></trkpt><trkpt lat="46.00035295472881" lon="12.076713386249939"><ele>871.0</ele><time>2026-03-24T11:31:33Z</time></trkpt><trkpt lat="46.000285061294306" lon="12.076720316437429"><ele>869.0</ele><time>2026-03-24T11:31:34Z</time></trkpt><trkpt lat="46.000193289703006" lon="12.076752788288202"><ele>866.9999999999999</ele><time>2026-03-24T11:31:35Z</time></trkpt><trkpt lat="46.00010587410903" lon="12.076759797084163"><ele>865.0</ele><time>2026-03-24T11:31:36Z</time></trkpt><trkpt lat="46.00001110271554" lon="12.07681841567438"><ele>864.9999999999999</ele><time>2026-03-24T11:31:37Z</time></trkpt><trkpt lat="45.99993127765111" lon="12.076881593949146"><ele>865.0</ele><time>2026-03-24T11:31:38Z</time></trkpt><trkpt lat="45.99986198400676" lon="12.076946874150574"><ele>865.0</ele><time>2026-03-24T11:31:39Z</time></trkpt><trkpt lat="45.999801086046126" lon="12.077006101550573"><ele>865.0</ele><time>2026-03-24T11:31:40Z</time></trkpt><trkpt lat="45.999730287667255" lon="12.077079428594674"><ele>864.9999999999999</ele><time>2026-03-24T11:31:41Z</time></trkpt><trkpt lat="45.99964828888355" lon="12.077165808391566"><ele>865.0</ele><time>2026-03-24T11:31:42Z</time></trkpt><trkpt lat="45.99957356705903" lon="12.077282698319186"><ele>865.0</ele><time>2026-03-24T11:31:43Z</time></trkpt><trkpt lat="45.99949964380788" lon="12.077378706379424"><ele>865.0</ele><time>2026-03-24T11:31:44Z</time></trkpt><trkpt lat="45.999421321997744" lon="12.077460033308322"><ele>865.0</ele><time>2026-03-24T11:31:45Z</time></trkpt><trkpt lat="45.999354632617035" lon="12.07754736067341"><ele>865.0</ele><time>2026-03-24T11:31:46Z</time></trkpt><trkpt lat="45.999280809041394" lon="12.077637171695976"><ele>865.0</ele><time>2026-03-24T11:31:47Z</time></trkpt><trkpt lat="45.99921313674539" lon="12.077714124304249"><ele>863.4999999999999</ele><time>2026-03-24T11:31:48Z</time></trkpt><trkpt lat="45.99915032117838" lon="12.077808745318015"><ele>862.0</ele><time>2026-03-24T11:31:49Z</time></trkpt><trkpt lat="45.99907136602201" lon="12.077879182641311"><ele>860.5</ele><time>2026-03-24T11:31:50Z</time></trkpt><trkpt lat="45.99901673942432" lon="12.07796098512561"><ele>859.0</ele><time>2026-03-24T11:31:51Z</time></trkpt><trkpt lat="45.998967892069174" lon="12.078067181183581"><ele>857.4999999999999</ele><time>2026-03-24T11:31:52Z</time></trkpt><trkpt lat="45.99892527089673" lon="12.078159631108578"><ele>856.0</ele><time>2026-03-24T11:31:53Z</time></trkpt><trkpt lat="45.99887341720819" lon="12.078260994077624"><ele>860.0</ele><time>2026-03-24T11:31:54Z</time></trkpt><trkpt lat="45.998843363560944" lon="12.078350491329754"><ele>863.9999999999999</ele><time>2026-03-24T11:31:55Z</time></trkpt><trkpt lat="45.99879950708309" lon="12.078496779932845"><ele>867.9999999999999</ele><time>2026-03-24T11:31:57Z</time></trkpt><trkpt lat="45.998744049855134" lon="12.07861884843382"><ele>872.0</ele><time>2026-03-24T11:31:59Z</time></trkpt><trkpt lat="45.99869398549596" lon="12.078738540088489"><ele>876.0</ele><time>2026-03-24T11:32:01Z</time></trkpt><trkpt lat="45.99863619255764" lon="12.078824072673518"><ele>876.0</ele><time>2026-03-24T11:32:23Z</time></trkpt><trkpt lat="45.998526329952796" lon="12.07890850042685"><ele>875.9999999999999</ele><time>2026-03-24T11:32:25Z</time></trkpt><trkpt lat="45.99845679354679" lon="12.078952798636914"><ele>875.9999999999999</ele><time>2026-03-24T11:32:26Z</time></trkpt><trkpt lat="45.99838908181591" lon="12.079008824821637"><ele>876.0</ele><time>2026-03-24T11:32:27Z</time></trkpt><trkpt lat="45.99831532176803" lon="12.079078048897"><ele>876.0</ele><time>2026-03-24T11:32:28Z</time></trkpt><trkpt lat="45.99823102236986" lon="12.079142656336353"><ele>871.25</ele><time>2026-03-24T11:32:29Z</time></trkpt><trkpt lat="45.99814494289795" lon="12.07926706397557"><ele>866.5</ele><time>2026-03-24T11:32:30Z</time></trkpt><trkpt lat="45.998068288952794" lon="12.079429752662037"><ele>861.75</ele><time>2026-03-24T11:32:31Z</time></trkpt><trkpt lat="45.99800260950764" lon="12.079584500868698"><ele>857.0</ele><time>2026-03-24T11:32:32Z</time></trkpt><trkpt lat="45.99794742098382" lon="12.0796932454637"><ele>857.0000000000001</ele><time>2026-03-24T11:32:33Z</time></trkpt><trkpt lat="45.99789002016077" lon="12.079774792310063"><ele>857.0</ele><time>2026-03-24T11:32:34Z</time></trkpt><trkpt lat="45.99781923508931" lon="12.079829381628059"><ele>857.0</ele><time>2026-03-24T11:32:36Z</time></trkpt><trkpt lat="45.99771644327988" lon="12.07982016136647"><ele>857.0</ele><time>2026-03-24T11:32:38.001Z</time></trkpt><trkpt lat="45.997642388094235" lon="12.079816393278431"><ele>857.0000000000001</ele><time>2026-03-24T11:32:39.001Z</time></trkpt><trkpt lat="45.9975727526327" lon="12.07979838930311"><ele>857.0</ele><time>2026-03-24T11:32:40.001Z</time></trkpt><trkpt lat="45.997505939821835" lon="12.079780582043524"><ele>853.0000000000001</ele><time>2026-03-24T11:32:41.001Z</time></trkpt><trkpt lat="45.99743323496178" lon="12.079764423696476"><ele>849.0</ele><time>2026-03-24T11:32:42.001Z</time></trkpt><trkpt lat="45.997369078677366" lon="12.079778864439493"><ele>845.0</ele><time>2026-03-24T11:32:43.001Z</time></trkpt><trkpt lat="45.99727393341548" lon="12.079758389682214"><ele>841.0</ele><time>2026-03-24T11:32:44.001Z</time></trkpt><trkpt lat="45.99715451746285" lon="12.07977137423374"><ele>837.0000000000001</ele><time>2026-03-24T11:32:45.001Z</time></trkpt><trkpt lat="45.99706256364383" lon="12.079783692630821"><ele>833.0</ele><time>2026-03-24T11:32:46.001Z</time></trkpt><trkpt lat="45.99697216486972" lon="12.079791352561742"><ele>833.0</ele><time>2026-03-24T11:32:47.001Z</time></trkpt><trkpt lat="45.996896827423924" lon="12.079811665871759"><ele>833.0</ele><time>2026-03-24T11:32:48.001Z</time></trkpt><trkpt lat="45.99683215019106" lon="12.07981455910566"><ele>833.0</ele><time>2026-03-24T11:32:49.001Z</time></trkpt><trkpt lat="45.996750833181935" lon="12.079825452301899"><ele>833.0</ele><time>2026-03-24T11:32:50.001Z</time></trkpt><trkpt lat="45.99667190745288" lon="12.079836025168108"><ele>833.0</ele><time>2026-03-24T11:32:51.001Z</time></trkpt><trkpt lat="45.99658279936256" lon="12.079662108698473"><ele>835.2</ele><time>2026-03-24T11:32:52.001Z</time></trkpt><trkpt lat="45.99648420286387" lon="12.079632173911316"><ele>837.4</ele><time>2026-03-24T11:32:53.001Z</time></trkpt><trkpt lat="45.99638898794046" lon="12.079508434110988"><ele>839.6</ele><time>2026-03-24T11:32:55.001Z</time></trkpt><trkpt lat="45.99636476591543" lon="12.079414728929324"><ele>841.8000000000001</ele><time>2026-03-24T11:32:56.001Z</time></trkpt><trkpt lat="45.99636592321666" lon="12.079301764562505"><ele>844.0</ele><time>2026-03-24T11:32:57.001Z</time></trkpt><trkpt lat="45.996364552575066" lon="12.079121341224853"><ele>839.8571428571429</ele><time>2026-03-24T11:32:59.001Z</time></trkpt><trkpt lat="45.99631792683587" lon="12.079056709367654"><ele>835.7142857142858</ele><time>2026-03-24T11:33:00.001Z</time></trkpt><trkpt lat="45.9962526986314" lon="12.079038577190053"><ele>831.5714285714286</ele><time>2026-03-24T11:33:01.001Z</time></trkpt><trkpt lat="45.996175396855634" lon="12.079047162186253"><ele>827.4285714285714</ele><time>2026-03-24T11:33:02.001Z</time></trkpt><trkpt lat="45.99610531239878" lon="12.079037922558733"><ele>823.2857142857142</ele><time>2026-03-24T11:33:03.001Z</time></trkpt><trkpt lat="45.99603653997894" lon="12.079007394595642"><ele>819.1428571428571</ele><time>2026-03-24T11:33:04.001Z</time></trkpt><trkpt lat="45.99597414311275" lon="12.078946075346849"><ele>815.0</ele><time>2026-03-24T11:33:05.001Z</time></trkpt><trkpt lat="45.995907223938765" lon="12.078915480778488"><ele>816.1666666666667</ele><time>2026-03-24T11:33:06.001Z</time></trkpt><trkpt lat="45.995832998507225" lon="12.07890026738662"><ele>817.3333333333334</ele><time>2026-03-24T11:33:07.001Z</time></trkpt><trkpt lat="45.99575177946367" lon="12.078878148396454"><ele>818.5</ele><time>2026-03-24T11:33:08.001Z</time></trkpt><trkpt lat="45.99567973186643" lon="12.078865485732553"><ele>819.6666666666667</ele><time>2026-03-24T11:33:09.001Z</time></trkpt><trkpt lat="45.9956062845317" lon="12.078868860953483"><ele>820.8333333333334</ele><time>2026-03-24T11:33:10.001Z</time></trkpt><trkpt lat="45.99553754420273" lon="12.0789017408615"><ele>822.0</ele><time>2026-03-24T11:33:11.001Z</time></trkpt><trkpt lat="45.99546542059325" lon="12.078956501693398"><ele>822.0</ele><time>2026-03-24T11:33:12.001Z</time></trkpt><trkpt lat="45.99539911679979" lon="12.078973625118255"><ele>822.0</ele><time>2026-03-24T11:33:13.001Z</time></trkpt><trkpt lat="45.99533041628491" lon="12.079031368698137"><ele>822.0</ele><time>2026-03-24T11:33:14.001Z</time></trkpt><trkpt lat="45.995262546457354" lon="12.079039002486313"><ele>822.0</ele><time>2026-03-24T11:33:15.001Z</time></trkpt><trkpt lat="45.99519409408031" lon="12.079002665463795"><ele>822.0</ele><time>2026-03-24T11:33:16.001Z</time></trkpt><trkpt lat="45.995121744697606" lon="12.078966126455475"><ele>822.0</ele><time>2026-03-24T11:33:17.001Z</time></trkpt><trkpt lat="45.99506139940738" lon="12.078927596407317"><ele>822.0</ele><time>2026-03-24T11:33:18.001Z</time></trkpt><trkpt lat="45.99499043911309" lon="12.078928108132484"><ele>822.5</ele><time>2026-03-24T11:33:19.001Z</time></trkpt><trkpt lat="45.9949055676512" lon="12.07896547126924"><ele>823.0</ele><time>2026-03-24T11:33:20.001Z</time></trkpt><trkpt lat="45.99481548703767" lon="12.07900828191874"><ele>823.5</ele><time>2026-03-24T11:33:21.001Z</time></trkpt><trkpt lat="45.994739449209725" lon="12.079049846992191"><ele>824.0</ele><time>2026-03-24T11:33:22.001Z</time></trkpt><trkpt lat="45.99465959337412" lon="12.079056560474369"><ele>824.5</ele><time>2026-03-24T11:33:23.001Z</time></trkpt><trkpt lat="45.99457732852554" lon="12.079034235254754"><ele>825.0</ele><time>2026-03-24T11:33:24.001Z</time></trkpt><trkpt lat="45.99449841089659" lon="12.079007157059806"><ele>825.0</ele><time>2026-03-24T11:33:25.001Z</time></trkpt><trkpt lat="45.994431890460575" lon="12.078999640033155"><ele>825.0</ele><time>2026-03-24T11:33:26.001Z</time></trkpt><trkpt lat="45.99437063939903" lon="12.078977534255184"><ele>825.0</ele><time>2026-03-24T11:33:27.001Z</time></trkpt><trkpt lat="45.99430073497525" lon="12.078847250180708"><ele>825.0</ele><time>2026-03-24T11:33:29.001Z</time></trkpt><trkpt lat="45.99430755769088" lon="12.078735216652923"><ele>825.0</ele><time>2026-03-24T11:33:30.001Z</time></trkpt><trkpt lat="45.99433358184625" lon="12.078609391445616"><ele>825.0</ele><time>2026-03-24T11:33:31Z</time></trkpt><trkpt lat="45.994361517141705" lon="12.078484866928472"><ele>825.0</ele><time>2026-03-24T11:33:32Z</time></trkpt><trkpt lat="45.994373280498" lon="12.078366041853084"><ele>825.0</ele><time>2026-03-24T11:33:33Z</time></trkpt><trkpt lat="45.994373944947455" lon="12.078208568114347"><ele>825.0</ele><time>2026-03-24T11:33:34Z</time></trkpt><trkpt lat="45.99435930975464" lon="12.078071360895661"><ele>825.0</ele><time>2026-03-24T11:33:35Z</time></trkpt><trkpt lat="45.9943544369868" lon="12.077919114366543"><ele>825.0</ele><time>2026-03-24T11:33:36Z</time></trkpt><trkpt lat="45.994358364162956" lon="12.077767152091331"><ele>821.6</ele><time>2026-03-24T11:33:37Z</time></trkpt><trkpt lat="45.99438271035543" lon="12.077618967562803"><ele>818.2</ele><time>2026-03-24T11:33:38Z</time></trkpt><trkpt lat="45.994406787319825" lon="12.07749638771425"><ele>814.8</ele><time>2026-03-24T11:33:39Z</time></trkpt><trkpt lat="45.99443082986129" lon="12.077372702303034"><ele>811.4</ele><time>2026-03-24T11:33:40Z</time></trkpt><trkpt lat="45.99444008026072" lon="12.077241094254632"><ele>808.0</ele><time>2026-03-24T11:33:41Z</time></trkpt><trkpt lat="45.99443202190011" lon="12.077120757669515"><ele>808.0</ele><time>2026-03-24T11:33:42Z</time></trkpt><trkpt lat="45.994458476997636" lon="12.077002566974636"><ele>808.0</ele><time>2026-03-24T11:33:43Z</time></trkpt><trkpt lat="45.994515158244035" lon="12.076881672001852"><ele>808.0</ele><time>2026-03-24T11:33:44Z</time></trkpt><trkpt lat="45.99456572707504" lon="12.076752503358746"><ele>808.0</ele><time>2026-03-24T11:33:45Z</time></trkpt><trkpt lat="45.994626808757694" lon="12.076648612369295"><ele>808.0</ele><time>2026-03-24T11:33:46Z</time></trkpt><trkpt lat="45.9946909860941" lon="12.076548268625606"><ele>808.6666666666666</ele><time>2026-03-24T11:33:47Z</time></trkpt><trkpt lat="45.99472843674045" lon="12.076431812941387"><ele>809.3333333333333</ele><time>2026-03-24T11:33:48Z</time></trkpt><trkpt lat="45.99474225833037" lon="12.07630146832962"><ele>810.0</ele><time>2026-03-24T11:33:49Z</time></trkpt><trkpt lat="45.99473674048965" lon="12.07617468223994"><ele>810.6666666666667</ele><time>2026-03-24T11:33:50Z</time></trkpt><trkpt lat="45.99473272633628" lon="12.076061480472497"><ele>811.3333333333334</ele><time>2026-03-24T11:33:51Z</time></trkpt><trkpt lat="45.994721969072735" lon="12.075958812872832"><ele>812.0</ele><time>2026-03-24T11:33:52Z</time></trkpt><trkpt lat="45.99470447077579" lon="12.075825585530254"><ele>809.3333333333334</ele><time>2026-03-24T11:33:53Z</time></trkpt><trkpt lat="45.994654779019484" lon="12.075725316285121"><ele>806.6666666666667</ele><time>2026-03-24T11:33:54Z</time></trkpt><trkpt lat="45.99460181642352" lon="12.075621945523022"><ele>804.0</ele><time>2026-03-24T11:33:55Z</time></trkpt><trkpt lat="45.99454034187281" lon="12.07552880814314"><ele>801.3333333333333</ele><time>2026-03-24T11:33:56Z</time></trkpt><trkpt lat="45.99447748108123" lon="12.075446076479723"><ele>798.6666666666666</ele><time>2026-03-24T11:33:57Z</time></trkpt><trkpt lat="45.994403598598424" lon="12.075356994929681"><ele>796.0</ele><time>2026-03-24T11:33:58Z</time></trkpt><trkpt lat="45.99433311691058" lon="12.07527577993438"><ele>795.9999999999999</ele><time>2026-03-24T11:33:59Z</time></trkpt><trkpt lat="45.99426578602173" lon="12.075206179825969"><ele>796.0</ele><time>2026-03-24T11:34:00Z</time></trkpt><trkpt lat="45.994217196252485" lon="12.075117843169512"><ele>796.0</ele><time>2026-03-24T11:34:01Z</time></trkpt><trkpt lat="45.994183304326185" lon="12.07500476177842"><ele>796.0</ele><time>2026-03-24T11:34:02Z</time></trkpt><trkpt lat="45.994127209101755" lon="12.074915957857336"><ele>795.9999999999999</ele><time>2026-03-24T11:34:03Z</time></trkpt><trkpt lat="45.99404797761512" lon="12.07483926128783"><ele>796.0</ele><time>2026-03-24T11:34:04Z</time></trkpt><trkpt lat="45.993979691109374" lon="12.074787038920444"><ele>795.8</ele><time>2026-03-24T11:34:05Z</time></trkpt><trkpt lat="45.993845915318715" lon="12.074700506106163"><ele>795.5999999999999</ele><time>2026-03-24T11:34:07Z</time></trkpt><trkpt lat="45.99376975855647" lon="12.074660546467284"><ele>795.4</ele><time>2026-03-24T11:34:08Z</time></trkpt><trkpt lat="45.99368771655614" lon="12.074637877653531"><ele>795.2</ele><time>2026-03-24T11:34:09Z</time></trkpt><trkpt lat="45.993619864428574" lon="12.074626876493037"><ele>795.0</ele><time>2026-03-24T11:34:10Z</time></trkpt><trkpt lat="45.99351183431719" lon="12.074658443328191"><ele>795.0</ele><time>2026-03-24T11:34:12Z</time></trkpt><trkpt lat="45.9934765078123" lon="12.07482033252227"><ele>795.0</ele><time>2026-03-24T11:34:13Z</time></trkpt><trkpt lat="45.99344796759768" lon="12.074909093969536"><ele>795.0</ele><time>2026-03-24T11:34:14Z</time></trkpt><trkpt lat="45.993407326000536" lon="12.075011267461273"><ele>795.0</ele><time>2026-03-24T11:34:15Z</time></trkpt><trkpt lat="45.99336794630625" lon="12.075084501864287"><ele>795.0</ele><time>2026-03-24T11:34:16Z</time></trkpt><trkpt lat="45.99331515633481" lon="12.0751690101625"><ele>795.0</ele><time>2026-03-24T11:34:17Z</time></trkpt><trkpt lat="45.99325880111836" lon="12.075265608513147"><ele>796.8333333333334</ele><time>2026-03-24T11:34:18Z</time></trkpt><trkpt lat="45.9932159763952" lon="12.075371031350807"><ele>798.6666666666667</ele><time>2026-03-24T11:34:19Z</time></trkpt><trkpt lat="45.99320791237969" lon="12.075478360549766"><ele>800.5</ele><time>2026-03-24T11:34:20Z</time></trkpt><trkpt lat="45.99317520468105" lon="12.075574677724209"><ele>802.3333333333334</ele><time>2026-03-24T11:34:21Z</time></trkpt><trkpt lat="45.99317712215778" lon="12.075697846256869"><ele>804.1666666666667</ele><time>2026-03-24T11:34:22Z</time></trkpt><trkpt lat="45.99315258914635" lon="12.075824254473577"><ele>806.0</ele><time>2026-03-24T11:34:23Z</time></trkpt><trkpt lat="45.99311367089859" lon="12.075921762601359"><ele>809.1999999999999</ele><time>2026-03-24T11:34:24Z</time></trkpt><trkpt lat="45.993089151494445" lon="12.076015722897646"><ele>812.4</ele><time>2026-03-24T11:34:25Z</time></trkpt><trkpt lat="45.99303752465039" lon="12.076080336066722"><ele>815.6</ele><time>2026-03-24T11:34:26Z</time></trkpt><trkpt lat="45.99296804574228" lon="12.076148653060715"><ele>818.8</ele><time>2026-03-24T11:34:27Z</time></trkpt><trkpt lat="45.99286796384233" lon="12.076209736312066"><ele>822.0</ele><time>2026-03-24T11:34:28Z</time></trkpt><trkpt lat="45.99274739411486" lon="12.07618933958122"><ele>822.0</ele><time>2026-03-24T11:34:29Z</time></trkpt><trkpt lat="45.99263260788749" lon="12.076195616333411"><ele>822.0</ele><time>2026-03-24T11:34:30.001Z</time></trkpt><trkpt lat="45.99253434777404" lon="12.076205052529133"><ele>822.0</ele><time>2026-03-24T11:34:31.001Z</time></trkpt><trkpt lat="45.992443965221405" lon="12.076221601127521"><ele>822.0</ele><time>2026-03-24T11:34:32.001Z</time></trkpt><trkpt lat="45.99235119890074" lon="12.076251380284905"><ele>822.0</ele><time>2026-03-24T11:34:33.001Z</time></trkpt><trkpt lat="45.99225871601847" lon="12.07630443758526"><ele>816.2</ele><time>2026-03-24T11:34:34.001Z</time></trkpt><trkpt lat="45.99214795016032" lon="12.076356543091004"><ele>810.4000000000001</ele><time>2026-03-24T11:34:35.001Z</time></trkpt><trkpt lat="45.9920523389632" lon="12.076406104072461"><ele>804.5999999999999</ele><time>2026-03-24T11:34:36.001Z</time></trkpt><trkpt lat="45.99195353197279" lon="12.076452969346741"><ele>798.8</ele><time>2026-03-24T11:34:37.001Z</time></trkpt><trkpt lat="45.99186006345549" lon="12.076503955952372"><ele>793.0</ele><time>2026-03-24T11:34:38.001Z</time></trkpt><trkpt lat="45.99176609259984" lon="12.076564148724295"><ele>793.75</ele><time>2026-03-24T11:34:39.001Z</time></trkpt><trkpt lat="45.991669846438725" lon="12.076617359728129"><ele>794.5</ele><time>2026-03-24T11:34:40.001Z</time></trkpt><trkpt lat="45.99157231313064" lon="12.076685583716428"><ele>795.25</ele><time>2026-03-24T11:34:41.001Z</time></trkpt><trkpt lat="45.99145985410147" lon="12.07676367032878"><ele>796.0</ele><time>2026-03-24T11:34:42.001Z</time></trkpt><trkpt lat="45.99137544621851" lon="12.076904639312847"><ele>795.9999999999999</ele><time>2026-03-24T11:34:43.001Z</time></trkpt><trkpt lat="45.99130159636821" lon="12.077001794684266"><ele>796.0</ele><time>2026-03-24T11:34:44.001Z</time></trkpt><trkpt lat="45.99124003102512" lon="12.077079676802231"><ele>796.0</ele><time>2026-03-24T11:34:45.001Z</time></trkpt><trkpt lat="45.991181940185605" lon="12.07714361023429"><ele>796.0</ele><time>2026-03-24T11:34:46.001Z</time></trkpt><trkpt lat="45.99112481228664" lon="12.077201368285234"><ele>795.9999999999999</ele><time>2026-03-24T11:34:47.001Z</time></trkpt><trkpt lat="45.99106492941856" lon="12.077256257751692"><ele>796.0</ele><time>2026-03-24T11:34:48.001Z</time></trkpt><trkpt lat="45.991027071038665" lon="12.077351459401788"><ele>794.9999999999999</ele><time>2026-03-24T11:34:49.001Z</time></trkpt><trkpt lat="45.99102633107586" lon="12.077493267291846"><ele>794.0</ele><time>2026-03-24T11:34:50.001Z</time></trkpt><trkpt lat="45.99101654824065" lon="12.077620112978321"><ele>793.0</ele><time>2026-03-24T11:34:51.001Z</time></trkpt><trkpt lat="45.990997552895344" lon="12.077724943580966"><ele>792.0</ele><time>2026-03-24T11:34:52.001Z</time></trkpt><trkpt lat="45.99095233506858" lon="12.077808640985943"><ele>790.9999999999999</ele><time>2026-03-24T11:34:53.001Z</time></trkpt><trkpt lat="45.99085079260163" lon="12.077804972239978"><ele>790.0</ele><time>2026-03-24T11:34:54.001Z</time></trkpt><trkpt lat="45.99077161647765" lon="12.077868483574456"><ele>790.0</ele><time>2026-03-24T11:34:55.001Z</time></trkpt><trkpt lat="45.99069482038276" lon="12.07796706399299"><ele>790.0</ele><time>2026-03-24T11:34:56.001Z</time></trkpt><trkpt lat="45.99065000319253" lon="12.078130976746213"><ele>790.0</ele><time>2026-03-24T11:34:57.001Z</time></trkpt><trkpt lat="45.99058155431506" lon="12.078255299886424"><ele>790.0</ele><time>2026-03-24T11:34:58.001Z</time></trkpt><trkpt lat="45.99048944298543" lon="12.078332047153173"><ele>790.0</ele><time>2026-03-24T11:34:59.001Z</time></trkpt><trkpt lat="45.990405570584194" lon="12.078436289736896"><ele>789.5</ele><time>2026-03-24T11:35:00.001Z</time></trkpt><trkpt lat="45.990309995436505" lon="12.078507296120057"><ele>789.0</ele><time>2026-03-24T11:35:01.001Z</time></trkpt><trkpt lat="45.99021133523377" lon="12.078616454061638"><ele>788.5</ele><time>2026-03-24T11:35:02.001Z</time></trkpt><trkpt lat="45.99010335716855" lon="12.078713663057629"><ele>788.0</ele><time>2026-03-24T11:35:03.001Z</time></trkpt><trkpt lat="45.99000261646048" lon="12.078781205494481"><ele>788.0</ele><time>2026-03-24T11:35:04.001Z</time></trkpt><trkpt lat="45.98992391772794" lon="12.078850696301723"><ele>788.0</ele><time>2026-03-24T11:35:05.001Z</time></trkpt><trkpt lat="45.98985014863192" lon="12.078914606918586"><ele>788.0</ele><time>2026-03-24T11:35:06.001Z</time></trkpt><trkpt lat="45.989773680602966" lon="12.07897051890536"><ele>788.0</ele><time>2026-03-24T11:35:07.001Z</time></trkpt><trkpt lat="45.98967901938188" lon="12.079023150915214"><ele>788.0</ele><time>2026-03-24T11:35:08.001Z</time></trkpt><trkpt lat="45.98958468710609" lon="12.079073157582444"><ele>795.25</ele><time>2026-03-24T11:35:09.001Z</time></trkpt><trkpt lat="45.989478942746615" lon="12.07915259609518"><ele>802.5</ele><time>2026-03-24T11:35:10.001Z</time></trkpt><trkpt lat="45.989378857078144" lon="12.079259229782467"><ele>809.75</ele><time>2026-03-24T11:35:11.001Z</time></trkpt><trkpt lat="45.98929423922591" lon="12.079364830788599"><ele>817.0</ele><time>2026-03-24T11:35:12.001Z</time></trkpt><trkpt lat="45.989207654551215" lon="12.079445928306932"><ele>811.4000000000001</ele><time>2026-03-24T11:35:13.001Z</time></trkpt><trkpt lat="45.989127192196946" lon="12.079533672900332"><ele>805.8000000000001</ele><time>2026-03-24T11:35:14.001Z</time></trkpt><trkpt lat="45.989057926248385" lon="12.079628712955847"><ele>800.2</ele><time>2026-03-24T11:35:15.001Z</time></trkpt><trkpt lat="45.98898740722796" lon="12.079720412930232"><ele>794.6</ele><time>2026-03-24T11:35:16.001Z</time></trkpt><trkpt lat="45.98891073789689" lon="12.079813810610066"><ele>789.0</ele><time>2026-03-24T11:35:17.001Z</time></trkpt><trkpt lat="45.988837628857475" lon="12.079888457366488"><ele>793.0</ele><time>2026-03-24T11:35:18.001Z</time></trkpt><trkpt lat="45.98877103992768" lon="12.079949427765124"><ele>797.0</ele><time>2026-03-24T11:35:19.001Z</time></trkpt><trkpt lat="45.988710657906736" lon="12.080018454438111"><ele>801.0</ele><time>2026-03-24T11:35:20.001Z</time></trkpt><trkpt lat="45.98865097399069" lon="12.080084466977214"><ele>805.0</ele><time>2026-03-24T11:35:21.001Z</time></trkpt><trkpt lat="45.98858136667753" lon="12.080134099754877"><ele>809.0</ele><time>2026-03-24T11:35:22.001Z</time></trkpt><trkpt lat="45.988505759459834" lon="12.080161999814285"><ele>813.0</ele><time>2026-03-24T11:35:23.001Z</time></trkpt><trkpt lat="45.98843495125486" lon="12.080199367363404"><ele>813.0</ele><time>2026-03-24T11:35:24.001Z</time></trkpt><trkpt lat="45.98836065128897" lon="12.080237739423737"><ele>813.0</ele><time>2026-03-24T11:35:25.001Z</time></trkpt><trkpt lat="45.98825087450731" lon="12.08016163609663"><ele>813.0</ele><time>2026-03-24T11:35:27.001Z</time></trkpt><trkpt lat="45.98819434247751" lon="12.08006428189105"><ele>813.0</ele><time>2026-03-24T11:35:28.001Z</time></trkpt><trkpt lat="45.98811090402643" lon="12.079983753243695"><ele>813.0</ele><time>2026-03-24T11:35:29.001Z</time></trkpt><trkpt lat="45.98802559294154" lon="12.079928081277643"><ele>804.8</ele><time>2026-03-24T11:35:30.001Z</time></trkpt><trkpt lat="45.987939422846964" lon="12.079861092846686"><ele>796.5999999999999</ele><time>2026-03-24T11:35:31.001Z</time></trkpt><trkpt lat="45.98787015961562" lon="12.079785809159173"><ele>788.4000000000001</ele><time>2026-03-24T11:35:32.001Z</time></trkpt><trkpt lat="45.98781334304804" lon="12.079721768218489"><ele>780.2</ele><time>2026-03-24T11:35:33.001Z</time></trkpt><trkpt lat="45.98768943715187" lon="12.07968328270131"><ele>772.0</ele><time>2026-03-24T11:35:35.001Z</time></trkpt><trkpt lat="45.987624635424034" lon="12.079711899571965"><ele>771.9999999999999</ele><time>2026-03-24T11:35:36.001Z</time></trkpt><trkpt lat="45.98756912816108" lon="12.079787029515543"><ele>772.0</ele><time>2026-03-24T11:35:37.001Z</time></trkpt><trkpt lat="45.9875237500282" lon="12.07989271086937"><ele>772.0</ele><time>2026-03-24T11:35:38.001Z</time></trkpt><trkpt lat="45.98749558189391" lon="12.080002965908657"><ele>772.0</ele><time>2026-03-24T11:35:39.001Z</time></trkpt><trkpt lat="45.9874594754718" lon="12.08008383369266"><ele>771.9999999999999</ele><time>2026-03-24T11:35:40.001Z</time></trkpt><trkpt lat="45.98741802377671" lon="12.080161913987656"><ele>772.0</ele><time>2026-03-24T11:35:41.001Z</time></trkpt><trkpt lat="45.9873229805963" lon="12.080202497157137"><ele>774.3333333333333</ele><time>2026-03-24T11:35:43.001Z</time></trkpt><trkpt lat="45.987249018193694" lon="12.080152427333406"><ele>776.6666666666666</ele><time>2026-03-24T11:35:44.001Z</time></trkpt><trkpt lat="45.98719268645807" lon="12.080079050686367"><ele>779.0</ele><time>2026-03-24T11:35:45.001Z</time></trkpt><trkpt lat="45.98712969613496" lon="12.079993609482981"><ele>781.3333333333333</ele><time>2026-03-24T11:35:46.001Z</time></trkpt><trkpt lat="45.98704822172497" lon="12.079950205782259"><ele>783.6666666666666</ele><time>2026-03-24T11:35:48.001Z</time></trkpt><trkpt lat="45.9869821433201" lon="12.079986448596618"><ele>786.0</ele><time>2026-03-24T11:35:49.001Z</time></trkpt><trkpt lat="45.98690373782203" lon="12.080083965894044"><ele>786.0</ele><time>2026-03-24T11:35:50.001Z</time></trkpt><trkpt lat="45.98682174154747" lon="12.080154149951822"><ele>786.0</ele><time>2026-03-24T11:35:51.001Z</time></trkpt><trkpt lat="45.986743902198185" lon="12.080190340077602"><ele>786.0</ele><time>2026-03-24T11:35:52.001Z</time></trkpt><trkpt lat="45.986673345325784" lon="12.080197631391034"><ele>786.0</ele><time>2026-03-24T11:35:53.001Z</time></trkpt><trkpt lat="45.986572815325786" lon="12.08022744156671"><ele>786.0</ele><time>2026-03-24T11:35:55.001Z</time></trkpt><trkpt lat="45.986482706657185" lon="12.080186837791292"><ele>786.0</ele><time>2026-03-24T11:35:57.001Z</time></trkpt><trkpt lat="45.986431493021314" lon="12.080115904052157"><ele>784.4</ele><time>2026-03-24T11:35:59.001Z</time></trkpt><trkpt lat="45.986366935943714" lon="12.080107610076098"><ele>782.8</ele><time>2026-03-24T11:36:13.001Z</time></trkpt><trkpt lat="45.98627439948841" lon="12.080152073552947"><ele>781.1999999999999</ele><time>2026-03-24T11:36:15.001Z</time></trkpt><trkpt lat="45.986198623530264" lon="12.080270204721451"><ele>779.5999999999999</ele><time>2026-03-24T11:36:17.001Z</time></trkpt><trkpt lat="45.98612639131541" lon="12.08040327445242"><ele>778.0</ele><time>2026-03-24T11:36:19.001Z</time></trkpt><trkpt lat="45.98608785023233" lon="12.08052324645875"><ele>777.9999999999999</ele><time>2026-03-24T11:36:20.001Z</time></trkpt><trkpt lat="45.98605695004495" lon="12.080608691783867"><ele>778.0</ele><time>2026-03-24T11:36:21.001Z</time></trkpt><trkpt lat="45.98604509521845" lon="12.080716472813775"><ele>778.0</ele><time>2026-03-24T11:36:22.001Z</time></trkpt><trkpt lat="45.98599030678847" lon="12.080787179623057"><ele>778.0</ele><time>2026-03-24T11:36:23.001Z</time></trkpt><trkpt lat="45.985930398884946" lon="12.08085609829973"><ele>777.9999999999999</ele><time>2026-03-24T11:36:24.001Z</time></trkpt><trkpt lat="45.98586607055546" lon="12.080940740494349"><ele>778.0</ele><time>2026-03-24T11:36:25.001Z</time></trkpt><trkpt lat="45.985798064374784" lon="12.081024450427313"><ele>781.8333333333333</ele><time>2026-03-24T11:36:26.001Z</time></trkpt><trkpt lat="45.98574584011058" lon="12.081086475989991"><ele>785.6666666666666</ele><time>2026-03-24T11:36:27.001Z</time></trkpt><trkpt lat="45.985656426712005" lon="12.081196709498617"><ele>789.5</ele><time>2026-03-24T11:36:29.001Z</time></trkpt><trkpt lat="45.985589844548045" lon="12.08122350947441"><ele>793.3333333333333</ele><time>2026-03-24T11:36:30.001Z</time></trkpt><trkpt lat="45.98548292242611" lon="12.081249373665345"><ele>797.1666666666666</ele><time>2026-03-24T11:36:32.001Z</time></trkpt><trkpt lat="45.98541796656985" lon="12.08124180933468"><ele>801.0</ele><time>2026-03-24T11:36:34.001Z</time></trkpt><trkpt lat="45.98543477683407" lon="12.081036665146614"><ele>801.0</ele><time>2026-03-24T11:36:37.001Z</time></trkpt><trkpt lat="45.98550174451678" lon="12.080890625986976"><ele>801.0</ele><time>2026-03-24T11:36:39.001Z</time></trkpt><trkpt lat="45.98551932791276" lon="12.080803603244858"><ele>801.0</ele><time>2026-03-24T11:36:40.001Z</time></trkpt><trkpt lat="45.98553861307203" lon="12.080616558298741"><ele>801.0</ele><time>2026-03-24T11:36:42.001Z</time></trkpt><trkpt lat="45.98551457382894" lon="12.08051282412094"><ele>801.0</ele><time>2026-03-24T11:36:43.001Z</time></trkpt><trkpt lat="45.9854856274725" lon="12.080416829788964"><ele>799.0</ele><time>2026-03-24T11:36:44.001Z</time></trkpt><trkpt lat="45.98544295902556" lon="12.080319073027278"><ele>797.0</ele><time>2026-03-24T11:36:45.001Z</time></trkpt><trkpt lat="45.98534362802074" lon="12.080204129566347"><ele>795.0</ele><time>2026-03-24T11:36:47.001Z</time></trkpt><trkpt lat="45.985226059735524" lon="12.080147508399508"><ele>793.0</ele><time>2026-03-24T11:36:49.001Z</time></trkpt><trkpt lat="45.98516111114279" lon="12.080139950858026"><ele>791.0</ele><time>2026-03-24T11:36:50.001Z</time></trkpt><trkpt lat="45.98509565168935" lon="12.080125707823726"><ele>791.0000000000001</ele><time>2026-03-24T11:36:51.001Z</time></trkpt><trkpt lat="45.98501476000153" lon="12.080074758759219"><ele>791.0</ele><time>2026-03-24T11:36:52.001Z</time></trkpt><trkpt lat="45.98495185484388" lon="12.080004517531988"><ele>791.0</ele><time>2026-03-24T11:36:53.001Z</time></trkpt><trkpt lat="45.984890086267555" lon="12.07995554419874"><ele>791.0</ele><time>2026-03-24T11:36:54.001Z</time></trkpt><trkpt lat="45.984814069435544" lon="12.079899218281454"><ele>791.0000000000001</ele><time>2026-03-24T11:36:55.001Z</time></trkpt><trkpt lat="45.984732006840716" lon="12.07987201952127"><ele>791.0</ele><time>2026-03-24T11:36:56.001Z</time></trkpt><trkpt lat="45.984659560111716" lon="12.079863579676285"><ele>792.1666666666667</ele><time>2026-03-24T11:36:57.001Z</time></trkpt><trkpt lat="45.98458265163787" lon="12.079865913123141"><ele>793.3333333333334</ele><time>2026-03-24T11:36:58.001Z</time></trkpt><trkpt lat="45.984499450023044" lon="12.079869013852093"><ele>794.5</ele><time>2026-03-24T11:36:59.001Z</time></trkpt><trkpt lat="45.98440953279114" lon="12.079893947749966"><ele>795.6666666666667</ele><time>2026-03-24T11:37:00.001Z</time></trkpt><trkpt lat="45.98432162762399" lon="12.079904378135284"><ele>796.8333333333334</ele><time>2026-03-24T11:37:01.001Z</time></trkpt><trkpt lat="45.984235217008724" lon="12.079925968213253"><ele>798.0</ele><time>2026-03-24T11:37:02.001Z</time></trkpt><trkpt lat="45.98416067145288" lon="12.079961602774986"><ele>804.5</ele><time>2026-03-24T11:37:03.001Z</time></trkpt><trkpt lat="45.98409519223471" lon="12.080000162963094"><ele>811.0</ele><time>2026-03-24T11:37:04.001Z</time></trkpt><trkpt lat="45.98397320268255" lon="12.080090215252033"><ele>817.5</ele><time>2026-03-24T11:37:06.001Z</time></trkpt><trkpt lat="45.983905477873925" lon="12.080130412266485"><ele>824.0</ele><time>2026-03-24T11:37:07.001Z</time></trkpt><trkpt lat="45.98383166074017" lon="12.080129691013473"><ele>830.5</ele><time>2026-03-24T11:37:08.001Z</time></trkpt><trkpt lat="45.98376628250364" lon="12.080126621645032"><ele>837.0</ele><time>2026-03-24T11:37:09.001Z</time></trkpt><trkpt lat="45.98366434836264" lon="12.080076199319786"><ele>837.0</ele><time>2026-03-24T11:37:11.001Z</time></trkpt><trkpt lat="45.98358814290215" lon="12.080049372288205"><ele>837.0</ele><time>2026-03-24T11:37:12.001Z</time></trkpt><trkpt lat="45.98350012693449" lon="12.079999770413233"><ele>837.0</ele><time>2026-03-24T11:37:14.001Z</time></trkpt><trkpt lat="45.98348458122416" lon="12.079867500387257"><ele>837.0</ele><time>2026-03-24T11:37:16.001Z</time></trkpt><trkpt lat="45.983537439368995" lon="12.079758932255915"><ele>837.0</ele><time>2026-03-24T11:37:18.001Z</time></trkpt><trkpt lat="45.98359163873723" lon="12.079691459737965"><ele>837.0</ele><time>2026-03-24T11:37:19.001Z</time></trkpt><trkpt lat="45.9836788880008" lon="12.07955485189425"><ele>834.6</ele><time>2026-03-24T11:37:21.001Z</time></trkpt><trkpt lat="45.98374954007519" lon="12.079507732876586"><ele>832.2</ele><time>2026-03-24T11:37:22.001Z</time></trkpt><trkpt lat="45.98379745773802" lon="12.079340204789379"><ele>829.8</ele><time>2026-03-24T11:37:24.001Z</time></trkpt><trkpt lat="45.983810461224735" lon="12.079249072235436"><ele>827.4</ele><time>2026-03-24T11:37:25.001Z</time></trkpt><trkpt lat="45.983814490791225" lon="12.07914759429072"><ele>825.0</ele><time>2026-03-24T11:37:26.001Z</time></trkpt><trkpt lat="45.98388236241379" lon="12.078975072761446"><ele>823.1666666666666</ele><time>2026-03-24T11:37:28.001Z</time></trkpt><trkpt lat="45.98394167064782" lon="12.078905197829961"><ele>821.3333333333333</ele><time>2026-03-24T11:37:29.001Z</time></trkpt><trkpt lat="45.98400526034224" lon="12.078836483868404"><ele>819.5</ele><time>2026-03-24T11:37:30.001Z</time></trkpt><trkpt lat="45.98406325684076" lon="12.078718592889755"><ele>817.6666666666666</ele><time>2026-03-24T11:37:31.001Z</time></trkpt><trkpt lat="45.98410555225491" lon="12.078611517750417"><ele>815.8333333333333</ele><time>2026-03-24T11:37:32.001Z</time></trkpt><trkpt lat="45.9841490674387" lon="12.078488811757925"><ele>814.0</ele><time>2026-03-24T11:37:33.001Z</time></trkpt><trkpt lat="45.98419416688078" lon="12.078374059773143"><ele>814.0</ele><time>2026-03-24T11:37:34.001Z</time></trkpt><trkpt lat="45.98424684801469" lon="12.07827925274013"><ele>814.0</ele><time>2026-03-24T11:37:35.001Z</time></trkpt><trkpt lat="45.98429448349972" lon="12.078174512678507"><ele>814.0</ele><time>2026-03-24T11:37:36.001Z</time></trkpt><trkpt lat="45.98435675562426" lon="12.078062058775272"><ele>814.0</ele><time>2026-03-24T11:37:37.001Z</time></trkpt><trkpt lat="45.98441292910132" lon="12.077952958705366"><ele>814.0</ele><time>2026-03-24T11:37:38.001Z</time></trkpt><trkpt lat="45.98446604782413" lon="12.07783948041358"><ele>817.9999999999999</ele><time>2026-03-24T11:37:39.001Z</time></trkpt><trkpt lat="45.98452003373433" lon="12.077719727099902"><ele>822.0</ele><time>2026-03-24T11:37:40.001Z</time></trkpt><trkpt lat="45.984575544546885" lon="12.077613367774859"><ele>826.0</ele><time>2026-03-24T11:37:41.001Z</time></trkpt><trkpt lat="45.98462486090612" lon="12.077509802918584"><ele>830.0</ele><time>2026-03-24T11:37:42.001Z</time></trkpt><trkpt lat="45.98464496435523" lon="12.077411606664196"><ele>833.9999999999999</ele><time>2026-03-24T11:37:43.001Z</time></trkpt><trkpt lat="45.98466394656358" lon="12.077298344836155"><ele>838.0</ele><time>2026-03-24T11:37:44.001Z</time></trkpt><trkpt lat="45.984664848653374" lon="12.077188231104047"><ele>840.3333333333333</ele><time>2026-03-24T11:37:45.001Z</time></trkpt><trkpt lat="45.98466402796277" lon="12.077073852428606"><ele>842.6666666666666</ele><time>2026-03-24T11:37:46.001Z</time></trkpt><trkpt lat="45.984656605961646" lon="12.076961708298922"><ele>845.0</ele><time>2026-03-24T11:37:47.001Z</time></trkpt><trkpt lat="45.98464934680824" lon="12.076835955430736"><ele>847.3333333333333</ele><time>2026-03-24T11:37:48.001Z</time></trkpt><trkpt lat="45.984635493850774" lon="12.076701652328019"><ele>849.6666666666666</ele><time>2026-03-24T11:37:49.001Z</time></trkpt><trkpt lat="45.98462584931343" lon="12.07657205281717"><ele>852.0</ele><time>2026-03-24T11:37:50.001Z</time></trkpt><trkpt lat="45.984607430076125" lon="12.076441227095572"><ele>854.8</ele><time>2026-03-24T11:37:51.001Z</time></trkpt><trkpt lat="45.984581176586815" lon="12.076305955792986"><ele>857.6</ele><time>2026-03-24T11:37:52.001Z</time></trkpt><trkpt lat="45.98456665206717" lon="12.076178777118406"><ele>860.3999999999999</ele><time>2026-03-24T11:37:53.001Z</time></trkpt><trkpt lat="45.9845568501874" lon="12.07604286663502"><ele>863.1999999999999</ele><time>2026-03-24T11:37:54.001Z</time></trkpt><trkpt lat="45.984559040858954" lon="12.075903512108507"><ele>866.0</ele><time>2026-03-24T11:37:55.001Z</time></trkpt><trkpt lat="45.984571009015035" lon="12.075755915253673"><ele>869.1999999999999</ele><time>2026-03-24T11:37:56.001Z</time></trkpt><trkpt lat="45.98459039865946" lon="12.075602589120765"><ele>872.3999999999999</ele><time>2026-03-24T11:37:57.001Z</time></trkpt><trkpt lat="45.98461497853766" lon="12.075442292175891"><ele>875.6</ele><time>2026-03-24T11:37:58.001Z</time></trkpt><trkpt lat="45.98463665308176" lon="12.07530541140932"><ele>878.8</ele><time>2026-03-24T11:37:59.001Z</time></trkpt><trkpt lat="45.98465986198548" lon="12.075159247752197"><ele>882.0</ele><time>2026-03-24T11:38:00.001Z</time></trkpt><trkpt lat="45.98466541999431" lon="12.075007810614652"><ele>885.0</ele><time>2026-03-24T11:38:01.001Z</time></trkpt><trkpt lat="45.98467443287" lon="12.07485453783444"><ele>888.0</ele><time>2026-03-24T11:38:02.001Z</time></trkpt><trkpt lat="45.98467493038538" lon="12.074697326525419"><ele>891.0</ele><time>2026-03-24T11:38:03.001Z</time></trkpt><trkpt lat="45.98469673514435" lon="12.074548589978694"><ele>894.0</ele><time>2026-03-24T11:38:04.001Z</time></trkpt><trkpt lat="45.98471529875156" lon="12.074400667150677"><ele>897.0</ele><time>2026-03-24T11:38:05.001Z</time></trkpt><trkpt lat="45.98474523257152" lon="12.074245250788252"><ele>897.0</ele><time>2026-03-24T11:38:06.001Z</time></trkpt><trkpt lat="45.98477083493467" lon="12.074112806070678"><ele>897.0</ele><time>2026-03-24T11:38:07.001Z</time></trkpt><trkpt lat="45.984783549455344" lon="12.07400245434576"><ele>897.0</ele><time>2026-03-24T11:38:08.001Z</time></trkpt><trkpt lat="45.98481802670343" lon="12.073887299610973"><ele>897.0</ele><time>2026-03-24T11:38:09.001Z</time></trkpt><trkpt lat="45.984831236220074" lon="12.073773279757505"><ele>897.0</ele><time>2026-03-24T11:38:10.001Z</time></trkpt><trkpt lat="45.9848321480086" lon="12.073665301127468"><ele>897.0</ele><time>2026-03-24T11:38:11.001Z</time></trkpt><trkpt lat="45.984803447305126" lon="12.073495896437402"><ele>897.0</ele><time>2026-03-24T11:38:13.001Z</time></trkpt><trkpt lat="45.98476755418294" lon="12.07341833161125"><ele>897.0</ele><time>2026-03-24T11:38:14.001Z</time></trkpt><trkpt lat="45.984728712076645" lon="12.073345277836316"><ele>897.0</ele><time>2026-03-24T11:38:15.001Z</time></trkpt><trkpt lat="45.98461387816393" lon="12.073263458207167"><ele>897.0</ele><time>2026-03-24T11:38:17.001Z</time></trkpt><trkpt lat="45.984540495862866" lon="12.073235814953916"><ele>897.0</ele><time>2026-03-24T11:38:18.001Z</time></trkpt><trkpt lat="45.98446454081582" lon="12.073211228309724"><ele>897.0</ele><time>2026-03-24T11:38:19.001Z</time></trkpt><trkpt lat="45.984383489719754" lon="12.073195936975978"><ele>894.6666666666666</ele><time>2026-03-24T11:38:20.001Z</time></trkpt><trkpt lat="45.98429568436369" lon="12.073172640629673"><ele>892.3333333333333</ele><time>2026-03-24T11:38:21.001Z</time></trkpt><trkpt lat="45.98420933988723" lon="12.073141701215295"><ele>890.0</ele><time>2026-03-24T11:38:22.001Z</time></trkpt><trkpt lat="45.98411666231922" lon="12.07308593931139"><ele>887.6666666666666</ele><time>2026-03-24T11:38:23.001Z</time></trkpt><trkpt lat="45.984054315802204" lon="12.073050989065933"><ele>885.3333333333333</ele><time>2026-03-24T11:38:24.001Z</time></trkpt><trkpt lat="45.983959099474646" lon="12.073020453184377"><ele>883.0</ele><time>2026-03-24T11:38:25.001Z</time></trkpt><trkpt lat="45.98388606377369" lon="12.072991054900754"><ele>887.4285714285714</ele><time>2026-03-24T11:38:26.001Z</time></trkpt><trkpt lat="45.98382297866042" lon="12.072956079535231"><ele>891.8571428571429</ele><time>2026-03-24T11:38:27.001Z</time></trkpt><trkpt lat="45.98375820015013" lon="12.07294872021485"><ele>896.2857142857143</ele><time>2026-03-24T11:38:28.001Z</time></trkpt><trkpt lat="45.98368675981714" lon="12.072908047617695"><ele>900.7142857142858</ele><time>2026-03-24T11:38:29.001Z</time></trkpt><trkpt lat="45.98362063235926" lon="12.072851935244486"><ele>905.1428571428571</ele><time>2026-03-24T11:38:30.001Z</time></trkpt><trkpt lat="45.983579046091634" lon="12.07275649109881"><ele>909.5714285714287</ele><time>2026-03-24T11:38:31.001Z</time></trkpt><trkpt lat="45.9835609457575" lon="12.072658667987952"><ele>914.0000000000001</ele><time>2026-03-24T11:38:32.001Z</time></trkpt><trkpt lat="45.983554983238506" lon="12.072525858241878"><ele>914.8333333333334</ele><time>2026-03-24T11:38:33.001Z</time></trkpt><trkpt lat="45.9835545032127" lon="12.0724136881012"><ele>915.6666666666667</ele><time>2026-03-24T11:38:34.001Z</time></trkpt><trkpt lat="45.98357212199692" lon="12.072264391237825"><ele>916.5</ele><time>2026-03-24T11:38:35.001Z</time></trkpt><trkpt lat="45.98357842387772" lon="12.072140819572532"><ele>917.3333333333333</ele><time>2026-03-24T11:38:36.001Z</time></trkpt><trkpt lat="45.983604673260906" lon="12.072042410851818"><ele>918.1666666666666</ele><time>2026-03-24T11:38:37.001Z</time></trkpt><trkpt lat="45.983622912658106" lon="12.071911112709607"><ele>919.0</ele><time>2026-03-24T11:38:38.001Z</time></trkpt><trkpt lat="45.983647752859724" lon="12.071777570027503"><ele>918.9999999999999</ele><time>2026-03-24T11:38:39.001Z</time></trkpt><trkpt lat="45.983673069405526" lon="12.071634785030048"><ele>919.0</ele><time>2026-03-24T11:38:40.001Z</time></trkpt><trkpt lat="45.98369550928975" lon="12.071524165915566"><ele>919.0</ele><time>2026-03-24T11:38:41.001Z</time></trkpt><trkpt lat="45.983732327834026" lon="12.071416644014755"><ele>919.0</ele><time>2026-03-24T11:38:42.001Z</time></trkpt><trkpt lat="45.983776958882814" lon="12.071303724086405"><ele>918.9999999999999</ele><time>2026-03-24T11:38:43.001Z</time></trkpt><trkpt lat="45.983803174461094" lon="12.071180775090763"><ele>919.0</ele><time>2026-03-24T11:38:44.001Z</time></trkpt><trkpt lat="45.98381170571027" lon="12.071052005289912"><ele>921.4000000000001</ele><time>2026-03-24T11:38:45.001Z</time></trkpt><trkpt lat="45.983819016624594" lon="12.070915753322376"><ele>923.8000000000001</ele><time>2026-03-24T11:38:46.001Z</time></trkpt><trkpt lat="45.98383402609052" lon="12.070775479784686"><ele>926.1999999999999</ele><time>2026-03-24T11:38:47.001Z</time></trkpt><trkpt lat="45.983849478475236" lon="12.070644824657471"><ele>928.5999999999999</ele><time>2026-03-24T11:38:48.001Z</time></trkpt><trkpt lat="45.98385807901641" lon="12.070522451514115"><ele>931.0</ele><time>2026-03-24T11:38:49.001Z</time></trkpt><trkpt lat="45.98388894986867" lon="12.070403117070299"><ele>932.9999999999999</ele><time>2026-03-24T11:38:50.001Z</time></trkpt><trkpt lat="45.98393243004459" lon="12.070296704031787"><ele>935.0</ele><time>2026-03-24T11:38:51.001Z</time></trkpt><trkpt lat="45.98396478262158" lon="12.070194981428047"><ele>937.0</ele><time>2026-03-24T11:38:52.001Z</time></trkpt><trkpt lat="45.98400368144307" lon="12.070075112932312"><ele>939.0</ele><time>2026-03-24T11:38:53.001Z</time></trkpt><trkpt lat="45.983992966829554" lon="12.069978266066839"><ele>940.9999999999999</ele><time>2026-03-24T11:38:54.001Z</time></trkpt><trkpt lat="45.98399285598571" lon="12.069872286275674"><ele>943.0</ele><time>2026-03-24T11:38:55.001Z</time></trkpt><trkpt lat="45.983961171468586" lon="12.069772640866349"><ele>945.3333333333333</ele><time>2026-03-24T11:38:56.001Z</time></trkpt><trkpt lat="45.98394383251067" lon="12.069670671140381"><ele>947.6666666666666</ele><time>2026-03-24T11:38:57.001Z</time></trkpt><trkpt lat="45.983903939990135" lon="12.069562960445566"><ele>950.0</ele><time>2026-03-24T11:38:58.001Z</time></trkpt><trkpt lat="45.98384987039974" lon="12.069477367492984"><ele>952.3333333333333</ele><time>2026-03-24T11:38:59.001Z</time></trkpt><trkpt lat="45.98379310113128" lon="12.069405921757486"><ele>954.6666666666666</ele><time>2026-03-24T11:39:00.001Z</time></trkpt><trkpt lat="45.98375685620253" lon="12.0693279354995"><ele>957.0</ele><time>2026-03-24T11:39:01.001Z</time></trkpt><trkpt lat="45.983750656400005" lon="12.069224903173613"><ele>957.0</ele><time>2026-03-24T11:39:02.001Z</time></trkpt><trkpt lat="45.9837484137378" lon="12.06912278172971"><ele>957.0</ele><time>2026-03-24T11:39:03.001Z</time></trkpt><trkpt lat="45.983770790000804" lon="12.06900610764937"><ele>957.0</ele><time>2026-03-24T11:39:04.001Z</time></trkpt><trkpt lat="45.98382041933293" lon="12.068910694068576"><ele>957.0</ele><time>2026-03-24T11:39:05.001Z</time></trkpt><trkpt lat="45.98390007111332" lon="12.068836880949016"><ele>957.0</ele><time>2026-03-24T11:39:06.001Z</time></trkpt><trkpt lat="45.98399714995185" lon="12.06879628006668"><ele>957.0</ele><time>2026-03-24T11:39:07.001Z</time></trkpt><trkpt lat="45.984101598135695" lon="12.06878478397369"><ele>953.1666666666666</ele><time>2026-03-24T11:39:08.001Z</time></trkpt><trkpt lat="45.984180555860824" lon="12.068767695083807"><ele>949.3333333333333</ele><time>2026-03-24T11:39:09.001Z</time></trkpt><trkpt lat="45.98425289891558" lon="12.068723584569584"><ele>945.5</ele><time>2026-03-24T11:39:10.001Z</time></trkpt><trkpt lat="45.98432294655004" lon="12.06865014821593"><ele>941.6666666666666</ele><time>2026-03-24T11:39:11.001Z</time></trkpt><trkpt lat="45.98439726549704" lon="12.068591895803893"><ele>937.8333333333333</ele><time>2026-03-24T11:39:12.001Z</time></trkpt><trkpt lat="45.98449761486349" lon="12.068544399856801"><ele>934.0</ele><time>2026-03-24T11:39:14.001Z</time></trkpt><trkpt lat="45.98458990968927" lon="12.068395110958164"><ele>933.9999999999999</ele><time>2026-03-24T11:39:16.001Z</time></trkpt><trkpt lat="45.98463415644194" lon="12.068312659391777"><ele>934.0</ele><time>2026-03-24T11:39:17.001Z</time></trkpt><trkpt lat="45.98467310371681" lon="12.068220452936524"><ele>933.9999999999999</ele><time>2026-03-24T11:39:18.001Z</time></trkpt><trkpt lat="45.9846996809902" lon="12.068134241998406"><ele>933.9999999999999</ele><time>2026-03-24T11:39:19.001Z</time></trkpt><trkpt lat="45.98471269211479" lon="12.06800982843453"><ele>934.0</ele><time>2026-03-24T11:39:20.001Z</time></trkpt><trkpt lat="45.984703811520816" lon="12.067898812532873"><ele>933.9999999999999</ele><time>2026-03-24T11:39:21.001Z</time></trkpt><trkpt lat="45.9846967703144" lon="12.067805729950129"><ele>933.9999999999999</ele><time>2026-03-24T11:39:22.001Z</time></trkpt><trkpt lat="45.98468080279098" lon="12.067711694420446"><ele>934.9999999999999</ele><time>2026-03-24T11:39:23.001Z</time></trkpt><trkpt lat="45.984654326906494" lon="12.067595262705888"><ele>936.0</ele><time>2026-03-24T11:39:24.001Z</time></trkpt><trkpt lat="45.984623069458614" lon="12.067478784606386"><ele>937.0</ele><time>2026-03-24T11:39:25.001Z</time></trkpt><trkpt lat="45.98461173563274" lon="12.06737440995928"><ele>938.0</ele><time>2026-03-24T11:39:26.001Z</time></trkpt><trkpt lat="45.984614729326466" lon="12.067255644201792"><ele>938.9999999999999</ele><time>2026-03-24T11:39:27.001Z</time></trkpt><trkpt lat="45.984641661026636" lon="12.06714501775417"><ele>940.0</ele><time>2026-03-24T11:39:28.001Z</time></trkpt><trkpt lat="45.98466071685214" lon="12.06703423701529"><ele>940.3333333333333</ele><time>2026-03-24T11:39:29.001Z</time></trkpt><trkpt lat="45.98466297754993" lon="12.066935950755404"><ele>940.6666666666666</ele><time>2026-03-24T11:39:30.001Z</time></trkpt><trkpt lat="45.98462060750791" lon="12.066795401879391"><ele>941.0</ele><time>2026-03-24T11:39:32.001Z</time></trkpt><trkpt lat="45.98456835571528" lon="12.066711232372572"><ele>941.3333333333333</ele><time>2026-03-24T11:39:33.001Z</time></trkpt><trkpt lat="45.984528989716644" lon="12.066613239268108"><ele>941.6666666666666</ele><time>2026-03-24T11:39:34.001Z</time></trkpt><trkpt lat="45.98450262261241" lon="12.066510060482235"><ele>942.0</ele><time>2026-03-24T11:39:35.001Z</time></trkpt><trkpt lat="45.984485037803935" lon="12.06642096605609"><ele>943.0</ele><time>2026-03-24T11:39:36.001Z</time></trkpt><trkpt lat="45.984463645449146" lon="12.0662509616331"><ele>944.0</ele><time>2026-03-24T11:39:38.001Z</time></trkpt><trkpt lat="45.98447794353011" lon="12.066143882436895"><ele>945.0</ele><time>2026-03-24T11:39:39.001Z</time></trkpt><trkpt lat="45.98450360865167" lon="12.066016175463583"><ele>946.0</ele><time>2026-03-24T11:39:40.001Z</time></trkpt><trkpt lat="45.984538423877794" lon="12.065915956380934"><ele>947.0</ele><time>2026-03-24T11:39:41.001Z</time></trkpt><trkpt lat="45.98456829471054" lon="12.065824489145257"><ele>948.0</ele><time>2026-03-24T11:39:42.001Z</time></trkpt><trkpt lat="45.984615939396924" lon="12.06572693204611"><ele>951.4</ele><time>2026-03-24T11:39:43.001Z</time></trkpt><trkpt lat="45.9846530744269" lon="12.065645287271636"><ele>954.8</ele><time>2026-03-24T11:39:44.001Z</time></trkpt><trkpt lat="45.98468664618691" lon="12.065451480653916"><ele>958.2</ele><time>2026-03-24T11:39:46.001Z</time></trkpt><trkpt lat="45.98468716478918" lon="12.065333615963114"><ele>961.6</ele><time>2026-03-24T11:39:47.001Z</time></trkpt><trkpt lat="45.98474476046129" lon="12.06525475157112"><ele>965.0</ele><time>2026-03-24T11:39:48.001Z</time></trkpt><trkpt lat="45.9848168644309" lon="12.065155584249698"><ele>965.0000000000001</ele><time>2026-03-24T11:39:49.001Z</time></trkpt><trkpt lat="45.98486284216981" lon="12.0650721117916"><ele>965.0</ele><time>2026-03-24T11:39:50.001Z</time></trkpt><trkpt lat="45.98492247178859" lon="12.06496977888007"><ele>965.0</ele><time>2026-03-24T11:39:51.001Z</time></trkpt><trkpt lat="45.98497439129205" lon="12.06486646501603"><ele>965.0</ele><time>2026-03-24T11:39:52.001Z</time></trkpt><trkpt lat="45.98498716240945" lon="12.064759964562288"><ele>965.0000000000001</ele><time>2026-03-24T11:39:53.001Z</time></trkpt><trkpt lat="45.985031018241465" lon="12.064667039867714"><ele>965.0</ele><time>2026-03-24T11:39:54.001Z</time></trkpt><trkpt lat="45.98509736162428" lon="12.06457606288668"><ele>967.6</ele><time>2026-03-24T11:39:55.001Z</time></trkpt><trkpt lat="45.985165498117155" lon="12.064492352941809"><ele>970.2</ele><time>2026-03-24T11:39:56.001Z</time></trkpt><trkpt lat="45.985238338832914" lon="12.064395193164456"><ele>972.8</ele><time>2026-03-24T11:39:57.001Z</time></trkpt><trkpt lat="45.98529096140474" lon="12.064270118703945"><ele>975.4</ele><time>2026-03-24T11:39:58.001Z</time></trkpt><trkpt lat="45.98533910558738" lon="12.064160931211553"><ele>978.0</ele><time>2026-03-24T11:39:59.001Z</time></trkpt><trkpt lat="45.98539629028305" lon="12.064066588384755"><ele>978.0</ele><time>2026-03-24T11:40:00.001Z</time></trkpt><trkpt lat="45.98545211274204" lon="12.063984712037128"><ele>978.0</ele><time>2026-03-24T11:40:01.001Z</time></trkpt><trkpt lat="45.98550906815633" lon="12.063900372861484"><ele>978.0</ele><time>2026-03-24T11:40:02.001Z</time></trkpt><trkpt lat="45.98556893943529" lon="12.06383726383222"><ele>978.0</ele><time>2026-03-24T11:40:03.001Z</time></trkpt><trkpt lat="45.98563465802946" lon="12.063790635593023"><ele>978.0</ele><time>2026-03-24T11:40:04Z</time></trkpt><trkpt lat="45.985699628049716" lon="12.063733610169239"><ele>978.0</ele><time>2026-03-24T11:40:05Z</time></trkpt><trkpt lat="45.98575494934462" lon="12.063667093562465"><ele>978.0</ele><time>2026-03-24T11:40:06Z</time></trkpt><trkpt lat="45.985811839840686" lon="12.063587865813046"><ele>978.0</ele><time>2026-03-24T11:40:07Z</time></trkpt><trkpt lat="45.98586536374274" lon="12.063503418538822"><ele>978.0</ele><time>2026-03-24T11:40:08Z</time></trkpt><trkpt lat="45.98591247826452" lon="12.063441500507016"><ele>978.0</ele><time>2026-03-24T11:40:09Z</time></trkpt><trkpt lat="45.98597647940277" lon="12.063328974546781"><ele>978.0</ele><time>2026-03-24T11:40:11Z</time></trkpt><trkpt lat="45.985987664464055" lon="12.0631602795395"><ele>978.0</ele><time>2026-03-24T11:40:13Z</time></trkpt><trkpt lat="45.985993207950614" lon="12.063051184720791"><ele>975.6666666666666</ele><time>2026-03-24T11:40:14Z</time></trkpt><trkpt lat="45.98603219316384" lon="12.062948750957418"><ele>973.3333333333333</ele><time>2026-03-24T11:40:15Z</time></trkpt><trkpt lat="45.98608415196975" lon="12.06286200699488"><ele>971.0</ele><time>2026-03-24T11:40:16Z</time></trkpt><trkpt lat="45.98614989032589" lon="12.062794469202613"><ele>968.6666666666666</ele><time>2026-03-24T11:40:17Z</time></trkpt><trkpt lat="45.98620991309951" lon="12.062702785865579"><ele>966.3333333333333</ele><time>2026-03-24T11:40:18Z</time></trkpt><trkpt lat="45.98624601488545" lon="12.06260031225357"><ele>964.0</ele><time>2026-03-24T11:40:19Z</time></trkpt><trkpt lat="45.98627823014028" lon="12.062517996102558"><ele>969.2</ele><time>2026-03-24T11:40:20Z</time></trkpt><trkpt lat="45.98629797740632" lon="12.062361773267913"><ele>974.4000000000001</ele><time>2026-03-24T11:40:22Z</time></trkpt><trkpt lat="45.986307068016124" lon="12.06224798508079"><ele>979.6</ele><time>2026-03-24T11:40:23Z</time></trkpt><trkpt lat="45.98634071925628" lon="12.06210937272221"><ele>984.8</ele><time>2026-03-24T11:40:24Z</time></trkpt><trkpt lat="45.986388810554594" lon="12.061982949381452"><ele>990.0</ele><time>2026-03-24T11:40:25Z</time></trkpt><trkpt lat="45.986458316000146" lon="12.061861533679116"><ele>990.0</ele><time>2026-03-24T11:40:26Z</time></trkpt><trkpt lat="45.98653534899835" lon="12.061759351869984"><ele>990.0</ele><time>2026-03-24T11:40:27Z</time></trkpt><trkpt lat="45.98660735444558" lon="12.061661550050209"><ele>990.0</ele><time>2026-03-24T11:40:28Z</time></trkpt><trkpt lat="45.98667744513988" lon="12.061554036785223"><ele>990.0</ele><time>2026-03-24T11:40:29Z</time></trkpt><trkpt lat="45.98674149338547" lon="12.06146685434648"><ele>990.0</ele><time>2026-03-24T11:40:30Z</time></trkpt><trkpt lat="45.98682042082077" lon="12.061399959850533"><ele>991.3333333333334</ele><time>2026-03-24T11:40:31Z</time></trkpt><trkpt lat="45.986914510076666" lon="12.061333457112953"><ele>992.6666666666667</ele><time>2026-03-24T11:40:32Z</time></trkpt><trkpt lat="45.98698800915025" lon="12.061283376770586"><ele>994.0</ele><time>2026-03-24T11:40:33Z</time></trkpt><trkpt lat="45.98704443121972" lon="12.061227194791616"><ele>995.3333333333334</ele><time>2026-03-24T11:40:34Z</time></trkpt><trkpt lat="45.987092444537026" lon="12.061152357817184"><ele>996.6666666666667</ele><time>2026-03-24T11:40:35.001Z</time></trkpt><trkpt lat="45.987156952732555" lon="12.061058320659082"><ele>998.0</ele><time>2026-03-24T11:40:36.001Z</time></trkpt><trkpt lat="45.987237312022586" lon="12.060986059041163"><ele>998.0000000000001</ele><time>2026-03-24T11:40:37.001Z</time></trkpt><trkpt lat="45.987306069840756" lon="12.060926928483557"><ele>998.0</ele><time>2026-03-24T11:40:38.001Z</time></trkpt><trkpt lat="45.98735986393212" lon="12.060875269171863"><ele>998.0</ele><time>2026-03-24T11:40:39.001Z</time></trkpt><trkpt lat="45.987413743569235" lon="12.060799294419425"><ele>998.0</ele><time>2026-03-24T11:40:41.001Z</time></trkpt><trkpt lat="45.98734239995821" lon="12.06076243467256"><ele>998.0000000000001</ele><time>2026-03-24T11:40:44.001Z</time></trkpt><trkpt lat="45.98727327250629" lon="12.06081003867708"><ele>998.0</ele><time>2026-03-24T11:40:47.001Z</time></trkpt><trkpt lat="45.987174843401185" lon="12.060825434204068"><ele>998.0000000000001</ele><time>2026-03-24T11:40:49.001Z</time></trkpt><trkpt lat="45.98711083175589" lon="12.060825179700393"><ele>998.0</ele><time>2026-03-24T11:40:50.001Z</time></trkpt><trkpt lat="45.98700871010597" lon="12.060845678547174"><ele>998.0</ele><time>2026-03-24T11:40:52.001Z</time></trkpt><trkpt lat="45.98693596387057" lon="12.060828321754002"><ele>998.0</ele><time>2026-03-24T11:40:53.001Z</time></trkpt><trkpt lat="45.98685694058677" lon="12.060825465173485"><ele>998.0000000000001</ele><time>2026-03-24T11:40:54.001Z</time></trkpt><trkpt lat="45.98678157498496" lon="12.060830861968975"><ele>998.0</ele><time>2026-03-24T11:40:55.001Z</time></trkpt><trkpt lat="45.98666694209018" lon="12.060879782467731"><ele>997.3333333333334</ele><time>2026-03-24T11:40:57.001Z</time></trkpt><trkpt lat="45.98661882678133" lon="12.060945185543412"><ele>996.6666666666667</ele><time>2026-03-24T11:40:58.001Z</time></trkpt><trkpt lat="45.986570162896015" lon="12.061039326672457"><ele>996.0</ele><time>2026-03-24T11:40:59.001Z</time></trkpt><trkpt lat="45.986521998051344" lon="12.061145775120396"><ele>995.3333333333333</ele><time>2026-03-24T11:41:00.001Z</time></trkpt><trkpt lat="45.98647006149209" lon="12.061262654841924"><ele>994.6666666666666</ele><time>2026-03-24T11:41:01.001Z</time></trkpt><trkpt lat="45.98642730629221" lon="12.061367277016545"><ele>994.0</ele><time>2026-03-24T11:41:02.001Z</time></trkpt><trkpt lat="45.98638081729243" lon="12.061478466491401"><ele>993.9999999999999</ele><time>2026-03-24T11:41:03.001Z</time></trkpt><trkpt lat="45.98634222959737" lon="12.061598882037428"><ele>994.0</ele><time>2026-03-24T11:41:04.001Z</time></trkpt><trkpt lat="45.98628696964168" lon="12.061705580340252"><ele>994.0</ele><time>2026-03-24T11:41:05.001Z</time></trkpt><trkpt lat="45.986238738043696" lon="12.061788907247562"><ele>994.0</ele><time>2026-03-24T11:41:06.001Z</time></trkpt><trkpt lat="45.98618404972566" lon="12.061882691973"><ele>993.9999999999999</ele><time>2026-03-24T11:41:07.001Z</time></trkpt><trkpt lat="45.986139707841936" lon="12.061970989263811"><ele>994.0</ele><time>2026-03-24T11:41:08.001Z</time></trkpt><trkpt lat="45.986096828476384" lon="12.06204687142529"><ele>993.6666666666666</ele><time>2026-03-24T11:41:09.001Z</time></trkpt><trkpt lat="45.986053754135106" lon="12.062126616658416"><ele>993.3333333333333</ele><time>2026-03-24T11:41:10.001Z</time></trkpt><trkpt lat="45.986006224116416" lon="12.062225020766794"><ele>993.0</ele><time>2026-03-24T11:41:11.001Z</time></trkpt><trkpt lat="45.98596250680733" lon="12.06229836042467"><ele>992.6666666666667</ele><time>2026-03-24T11:41:12.001Z</time></trkpt><trkpt lat="45.98591044937188" lon="12.062365605166779"><ele>992.3333333333334</ele><time>2026-03-24T11:41:13.001Z</time></trkpt><trkpt lat="45.98582417100996" lon="12.062466315194047"><ele>992.0</ele><time>2026-03-24T11:41:15.001Z</time></trkpt><trkpt lat="45.98572640793119" lon="12.062539013918185"><ele>992.0</ele><time>2026-03-24T11:41:17.001Z</time></trkpt><trkpt lat="45.98561454095777" lon="12.062584634388049"><ele>992.0</ele><time>2026-03-24T11:41:19.001Z</time></trkpt><trkpt lat="45.985546179053074" lon="12.062615170688156"><ele>992.0</ele><time>2026-03-24T11:41:20.001Z</time></trkpt><trkpt lat="45.985475297698805" lon="12.062641622045165"><ele>992.0</ele><time>2026-03-24T11:41:21.001Z</time></trkpt><trkpt lat="45.985349792171256" lon="12.062653165695664"><ele>992.0</ele><time>2026-03-24T11:41:23.001Z</time></trkpt><trkpt lat="45.98522330304007" lon="12.062654554613847"><ele>992.0000000000001</ele><time>2026-03-24T11:41:25.001Z</time></trkpt><trkpt lat="45.985154750341216" lon="12.062660328755259"><ele>992.0</ele><time>2026-03-24T11:41:26.001Z</time></trkpt><trkpt lat="45.9850836608498" lon="12.06263945230774"><ele>992.0</ele><time>2026-03-24T11:41:27.001Z</time></trkpt><trkpt lat="45.985017798276104" lon="12.06262612569091"><ele>992.0</ele><time>2026-03-24T11:41:28.001Z</time></trkpt><trkpt lat="45.98494335676038" lon="12.062600591334842"><ele>992.0000000000001</ele><time>2026-03-24T11:41:29.001Z</time></trkpt><trkpt lat="45.98487999987375" lon="12.062578234648175"><ele>992.0</ele><time>2026-03-24T11:41:30.001Z</time></trkpt><trkpt lat="45.984751148367806" lon="12.062519203312599"><ele>992.8333333333334</ele><time>2026-03-24T11:41:32.001Z</time></trkpt><trkpt lat="45.98468890089339" lon="12.062479477254971"><ele>993.6666666666667</ele><time>2026-03-24T11:41:33.001Z</time></trkpt><trkpt lat="45.9846203172781" lon="12.062437448841857"><ele>994.5</ele><time>2026-03-24T11:41:34.001Z</time></trkpt><trkpt lat="45.98454765402358" lon="12.062405640856554"><ele>995.3333333333333</ele><time>2026-03-24T11:41:35.001Z</time></trkpt><trkpt lat="45.98442891353099" lon="12.062347538209169"><ele>996.1666666666666</ele><time>2026-03-24T11:41:37.001Z</time></trkpt><trkpt lat="45.9843688705891" lon="12.062314186934131"><ele>997.0</ele><time>2026-03-24T11:41:38.001Z</time></trkpt><trkpt lat="45.98430690801293" lon="12.062273584740586"><ele>992.5714285714284</ele><time>2026-03-24T11:41:39.001Z</time></trkpt><trkpt lat="45.98423876098497" lon="12.062239430775856"><ele>988.1428571428571</ele><time>2026-03-24T11:41:40.001Z</time></trkpt><trkpt lat="45.984176566851225" lon="12.062190337678466"><ele>983.7142857142857</ele><time>2026-03-24T11:41:41.001Z</time></trkpt><trkpt lat="45.98410444535191" lon="12.062156388409768"><ele>979.2857142857142</ele><time>2026-03-24T11:41:42.001Z</time></trkpt><trkpt lat="45.984044079742944" lon="12.06209464298534"><ele>974.8571428571429</ele><time>2026-03-24T11:41:43.001Z</time></trkpt><trkpt lat="45.98398851033068" lon="12.062046176256048"><ele>970.4285714285714</ele><time>2026-03-24T11:41:44.001Z</time></trkpt><trkpt lat="45.983916601773075" lon="12.061965426280716"><ele>966.0</ele><time>2026-03-24T11:41:46.001Z</time></trkpt><trkpt lat="45.9838589931634" lon="12.061924967270752"><ele>966.0</ele><time>2026-03-24T11:41:48.001Z</time></trkpt><trkpt lat="45.98383006370895" lon="12.061833792340074"><ele>966.0</ele><time>2026-03-24T11:41:50.001Z</time></trkpt><trkpt lat="45.98391765129069" lon="12.061792199293507"><ele>966.0</ele><time>2026-03-24T11:41:53.001Z</time></trkpt><trkpt lat="45.983989275750986" lon="12.061821919151837"><ele>966.0</ele><time>2026-03-24T11:41:54.001Z</time></trkpt><trkpt lat="45.98405693658453" lon="12.061844661051754"><ele>966.0</ele><time>2026-03-24T11:41:55.001Z</time></trkpt><trkpt lat="45.98415061051913" lon="12.061841982326328"><ele>966.0</ele><time>2026-03-24T11:41:56.001Z</time></trkpt><trkpt lat="45.98425369856082" lon="12.061888485045694"><ele>964.6666666666666</ele><time>2026-03-24T11:41:58.001Z</time></trkpt><trkpt lat="45.98437657475742" lon="12.06196454203739"><ele>963.3333333333333</ele><time>2026-03-24T11:42:00.001Z</time></trkpt><trkpt lat="45.9844507397948" lon="12.061979598831005"><ele>962.0</ele><time>2026-03-24T11:42:01.001Z</time></trkpt><trkpt lat="45.984528980566864" lon="12.061995877804893"><ele>960.6666666666666</ele><time>2026-03-24T11:42:02.001Z</time></trkpt><trkpt lat="45.98459382996066" lon="12.062010827117708"><ele>959.3333333333333</ele><time>2026-03-24T11:42:03.001Z</time></trkpt><trkpt lat="45.9846640918089" lon="12.06201262084704"><ele>958.0</ele><time>2026-03-24T11:42:04.001Z</time></trkpt><trkpt lat="45.98473818673039" lon="12.062015202300202"><ele>957.9999999999999</ele><time>2026-03-24T11:42:05.001Z</time></trkpt><trkpt lat="45.98481648798069" lon="12.061983472243844"><ele>958.0</ele><time>2026-03-24T11:42:06.001Z</time></trkpt><trkpt lat="45.98489314802363" lon="12.061986270357428"><ele>958.0</ele><time>2026-03-24T11:42:07.001Z</time></trkpt><trkpt lat="45.9850000382032" lon="12.06196388114042"><ele>958.0</ele><time>2026-03-24T11:42:09.001Z</time></trkpt><trkpt lat="45.9850885403027" lon="12.061943417175042"><ele>957.9999999999999</ele><time>2026-03-24T11:42:10.001Z</time></trkpt><trkpt lat="45.98516024346618" lon="12.061930892810103"><ele>958.0</ele><time>2026-03-24T11:42:11.001Z</time></trkpt><trkpt lat="45.98522980656479" lon="12.06188626254389"><ele>958.1666666666666</ele><time>2026-03-24T11:42:12.001Z</time></trkpt><trkpt lat="45.98528645221226" lon="12.06183767424387"><ele>958.3333333333333</ele><time>2026-03-24T11:42:13.001Z</time></trkpt><trkpt lat="45.98534413179763" lon="12.061761594542123"><ele>958.5</ele><time>2026-03-24T11:42:14.001Z</time></trkpt><trkpt lat="45.98539578849092" lon="12.061686161673094"><ele>958.6666666666667</ele><time>2026-03-24T11:42:15.001Z</time></trkpt><trkpt lat="45.98544044857583" lon="12.061588475026145"><ele>958.8333333333334</ele><time>2026-03-24T11:42:16.001Z</time></trkpt><trkpt lat="45.985499675615095" lon="12.061509165541745"><ele>959.0</ele><time>2026-03-24T11:42:17.001Z</time></trkpt><trkpt lat="45.985533786423844" lon="12.061409886714761"><ele>959.0000000000001</ele><time>2026-03-24T11:42:18.001Z</time></trkpt><trkpt lat="45.98557554198064" lon="12.061325509187224"><ele>959.0</ele><time>2026-03-24T11:42:19.001Z</time></trkpt><trkpt lat="45.985609883972316" lon="12.061248459078394"><ele>959.0</ele><time>2026-03-24T11:42:20.001Z</time></trkpt><trkpt lat="45.98565248382523" lon="12.061172020538935"><ele>959.0</ele><time>2026-03-24T11:42:21.001Z</time></trkpt><trkpt lat="45.985705443840104" lon="12.06111745248426"><ele>959.0000000000001</ele><time>2026-03-24T11:42:22.001Z</time></trkpt><trkpt lat="45.98579866463961" lon="12.060965232276537"><ele>959.0</ele><time>2026-03-24T11:42:24.001Z</time></trkpt><trkpt lat="45.98579613715114" lon="12.060854628727116"><ele>960.5000000000001</ele><time>2026-03-24T11:42:25.001Z</time></trkpt><trkpt lat="45.98585267006042" lon="12.060689090058899"><ele>962.0</ele><time>2026-03-24T11:42:27.001Z</time></trkpt><trkpt lat="45.98588455954877" lon="12.060578625820863"><ele>963.5</ele><time>2026-03-24T11:42:28.001Z</time></trkpt><trkpt lat="45.98591495654941" lon="12.060478866973387"><ele>965.0</ele><time>2026-03-24T11:42:29.001Z</time></trkpt><trkpt lat="45.98593474484394" lon="12.060387876897048"><ele>966.5000000000001</ele><time>2026-03-24T11:42:30.001Z</time></trkpt><trkpt lat="45.98595059303689" lon="12.060294598793504"><ele>968.0</ele><time>2026-03-24T11:42:31.001Z</time></trkpt><trkpt lat="45.98598008603748" lon="12.060194518154567"><ele>968.0000000000001</ele><time>2026-03-24T11:42:32.001Z</time></trkpt><trkpt lat="45.985984374099374" lon="12.060096362638282"><ele>968.0</ele><time>2026-03-24T11:42:33.001Z</time></trkpt><trkpt lat="45.98598476130085" lon="12.059997873926802"><ele>968.0</ele><time>2026-03-24T11:42:34.001Z</time></trkpt><trkpt lat="45.98601229027928" lon="12.059817176050716"><ele>968.0</ele><time>2026-03-24T11:42:36.001Z</time></trkpt><trkpt lat="45.98602724786868" lon="12.05972821689399"><ele>968.0000000000001</ele><time>2026-03-24T11:42:37.001Z</time></trkpt><trkpt lat="45.98605023588509" lon="12.059638672148681"><ele>968.0</ele><time>2026-03-24T11:42:38.001Z</time></trkpt><trkpt lat="45.986112889489156" lon="12.05951133158301"><ele>962.2</ele><time>2026-03-24T11:42:40.001Z</time></trkpt><trkpt lat="45.98621327023819" lon="12.05944316088278"><ele>956.4</ele><time>2026-03-24T11:42:42.001Z</time></trkpt><trkpt lat="45.98618094392809" lon="12.059336339783853"><ele>950.6000000000001</ele><time>2026-03-24T11:42:46.001Z</time></trkpt><trkpt lat="45.98608769628744" lon="12.059339935733815"><ele>944.8000000000001</ele><time>2026-03-24T11:42:48.001Z</time></trkpt><trkpt lat="45.985993534872705" lon="12.059417798393945"><ele>939.0</ele><time>2026-03-24T11:42:50.001Z</time></trkpt><trkpt lat="45.985932379167295" lon="12.05954781149834"><ele>939.0</ele><time>2026-03-24T11:42:52.001Z</time></trkpt><trkpt lat="45.98586312846165" lon="12.059660074918838"><ele>939.0</ele><time>2026-03-24T11:42:54.001Z</time></trkpt><trkpt lat="45.9857953507346" lon="12.05980172906781"><ele>939.0</ele><time>2026-03-24T11:42:56.001Z</time></trkpt><trkpt lat="45.98574997174061" lon="12.059878996193438"><ele>939.0</ele><time>2026-03-24T11:42:57.001Z</time></trkpt><trkpt lat="45.985706066539954" lon="12.05996414558822"><ele>939.0</ele><time>2026-03-24T11:42:58.001Z</time></trkpt><trkpt lat="45.98566452075483" lon="12.060043452572186"><ele>939.0</ele><time>2026-03-24T11:42:59.001Z</time></trkpt><trkpt lat="45.98558875304474" lon="12.060187021511119"><ele>939.1428571428571</ele><time>2026-03-24T11:43:01.001Z</time></trkpt><trkpt lat="45.985536154332415" lon="12.06026697919366"><ele>939.2857142857142</ele><time>2026-03-24T11:43:02.001Z</time></trkpt><trkpt lat="45.985480757566634" lon="12.060349430758066"><ele>939.4285714285713</ele><time>2026-03-24T11:43:03.001Z</time></trkpt><trkpt lat="45.98542577967992" lon="12.060424286765217"><ele>939.5714285714286</ele><time>2026-03-24T11:43:04.001Z</time></trkpt><trkpt lat="45.985361161734545" lon="12.060486734651496"><ele>939.7142857142856</ele><time>2026-03-24T11:43:05.001Z</time></trkpt><trkpt lat="45.98532369918617" lon="12.060566679745717"><ele>939.8571428571428</ele><time>2026-03-24T11:43:06.001Z</time></trkpt><trkpt lat="45.985268889925585" lon="12.060633696794962"><ele>940.0</ele><time>2026-03-24T11:43:07.001Z</time></trkpt><trkpt lat="45.985216652222796" lon="12.060692844993374"><ele>940.0</ele><time>2026-03-24T11:43:08.001Z</time></trkpt><trkpt lat="45.98516502761759" lon="12.060750010560554"><ele>939.9999999999999</ele><time>2026-03-24T11:43:09.001Z</time></trkpt><trkpt lat="45.985105800335496" lon="12.060800182189512"><ele>940.0</ele><time>2026-03-24T11:43:10.001Z</time></trkpt><trkpt lat="45.98503802646602" lon="12.060828966951036"><ele>940.0</ele><time>2026-03-24T11:43:11.001Z</time></trkpt><trkpt lat="45.98497402858063" lon="12.060855700564035"><ele>939.9999999999999</ele><time>2026-03-24T11:43:12.001Z</time></trkpt><trkpt lat="45.984911477950504" lon="12.060878158265222"><ele>940.0</ele><time>2026-03-24T11:43:13.001Z</time></trkpt><trkpt lat="45.98484729966292" lon="12.060852142860961"><ele>940.0</ele><time>2026-03-24T11:43:14.001Z</time></trkpt><trkpt lat="45.984781167676594" lon="12.060814265046249"><ele>934.8571428571428</ele><time>2026-03-24T11:43:15.001Z</time></trkpt><trkpt lat="45.98472251392129" lon="12.060776383790365"><ele>929.7142857142856</ele><time>2026-03-24T11:43:16.001Z</time></trkpt><trkpt lat="45.98466286653339" lon="12.060740946709235"><ele>924.5714285714286</ele><time>2026-03-24T11:43:17.001Z</time></trkpt><trkpt lat="45.98461225276454" lon="12.060686801932622"><ele>919.4285714285713</ele><time>2026-03-24T11:43:18.001Z</time></trkpt><trkpt lat="45.98456531957853" lon="12.060625486087504"><ele>914.2857142857142</ele><time>2026-03-24T11:43:19.001Z</time></trkpt><trkpt lat="45.984489312391844" lon="12.060514783694103"><ele>909.1428571428571</ele><time>2026-03-24T11:43:21.001Z</time></trkpt><trkpt lat="45.984429418071954" lon="12.060469756388164"><ele>904.0</ele><time>2026-03-24T11:43:22.001Z</time></trkpt><trkpt lat="45.98433570467821" lon="12.06039721863858"><ele>904.0</ele><time>2026-03-24T11:43:24.001Z</time></trkpt><trkpt lat="45.98426943578185" lon="12.060333144707627"><ele>904.0000000000001</ele><time>2026-03-24T11:43:25.001Z</time></trkpt><trkpt lat="45.98418657819918" lon="12.06020396395845"><ele>904.0000000000001</ele><time>2026-03-24T11:43:27.001Z</time></trkpt><trkpt lat="45.98412632030755" lon="12.060138048315638"><ele>904.0</ele><time>2026-03-24T11:43:28.001Z</time></trkpt><trkpt lat="45.9840772808631" lon="12.060078861045389"><ele>904.0</ele><time>2026-03-24T11:43:29.001Z</time></trkpt><trkpt lat="45.98395955506575" lon="12.059978849478266"><ele>894.4000000000001</ele><time>2026-03-24T11:43:31.001Z</time></trkpt><trkpt lat="45.98389858263007" lon="12.059920761769689"><ele>884.8000000000001</ele><time>2026-03-24T11:43:32.001Z</time></trkpt><trkpt lat="45.98379483192255" lon="12.059825871719642"><ele>875.1999999999999</ele><time>2026-03-24T11:43:34.001Z</time></trkpt><trkpt lat="45.983711179748845" lon="12.05975830418861"><ele>865.5999999999999</ele><time>2026-03-24T11:43:36.001Z</time></trkpt><trkpt lat="45.98361957467317" lon="12.059673185803392"><ele>856.0</ele><time>2026-03-24T11:43:38.001Z</time></trkpt><trkpt lat="45.98356681556239" lon="12.059608435154813"><ele>856.0</ele><time>2026-03-24T11:43:39.001Z</time></trkpt><trkpt lat="45.983512181221016" lon="12.059561124265807"><ele>855.9999999999999</ele><time>2026-03-24T11:43:40.001Z</time></trkpt><trkpt lat="45.98339440536878" lon="12.0594654466118"><ele>855.9999999999999</ele><time>2026-03-24T11:43:42.001Z</time></trkpt><trkpt lat="45.98331164202657" lon="12.059408302134862"><ele>856.0</ele><time>2026-03-24T11:43:44.001Z</time></trkpt><trkpt lat="45.98321507877208" lon="12.059438996651783"><ele>856.0</ele><time>2026-03-24T11:43:46.001Z</time></trkpt><trkpt lat="45.983143873058296" lon="12.059485548631326"><ele>858.4</ele><time>2026-03-24T11:43:47.001Z</time></trkpt><trkpt lat="45.98306459245528" lon="12.059564622012642"><ele>860.8</ele><time>2026-03-24T11:43:48.001Z</time></trkpt><trkpt lat="45.98299019664094" lon="12.059634259199164"><ele>863.1999999999999</ele><time>2026-03-24T11:43:49.001Z</time></trkpt><trkpt lat="45.982926598559054" lon="12.059690325165558"><ele>865.5999999999999</ele><time>2026-03-24T11:43:50.001Z</time></trkpt><trkpt lat="45.98287335462263" lon="12.059750738101863"><ele>868.0</ele><time>2026-03-24T11:43:51.001Z</time></trkpt><trkpt lat="45.98276669519478" lon="12.059854577999815"><ele>868.0</ele><time>2026-03-24T11:43:53.001Z</time></trkpt><trkpt lat="45.98271442315273" lon="12.059907101205384"><ele>868.0</ele><time>2026-03-24T11:43:54.001Z</time></trkpt><trkpt lat="45.982664069767615" lon="12.059991667751376"><ele>868.0</ele><time>2026-03-24T11:43:55.001Z</time></trkpt><trkpt lat="45.98262052147299" lon="12.060070050181567"><ele>868.0</ele><time>2026-03-24T11:43:56.001Z</time></trkpt><trkpt lat="45.98258691996413" lon="12.060159034443242"><ele>868.0</ele><time>2026-03-24T11:43:57.001Z</time></trkpt><trkpt lat="45.98253893401265" lon="12.060239041522921"><ele>868.0</ele><time>2026-03-24T11:43:58.001Z</time></trkpt><trkpt lat="45.98249334350911" lon="12.060319521916876"><ele>868.0</ele><time>2026-03-24T11:43:59.001Z</time></trkpt><trkpt lat="45.982444375261956" lon="12.060384236224728"><ele>868.5714285714286</ele><time>2026-03-24T11:44:00.001Z</time></trkpt><trkpt lat="45.982389334155734" lon="12.06045228536844"><ele>869.1428571428571</ele><time>2026-03-24T11:44:01.001Z</time></trkpt><trkpt lat="45.98233165624901" lon="12.06051141152108"><ele>869.7142857142858</ele><time>2026-03-24T11:44:02.001Z</time></trkpt><trkpt lat="45.9822663209625" lon="12.060548679949623"><ele>870.2857142857142</ele><time>2026-03-24T11:44:03.001Z</time></trkpt><trkpt lat="45.98219760426693" lon="12.060558237196206"><ele>870.8571428571429</ele><time>2026-03-24T11:44:04.001Z</time></trkpt><trkpt lat="45.98211612993297" lon="12.06051678009475"><ele>871.4285714285714</ele><time>2026-03-24T11:44:05.001Z</time></trkpt><trkpt lat="45.982046617674136" lon="12.06046969414556"><ele>872.0</ele><time>2026-03-24T11:44:06.001Z</time></trkpt><trkpt lat="45.981968258238474" lon="12.060435345706123"><ele>872.0</ele><time>2026-03-24T11:44:07.001Z</time></trkpt><trkpt lat="45.98186484061741" lon="12.060389388974176"><ele>872.0</ele><time>2026-03-24T11:44:09.001Z</time></trkpt><trkpt lat="45.981791376395385" lon="12.06034097170412"><ele>872.0</ele><time>2026-03-24T11:44:11.001Z</time></trkpt><trkpt lat="45.98168134688439" lon="12.060390379368766"><ele>872.0</ele><time>2026-03-24T11:44:13.001Z</time></trkpt><trkpt lat="45.9816226822905" lon="12.060423687918"><ele>872.0</ele><time>2026-03-24T11:44:14.001Z</time></trkpt><trkpt lat="45.98151417236826" lon="12.060502395191953"><ele>873.6</ele><time>2026-03-24T11:44:16.001Z</time></trkpt><trkpt lat="45.981406515978556" lon="12.060529086834496"><ele>875.2</ele><time>2026-03-24T11:44:18.001Z</time></trkpt><trkpt lat="45.9813003545167" lon="12.060592015305728"><ele>876.8</ele><time>2026-03-24T11:44:20.001Z</time></trkpt><trkpt lat="45.98120156670536" lon="12.060648772243242"><ele>878.4</ele><time>2026-03-24T11:44:22.001Z</time></trkpt><trkpt lat="45.98113634280766" lon="12.06077649849671"><ele>880.0</ele><time>2026-03-24T11:44:24.001Z</time></trkpt><trkpt lat="45.98102869103363" lon="12.06083172518001"><ele>879.9999999999999</ele><time>2026-03-24T11:44:26.001Z</time></trkpt><trkpt lat="45.98096692852492" lon="12.060814131579328"><ele>880.0</ele><time>2026-03-24T11:44:27.001Z</time></trkpt><trkpt lat="45.980906761246814" lon="12.060767267520404"><ele>880.0</ele><time>2026-03-24T11:44:28.001Z</time></trkpt><trkpt lat="45.98085130630881" lon="12.060723829730902"><ele>880.0</ele><time>2026-03-24T11:44:29.001Z</time></trkpt><trkpt lat="45.98077110044028" lon="12.0606889738746"><ele>879.9999999999999</ele><time>2026-03-24T11:44:31.001Z</time></trkpt><trkpt lat="45.98065790086852" lon="12.060683770460365"><ele>880.0</ele><time>2026-03-24T11:44:33.001Z</time></trkpt><trkpt lat="45.980591953396356" lon="12.060703786657974"><ele>877.4999999999999</ele><time>2026-03-24T11:44:34.001Z</time></trkpt><trkpt lat="45.980529769080405" lon="12.060754600047261"><ele>875.0</ele><time>2026-03-24T11:44:35.001Z</time></trkpt><trkpt lat="45.98046263399282" lon="12.06078759820425"><ele>872.5</ele><time>2026-03-24T11:44:36.001Z</time></trkpt><trkpt lat="45.980385025967266" lon="12.060807982453317"><ele>870.0</ele><time>2026-03-24T11:44:37.001Z</time></trkpt><trkpt lat="45.980319440955135" lon="12.060801496750994"><ele>867.4999999999999</ele><time>2026-03-24T11:44:38.001Z</time></trkpt><trkpt lat="45.98022735377516" lon="12.060805975468977"><ele>865.0</ele><time>2026-03-24T11:44:40.001Z</time></trkpt><trkpt lat="45.980126795700926" lon="12.060775932738336"><ele>864.9999999999999</ele><time>2026-03-24T11:44:42.001Z</time></trkpt><trkpt lat="45.98002684840088" lon="12.060798830967624"><ele>865.0</ele><time>2026-03-24T11:44:44.001Z</time></trkpt><trkpt lat="45.979965373828406" lon="12.060828774973178"><ele>865.0</ele><time>2026-03-24T11:44:45.001Z</time></trkpt><trkpt lat="45.979878905049254" lon="12.060928467490688"><ele>865.0</ele><time>2026-03-24T11:44:47Z</time></trkpt><trkpt lat="45.97979887490155" lon="12.061024201556855"><ele>864.9999999999999</ele><time>2026-03-24T11:44:49Z</time></trkpt><trkpt lat="45.97974759792271" lon="12.061085443863103"><ele>865.0</ele><time>2026-03-24T11:44:50Z</time></trkpt><trkpt lat="45.97966637551768" lon="12.061223891184232"><ele>866.5714285714286</ele><time>2026-03-24T11:44:52Z</time></trkpt><trkpt lat="45.97961440222231" lon="12.061305865231525"><ele>868.1428571428571</ele><time>2026-03-24T11:44:53Z</time></trkpt><trkpt lat="45.97956575602756" lon="12.061384419451674"><ele>869.7142857142858</ele><time>2026-03-24T11:44:54Z</time></trkpt><trkpt lat="45.9795108272157" lon="12.061440843816321"><ele>871.2857142857142</ele><time>2026-03-24T11:44:55Z</time></trkpt><trkpt lat="45.97946509396676" lon="12.06152143440715"><ele>872.8571428571428</ele><time>2026-03-24T11:44:56Z</time></trkpt><trkpt lat="45.9794317986276" lon="12.061611685562195"><ele>874.4285714285714</ele><time>2026-03-24T11:44:57Z</time></trkpt><trkpt lat="45.97938588463882" lon="12.061680510512028"><ele>876.0</ele><time>2026-03-24T11:44:58Z</time></trkpt><trkpt lat="45.979305074474084" lon="12.06173392638412"><ele>876.0</ele><time>2026-03-24T11:45:00Z</time></trkpt><trkpt lat="45.979235403663765" lon="12.061828230791436"><ele>875.9999999999999</ele><time>2026-03-24T11:45:02Z</time></trkpt><trkpt lat="45.97915361684466" lon="12.061914763127287"><ele>875.9999999999999</ele><time>2026-03-24T11:45:04Z</time></trkpt><trkpt lat="45.97903856562317" lon="12.061994376579129"><ele>876.0</ele><time>2026-03-24T11:45:06Z</time></trkpt><trkpt lat="45.97892727736109" lon="12.062013611818408"><ele>876.0</ele><time>2026-03-24T11:45:08Z</time></trkpt><trkpt lat="45.97881271483014" lon="12.062037248274274"><ele>870.8333333333334</ele><time>2026-03-24T11:45:10Z</time></trkpt><trkpt lat="45.97869893509399" lon="12.062101754072872"><ele>865.6666666666667</ele><time>2026-03-24T11:45:12Z</time></trkpt><trkpt lat="45.97863870898965" lon="12.062168415480706"><ele>860.5</ele><time>2026-03-24T11:45:13Z</time></trkpt><trkpt lat="45.97856879674117" lon="12.062228217109434"><ele>855.3333333333334</ele><time>2026-03-24T11:45:14Z</time></trkpt><trkpt lat="45.97850170932683" lon="12.062262744311964"><ele>850.1666666666667</ele><time>2026-03-24T11:45:15Z</time></trkpt><trkpt lat="45.97843582891155" lon="12.062291139608954"><ele>845.0</ele><time>2026-03-24T11:45:16Z</time></trkpt><trkpt lat="45.97831534693867" lon="12.062339737160142"><ele>845.6</ele><time>2026-03-24T11:45:18.001Z</time></trkpt><trkpt lat="45.97820517576039" lon="12.062392751887538"><ele>846.2</ele><time>2026-03-24T11:45:20.001Z</time></trkpt><trkpt lat="45.97811710431935" lon="12.062451171818733"><ele>846.8</ele><time>2026-03-24T11:45:22.001Z</time></trkpt><trkpt lat="45.97804563503912" lon="12.062415461111742"><ele>847.4</ele><time>2026-03-24T11:45:24.001Z</time></trkpt><trkpt lat="45.97806550681059" lon="12.06228313955576"><ele>848.0</ele><time>2026-03-24T11:45:26.001Z</time></trkpt><trkpt lat="45.978147419791966" lon="12.062190736806725"><ele>846.0</ele><time>2026-03-24T11:45:28.001Z</time></trkpt><trkpt lat="45.978213154997704" lon="12.062096369344287"><ele>844.0</ele><time>2026-03-24T11:45:30.001Z</time></trkpt><trkpt lat="45.9782748976114" lon="12.062003544355607"><ele>842.0</ele><time>2026-03-24T11:45:32.001Z</time></trkpt><trkpt lat="45.978316986579394" lon="12.061914096767877"><ele>840.0</ele><time>2026-03-24T11:45:34.001Z</time></trkpt><trkpt lat="45.978277940537225" lon="12.06179368296109"><ele>838.0</ele><time>2026-03-24T11:47:02Z</time></trkpt><trkpt lat="45.97821690385136" lon="12.061677167118987"><ele>838.3333333333333</ele><time>2026-03-24T11:47:04Z</time></trkpt><trkpt lat="45.97816785847227" lon="12.061601919185643"><ele>838.6666666666666</ele><time>2026-03-24T11:47:05Z</time></trkpt><trkpt lat="45.978122011148365" lon="12.061523282630626"><ele>839.0</ele><time>2026-03-24T11:47:06Z</time></trkpt><trkpt lat="45.97804279372863" lon="12.061387627655897"><ele>839.3333333333333</ele><time>2026-03-24T11:47:08Z</time></trkpt><trkpt lat="45.97800000497698" lon="12.06132017816226"><ele>839.6666666666666</ele><time>2026-03-24T11:47:09Z</time></trkpt><trkpt lat="45.977967965257456" lon="12.06116070909468"><ele>840.0</ele><time>2026-03-24T11:47:11Z</time></trkpt><trkpt lat="45.977982509537895" lon="12.061061351499776"><ele>840.0</ele><time>2026-03-24T11:47:12Z</time></trkpt><trkpt lat="45.978005682501944" lon="12.060956804436456"><ele>840.0</ele><time>2026-03-24T11:47:13Z</time></trkpt><trkpt lat="45.978029449354814" lon="12.060852212332273"><ele>840.0</ele><time>2026-03-24T11:47:14Z</time></trkpt><trkpt lat="45.97804786643096" lon="12.060751727131958"><ele>840.0</ele><time>2026-03-24T11:47:15Z</time></trkpt><trkpt lat="45.97806944241844" lon="12.060648278084019"><ele>840.0</ele><time>2026-03-24T11:47:16Z</time></trkpt><trkpt lat="45.97812532476931" lon="12.060504735606568"><ele>840.0</ele><time>2026-03-24T11:47:18Z</time></trkpt><trkpt lat="45.97819389153027" lon="12.060431121243774"><ele>839.4</ele><time>2026-03-24T11:47:20Z</time></trkpt><trkpt lat="45.978241317474335" lon="12.0603326504423"><ele>838.8</ele><time>2026-03-24T11:48:09Z</time></trkpt><trkpt lat="45.97829805849317" lon="12.060196980054807"><ele>838.2</ele><time>2026-03-24T11:48:11Z</time></trkpt><trkpt lat="45.97834314299231" lon="12.060112775768292"><ele>837.6</ele><time>2026-03-24T11:48:12.001Z</time></trkpt><trkpt lat="45.97838606994269" lon="12.060043493652376"><ele>837.0</ele><time>2026-03-24T11:48:13.001Z</time></trkpt><trkpt lat="45.97849499302396" lon="12.059946564976304"><ele>837.0</ele><time>2026-03-24T11:48:15.001Z</time></trkpt><trkpt lat="45.97856139295213" lon="12.059917018997677"><ele>837.0</ele><time>2026-03-24T11:48:16.001Z</time></trkpt><trkpt lat="45.978624490051374" lon="12.059890492280195"><ele>837.0</ele><time>2026-03-24T11:48:17.001Z</time></trkpt><trkpt lat="45.97868486172621" lon="12.05985048283567"><ele>837.0</ele><time>2026-03-24T11:48:18.001Z</time></trkpt><trkpt lat="45.9787545884254" lon="12.059701503789908"><ele>837.0</ele><time>2026-03-24T11:48:20.001Z</time></trkpt><trkpt lat="45.978778435211204" lon="12.059590871227279"><ele>837.0</ele><time>2026-03-24T11:48:21.001Z</time></trkpt><trkpt lat="45.978809910688" lon="12.05949174102927"><ele>837.0</ele><time>2026-03-24T11:48:22Z</time></trkpt><trkpt lat="45.97885066927354" lon="12.059403027260094"><ele>837.0</ele><time>2026-03-24T11:48:23Z</time></trkpt><trkpt lat="45.978897471261234" lon="12.059327949898249"><ele>837.0</ele><time>2026-03-24T11:48:24Z</time></trkpt><trkpt lat="45.97896427009288" lon="12.05916942306086"><ele>837.0</ele><time>2026-03-24T11:48:26Z</time></trkpt><trkpt lat="45.978983445507176" lon="12.059054923790946"><ele>837.0</ele><time>2026-03-24T11:48:27Z</time></trkpt><trkpt lat="45.978990334398176" lon="12.058937501149696"><ele>837.0</ele><time>2026-03-24T11:48:28Z</time></trkpt><trkpt lat="45.97900393047468" lon="12.05882380763352"><ele>837.8333333333334</ele><time>2026-03-24T11:48:29Z</time></trkpt><trkpt lat="45.979035817377074" lon="12.05872743773368"><ele>838.6666666666667</ele><time>2026-03-24T11:48:30Z</time></trkpt><trkpt lat="45.97908518874427" lon="12.058641551411835"><ele>839.5</ele><time>2026-03-24T11:48:31Z</time></trkpt><trkpt lat="45.9791335312606" lon="12.058558668887091"><ele>840.3333333333334</ele><time>2026-03-24T11:48:32Z</time></trkpt><trkpt lat="45.979182477249985" lon="12.058458741487179"><ele>841.1666666666667</ele><time>2026-03-24T11:48:33Z</time></trkpt><trkpt lat="45.97921169441601" lon="12.058350964823276"><ele>842.0</ele><time>2026-03-24T11:48:34Z</time></trkpt><trkpt lat="45.979229848306886" lon="12.058218491269393"><ele>842.0000000000001</ele><time>2026-03-24T11:48:35Z</time></trkpt><trkpt lat="45.979251849090126" lon="12.058095391561206"><ele>842.0</ele><time>2026-03-24T11:48:36Z</time></trkpt><trkpt lat="45.979270160146875" lon="12.057980255491888"><ele>842.0</ele><time>2026-03-24T11:48:37Z</time></trkpt><trkpt lat="45.97929137510527" lon="12.057879687019659"><ele>842.0</ele><time>2026-03-24T11:48:38Z</time></trkpt><trkpt lat="45.97931808785926" lon="12.05777652952561"><ele>842.0000000000001</ele><time>2026-03-24T11:48:39Z</time></trkpt><trkpt lat="45.979328559190506" lon="12.057634242294204"><ele>842.0</ele><time>2026-03-24T11:48:40Z</time></trkpt><trkpt lat="45.979320290253085" lon="12.057517556795217"><ele>845.0000000000001</ele><time>2026-03-24T11:48:41Z</time></trkpt><trkpt lat="45.97932200228693" lon="12.057391251823855"><ele>848.0</ele><time>2026-03-24T11:48:42Z</time></trkpt><trkpt lat="45.97934594910459" lon="12.057287324242525"><ele>851.0</ele><time>2026-03-24T11:48:43Z</time></trkpt><trkpt lat="45.97939419315071" lon="12.0572166355812"><ele>854.0</ele><time>2026-03-24T11:48:44Z</time></trkpt><trkpt lat="45.97946072890055" lon="12.057164760755587"><ele>857.0000000000001</ele><time>2026-03-24T11:48:45Z</time></trkpt><trkpt lat="45.979551978193754" lon="12.0570937595947"><ele>860.0</ele><time>2026-03-24T11:48:46Z</time></trkpt><trkpt lat="45.979645425148505" lon="12.057031737963339"><ele>860.0</ele><time>2026-03-24T11:48:47Z</time></trkpt><trkpt lat="45.97970691079852" lon="12.056946861994199"><ele>860.0</ele><time>2026-03-24T11:48:48Z</time></trkpt><trkpt lat="45.979778537954076" lon="12.056840265112664"><ele>860.0</ele><time>2026-03-24T11:48:49Z</time></trkpt><trkpt lat="45.97983994502384" lon="12.056722472321523"><ele>860.0</ele><time>2026-03-24T11:48:50Z</time></trkpt><trkpt lat="45.979923712901076" lon="12.056638057343864"><ele>860.0</ele><time>2026-03-24T11:48:51Z</time></trkpt><trkpt lat="45.97997817329174" lon="12.056551626833185"><ele>858.4</ele><time>2026-03-24T11:48:52Z</time></trkpt><trkpt lat="45.98005660463681" lon="12.056479891667202"><ele>856.8</ele><time>2026-03-24T11:48:53Z</time></trkpt><trkpt lat="45.98012215375824" lon="12.0563936652406"><ele>855.2</ele><time>2026-03-24T11:48:54Z</time></trkpt><trkpt lat="45.98019221670108" lon="12.056301713272179"><ele>853.6</ele><time>2026-03-24T11:48:55Z</time></trkpt><trkpt lat="45.98025993952851" lon="12.056211066874294"><ele>852.0</ele><time>2026-03-24T11:48:56Z</time></trkpt><trkpt lat="45.98030352198141" lon="12.056110463050578"><ele>852.0</ele><time>2026-03-24T11:48:57Z</time></trkpt><trkpt lat="45.98034674735215" lon="12.056012389994383"><ele>852.0</ele><time>2026-03-24T11:48:58Z</time></trkpt><trkpt lat="45.980379101437364" lon="12.055875574559353"><ele>852.0</ele><time>2026-03-24T11:48:59Z</time></trkpt><trkpt lat="45.98039021260897" lon="12.055721203119974"><ele>852.0</ele><time>2026-03-24T11:49:00Z</time></trkpt><trkpt lat="45.98042040233421" lon="12.055581424538646"><ele>852.0</ele><time>2026-03-24T11:49:01Z</time></trkpt><trkpt lat="45.98047009698804" lon="12.055447265660542"><ele>856.6</ele><time>2026-03-24T11:49:02Z</time></trkpt><trkpt lat="45.98050648095047" lon="12.055336676370397"><ele>861.2</ele><time>2026-03-24T11:49:03Z</time></trkpt><trkpt lat="45.9805504992827" lon="12.055239604724992"><ele>865.8</ele><time>2026-03-24T11:49:04Z</time></trkpt><trkpt lat="45.98061111751207" lon="12.055139254076959"><ele>870.4</ele><time>2026-03-24T11:49:05Z</time></trkpt><trkpt lat="45.98068406591381" lon="12.0550273970244"><ele>875.0</ele><time>2026-03-24T11:49:06Z</time></trkpt><trkpt lat="45.9807438764358" lon="12.05491472321293"><ele>877.0000000000001</ele><time>2026-03-24T11:49:07Z</time></trkpt><trkpt lat="45.98080924550458" lon="12.0548251760017"><ele>879.0</ele><time>2026-03-24T11:49:08Z</time></trkpt><trkpt lat="45.98086396470152" lon="12.054719279138935"><ele>881.0</ele><time>2026-03-24T11:49:09Z</time></trkpt><trkpt lat="45.980914324363034" lon="12.054620126724275"><ele>883.0</ele><time>2026-03-24T11:49:10Z</time></trkpt><trkpt lat="45.98096244896942" lon="12.054530107101987"><ele>885.0000000000001</ele><time>2026-03-24T11:49:11Z</time></trkpt><trkpt lat="45.98099805177193" lon="12.054438195125863"><ele>887.0</ele><time>2026-03-24T11:49:12Z</time></trkpt><trkpt lat="45.98103286722351" lon="12.054287478540644"><ele>886.4000000000001</ele><time>2026-03-24T11:49:14Z</time></trkpt><trkpt lat="45.98099298929312" lon="12.054163442800316"><ele>885.8000000000001</ele><time>2026-03-24T11:49:16Z</time></trkpt><trkpt lat="45.98092495261554" lon="12.05401272753787"><ele>885.2</ele><time>2026-03-24T11:49:18Z</time></trkpt><trkpt lat="45.980880560019976" lon="12.053911230372691"><ele>884.6</ele><time>2026-03-24T11:49:19Z</time></trkpt><trkpt lat="45.98083835114326" lon="12.053804285724837"><ele>884.0</ele><time>2026-03-24T11:49:20Z</time></trkpt><trkpt lat="45.98079695315762" lon="12.053709714119803"><ele>884.0</ele><time>2026-03-24T11:49:21Z</time></trkpt><trkpt lat="45.98076264823531" lon="12.053633284738769"><ele>884.0000000000001</ele><time>2026-03-24T11:49:22Z</time></trkpt><trkpt lat="45.98068474892987" lon="12.053525351536734"><ele>884.0000000000001</ele><time>2026-03-24T11:49:24Z</time></trkpt><trkpt lat="45.980613861184914" lon="12.053502259858597"><ele>884.0</ele><time>2026-03-24T11:49:25Z</time></trkpt><trkpt lat="45.980517420072694" lon="12.053482446757172"><ele>884.0</ele><time>2026-03-24T11:49:26Z</time></trkpt><trkpt lat="45.9804110020528" lon="12.053442489317664"><ele>884.0000000000001</ele><time>2026-03-24T11:49:27Z</time></trkpt><trkpt lat="45.980318334366075" lon="12.053394645570016"><ele>884.0</ele><time>2026-03-24T11:49:28Z</time></trkpt><trkpt lat="45.980258178340804" lon="12.0533591490947"><ele>884.0</ele><time>2026-03-24T11:49:29Z</time></trkpt><trkpt lat="45.98018385507297" lon="12.053302607353016"><ele>884.0</ele><time>2026-03-24T11:49:30Z</time></trkpt><trkpt lat="45.98010523155146" lon="12.05326589856432"><ele>884.0000000000001</ele><time>2026-03-24T11:49:31Z</time></trkpt><trkpt lat="45.98003514612535" lon="12.05322542369701"><ele>884.0</ele><time>2026-03-24T11:49:32Z</time></trkpt><trkpt lat="45.979971644177574" lon="12.053200828250851"><ele>885.5000000000001</ele><time>2026-03-24T11:49:33Z</time></trkpt><trkpt lat="45.979896617483156" lon="12.053156188048549"><ele>887.0</ele><time>2026-03-24T11:49:36Z</time></trkpt><trkpt lat="45.97990756178249" lon="12.05305784663091"><ele>888.5</ele><time>2026-03-24T11:49:38Z</time></trkpt><trkpt lat="45.979972770629615" lon="12.052952311433849"><ele>890.0</ele><time>2026-03-24T11:49:40Z</time></trkpt><trkpt lat="45.98004571770305" lon="12.052860670065629"><ele>891.5000000000001</ele><time>2026-03-24T11:49:42Z</time></trkpt><trkpt lat="45.98012054997583" lon="12.05280402906406"><ele>893.0</ele><time>2026-03-24T11:49:44Z</time></trkpt><trkpt lat="45.98020686049845" lon="12.052769992329058"><ele>893.0</ele><time>2026-03-24T11:49:57Z</time></trkpt><trkpt lat="45.98026633825344" lon="12.052739563073098"><ele>893.0</ele><time>2026-03-24T11:49:58Z</time></trkpt><trkpt lat="45.98038371901631" lon="12.052666023108868"><ele>893.0</ele><time>2026-03-24T11:50:00Z</time></trkpt><trkpt lat="45.98050842758759" lon="12.052578741336001"><ele>893.0</ele><time>2026-03-24T11:50:02Z</time></trkpt><trkpt lat="45.98063266781744" lon="12.052483274511726"><ele>894.8333333333334</ele><time>2026-03-24T11:50:04Z</time></trkpt><trkpt lat="45.98071123313486" lon="12.052435093906002"><ele>896.6666666666667</ele><time>2026-03-24T11:50:05Z</time></trkpt><trkpt lat="45.98079061554674" lon="12.052409365038038"><ele>898.5</ele><time>2026-03-24T11:50:06Z</time></trkpt><trkpt lat="45.9808614396087" lon="12.052386436318182"><ele>900.3333333333333</ele><time>2026-03-24T11:50:07Z</time></trkpt><trkpt lat="45.98093281409593" lon="12.05236970657073"><ele>902.1666666666666</ele><time>2026-03-24T11:50:08Z</time></trkpt><trkpt lat="45.98099913420543" lon="12.05233830679243"><ele>904.0</ele><time>2026-03-24T11:50:09Z</time></trkpt><trkpt lat="45.98107145889719" lon="12.052322003720146"><ele>903.9999999999999</ele><time>2026-03-24T11:50:10Z</time></trkpt><trkpt lat="45.98113897895021" lon="12.052308730198908"><ele>904.0</ele><time>2026-03-24T11:50:11Z</time></trkpt><trkpt lat="45.981211550382085" lon="12.052302905392994"><ele>904.0</ele><time>2026-03-24T11:50:12Z</time></trkpt><trkpt lat="45.981289089594625" lon="12.052303096754494"><ele>904.0</ele><time>2026-03-24T11:50:13Z</time></trkpt><trkpt lat="45.98136522601774" lon="12.052325319948206"><ele>903.9999999999999</ele><time>2026-03-24T11:50:14Z</time></trkpt><trkpt lat="45.98144407083553" lon="12.05229558764558"><ele>904.0</ele><time>2026-03-24T11:50:15Z</time></trkpt><trkpt lat="45.9815207456036" lon="12.05231116587572"><ele>903.9999999999999</ele><time>2026-03-24T11:50:16Z</time></trkpt><trkpt lat="45.98159578840383" lon="12.052327991843462"><ele>904.0</ele><time>2026-03-24T11:50:17Z</time></trkpt><trkpt lat="45.981673412307025" lon="12.05233855776434"><ele>904.0</ele><time>2026-03-24T11:50:18Z</time></trkpt><trkpt lat="45.98174549623067" lon="12.052351936067497"><ele>904.0</ele><time>2026-03-24T11:50:19Z</time></trkpt><trkpt lat="45.981826641367306" lon="12.052360935032711"><ele>903.9999999999999</ele><time>2026-03-24T11:50:20Z</time></trkpt><trkpt lat="45.981893662596555" lon="12.052378884755715"><ele>904.0</ele><time>2026-03-24T11:50:21Z</time></trkpt><trkpt lat="45.98197046514799" lon="12.052393438838067"><ele>896.3333333333333</ele><time>2026-03-24T11:50:22Z</time></trkpt><trkpt lat="45.98203884798513" lon="12.05239721272682"><ele>888.6666666666666</ele><time>2026-03-24T11:50:23Z</time></trkpt><trkpt lat="45.98210695411592" lon="12.052406373488656"><ele>881.0</ele><time>2026-03-24T11:50:24Z</time></trkpt><trkpt lat="45.98217291766171" lon="12.052417563265605"><ele>873.3333333333333</ele><time>2026-03-24T11:50:25Z</time></trkpt><trkpt lat="45.982243077752784" lon="12.052436754151424"><ele>865.6666666666666</ele><time>2026-03-24T11:50:26Z</time></trkpt><trkpt lat="45.98236002959721" lon="12.052458100257395"><ele>858.0</ele><time>2026-03-24T11:50:28Z</time></trkpt><trkpt lat="45.982427046097264" lon="12.05244608415527"><ele>858.0</ele><time>2026-03-24T11:50:29Z</time></trkpt><trkpt lat="45.98251211685298" lon="12.052406528113346"><ele>858.0</ele><time>2026-03-24T11:50:30Z</time></trkpt><trkpt lat="45.98258872889695" lon="12.052302019925197"><ele>858.0</ele><time>2026-03-24T11:50:32Z</time></trkpt><trkpt lat="45.98260162963191" lon="12.052114822629122"><ele>858.0</ele><time>2026-03-24T11:50:34Z</time></trkpt><trkpt lat="45.98258204616607" lon="12.052010755422137"><ele>858.0</ele><time>2026-03-24T11:50:35Z</time></trkpt><trkpt lat="45.98255014087832" lon="12.05189604913512"><ele>858.0</ele><time>2026-03-24T11:50:36Z</time></trkpt><trkpt lat="45.982523485978184" lon="12.051754076730063"><ele>858.0</ele><time>2026-03-24T11:50:37Z</time></trkpt><trkpt lat="45.982503242679826" lon="12.051643080449148"><ele>858.0</ele><time>2026-03-24T11:50:38Z</time></trkpt><trkpt lat="45.98248257347255" lon="12.05154355180701"><ele>858.0</ele><time>2026-03-24T11:50:39Z</time></trkpt><trkpt lat="45.98246462691708" lon="12.051428390413854"><ele>858.0</ele><time>2026-03-24T11:50:40Z</time></trkpt><trkpt lat="45.98245306171392" lon="12.051326296696358"><ele>858.0</ele><time>2026-03-24T11:50:41Z</time></trkpt><trkpt lat="45.9824531811034" lon="12.051228891394748"><ele>857.7142857142858</ele><time>2026-03-24T11:50:42Z</time></trkpt><trkpt lat="45.9824443446503" lon="12.051122862121785"><ele>857.4285714285714</ele><time>2026-03-24T11:50:43Z</time></trkpt><trkpt lat="45.98243778431002" lon="12.051017408283572"><ele>857.1428571428571</ele><time>2026-03-24T11:50:44Z</time></trkpt><trkpt lat="45.98243070343541" lon="12.050916583840165"><ele>856.8571428571429</ele><time>2026-03-24T11:50:45Z</time></trkpt><trkpt lat="45.98243055464057" lon="12.050803856533864"><ele>856.5714285714286</ele><time>2026-03-24T11:50:46Z</time></trkpt><trkpt lat="45.982430699022736" lon="12.05070669835025"><ele>856.2857142857143</ele><time>2026-03-24T11:50:47Z</time></trkpt><trkpt lat="45.98244244880862" lon="12.050590084322629"><ele>856.0</ele><time>2026-03-24T11:50:48Z</time></trkpt><trkpt lat="45.98245900899693" lon="12.050480374207357"><ele>853.4999999999999</ele><time>2026-03-24T11:50:49Z</time></trkpt><trkpt lat="45.98247412014849" lon="12.050373792522697"><ele>851.0</ele><time>2026-03-24T11:50:50Z</time></trkpt><trkpt lat="45.98252181133746" lon="12.050217421965709"><ele>848.5</ele><time>2026-03-24T11:50:52Z</time></trkpt><trkpt lat="45.98257636882806" lon="12.050166549817488"><ele>846.0</ele><time>2026-03-24T11:50:53Z</time></trkpt><trkpt lat="45.98264007707882" lon="12.050164696430656"><ele>843.4999999999999</ele><time>2026-03-24T11:50:54Z</time></trkpt><trkpt lat="45.982704465665606" lon="12.050185424277789"><ele>841.0</ele><time>2026-03-24T11:50:55Z</time></trkpt><trkpt lat="45.9827845657892" lon="12.050194323454951"><ele>840.9999999999999</ele><time>2026-03-24T11:50:56Z</time></trkpt><trkpt lat="45.9828605307445" lon="12.05018949590192"><ele>841.0</ele><time>2026-03-24T11:50:57Z</time></trkpt><trkpt lat="45.98295107238784" lon="12.050168047235948"><ele>841.0</ele><time>2026-03-24T11:50:58Z</time></trkpt><trkpt lat="45.98303354064111" lon="12.050127621547995"><ele>841.0</ele><time>2026-03-24T11:50:59Z</time></trkpt><trkpt lat="45.98311258651142" lon="12.050088365243079"><ele>840.9999999999999</ele><time>2026-03-24T11:51:00Z</time></trkpt><trkpt lat="45.98319188588693" lon="12.050053984654703"><ele>841.0</ele><time>2026-03-24T11:51:01Z</time></trkpt><trkpt lat="45.98333134573464" lon="12.050028013306248"><ele>836.8333333333333</ele><time>2026-03-24T11:51:03Z</time></trkpt><trkpt lat="45.98339951024067" lon="12.050002332019426"><ele>832.6666666666666</ele><time>2026-03-24T11:51:04Z</time></trkpt><trkpt lat="45.983465320597546" lon="12.049964416083085"><ele>828.5</ele><time>2026-03-24T11:51:05Z</time></trkpt><trkpt lat="45.98351666053353" lon="12.04991113961525"><ele>824.3333333333333</ele><time>2026-03-24T11:51:06Z</time></trkpt><trkpt lat="45.983565975838054" lon="12.049819871426054"><ele>820.1666666666666</ele><time>2026-03-24T11:51:07Z</time></trkpt><trkpt lat="45.98362246441392" lon="12.049702386467349"><ele>816.0</ele><time>2026-03-24T11:51:08Z</time></trkpt><trkpt lat="45.983686105650044" lon="12.049601791910185"><ele>816.0</ele><time>2026-03-24T11:51:09Z</time></trkpt><trkpt lat="45.983744110641005" lon="12.049537338202361"><ele>816.0</ele><time>2026-03-24T11:51:10Z</time></trkpt><trkpt lat="45.98381281661739" lon="12.049464212280062"><ele>816.0</ele><time>2026-03-24T11:51:11Z</time></trkpt><trkpt lat="45.98387879708042" lon="12.049378536628996"><ele>816.0</ele><time>2026-03-24T11:51:12Z</time></trkpt><trkpt lat="45.983939992406604" lon="12.049284777375819"><ele>816.0</ele><time>2026-03-24T11:51:13Z</time></trkpt><trkpt lat="45.98399317312898" lon="12.049193660187475"><ele>816.0</ele><time>2026-03-24T11:51:14Z</time></trkpt><trkpt lat="45.9840392854812" lon="12.049117248170633"><ele>818.8571428571429</ele><time>2026-03-24T11:51:15Z</time></trkpt><trkpt lat="45.984088119418885" lon="12.04903437211021"><ele>821.7142857142858</ele><time>2026-03-24T11:51:16Z</time></trkpt><trkpt lat="45.98413151413018" lon="12.048955143872346"><ele>824.5714285714286</ele><time>2026-03-24T11:51:17Z</time></trkpt><trkpt lat="45.9841727828961" lon="12.048883503113656"><ele>827.4285714285714</ele><time>2026-03-24T11:51:18Z</time></trkpt><trkpt lat="45.984217794228975" lon="12.048795134332"><ele>830.2857142857142</ele><time>2026-03-24T11:51:19Z</time></trkpt><trkpt lat="45.98426767812117" lon="12.048720689140044"><ele>833.1428571428571</ele><time>2026-03-24T11:51:20Z</time></trkpt><trkpt lat="45.98430821154393" lon="12.048638553999954"><ele>836.0</ele><time>2026-03-24T11:51:21Z</time></trkpt><trkpt lat="45.98435070266195" lon="12.048554026411818"><ele>831.3333333333334</ele><time>2026-03-24T11:51:22Z</time></trkpt><trkpt lat="45.9843922837988" lon="12.048459722019391"><ele>826.6666666666667</ele><time>2026-03-24T11:51:23Z</time></trkpt><trkpt lat="45.98442125401819" lon="12.048364524564493"><ele>822.0</ele><time>2026-03-24T11:51:24Z</time></trkpt><trkpt lat="45.98444134581244" lon="12.04827460578685"><ele>817.3333333333333</ele><time>2026-03-24T11:51:25Z</time></trkpt><trkpt lat="45.98443017191274" lon="12.048078134764424"><ele>812.6666666666666</ele><time>2026-03-24T11:51:27Z</time></trkpt><trkpt lat="45.98441164035359" lon="12.047951636753623"><ele>808.0</ele><time>2026-03-24T11:51:28Z</time></trkpt><trkpt lat="45.98440243130794" lon="12.047857357448509"><ele>807.9999999999999</ele><time>2026-03-24T11:51:29Z</time></trkpt><trkpt lat="45.98438843227852" lon="12.047758665069852"><ele>808.0</ele><time>2026-03-24T11:51:30Z</time></trkpt><trkpt lat="45.984369624683985" lon="12.047605767670781"><ele>808.0</ele><time>2026-03-24T11:51:32Z</time></trkpt><trkpt lat="45.98445403716988" lon="12.04753357928795"><ele>808.0</ele><time>2026-03-24T11:51:34Z</time></trkpt><trkpt lat="45.98452875240822" lon="12.047508515455585"><ele>807.9999999999999</ele><time>2026-03-24T11:51:35Z</time></trkpt><trkpt lat="45.98460493209187" lon="12.04747973959259"><ele>808.0</ele><time>2026-03-24T11:51:36Z</time></trkpt><trkpt lat="45.9846721890298" lon="12.04744321095444"><ele>805.7142857142857</ele><time>2026-03-24T11:51:37Z</time></trkpt><trkpt lat="45.98474419716688" lon="12.047421726000197"><ele>803.4285714285713</ele><time>2026-03-24T11:51:38Z</time></trkpt><trkpt lat="45.98481561960891" lon="12.047398789021631"><ele>801.1428571428571</ele><time>2026-03-24T11:51:39Z</time></trkpt><trkpt lat="45.984891987857765" lon="12.047395122096752"><ele>798.8571428571429</ele><time>2026-03-24T11:51:40Z</time></trkpt><trkpt lat="45.98495748037082" lon="12.047390327028657"><ele>796.5714285714286</ele><time>2026-03-24T11:51:41Z</time></trkpt><trkpt lat="45.98502944219052" lon="12.047412644890704"><ele>794.2857142857143</ele><time>2026-03-24T11:51:42Z</time></trkpt><trkpt lat="45.98510086685461" lon="12.047440721619529"><ele>792.0</ele><time>2026-03-24T11:51:43Z</time></trkpt><trkpt lat="45.98516402281591" lon="12.047454893526721"><ele>792.0</ele><time>2026-03-24T11:51:44Z</time></trkpt><trkpt lat="45.985293429603495" lon="12.047446326339449"><ele>792.0</ele><time>2026-03-24T11:51:46Z</time></trkpt><trkpt lat="45.98535663909421" lon="12.047412802462144"><ele>792.0</ele><time>2026-03-24T11:51:47Z</time></trkpt><trkpt lat="45.98540894767753" lon="12.047291057119661"><ele>792.0</ele><time>2026-03-24T11:51:49Z</time></trkpt><trkpt lat="45.98541687731514" lon="12.047188024483958"><ele>792.0</ele><time>2026-03-24T11:51:51Z</time></trkpt><trkpt lat="45.98542826485522" lon="12.047084783766511"><ele>792.0</ele><time>2026-03-24T11:51:54Z</time></trkpt><trkpt lat="45.98547284155045" lon="12.046991540494314"><ele>792.0</ele><time>2026-03-24T11:51:57Z</time></trkpt><trkpt lat="45.98554487464151" lon="12.046903505128398"><ele>792.0</ele><time>2026-03-24T11:51:59Z</time></trkpt><trkpt lat="45.98561157647468" lon="12.04682583267792"><ele>792.0</ele><time>2026-03-24T11:52:01Z</time></trkpt><trkpt lat="45.98566024417988" lon="12.046709776561764"><ele>792.0</ele><time>2026-03-24T11:52:03Z</time></trkpt><trkpt lat="45.98570829024063" lon="12.046588027138876"><ele>792.0</ele><time>2026-03-24T11:52:05Z</time></trkpt><trkpt lat="45.985765861415615" lon="12.046474180301335"><ele>797.2</ele><time>2026-03-24T11:52:07Z</time></trkpt><trkpt lat="45.98584378817347" lon="12.046373891982103"><ele>802.4000000000001</ele><time>2026-03-24T11:52:09Z</time></trkpt><trkpt lat="45.98592266387231" lon="12.046304934985686"><ele>807.5999999999999</ele><time>2026-03-24T11:52:11Z</time></trkpt><trkpt lat="45.98598286756503" lon="12.04623341083229"><ele>812.8</ele><time>2026-03-24T11:52:13Z</time></trkpt><trkpt lat="45.98603915812018" lon="12.046134071681811"><ele>818.0</ele><time>2026-03-24T11:52:15Z</time></trkpt><trkpt lat="45.986098960252036" lon="12.046029762156936"><ele>811.4</ele><time>2026-03-24T11:52:17Z</time></trkpt><trkpt lat="45.98616042280363" lon="12.045905375818327"><ele>804.8</ele><time>2026-03-24T11:52:19Z</time></trkpt><trkpt lat="45.98622727447072" lon="12.045764600773584"><ele>798.2</ele><time>2026-03-24T11:52:21Z</time></trkpt><trkpt lat="45.98628082918484" lon="12.045597691430428"><ele>791.6</ele><time>2026-03-24T11:52:23Z</time></trkpt><trkpt lat="45.98631268551526" lon="12.045504980122008"><ele>785.0</ele><time>2026-03-24T11:52:24Z</time></trkpt><trkpt lat="45.986337432723396" lon="12.045413542905981"><ele>785.0000000000001</ele><time>2026-03-24T11:52:25Z</time></trkpt><trkpt lat="45.98637909150006" lon="12.045320335402858"><ele>785.0</ele><time>2026-03-24T11:52:26Z</time></trkpt><trkpt lat="45.98642002559989" lon="12.0452295977502"><ele>785.0</ele><time>2026-03-24T11:52:27Z</time></trkpt><trkpt lat="45.98646751244903" lon="12.045130624396448"><ele>785.0</ele><time>2026-03-24T11:52:28Z</time></trkpt><trkpt lat="45.98651228021404" lon="12.04504583441723"><ele>785.0000000000001</ele><time>2026-03-24T11:52:29Z</time></trkpt><trkpt lat="45.98655480246552" lon="12.044961594303997"><ele>785.0</ele><time>2026-03-24T11:52:30Z</time></trkpt><trkpt lat="45.98658929865114" lon="12.044854340346603"><ele>788.6666666666667</ele><time>2026-03-24T11:52:31Z</time></trkpt><trkpt lat="45.986628425658154" lon="12.0447401723942"><ele>792.3333333333334</ele><time>2026-03-24T11:52:32Z</time></trkpt><trkpt lat="45.986667037166924" lon="12.04462055029563"><ele>796.0</ele><time>2026-03-24T11:52:33Z</time></trkpt><trkpt lat="45.9867065611465" lon="12.044515049608416"><ele>799.6666666666667</ele><time>2026-03-24T11:52:34Z</time></trkpt><trkpt lat="45.98676124600588" lon="12.044411184573452"><ele>803.3333333333334</ele><time>2026-03-24T11:52:35Z</time></trkpt><trkpt lat="45.986812509393125" lon="12.044326782746955"><ele>807.0</ele><time>2026-03-24T11:52:36Z</time></trkpt><trkpt lat="45.98685430946354" lon="12.044238078262545"><ele>805.0000000000001</ele><time>2026-03-24T11:52:37Z</time></trkpt><trkpt lat="45.98689797537776" lon="12.04414816198629"><ele>803.0</ele><time>2026-03-24T11:52:38Z</time></trkpt><trkpt lat="45.98695355952664" lon="12.044065798253826"><ele>801.0</ele><time>2026-03-24T11:52:39Z</time></trkpt><trkpt lat="45.987004649438724" lon="12.043986556768719"><ele>799.0</ele><time>2026-03-24T11:52:40Z</time></trkpt><trkpt lat="45.98705777889578" lon="12.04391741116091"><ele>797.0</ele><time>2026-03-24T11:52:41Z</time></trkpt><trkpt lat="45.98711081482059" lon="12.043853834640537"><ele>795.0000000000001</ele><time>2026-03-24T11:52:42Z</time></trkpt><trkpt lat="45.987156079835714" lon="12.043773360030897"><ele>793.0</ele><time>2026-03-24T11:52:43Z</time></trkpt><trkpt lat="45.98723411468623" lon="12.043634795870295"><ele>792.9999999999999</ele><time>2026-03-24T11:52:45Z</time></trkpt><trkpt lat="45.98727372994706" lon="12.043561115114555"><ele>793.0</ele><time>2026-03-24T11:52:46Z</time></trkpt><trkpt lat="45.98731550010029" lon="12.043482440367095"><ele>793.0</ele><time>2026-03-24T11:52:47Z</time></trkpt><trkpt lat="45.98736374416197" lon="12.043412511427155"><ele>793.0</ele><time>2026-03-24T11:52:48Z</time></trkpt><trkpt lat="45.9874732927291" lon="12.04332179144616"><ele>792.9999999999999</ele><time>2026-03-24T11:52:50Z</time></trkpt><trkpt lat="45.98756581448905" lon="12.043250517325802"><ele>793.0</ele><time>2026-03-24T11:52:52Z</time></trkpt><trkpt lat="45.98761677420232" lon="12.043167818352936"><ele>789.0</ele><time>2026-03-24T11:52:53Z</time></trkpt><trkpt lat="45.98766750764075" lon="12.043060092770245"><ele>785.0</ele><time>2026-03-24T11:52:54Z</time></trkpt><trkpt lat="45.987725522571566" lon="12.042934723279608"><ele>781.0</ele><time>2026-03-24T11:52:55Z</time></trkpt><trkpt lat="45.98776480379753" lon="12.04280547219838"><ele>777.0</ele><time>2026-03-24T11:52:56Z</time></trkpt><trkpt lat="45.987815536959594" lon="12.04268775041537"><ele>773.0</ele><time>2026-03-24T11:52:57Z</time></trkpt><trkpt lat="45.98784816186878" lon="12.04257547722613"><ele>773.0000000000001</ele><time>2026-03-24T11:52:58Z</time></trkpt><trkpt lat="45.98786926166914" lon="12.042479879217133"><ele>773.0</ele><time>2026-03-24T11:52:59Z</time></trkpt><trkpt lat="45.98790746790484" lon="12.04237867515941"><ele>773.0</ele><time>2026-03-24T11:53:00Z</time></trkpt><trkpt lat="45.98795103077992" lon="12.042269249506202"><ele>773.0</ele><time>2026-03-24T11:53:01Z</time></trkpt><trkpt lat="45.98802233863922" lon="12.04221364783276"><ele>773.0000000000001</ele><time>2026-03-24T11:53:02Z</time></trkpt><trkpt lat="45.988106151899835" lon="12.042178922567597"><ele>773.0</ele><time>2026-03-24T11:53:03Z</time></trkpt><trkpt lat="45.98819324915049" lon="12.042103784367919"><ele>770.8</ele><time>2026-03-24T11:53:04Z</time></trkpt><trkpt lat="45.98826629399953" lon="12.041986432182583"><ele>768.5999999999999</ele><time>2026-03-24T11:53:05Z</time></trkpt><trkpt lat="45.98832905056865" lon="12.041866928772416"><ele>766.4000000000001</ele><time>2026-03-24T11:53:06Z</time></trkpt><trkpt lat="45.988415290853055" lon="12.041795429411922"><ele>764.2</ele><time>2026-03-24T11:53:07Z</time></trkpt><trkpt lat="45.988513282798735" lon="12.041736926636606"><ele>762.0</ele><time>2026-03-24T11:53:08Z</time></trkpt><trkpt lat="45.98860177032392" lon="12.041676920009161"><ele>769.6</ele><time>2026-03-24T11:53:09Z</time></trkpt><trkpt lat="45.9886768204702" lon="12.041603625190998"><ele>777.2</ele><time>2026-03-24T11:53:10Z</time></trkpt><trkpt lat="45.98875444144586" lon="12.04151686380522"><ele>784.8</ele><time>2026-03-24T11:53:11Z</time></trkpt><trkpt lat="45.988829818784026" lon="12.04142457073523"><ele>792.4</ele><time>2026-03-24T11:53:12Z</time></trkpt><trkpt lat="45.98890815274906" lon="12.04133288315003"><ele>800.0</ele><time>2026-03-24T11:53:13Z</time></trkpt><trkpt lat="45.98898298108524" lon="12.041218116880513"><ele>800.0</ele><time>2026-03-24T11:53:14Z</time></trkpt><trkpt lat="45.98906066013441" lon="12.041094833022255"><ele>800.0</ele><time>2026-03-24T11:53:15Z</time></trkpt><trkpt lat="45.98913614598481" lon="12.040960978756182"><ele>800.0</ele><time>2026-03-24T11:53:16Z</time></trkpt><trkpt lat="45.98920987570656" lon="12.040844103010205"><ele>800.0</ele><time>2026-03-24T11:53:17Z</time></trkpt><trkpt lat="45.989286202063994" lon="12.04073402957542"><ele>798.0</ele><time>2026-03-24T11:53:18Z</time></trkpt><trkpt lat="45.98936763087461" lon="12.040636427274123"><ele>796.0</ele><time>2026-03-24T11:53:19Z</time></trkpt><trkpt lat="45.989470816227424" lon="12.040564832065408"><ele>794.0</ele><time>2026-03-24T11:53:20Z</time></trkpt><trkpt lat="45.98957473438732" lon="12.04046751313233"><ele>792.0</ele><time>2026-03-24T11:53:21Z</time></trkpt><trkpt lat="45.989665973893786" lon="12.040363826252134"><ele>792.0</ele><time>2026-03-24T11:53:22Z</time></trkpt><trkpt lat="45.98974673997264" lon="12.040255578844182"><ele>792.0</ele><time>2026-03-24T11:53:23Z</time></trkpt><trkpt lat="45.98983684677161" lon="12.040142345886986"><ele>792.0</ele><time>2026-03-24T11:53:24Z</time></trkpt><trkpt lat="45.98992784121731" lon="12.04004634928054"><ele>792.0</ele><time>2026-03-24T11:53:25Z</time></trkpt><trkpt lat="45.99001509315253" lon="12.03997116985379"><ele>792.0</ele><time>2026-03-24T11:53:26Z</time></trkpt><trkpt lat="45.990099540462424" lon="12.039878448610114"><ele>790.4000000000001</ele><time>2026-03-24T11:53:27Z</time></trkpt><trkpt lat="45.99018157179779" lon="12.039780441809336"><ele>788.8000000000001</ele><time>2026-03-24T11:53:28Z</time></trkpt><trkpt lat="45.990263020531394" lon="12.03969545964791"><ele>787.2</ele><time>2026-03-24T11:53:29Z</time></trkpt><trkpt lat="45.99034321754725" lon="12.039622946877605"><ele>785.6</ele><time>2026-03-24T11:53:30Z</time></trkpt><trkpt lat="45.990433149000644" lon="12.039538526352747"><ele>784.0</ele><time>2026-03-24T11:53:31Z</time></trkpt><trkpt lat="45.99051807034447" lon="12.039455535221753"><ele>784.0</ele><time>2026-03-24T11:53:32Z</time></trkpt><trkpt lat="45.9905998222355" lon="12.039368685959955"><ele>784.0</ele><time>2026-03-24T11:53:33Z</time></trkpt><trkpt lat="45.990691154187395" lon="12.039270389430953"><ele>784.0</ele><time>2026-03-24T11:53:34Z</time></trkpt><trkpt lat="45.99077224773893" lon="12.039163325680924"><ele>784.0</ele><time>2026-03-24T11:53:35Z</time></trkpt><trkpt lat="45.9908450352467" lon="12.039063803978316"><ele>784.0</ele><time>2026-03-24T11:53:36Z</time></trkpt><trkpt lat="45.99091897108196" lon="12.038966578504224"><ele>782.2</ele><time>2026-03-24T11:53:37Z</time></trkpt><trkpt lat="45.99098888955517" lon="12.038883364176561"><ele>780.4000000000001</ele><time>2026-03-24T11:53:38Z</time></trkpt><trkpt lat="45.991058688453485" lon="12.038792612633522"><ele>778.6</ele><time>2026-03-24T11:53:39Z</time></trkpt><trkpt lat="45.99113666537755" lon="12.0386852923017"><ele>776.8</ele><time>2026-03-24T11:53:40Z</time></trkpt><trkpt lat="45.991207905816026" lon="12.03855650778851"><ele>775.0</ele><time>2026-03-24T11:53:41Z</time></trkpt><trkpt lat="45.991272994918745" lon="12.038430758200368"><ele>774.9999999999999</ele><time>2026-03-24T11:53:42Z</time></trkpt><trkpt lat="45.991316134361064" lon="12.038335262432598"><ele>775.0</ele><time>2026-03-24T11:53:43Z</time></trkpt><trkpt lat="45.99136246326685" lon="12.03822451537847"><ele>775.0</ele><time>2026-03-24T11:53:44Z</time></trkpt><trkpt lat="45.99140898996192" lon="12.038134032943578"><ele>775.0</ele><time>2026-03-24T11:53:45Z</time></trkpt><trkpt lat="45.99144576547826" lon="12.038055753817915"><ele>774.9999999999999</ele><time>2026-03-24T11:53:46Z</time></trkpt><trkpt lat="45.991506016031884" lon="12.037896799192152"><ele>775.0</ele><time>2026-03-24T11:53:48Z</time></trkpt><trkpt lat="45.99158051373138" lon="12.037809820146952"><ele>776.6</ele><time>2026-03-24T11:53:50Z</time></trkpt><trkpt lat="45.991653336574" lon="12.037708076638648"><ele>778.2</ele><time>2026-03-24T11:53:52Z</time></trkpt><trkpt lat="45.99172463009493" lon="12.037584152817724"><ele>779.8</ele><time>2026-03-24T11:53:54Z</time></trkpt><trkpt lat="45.991773559245935" lon="12.037452413725388"><ele>781.4</ele><time>2026-03-24T11:53:56Z</time></trkpt><trkpt lat="45.99178188436921" lon="12.03728425904427"><ele>783.0</ele><time>2026-03-24T11:53:58Z</time></trkpt><trkpt lat="45.99175078218147" lon="12.03714038036608"><ele>778.0</ele><time>2026-03-24T11:54:00Z</time></trkpt><trkpt lat="45.99176741674312" lon="12.037035573487055"><ele>773.0</ele><time>2026-03-24T11:54:01Z</time></trkpt><trkpt lat="45.9917929158986" lon="12.036939896991447"><ele>768.0</ele><time>2026-03-24T11:54:02Z</time></trkpt><trkpt lat="45.991872968246135" lon="12.03683104811609"><ele>763.0</ele><time>2026-03-24T11:54:04Z</time></trkpt><trkpt lat="45.99198621590106" lon="12.036778352570163"><ele>758.0</ele><time>2026-03-24T11:54:06Z</time></trkpt><trkpt lat="45.992087035722236" lon="12.036692207635864"><ele>756.5999999999999</ele><time>2026-03-24T11:54:08Z</time></trkpt><trkpt lat="45.99217885996986" lon="12.036575620157222"><ele>755.1999999999999</ele><time>2026-03-24T11:54:10Z</time></trkpt><trkpt lat="45.99223889294565" lon="12.036465652706887"><ele>753.8</ele><time>2026-03-24T11:54:12Z</time></trkpt><trkpt lat="45.992245533628314" lon="12.036346154571623"><ele>752.4</ele><time>2026-03-24T11:54:14Z</time></trkpt><trkpt lat="45.99224372518186" lon="12.036176945052805"><ele>751.0</ele><time>2026-03-24T11:54:16Z</time></trkpt><trkpt lat="45.99223679120239" lon="12.036082384032378"><ele>751.0</ele><time>2026-03-24T11:54:17Z</time></trkpt><trkpt lat="45.992227760665635" lon="12.035978631058363"><ele>751.0</ele><time>2026-03-24T11:54:18Z</time></trkpt><trkpt lat="45.992225867892316" lon="12.035872865222784"><ele>751.0</ele><time>2026-03-24T11:54:19Z</time></trkpt><trkpt lat="45.99221947736308" lon="12.035693323836117"><ele>751.0</ele><time>2026-03-24T11:54:21Z</time></trkpt><trkpt lat="45.992204807393556" lon="12.035602866178694"><ele>751.0</ele><time>2026-03-24T11:54:22Z</time></trkpt><trkpt lat="45.99218667682096" lon="12.035446719833427"><ele>751.0</ele><time>2026-03-24T11:54:24Z</time></trkpt><trkpt lat="45.99215372175287" lon="12.035317435823723"><ele>747.3333333333334</ele><time>2026-03-24T11:54:26Z</time></trkpt><trkpt lat="45.99210019563349" lon="12.035232202886863"><ele>743.6666666666667</ele><time>2026-03-24T11:54:28Z</time></trkpt><trkpt lat="45.99205843163585" lon="12.035158687861463"><ele>740.0</ele><time>2026-03-24T11:54:30Z</time></trkpt><trkpt lat="45.99210343358216" lon="12.035060383186867"><ele>736.3333333333334</ele><time>2026-03-24T11:54:34Z</time></trkpt><trkpt lat="45.99219570769581" lon="12.035115464289387"><ele>732.6666666666666</ele><time>2026-03-24T11:54:37Z</time></trkpt><trkpt lat="45.992248077402884" lon="12.0351890688847"><ele>729.0</ele><time>2026-03-24T11:54:39Z</time></trkpt><trkpt lat="45.992321847821565" lon="12.035242554912559"><ele>729.0</ele><time>2026-03-24T11:54:41Z</time></trkpt><trkpt lat="45.992420280963096" lon="12.035303281762172"><ele>729.0</ele><time>2026-03-24T11:54:43Z</time></trkpt><trkpt lat="45.992482661912796" lon="12.035330874485323"><ele>729.0</ele><time>2026-03-24T11:54:44Z</time></trkpt><trkpt lat="45.992546478172436" lon="12.035362021215976"><ele>729.0</ele><time>2026-03-24T11:54:45Z</time></trkpt><trkpt lat="45.99260532831397" lon="12.035404426456296"><ele>729.0</ele><time>2026-03-24T11:54:46Z</time></trkpt><trkpt lat="45.99266373321509" lon="12.035461160129502"><ele>729.0</ele><time>2026-03-24T11:54:47Z</time></trkpt><trkpt lat="45.99278540456395" lon="12.035515703923249"><ele>725.5</ele><time>2026-03-24T11:54:49Z</time></trkpt><trkpt lat="45.992905826238946" lon="12.035573964264682"><ele>722.0</ele><time>2026-03-24T11:54:51Z</time></trkpt><trkpt lat="45.992972569808046" lon="12.0355944885536"><ele>718.5</ele><time>2026-03-24T11:54:52Z</time></trkpt><trkpt lat="45.9930375201635" lon="12.035622276130002"><ele>715.0</ele><time>2026-03-24T11:54:53Z</time></trkpt><trkpt lat="45.993103794930974" lon="12.035651196860425"><ele>711.5</ele><time>2026-03-24T11:54:54Z</time></trkpt><trkpt lat="45.9931762052302" lon="12.035682738942214"><ele>708.0</ele><time>2026-03-24T11:54:55Z</time></trkpt><trkpt lat="45.99324410525955" lon="12.035717756878807"><ele>708.0</ele><time>2026-03-24T11:54:56Z</time></trkpt><trkpt lat="45.9933051848226" lon="12.035756222007796"><ele>708.0</ele><time>2026-03-24T11:54:57Z</time></trkpt><trkpt lat="45.99336492406853" lon="12.035804162098588"><ele>708.0</ele><time>2026-03-24T11:54:58Z</time></trkpt><trkpt lat="45.993425606673654" lon="12.035851249357906"><ele>708.0</ele><time>2026-03-24T11:54:59Z</time></trkpt><trkpt lat="45.99349124649774" lon="12.03589784807586"><ele>708.0</ele><time>2026-03-24T11:55:00Z</time></trkpt><trkpt lat="45.99356236832854" lon="12.035944464649582"><ele>708.0</ele><time>2026-03-24T11:55:01Z</time></trkpt><trkpt lat="45.993632872792794" lon="12.035999777491549"><ele>708.0</ele><time>2026-03-24T11:55:02Z</time></trkpt><trkpt lat="45.993705776703806" lon="12.036050501175783"><ele>705.3333333333334</ele><time>2026-03-24T11:55:03Z</time></trkpt><trkpt lat="45.9937834922331" lon="12.036097679306613"><ele>702.6666666666666</ele><time>2026-03-24T11:55:04Z</time></trkpt><trkpt lat="45.99385578908046" lon="12.036142025859673"><ele>700.0</ele><time>2026-03-24T11:55:05Z</time></trkpt><trkpt lat="45.99392901887748" lon="12.03619654468198"><ele>697.3333333333333</ele><time>2026-03-24T11:55:06Z</time></trkpt><trkpt lat="45.993995151724036" lon="12.036250663481782"><ele>694.6666666666666</ele><time>2026-03-24T11:55:07Z</time></trkpt><trkpt lat="45.994066854947846" lon="12.036308776523345"><ele>692.0</ele><time>2026-03-24T11:55:08Z</time></trkpt><trkpt lat="45.99413932490994" lon="12.036387020905128"><ele>687.5</ele><time>2026-03-24T11:55:09Z</time></trkpt><trkpt lat="45.99419949171209" lon="12.036479222877718"><ele>683.0</ele><time>2026-03-24T11:55:10Z</time></trkpt><trkpt lat="45.99425764356128" lon="12.03658081447526"><ele>678.5</ele><time>2026-03-24T11:55:11Z</time></trkpt><trkpt lat="45.99431488263434" lon="12.036668100695014"><ele>674.0</ele><time>2026-03-24T11:55:12Z</time></trkpt><trkpt lat="45.99436741596994" lon="12.036756538151566"><ele>669.5</ele><time>2026-03-24T11:55:13Z</time></trkpt><trkpt lat="45.994414139879055" lon="12.036826564486976"><ele>665.0</ele><time>2026-03-24T11:55:14Z</time></trkpt><trkpt lat="45.99446900153286" lon="12.036982016297312"><ele>665.0</ele><time>2026-03-24T11:55:16Z</time></trkpt><trkpt lat="45.99447465356687" lon="12.037084327895823"><ele>665.0</ele><time>2026-03-24T11:55:17Z</time></trkpt><trkpt lat="45.99447390837836" lon="12.03720212820046"><ele>665.0</ele><time>2026-03-24T11:55:18Z</time></trkpt><trkpt lat="45.99444599502848" lon="12.03731473029498"><ele>665.0</ele><time>2026-03-24T11:55:19Z</time></trkpt><trkpt lat="45.9943897976396" lon="12.037459913241488"><ele>665.0</ele><time>2026-03-24T11:55:21Z</time></trkpt><trkpt lat="45.99434111080003" lon="12.037545358720347"><ele>665.0</ele><time>2026-03-24T11:55:23Z</time></trkpt><trkpt lat="45.99442479810378" lon="12.037565490617869"><ele>665.0</ele><time>2026-03-24T11:55:26Z</time></trkpt><trkpt lat="45.994523139094284" lon="12.03741349116305"><ele>665.0</ele><time>2026-03-24T11:55:28Z</time></trkpt><trkpt lat="45.994590660560924" lon="12.037338117864406"><ele>665.0</ele><time>2026-03-24T11:55:29Z</time></trkpt><trkpt lat="45.99465815973294" lon="12.037285964480368"><ele>665.0</ele><time>2026-03-24T11:55:30Z</time></trkpt><trkpt lat="45.994719106454944" lon="12.037240295319089"><ele>665.0</ele><time>2026-03-24T11:55:31Z</time></trkpt><trkpt lat="45.99478533558607" lon="12.037191262032263"><ele>665.0</ele><time>2026-03-24T11:55:32Z</time></trkpt><trkpt lat="45.99489021376722" lon="12.037094509030325"><ele>665.0</ele><time>2026-03-24T11:55:34Z</time></trkpt><trkpt lat="45.99496429544637" lon="12.036985355312952"><ele>665.0</ele><time>2026-03-24T11:55:36Z</time></trkpt><trkpt lat="45.995005248628964" lon="12.036832994985366"><ele>665.0</ele><time>2026-03-24T11:55:38Z</time></trkpt><trkpt lat="45.99501286517677" lon="12.03674304091151"><ele>665.0</ele><time>2026-03-24T11:55:39Z</time></trkpt><trkpt lat="45.99501312459216" lon="12.03664647902634"><ele>662.4</ele><time>2026-03-24T11:55:40Z</time></trkpt><trkpt lat="45.995000907402286" lon="12.036474362212504"><ele>659.8</ele><time>2026-03-24T11:55:42Z</time></trkpt><trkpt lat="45.994952545591545" lon="12.036297838151636"><ele>657.2</ele><time>2026-03-24T11:55:44Z</time></trkpt><trkpt lat="45.99490490498092" lon="12.036190598850453"><ele>654.6</ele><time>2026-03-24T11:55:45Z</time></trkpt><trkpt lat="45.99485903090659" lon="12.036084308127858"><ele>652.0</ele><time>2026-03-24T11:55:46Z</time></trkpt><trkpt lat="45.994812472188535" lon="12.035972435782615"><ele>652.0</ele><time>2026-03-24T11:55:47Z</time></trkpt><trkpt lat="45.994760410827716" lon="12.035854843573397"><ele>652.0</ele><time>2026-03-24T11:55:48Z</time></trkpt><trkpt lat="45.99469973310061" lon="12.03573661421398"><ele>652.0</ele><time>2026-03-24T11:55:49Z</time></trkpt><trkpt lat="45.994641502742326" lon="12.03562785752943"><ele>652.0</ele><time>2026-03-24T11:55:50Z</time></trkpt><trkpt lat="45.99459057516411" lon="12.035510541301774"><ele>652.0</ele><time>2026-03-24T11:55:51Z</time></trkpt><trkpt lat="45.99455407925514" lon="12.035399529576646"><ele>643.0</ele><time>2026-03-24T11:55:52Z</time></trkpt><trkpt lat="45.99451735469286" lon="12.035271421470107"><ele>634.0</ele><time>2026-03-24T11:55:53Z</time></trkpt><trkpt lat="45.99447646360108" lon="12.035142054462659"><ele>625.0</ele><time>2026-03-24T11:55:54Z</time></trkpt><trkpt lat="45.99439934687903" lon="12.034993954969469"><ele>616.0</ele><time>2026-03-24T11:55:55Z</time></trkpt><trkpt lat="45.994304482903644" lon="12.034835162556508"><ele>620.2</ele><time>2026-03-24T11:55:56Z</time></trkpt><trkpt lat="45.994221204103305" lon="12.034692661280484"><ele>624.4000000000001</ele><time>2026-03-24T11:55:57Z</time></trkpt><trkpt lat="45.99415438468543" lon="12.03455205225404"><ele>628.6</ele><time>2026-03-24T11:55:58Z</time></trkpt><trkpt lat="45.994092551887185" lon="12.034424074951279"><ele>632.8000000000001</ele><time>2026-03-24T11:55:59Z</time></trkpt><trkpt lat="45.99404353116383" lon="12.034323163594005"><ele>637.0</ele><time>2026-03-24T11:56:00Z</time></trkpt><trkpt lat="45.99400042220598" lon="12.03421725780414"><ele>633.1666666666667</ele><time>2026-03-24T11:56:01Z</time></trkpt><trkpt lat="45.9939681786531" lon="12.03411340932211"><ele>629.3333333333334</ele><time>2026-03-24T11:56:02Z</time></trkpt><trkpt lat="45.993959213363496" lon="12.033985691361618"><ele>625.5</ele><time>2026-03-24T11:56:03Z</time></trkpt><trkpt lat="45.993961187825875" lon="12.03386605461636"><ele>621.6666666666666</ele><time>2026-03-24T11:56:04Z</time></trkpt><trkpt lat="45.99397312218754" lon="12.033757739048013"><ele>617.8333333333333</ele><time>2026-03-24T11:56:05Z</time></trkpt><trkpt lat="45.99398343131387" lon="12.033652549396622"><ele>614.0</ele><time>2026-03-24T11:56:06Z</time></trkpt><trkpt lat="45.99399258673509" lon="12.033561706442823"><ele>614.0</ele><time>2026-03-24T11:56:07Z</time></trkpt><trkpt lat="45.99395807176112" lon="12.033419485147917"><ele>614.0</ele><time>2026-03-24T11:56:09Z</time></trkpt><trkpt lat="45.99383009610614" lon="12.033329741300841"><ele>614.0</ele><time>2026-03-24T11:56:11Z</time></trkpt><trkpt lat="45.9937309196938" lon="12.033274254692385"><ele>614.0</ele><time>2026-03-24T11:56:12Z</time></trkpt><trkpt lat="45.993631297002494" lon="12.033222821797539"><ele>612.5</ele><time>2026-03-24T11:56:13Z</time></trkpt><trkpt lat="45.99354114939852" lon="12.033169155946709"><ele>611.0</ele><time>2026-03-24T11:56:14Z</time></trkpt><trkpt lat="45.99346962714925" lon="12.033121324066087"><ele>609.5</ele><time>2026-03-24T11:56:15Z</time></trkpt><trkpt lat="45.993397889205724" lon="12.033072188154073"><ele>608.0</ele><time>2026-03-24T11:56:16Z</time></trkpt><trkpt lat="45.99331280593435" lon="12.033016307317244"><ele>606.5</ele><time>2026-03-24T11:56:17Z</time></trkpt><trkpt lat="45.993230795144136" lon="12.032986141886987"><ele>605.0</ele><time>2026-03-24T11:56:18Z</time></trkpt><trkpt lat="45.99316121604061" lon="12.032987166491575"><ele>605.0</ele><time>2026-03-24T11:56:19Z</time></trkpt><trkpt lat="45.99308002833132" lon="12.033015547608969"><ele>605.0</ele><time>2026-03-24T11:56:21Z</time></trkpt><trkpt lat="45.993027649701396" lon="12.032942077670288"><ele>605.0</ele><time>2026-03-24T12:02:27Z</time></trkpt><trkpt lat="45.99309037392327" lon="12.032890545675956"><ele>605.0</ele><time>2026-03-24T12:02:30Z</time></trkpt><trkpt lat="45.993173347732956" lon="12.032881106966423"><ele>605.0</ele><time>2026-03-24T12:02:31Z</time></trkpt><trkpt lat="45.99323901283344" lon="12.032887072740166"><ele>605.0</ele><time>2026-03-24T12:02:32Z</time></trkpt><trkpt lat="45.99336109592371" lon="12.032903263198282"><ele>600.0</ele><time>2026-03-24T12:02:34Z</time></trkpt><trkpt lat="45.99349008935229" lon="12.032897768771546"><ele>595.0</ele><time>2026-03-24T12:02:36Z</time></trkpt><trkpt lat="45.99361835507417" lon="12.032899198970727"><ele>590.0</ele><time>2026-03-24T12:02:38Z</time></trkpt><trkpt lat="45.993696853611176" lon="12.032901905070858"><ele>585.0</ele><time>2026-03-24T12:02:39Z</time></trkpt><trkpt lat="45.993772476285145" lon="12.032917337670506"><ele>580.0</ele><time>2026-03-24T12:02:40Z</time></trkpt><trkpt lat="45.99384399096733" lon="12.032931396222759"><ele>580.0</ele><time>2026-03-24T12:02:41Z</time></trkpt><trkpt lat="45.993910021448954" lon="12.03293249798169"><ele>580.0</ele><time>2026-03-24T12:02:42Z</time></trkpt><trkpt lat="45.99400166410453" lon="12.032911079775738"><ele>580.0</ele><time>2026-03-24T12:02:44Z</time></trkpt><trkpt lat="45.99406393782928" lon="12.032896770066115"><ele>580.0</ele><time>2026-03-24T12:02:46Z</time></trkpt><trkpt lat="45.99414116896156" lon="12.032923738209089"><ele>580.0</ele><time>2026-03-24T12:02:48Z</time></trkpt><trkpt lat="45.99422957148306" lon="12.033011275780732"><ele>580.0</ele><time>2026-03-24T12:02:50Z</time></trkpt><trkpt lat="45.99430301669069" lon="12.033124693688965"><ele>573.5</ele><time>2026-03-24T12:02:52Z</time></trkpt><trkpt lat="45.9943418948463" lon="12.033196623100416"><ele>567.0</ele><time>2026-03-24T12:02:53Z</time></trkpt><trkpt lat="45.99437223134892" lon="12.03328999847934"><ele>560.5</ele><time>2026-03-24T12:02:54Z</time></trkpt><trkpt lat="45.99437545978098" lon="12.033418432034841"><ele>554.0</ele><time>2026-03-24T12:02:55Z</time></trkpt><trkpt lat="45.9943979290515" lon="12.033527885869072"><ele>547.5</ele><time>2026-03-24T12:02:56Z</time></trkpt><trkpt lat="45.99441754859428" lon="12.03364042250682"><ele>541.0</ele><time>2026-03-24T12:02:57Z</time></trkpt><trkpt lat="45.99443776484774" lon="12.03374866566181"><ele>541.0</ele><time>2026-03-24T12:02:58Z</time></trkpt><trkpt lat="45.99446254390197" lon="12.033849099210455"><ele>541.0</ele><time>2026-03-24T12:02:59Z</time></trkpt><trkpt lat="45.994478266668345" lon="12.033946882471561"><ele>541.0</ele><time>2026-03-24T12:03:00Z</time></trkpt><trkpt lat="45.994515396622276" lon="12.034044623911722"><ele>541.0</ele><time>2026-03-24T12:03:01Z</time></trkpt><trkpt lat="45.99456993565" lon="12.03413198515859"><ele>541.0</ele><time>2026-03-24T12:03:02Z</time></trkpt><trkpt lat="45.994657998441035" lon="12.034199939043942"><ele>541.0</ele><time>2026-03-24T12:03:03Z</time></trkpt><trkpt lat="45.99472628189397" lon="12.03427260367803"><ele>541.0</ele><time>2026-03-24T12:03:04Z</time></trkpt><trkpt lat="45.99478461929264" lon="12.034339920275967"><ele>541.0</ele><time>2026-03-24T12:03:05Z</time></trkpt><trkpt lat="45.99484324236567" lon="12.034405822734255"><ele>541.0</ele><time>2026-03-24T12:03:06Z</time></trkpt><trkpt lat="45.994913581093215" lon="12.034465929794354"><ele>541.0</ele><time>2026-03-24T12:03:07Z</time></trkpt><trkpt lat="45.995014838445016" lon="12.03449007376775"><ele>541.0</ele><time>2026-03-24T12:03:08Z</time></trkpt><trkpt lat="45.99509335164404" lon="12.034509051035434"><ele>541.0</ele><time>2026-03-24T12:03:09Z</time></trkpt><trkpt lat="45.995170843627676" lon="12.034553981599226"><ele>541.0</ele><time>2026-03-24T12:03:10Z</time></trkpt><trkpt lat="45.99529402289166" lon="12.034584632740051"><ele>541.0</ele><time>2026-03-24T12:03:12Z</time></trkpt><trkpt lat="45.99536533169271" lon="12.034593221301561"><ele>541.0</ele><time>2026-03-24T12:03:13Z</time></trkpt><trkpt lat="45.99543334149134" lon="12.034591969452807"><ele>541.0</ele><time>2026-03-24T12:03:14Z</time></trkpt><trkpt lat="45.99556119796997" lon="12.034615696693201"><ele>541.0</ele><time>2026-03-24T12:03:16Z</time></trkpt><trkpt lat="45.99562115609788" lon="12.034670675348805"><ele>541.0</ele><time>2026-03-24T12:03:17Z</time></trkpt><trkpt lat="45.99568309755717" lon="12.034746530331834"><ele>541.0</ele><time>2026-03-24T12:03:18Z</time></trkpt><trkpt lat="45.99574462065678" lon="12.034820945854117"><ele>541.0</ele><time>2026-03-24T12:03:19Z</time></trkpt><trkpt lat="45.99580386065069" lon="12.034896458438226"><ele>541.0</ele><time>2026-03-24T12:03:20Z</time></trkpt><trkpt lat="45.99586981259424" lon="12.034966065648337"><ele>541.0</ele><time>2026-03-24T12:03:21Z</time></trkpt><trkpt lat="45.995932245903326" lon="12.035026606033936"><ele>541.0</ele><time>2026-03-24T12:03:22Z</time></trkpt><trkpt lat="45.99600283807221" lon="12.035081697583937"><ele>538.0</ele><time>2026-03-24T12:03:23Z</time></trkpt><trkpt lat="45.996100344722876" lon="12.035163932246927"><ele>535.0</ele><time>2026-03-24T12:03:25Z</time></trkpt><trkpt lat="45.99613568674314" lon="12.035255479333996"><ele>532.0</ele><time>2026-03-24T12:03:27Z</time></trkpt><trkpt lat="45.996105165006014" lon="12.035396925529602"><ele>529.0</ele><time>2026-03-24T12:03:29Z</time></trkpt><trkpt lat="45.996079892728524" lon="12.03550438797975"><ele>526.0</ele><time>2026-03-24T12:03:30Z</time></trkpt><trkpt lat="45.9961020490805" lon="12.03561902469627"><ele>526.0</ele><time>2026-03-24T12:03:31Z</time></trkpt><trkpt lat="45.996136504725364" lon="12.035771373704572"><ele>526.0</ele><time>2026-03-24T12:03:32Z</time></trkpt><trkpt lat="45.996186801159446" lon="12.035941066681751"><ele>526.0</ele><time>2026-03-24T12:03:33Z</time></trkpt><trkpt lat="45.99622737861178" lon="12.036098534256396"><ele>526.0</ele><time>2026-03-24T12:03:34Z</time></trkpt><trkpt lat="45.996259721928155" lon="12.036232929350595"><ele>529.0</ele><time>2026-03-24T12:03:35Z</time></trkpt><trkpt lat="45.99629130240988" lon="12.036376329543877"><ele>532.0</ele><time>2026-03-24T12:03:36Z</time></trkpt><trkpt lat="45.996337017692966" lon="12.036483333611207"><ele>535.0</ele><time>2026-03-24T12:03:37Z</time></trkpt><trkpt lat="45.996389505601684" lon="12.036592402393117"><ele>538.0</ele><time>2026-03-24T12:03:38Z</time></trkpt><trkpt lat="45.99644718135832" lon="12.036676130036268"><ele>541.0</ele><time>2026-03-24T12:03:39Z</time></trkpt><trkpt lat="45.99649172852457" lon="12.036747070410806"><ele>544.0</ele><time>2026-03-24T12:03:40Z</time></trkpt><trkpt lat="45.996527217455515" lon="12.036826073941809"><ele>543.6666666666667</ele><time>2026-03-24T12:03:41Z</time></trkpt><trkpt lat="45.996507689362595" lon="12.036948207646255"><ele>543.3333333333334</ele><time>2026-03-24T12:03:42Z</time></trkpt><trkpt lat="45.99653989345234" lon="12.037050471349888"><ele>543.0</ele><time>2026-03-24T12:03:43Z</time></trkpt><trkpt lat="45.99657489925329" lon="12.037142671377916"><ele>542.6666666666666</ele><time>2026-03-24T12:03:44Z</time></trkpt><trkpt lat="45.996587286837865" lon="12.03726689144003"><ele>542.3333333333333</ele><time>2026-03-24T12:03:45Z</time></trkpt><trkpt lat="45.99662752696419" lon="12.037387762557536"><ele>542.0</ele><time>2026-03-24T12:03:46Z</time></trkpt><trkpt lat="45.996685805705326" lon="12.037494097431344"><ele>542.0</ele><time>2026-03-24T12:03:47Z</time></trkpt><trkpt lat="45.99673552603225" lon="12.037605352716845"><ele>542.0</ele><time>2026-03-24T12:03:48Z</time></trkpt><trkpt lat="45.99675752830509" lon="12.037728181282645"><ele>542.0</ele><time>2026-03-24T12:03:49Z</time></trkpt><trkpt lat="45.996783305525206" lon="12.037820795188122"><ele>542.0</ele><time>2026-03-24T12:03:50Z</time></trkpt><trkpt lat="45.99678038731699" lon="12.037935744210847"><ele>542.0</ele><time>2026-03-24T12:03:52Z</time></trkpt><trkpt lat="45.99663448695794" lon="12.037887252381893"><ele>543.6666666666666</ele><time>2026-03-24T12:03:54Z</time></trkpt><trkpt lat="45.99656083660472" lon="12.037904969469208"><ele>545.3333333333333</ele><time>2026-03-24T12:03:55Z</time></trkpt><trkpt lat="45.99649286146336" lon="12.037946514239577"><ele>547.0</ele><time>2026-03-24T12:03:56Z</time></trkpt><trkpt lat="45.99643159877595" lon="12.038001247900706"><ele>548.6666666666666</ele><time>2026-03-24T12:03:57Z</time></trkpt><trkpt lat="45.99640060204031" lon="12.038126844070575"><ele>550.3333333333334</ele><time>2026-03-24T12:03:58Z</time></trkpt><trkpt lat="45.99647066920253" lon="12.03829434161313"><ele>552.0</ele><time>2026-03-24T12:03:59Z</time></trkpt><trkpt lat="45.99650874395048" lon="12.038396020589405"><ele>547.2</ele><time>2026-03-24T12:04:00Z</time></trkpt><trkpt lat="45.996488434037786" lon="12.038517561446895"><ele>542.4000000000001</ele><time>2026-03-24T12:04:02Z</time></trkpt><trkpt lat="45.99639529952645" lon="12.038492590021024"><ele>537.5999999999999</ele><time>2026-03-24T12:04:03Z</time></trkpt><trkpt lat="45.9963323966831" lon="12.038571381824985"><ele>532.8</ele><time>2026-03-24T12:04:04Z</time></trkpt><trkpt lat="45.996266339759934" lon="12.038677893712222"><ele>528.0</ele><time>2026-03-24T12:04:05Z</time></trkpt><trkpt lat="45.99623389169562" lon="12.038792557015574"><ele>528.0</ele><time>2026-03-24T12:04:06Z</time></trkpt><trkpt lat="45.996246687041335" lon="12.038907420278255"><ele>528.0</ele><time>2026-03-24T12:04:07Z</time></trkpt><trkpt lat="45.99622682529061" lon="12.039008614625471"><ele>528.0</ele><time>2026-03-24T12:04:08Z</time></trkpt><trkpt lat="45.99617624457637" lon="12.039117751268217"><ele>528.0</ele><time>2026-03-24T12:04:10Z</time></trkpt><trkpt lat="45.99608921295151" lon="12.0392252024708"><ele>528.0</ele><time>2026-03-24T12:04:12Z</time></trkpt><trkpt lat="45.99607309860093" lon="12.039357582683955"><ele>525.1666666666666</ele><time>2026-03-24T12:04:13Z</time></trkpt><trkpt lat="45.996049502330855" lon="12.039460653129357"><ele>522.3333333333334</ele><time>2026-03-24T12:04:14Z</time></trkpt><trkpt lat="45.996018016313634" lon="12.039570031430081"><ele>519.5</ele><time>2026-03-24T12:04:15Z</time></trkpt><trkpt lat="45.995984177523475" lon="12.039679885140803"><ele>516.6666666666667</ele><time>2026-03-24T12:04:16Z</time></trkpt><trkpt lat="45.99594900803" lon="12.039779858864048"><ele>513.8333333333334</ele><time>2026-03-24T12:04:17Z</time></trkpt><trkpt lat="45.99591082234261" lon="12.039876497134067"><ele>511.0</ele><time>2026-03-24T12:04:18Z</time></trkpt><trkpt lat="45.995839323354886" lon="12.040001873195747"><ele>511.0</ele><time>2026-03-24T12:04:20Z</time></trkpt><trkpt lat="45.995796462082446" lon="12.040083957643187"><ele>511.0</ele><time>2026-03-24T12:04:21Z</time></trkpt><trkpt lat="45.99575164389672" lon="12.040185514535516"><ele>511.0</ele><time>2026-03-24T12:04:23Z</time></trkpt><trkpt lat="45.99576255730148" lon="12.040354834141436"><ele>511.0</ele><time>2026-03-24T12:04:25Z</time></trkpt><trkpt lat="45.995832142601095" lon="12.040399055276614"><ele>511.0</ele><time>2026-03-24T12:04:26Z</time></trkpt><trkpt lat="45.99594100090619" lon="12.040364657733154"><ele>511.0</ele><time>2026-03-24T12:04:54Z</time></trkpt><trkpt lat="45.99605020972065" lon="12.04024555047368"><ele>511.0</ele><time>2026-03-24T12:04:56Z</time></trkpt><trkpt lat="45.99611608833283" lon="12.040193791076623"><ele>511.0</ele><time>2026-03-24T12:04:57Z</time></trkpt><trkpt lat="45.9961908704531" lon="12.04018384520588"><ele>511.0</ele><time>2026-03-24T12:04:58Z</time></trkpt><trkpt lat="45.99625435701564" lon="12.040196810416488"><ele>511.0</ele><time>2026-03-24T12:04:59Z</time></trkpt><trkpt lat="45.996362408946425" lon="12.040198434413707"><ele>511.0</ele><time>2026-03-24T12:05:00.999Z</time></trkpt><trkpt lat="45.99640526133455" lon="12.040123200539593"><ele>511.0</ele><time>2026-03-24T12:05:01.999Z</time></trkpt><trkpt lat="45.99646222340519" lon="12.040005324950377"><ele>511.0</ele><time>2026-03-24T12:05:02.999Z</time></trkpt><trkpt lat="45.996516383115264" lon="12.039867832310023"><ele>511.0</ele><time>2026-03-24T12:05:03.999Z</time></trkpt><trkpt lat="45.996574376079955" lon="12.039726744721914"><ele>511.0</ele><time>2026-03-24T12:05:04.999Z</time></trkpt><trkpt lat="45.99662066575646" lon="12.039615661656981"><ele>509.6666666666667</ele><time>2026-03-24T12:05:05.999Z</time></trkpt><trkpt lat="45.996695283070004" lon="12.039532563028645"><ele>508.33333333333337</ele><time>2026-03-24T12:05:07Z</time></trkpt><trkpt lat="45.99675652527591" lon="12.039460076690455"><ele>507.0</ele><time>2026-03-24T12:05:08Z</time></trkpt><trkpt lat="45.996825707011816" lon="12.039403612889705"><ele>505.66666666666663</ele><time>2026-03-24T12:05:09Z</time></trkpt><trkpt lat="45.99691337704049" lon="12.039344834306771"><ele>504.3333333333333</ele><time>2026-03-24T12:05:10Z</time></trkpt><trkpt lat="45.99699595352936" lon="12.039292556824066"><ele>503.0</ele><time>2026-03-24T12:05:11Z</time></trkpt><trkpt lat="45.997076822145935" lon="12.039251929472849"><ele>503.0</ele><time>2026-03-24T12:05:12Z</time></trkpt><trkpt lat="45.997180097506984" lon="12.039239538323514"><ele>502.99999999999994</ele><time>2026-03-24T12:05:13Z</time></trkpt><trkpt lat="45.99726486895138" lon="12.039206314198893"><ele>502.99999999999994</ele><time>2026-03-24T12:05:14Z</time></trkpt><trkpt lat="45.997344221344925" lon="12.039148099403262"><ele>503.0</ele><time>2026-03-24T12:05:15Z</time></trkpt><trkpt lat="45.99740187572185" lon="12.039046445850893"><ele>503.0</ele><time>2026-03-24T12:05:16Z</time></trkpt><trkpt lat="45.99747010735452" lon="12.038971076545998"><ele>500.16666666666663</ele><time>2026-03-24T12:05:17Z</time></trkpt><trkpt lat="45.99753027767186" lon="12.038919004862914"><ele>497.3333333333333</ele><time>2026-03-24T12:05:18Z</time></trkpt><trkpt lat="45.99759664911107" lon="12.038894563734495"><ele>494.5</ele><time>2026-03-24T12:05:19Z</time></trkpt><trkpt lat="45.99768940005357" lon="12.03888967542571"><ele>491.66666666666663</ele><time>2026-03-24T12:05:20Z</time></trkpt><trkpt lat="45.997781280187354" lon="12.038928795039842"><ele>488.8333333333333</ele><time>2026-03-24T12:05:21Z</time></trkpt><trkpt lat="45.99789073103979" lon="12.038946075963146"><ele>486.0</ele><time>2026-03-24T12:05:22Z</time></trkpt><trkpt lat="45.998024741070424" lon="12.038958794649552"><ele>486.0</ele><time>2026-03-24T12:05:23Z</time></trkpt><trkpt lat="45.99813516497325" lon="12.038933988543382"><ele>486.0</ele><time>2026-03-24T12:05:24Z</time></trkpt><trkpt lat="45.998225942301765" lon="12.038913798161284"><ele>486.0</ele><time>2026-03-24T12:05:25Z</time></trkpt><trkpt lat="45.9983118742016" lon="12.0388567763178"><ele>486.0</ele><time>2026-03-24T12:05:26Z</time></trkpt><trkpt lat="45.9984057453889" lon="12.038763422018128"><ele>486.0</ele><time>2026-03-24T12:05:27Z</time></trkpt><trkpt lat="45.99852632032368" lon="12.038693887755729"><ele>486.4</ele><time>2026-03-24T12:05:28Z</time></trkpt><trkpt lat="45.998633866590964" lon="12.038624741934076"><ele>486.8</ele><time>2026-03-24T12:05:29Z</time></trkpt><trkpt lat="45.998725689377686" lon="12.038558726377662"><ele>487.19999999999993</ele><time>2026-03-24T12:05:30Z</time></trkpt><trkpt lat="45.9987991712889" lon="12.038491686255965"><ele>487.59999999999997</ele><time>2026-03-24T12:05:31Z</time></trkpt><trkpt lat="45.9988701397306" lon="12.038435893263657"><ele>488.0</ele><time>2026-03-24T12:05:32Z</time></trkpt><trkpt lat="45.9989341305213" lon="12.038415899802834"><ele>488.0</ele><time>2026-03-24T12:05:33Z</time></trkpt><trkpt lat="45.99906209688456" lon="12.038410285875267"><ele>487.99999999999994</ele><time>2026-03-24T12:05:35Z</time></trkpt><trkpt lat="45.999145408596405" lon="12.038494451470246"><ele>487.99999999999994</ele><time>2026-03-24T12:05:36Z</time></trkpt><trkpt lat="45.99923722061565" lon="12.03854651346584"><ele>488.0</ele><time>2026-03-24T12:05:37Z</time></trkpt><trkpt lat="45.99933400541508" lon="12.038540589339057"><ele>488.0</ele><time>2026-03-24T12:05:38Z</time></trkpt><trkpt lat="45.99943981872553" lon="12.038510170406893"><ele>486.8333333333333</ele><time>2026-03-24T12:05:39Z</time></trkpt><trkpt lat="45.999531021613535" lon="12.038470611916308"><ele>485.66666666666663</ele><time>2026-03-24T12:05:40Z</time></trkpt><trkpt lat="45.99960800341193" lon="12.038457036829913"><ele>484.5</ele><time>2026-03-24T12:05:41Z</time></trkpt><trkpt lat="45.99970564466553" lon="12.038487943759659"><ele>483.33333333333337</ele><time>2026-03-24T12:05:43Z</time></trkpt><trkpt lat="45.999725110439094" lon="12.038574342595146"><ele>482.1666666666667</ele><time>2026-03-24T12:05:44Z</time></trkpt><trkpt lat="45.99970699566571" lon="12.03869788901861"><ele>481.0</ele><time>2026-03-24T12:05:45Z</time></trkpt><trkpt lat="45.999721114984666" lon="12.038835080035982"><ele>481.0</ele><time>2026-03-24T12:05:46Z</time></trkpt><trkpt lat="45.99974193237546" lon="12.038932215489911"><ele>481.0</ele><time>2026-03-24T12:05:47Z</time></trkpt><trkpt lat="45.999772411551966" lon="12.039065767537975"><ele>481.0</ele><time>2026-03-24T12:05:49Z</time></trkpt><trkpt lat="45.99987492655943" lon="12.039059385122803"><ele>481.0</ele><time>2026-03-24T12:05:50Z</time></trkpt><trkpt lat="45.999950445910414" lon="12.038960722243942"><ele>481.0</ele><time>2026-03-24T12:05:51Z</time></trkpt><trkpt lat="46.00002857699819" lon="12.038883159618704"><ele>481.0</ele><time>2026-03-24T12:05:52Z</time></trkpt><trkpt lat="46.00012883090381" lon="12.038807251272976"><ele>481.0</ele><time>2026-03-24T12:05:53Z</time></trkpt><trkpt lat="46.000230668609134" lon="12.038760219838819"><ele>481.0</ele><time>2026-03-24T12:05:54Z</time></trkpt><trkpt lat="46.000333637387314" lon="12.038719701817097"><ele>481.0</ele><time>2026-03-24T12:05:55Z</time></trkpt><trkpt lat="46.0004080835752" lon="12.038672907405815"><ele>481.0</ele><time>2026-03-24T12:05:56Z</time></trkpt><trkpt lat="46.00047360435324" lon="12.038623867826955"><ele>481.00000000000006</ele><time>2026-03-24T12:05:57Z</time></trkpt><trkpt lat="46.00052622803278" lon="12.038561230536642"><ele>481.0</ele><time>2026-03-24T12:05:58Z</time></trkpt><trkpt lat="46.0006280234837" lon="12.038599913395"><ele>481.0</ele><time>2026-03-24T12:06:00Z</time></trkpt><trkpt lat="46.00067657425139" lon="12.038698277005585"><ele>481.0</ele><time>2026-03-24T12:06:01Z</time></trkpt><trkpt lat="46.00072805209171" lon="12.03879984841485"><ele>481.00000000000006</ele><time>2026-03-24T12:06:02Z</time></trkpt><trkpt lat="46.00074416984818" lon="12.038916367961397"><ele>481.0</ele><time>2026-03-24T12:06:03Z</time></trkpt><trkpt lat="46.00079830225875" lon="12.039005779072292"><ele>481.00000000000006</ele><time>2026-03-24T12:06:04Z</time></trkpt><trkpt lat="46.000838792279616" lon="12.03908848021795"><ele>481.0</ele><time>2026-03-24T12:06:05Z</time></trkpt><trkpt lat="46.00090029270316" lon="12.039137156612428"><ele>481.0</ele><time>2026-03-24T12:06:06Z</time></trkpt><trkpt lat="46.000972956789816" lon="12.039161614945087"><ele>481.0</ele><time>2026-03-24T12:06:07Z</time></trkpt><trkpt lat="46.001061258004036" lon="12.039112836201985"><ele>481.00000000000006</ele><time>2026-03-24T12:06:08Z</time></trkpt><trkpt lat="46.00114476218208" lon="12.039098926988432"><ele>481.0</ele><time>2026-03-24T12:06:09Z</time></trkpt><trkpt lat="46.001254961466294" lon="12.039119512373547"><ele>481.00000000000006</ele><time>2026-03-24T12:06:11Z</time></trkpt><trkpt lat="46.00132201496018" lon="12.039223369858279"><ele>481.0</ele><time>2026-03-24T12:06:12Z</time></trkpt><trkpt lat="46.00141608949868" lon="12.039219532961924"><ele>481.0</ele><time>2026-03-24T12:06:13Z</time></trkpt><trkpt lat="46.0014969920825" lon="12.039165950452947"><ele>481.0</ele><time>2026-03-24T12:06:14Z</time></trkpt><trkpt lat="46.001575403002334" lon="12.039092476893325"><ele>481.00000000000006</ele><time>2026-03-24T12:06:15Z</time></trkpt><trkpt lat="46.00163839101969" lon="12.039074338137437"><ele>481.0</ele><time>2026-03-24T12:06:16Z</time></trkpt><trkpt lat="46.00172693133462" lon="12.039137374546709"><ele>485.6666666666667</ele><time>2026-03-24T12:06:18Z</time></trkpt><trkpt lat="46.001794354264334" lon="12.039188437345182"><ele>490.33333333333337</ele><time>2026-03-24T12:06:19Z</time></trkpt><trkpt lat="46.00184974384763" lon="12.03928151244175"><ele>495.0</ele><time>2026-03-24T12:06:20Z</time></trkpt><trkpt lat="46.00189073272261" lon="12.039366601459493"><ele>499.66666666666663</ele><time>2026-03-24T12:06:21Z</time></trkpt><trkpt lat="46.00195340492076" lon="12.039546151048684"><ele>504.3333333333333</ele><time>2026-03-24T12:06:23Z</time></trkpt><trkpt lat="46.00199709126485" lon="12.03962562817286"><ele>509.0</ele><time>2026-03-24T12:06:24Z</time></trkpt><trkpt lat="46.002063091304095" lon="12.039655180824349"><ele>509.0</ele><time>2026-03-24T12:06:25Z</time></trkpt><trkpt lat="46.00214462941307" lon="12.039645348713744"><ele>509.0</ele><time>2026-03-24T12:06:26Z</time></trkpt><trkpt lat="46.00224293251926" lon="12.039613713032578"><ele>509.0</ele><time>2026-03-24T12:06:27Z</time></trkpt><trkpt lat="46.00233579612849" lon="12.039578799741022"><ele>509.0</ele><time>2026-03-24T12:06:28Z</time></trkpt><trkpt lat="46.002416441856234" lon="12.03955633871544"><ele>509.0</ele><time>2026-03-24T12:06:29Z</time></trkpt><trkpt lat="46.002517080282786" lon="12.039542602558612"><ele>508.16666666666663</ele><time>2026-03-24T12:06:30Z</time></trkpt><trkpt lat="46.002619287147624" lon="12.039524378308503"><ele>507.3333333333333</ele><time>2026-03-24T12:06:31Z</time></trkpt><trkpt lat="46.00271760335379" lon="12.03952293697786"><ele>506.5</ele><time>2026-03-24T12:06:32Z</time></trkpt><trkpt lat="46.00279926839409" lon="12.039517648561713"><ele>505.66666666666663</ele><time>2026-03-24T12:06:33Z</time></trkpt><trkpt lat="46.002868949345334" lon="12.039512311960964"><ele>504.8333333333333</ele><time>2026-03-24T12:06:34Z</time></trkpt><trkpt lat="46.002940816786975" lon="12.039532590916599"><ele>504.0</ele><time>2026-03-24T12:06:35Z</time></trkpt><trkpt lat="46.003017686126896" lon="12.03960414915123"><ele>504.0</ele><time>2026-03-24T12:06:36Z</time></trkpt><trkpt lat="46.00308760729548" lon="12.039698125377107"><ele>504.0</ele><time>2026-03-24T12:06:37Z</time></trkpt><trkpt lat="46.00318307131859" lon="12.0398072317072"><ele>504.0</ele><time>2026-03-24T12:06:38Z</time></trkpt><trkpt lat="46.00328479629919" lon="12.039900981726763"><ele>504.0</ele><time>2026-03-24T12:06:39Z</time></trkpt><trkpt lat="46.00338294228721" lon="12.03999131938457"><ele>510.75</ele><time>2026-03-24T12:06:40Z</time></trkpt><trkpt lat="46.00347942995047" lon="12.040083592282041"><ele>517.5</ele><time>2026-03-24T12:06:41Z</time></trkpt><trkpt lat="46.00357815166032" lon="12.040154260838394"><ele>524.25</ele><time>2026-03-24T12:06:42Z</time></trkpt><trkpt lat="46.00367152656816" lon="12.040246740671689"><ele>531.0</ele><time>2026-03-24T12:06:43Z</time></trkpt><trkpt lat="46.00378086185384" lon="12.04029185933592"><ele>531.0</ele><time>2026-03-24T12:06:44Z</time></trkpt><trkpt lat="46.003884398921244" lon="12.040350716281445"><ele>531.0</ele><time>2026-03-24T12:06:45Z</time></trkpt><trkpt lat="46.00400178982255" lon="12.040417982730409"><ele>531.0</ele><time>2026-03-24T12:06:46Z</time></trkpt><trkpt lat="46.004105243824" lon="12.040469863775261"><ele>531.0</ele><time>2026-03-24T12:06:47Z</time></trkpt><trkpt lat="46.00418834210405" lon="12.040519313051806"><ele>531.0</ele><time>2026-03-24T12:06:48Z</time></trkpt><trkpt lat="46.00427173646861" lon="12.040570671060353"><ele>526.4</ele><time>2026-03-24T12:06:49Z</time></trkpt><trkpt lat="46.00436736288787" lon="12.040573938862773"><ele>521.8</ele><time>2026-03-24T12:06:50Z</time></trkpt><trkpt lat="46.004474529663035" lon="12.040528406095955"><ele>517.1999999999999</ele><time>2026-03-24T12:06:51Z</time></trkpt><trkpt lat="46.00459113829664" lon="12.04049179835024"><ele>512.6</ele><time>2026-03-24T12:06:52Z</time></trkpt><trkpt lat="46.00468059759108" lon="12.040486929301476"><ele>508.0</ele><time>2026-03-24T12:06:53Z</time></trkpt><trkpt lat="46.0047681556081" lon="12.040498851779022"><ele>508.0</ele><time>2026-03-24T12:06:54Z</time></trkpt><trkpt lat="46.004854723183826" lon="12.040500567988019"><ele>507.99999999999994</ele><time>2026-03-24T12:06:55Z</time></trkpt><trkpt lat="46.00495002726178" lon="12.04056911438779"><ele>507.99999999999994</ele><time>2026-03-24T12:06:56Z</time></trkpt><trkpt lat="46.00503881322887" lon="12.040620533503821"><ele>508.0</ele><time>2026-03-24T12:06:57Z</time></trkpt><trkpt lat="46.005108363608294" lon="12.040693246650449"><ele>508.0</ele><time>2026-03-24T12:06:58Z</time></trkpt><trkpt lat="46.00516284436332" lon="12.040781611070589"><ele>512.6</ele><time>2026-03-24T12:06:59Z</time></trkpt><trkpt lat="46.005184148990246" lon="12.040872353802786"><ele>517.1999999999999</ele><time>2026-03-24T12:07:00Z</time></trkpt><trkpt lat="46.00517582608508" lon="12.04098704714405"><ele>521.8</ele><time>2026-03-24T12:07:01Z</time></trkpt><trkpt lat="46.00513894274419" lon="12.041119060996824"><ele>526.4</ele><time>2026-03-24T12:07:02Z</time></trkpt><trkpt lat="46.00510988548799" lon="12.041277966457036"><ele>531.0</ele><time>2026-03-24T12:07:03Z</time></trkpt><trkpt lat="46.005092652674215" lon="12.041444126084084"><ele>531.0</ele><time>2026-03-24T12:07:04Z</time></trkpt><trkpt lat="46.00507202525498" lon="12.041586775357127"><ele>531.0</ele><time>2026-03-24T12:07:05Z</time></trkpt><trkpt lat="46.00504702222168" lon="12.041710440552407"><ele>531.0</ele><time>2026-03-24T12:07:06Z</time></trkpt><trkpt lat="46.005016794805364" lon="12.041851867133134"><ele>531.0</ele><time>2026-03-24T12:07:08Z</time></trkpt><trkpt lat="46.005105565813025" lon="12.041921432629836"><ele>531.0</ele><time>2026-03-24T12:07:10Z</time></trkpt><trkpt lat="46.00518624320376" lon="12.041886159710488"><ele>538.0</ele><time>2026-03-24T12:07:11Z</time></trkpt><trkpt lat="46.00529358562018" lon="12.041825555482273"><ele>545.0</ele><time>2026-03-24T12:07:12Z</time></trkpt><trkpt lat="46.00541223746357" lon="12.041774726219556"><ele>552.0</ele><time>2026-03-24T12:07:13Z</time></trkpt><trkpt lat="46.005528145408285" lon="12.041748392821063"><ele>559.0</ele><time>2026-03-24T12:07:14Z</time></trkpt><trkpt lat="46.00565607088341" lon="12.041734254741636"><ele>559.0</ele><time>2026-03-24T12:07:15Z</time></trkpt><trkpt lat="46.0057850852652" lon="12.041723546089191"><ele>559.0</ele><time>2026-03-24T12:07:16Z</time></trkpt><trkpt lat="46.005896457683704" lon="12.04172236573231"><ele>559.0</ele><time>2026-03-24T12:07:17Z</time></trkpt><trkpt lat="46.0059998126715" lon="12.041745510558865"><ele>559.0</ele><time>2026-03-24T12:07:18Z</time></trkpt><trkpt lat="46.00609813330637" lon="12.041707156298102"><ele>559.0</ele><time>2026-03-24T12:07:19Z</time></trkpt><trkpt lat="46.0061766793708" lon="12.041658072479109"><ele>556.0</ele><time>2026-03-24T12:07:20Z</time></trkpt><trkpt lat="46.006244882549645" lon="12.041623471549768"><ele>553.0</ele><time>2026-03-24T12:07:21Z</time></trkpt><trkpt lat="46.00636781354481" lon="12.041623057891863"><ele>550.0</ele><time>2026-03-24T12:07:23Z</time></trkpt><trkpt lat="46.00643822502095" lon="12.041648464224746"><ele>547.0</ele><time>2026-03-24T12:07:24Z</time></trkpt><trkpt lat="46.006514143515226" lon="12.041675202870548"><ele>544.0</ele><time>2026-03-24T12:07:25Z</time></trkpt><trkpt lat="46.00658800107004" lon="12.04171431173818"><ele>541.0</ele><time>2026-03-24T12:07:26Z</time></trkpt><trkpt lat="46.00666910702714" lon="12.041758521588878"><ele>539.5</ele><time>2026-03-24T12:07:27Z</time></trkpt><trkpt lat="46.00673723657115" lon="12.04181806383435"><ele>538.0</ele><time>2026-03-24T12:07:28Z</time></trkpt><trkpt lat="46.006808905067736" lon="12.041877895438345"><ele>536.5</ele><time>2026-03-24T12:07:29Z</time></trkpt><trkpt lat="46.00687748469665" lon="12.041938591420148"><ele>535.0</ele><time>2026-03-24T12:07:30Z</time></trkpt><trkpt lat="46.00694998261323" lon="12.042006409371876"><ele>533.5</ele><time>2026-03-24T12:07:31Z</time></trkpt><trkpt lat="46.00702282289955" lon="12.042080911595798"><ele>532.0</ele><time>2026-03-24T12:07:32Z</time></trkpt><trkpt lat="46.00709805131246" lon="12.04216613202091"><ele>532.0</ele><time>2026-03-24T12:07:33Z</time></trkpt><trkpt lat="46.007163569533375" lon="12.042239244977397"><ele>532.0</ele><time>2026-03-24T12:07:34Z</time></trkpt><trkpt lat="46.00722394174632" lon="12.042320726893184"><ele>532.0</ele><time>2026-03-24T12:07:35Z</time></trkpt><trkpt lat="46.00728117900605" lon="12.042396692135721"><ele>532.0</ele><time>2026-03-24T12:07:36Z</time></trkpt><trkpt lat="46.00731352540494" lon="12.042476701718948"><ele>532.0</ele><time>2026-03-24T12:07:37Z</time></trkpt><trkpt lat="46.00733105882144" lon="12.042580421174556"><ele>532.0</ele><time>2026-03-24T12:07:38Z</time></trkpt><trkpt lat="46.00732025442506" lon="12.042711293100414"><ele>535.6</ele><time>2026-03-24T12:07:39Z</time></trkpt><trkpt lat="46.00729289328364" lon="12.042871345787582"><ele>539.2</ele><time>2026-03-24T12:07:40Z</time></trkpt><trkpt lat="46.00726082547574" lon="12.04299561242538"><ele>542.8</ele><time>2026-03-24T12:07:41Z</time></trkpt><trkpt lat="46.00724043190085" lon="12.043106281959556"><ele>546.4</ele><time>2026-03-24T12:07:42Z</time></trkpt><trkpt lat="46.00723470332714" lon="12.043202387913214"><ele>550.0</ele><time>2026-03-24T12:07:43Z</time></trkpt><trkpt lat="46.00732063567563" lon="12.043307876839338"><ele>552.5</ele><time>2026-03-24T12:07:45Z</time></trkpt><trkpt lat="46.00740674775168" lon="12.04330069399545"><ele>555.0</ele><time>2026-03-24T12:07:46Z</time></trkpt><trkpt lat="46.007477898792004" lon="12.04332206537627"><ele>557.5</ele><time>2026-03-24T12:07:47Z</time></trkpt><trkpt lat="46.00753378223702" lon="12.043385837866648"><ele>560.0</ele><time>2026-03-24T12:07:48Z</time></trkpt><trkpt lat="46.00757182806999" lon="12.043510419211279"><ele>562.5</ele><time>2026-03-24T12:07:49Z</time></trkpt><trkpt lat="46.0076251245568" lon="12.043646603656885"><ele>565.0</ele><time>2026-03-24T12:07:50Z</time></trkpt><trkpt lat="46.00767086005382" lon="12.043780390576554"><ele>560.6</ele><time>2026-03-24T12:07:51Z</time></trkpt><trkpt lat="46.00772053431406" lon="12.043899537731924"><ele>556.2</ele><time>2026-03-24T12:07:52Z</time></trkpt><trkpt lat="46.00776992477253" lon="12.044010392529145"><ele>551.8</ele><time>2026-03-24T12:07:53Z</time></trkpt><trkpt lat="46.007810288690955" lon="12.044144188614615"><ele>547.4</ele><time>2026-03-24T12:07:54Z</time></trkpt><trkpt lat="46.00783661182856" lon="12.044272200529976"><ele>543.0</ele><time>2026-03-24T12:07:55Z</time></trkpt><trkpt lat="46.007848000963236" lon="12.044385550629682"><ele>543.0</ele><time>2026-03-24T12:07:56Z</time></trkpt><trkpt lat="46.00784929740284" lon="12.044486327800557"><ele>543.0</ele><time>2026-03-24T12:07:57Z</time></trkpt><trkpt lat="46.00778484338354" lon="12.044667734752508"><ele>543.0</ele><time>2026-03-24T12:07:59Z</time></trkpt><trkpt lat="46.00772347470646" lon="12.044771578099313"><ele>543.0</ele><time>2026-03-24T12:08:00Z</time></trkpt><trkpt lat="46.0076921903632" lon="12.044868706363074"><ele>543.0</ele><time>2026-03-24T12:08:01Z</time></trkpt><trkpt lat="46.00768135170511" lon="12.044976407329907"><ele>544.0</ele><time>2026-03-24T12:08:02Z</time></trkpt><trkpt lat="46.00770062551328" lon="12.0450636915999"><ele>545.0</ele><time>2026-03-24T12:08:03Z</time></trkpt><trkpt lat="46.00773792426345" lon="12.045147055149783"><ele>546.0</ele><time>2026-03-24T12:08:04Z</time></trkpt><trkpt lat="46.00779783597243" lon="12.045234073467565"><ele>547.0</ele><time>2026-03-24T12:08:05Z</time></trkpt><trkpt lat="46.00787032200893" lon="12.045326297640154"><ele>548.0</ele><time>2026-03-24T12:08:06Z</time></trkpt><trkpt lat="46.00794154170076" lon="12.045427220227662"><ele>549.0</ele><time>2026-03-24T12:08:07Z</time></trkpt><trkpt lat="46.008015336195356" lon="12.045513140351233"><ele>549.0</ele><time>2026-03-24T12:08:08Z</time></trkpt><trkpt lat="46.00806460473851" lon="12.045576153796933"><ele>549.0</ele><time>2026-03-24T12:08:09Z</time></trkpt><trkpt lat="46.0081068983389" lon="12.045655636098267"><ele>549.0</ele><time>2026-03-24T12:08:10Z</time></trkpt><trkpt lat="46.00815393307903" lon="12.045737553163429"><ele>549.0</ele><time>2026-03-24T12:08:11Z</time></trkpt><trkpt lat="46.00819015223767" lon="12.045823665731863"><ele>549.0</ele><time>2026-03-24T12:08:12Z</time></trkpt><trkpt lat="46.00821368967763" lon="12.045992628337077"><ele>549.0</ele><time>2026-03-24T12:08:14Z</time></trkpt><trkpt lat="46.00819009683155" lon="12.046109563820476"><ele>550.6</ele><time>2026-03-24T12:08:15Z</time></trkpt><trkpt lat="46.00816295830956" lon="12.046230032329051"><ele>552.2</ele><time>2026-03-24T12:08:16Z</time></trkpt><trkpt lat="46.00816259680816" lon="12.046354693709224"><ele>553.8000000000001</ele><time>2026-03-24T12:08:17Z</time></trkpt><trkpt lat="46.00817200362943" lon="12.046483803198251"><ele>555.4</ele><time>2026-03-24T12:08:18Z</time></trkpt><trkpt lat="46.008115102197316" lon="12.046600612822617"><ele>557.0</ele><time>2026-03-24T12:08:19Z</time></trkpt><trkpt lat="46.00807814537213" lon="12.046745223217364"><ele>558.8000000000001</ele><time>2026-03-24T12:08:20Z</time></trkpt><trkpt lat="46.00804192525107" lon="12.046886690927757"><ele>560.6</ele><time>2026-03-24T12:08:21Z</time></trkpt><trkpt lat="46.00802546482731" lon="12.047006463560676"><ele>562.4000000000001</ele><time>2026-03-24T12:08:22Z</time></trkpt><trkpt lat="46.007966488311205" lon="12.047167116329582"><ele>564.2</ele><time>2026-03-24T12:08:24Z</time></trkpt><trkpt lat="46.00793152095979" lon="12.047257900590775"><ele>566.0</ele><time>2026-03-24T12:08:25Z</time></trkpt><trkpt lat="46.00795611656021" lon="12.047341952335994"><ele>566.0</ele><time>2026-03-24T12:08:26Z</time></trkpt><trkpt lat="46.00806935218633" lon="12.047442272757198"><ele>566.0</ele><time>2026-03-24T12:08:28Z</time></trkpt><trkpt lat="46.00815224494287" lon="12.047465821994235"><ele>566.0</ele><time>2026-03-24T12:08:29Z</time></trkpt><trkpt lat="46.00824533775745" lon="12.047474119114982"><ele>566.0</ele><time>2026-03-24T12:08:30Z</time></trkpt><trkpt lat="46.00833857479318" lon="12.047483432903258"><ele>566.0</ele><time>2026-03-24T12:08:31Z</time></trkpt><trkpt lat="46.00842646729619" lon="12.047497817115289"><ele>560.5</ele><time>2026-03-24T12:08:32Z</time></trkpt><trkpt lat="46.00850049788157" lon="12.047523466480342"><ele>555.0</ele><time>2026-03-24T12:08:33Z</time></trkpt><trkpt lat="46.008590430755945" lon="12.047557922109226"><ele>549.5</ele><time>2026-03-24T12:08:34Z</time></trkpt><trkpt lat="46.008688954216126" lon="12.047597857670285"><ele>544.0</ele><time>2026-03-24T12:08:35Z</time></trkpt><trkpt lat="46.00876189391387" lon="12.047631276868538"><ele>538.5</ele><time>2026-03-24T12:08:36Z</time></trkpt><trkpt lat="46.00882044580714" lon="12.047681655348104"><ele>533.0</ele><time>2026-03-24T12:08:37Z</time></trkpt><trkpt lat="46.00887639333428" lon="12.047746379179145"><ele>533.0</ele><time>2026-03-24T12:08:38Z</time></trkpt><trkpt lat="46.00891846203791" lon="12.047858834010782"><ele>533.0</ele><time>2026-03-24T12:08:39Z</time></trkpt><trkpt lat="46.00897421991147" lon="12.048004216781377"><ele>533.0</ele><time>2026-03-24T12:08:40Z</time></trkpt><trkpt lat="46.009031765832816" lon="12.048142010441804"><ele>533.0</ele><time>2026-03-24T12:08:41Z</time></trkpt><trkpt lat="46.00907195416773" lon="12.048242100296864"><ele>533.0</ele><time>2026-03-24T12:08:42Z</time></trkpt><trkpt lat="46.009099020792526" lon="12.048340827593412"><ele>536.8333333333333</ele><time>2026-03-24T12:08:43Z</time></trkpt><trkpt lat="46.00911688397164" lon="12.04843755582848"><ele>540.6666666666666</ele><time>2026-03-24T12:08:44Z</time></trkpt><trkpt lat="46.00913175191167" lon="12.048540853043228"><ele>544.5</ele><time>2026-03-24T12:08:45Z</time></trkpt><trkpt lat="46.00912798147518" lon="12.048708822985533"><ele>548.3333333333334</ele><time>2026-03-24T12:08:47Z</time></trkpt><trkpt lat="46.00910897348439" lon="12.048824949766718"><ele>552.1666666666667</ele><time>2026-03-24T12:08:49Z</time></trkpt><trkpt lat="46.00909734438798" lon="12.04892795080592"><ele>556.0</ele><time>2026-03-24T12:10:17Z</time></trkpt><trkpt lat="46.009103273523024" lon="12.049084760313074"><ele>552.6</ele><time>2026-03-24T12:10:19Z</time></trkpt><trkpt lat="46.00917967696443" lon="12.049215531924665"><ele>549.2</ele><time>2026-03-24T12:10:20Z</time></trkpt><trkpt lat="46.00924478794091" lon="12.049322926272808"><ele>545.8</ele><time>2026-03-24T12:10:21Z</time></trkpt><trkpt lat="46.009312360960514" lon="12.049415625369372"><ele>542.4</ele><time>2026-03-24T12:10:22Z</time></trkpt><trkpt lat="46.00938965338485" lon="12.049504250241892"><ele>539.0</ele><time>2026-03-24T12:10:23Z</time></trkpt><trkpt lat="46.00946515377688" lon="12.049585226647025"><ele>539.0</ele><time>2026-03-24T12:10:24Z</time></trkpt><trkpt lat="46.009537874202664" lon="12.049662963303124"><ele>539.0</ele><time>2026-03-24T12:10:25Z</time></trkpt><trkpt lat="46.0096065030695" lon="12.049744483323778"><ele>539.0</ele><time>2026-03-24T12:10:26Z</time></trkpt><trkpt lat="46.00966812161171" lon="12.049854737185823"><ele>539.0</ele><time>2026-03-24T12:10:27Z</time></trkpt><trkpt lat="46.00974689660456" lon="12.049929770551328"><ele>539.0</ele><time>2026-03-24T12:10:28Z</time></trkpt><trkpt lat="46.00981976681459" lon="12.050010798940168"><ele>542.8</ele><time>2026-03-24T12:10:29Z</time></trkpt><trkpt lat="46.009894488888165" lon="12.050097787942624"><ele>546.5999999999999</ele><time>2026-03-24T12:10:30Z</time></trkpt><trkpt lat="46.009966566925925" lon="12.05018398682105"><ele>550.4</ele><time>2026-03-24T12:10:31Z</time></trkpt><trkpt lat="46.010047035082714" lon="12.05024886295712"><ele>554.1999999999999</ele><time>2026-03-24T12:10:32Z</time></trkpt><trkpt lat="46.01012249479975" lon="12.050328807446206"><ele>558.0</ele><time>2026-03-24T12:10:33Z</time></trkpt><trkpt lat="46.010199554804856" lon="12.050398427943623"><ele>551.5</ele><time>2026-03-24T12:10:34Z</time></trkpt><trkpt lat="46.010283020172835" lon="12.050465859348915"><ele>545.0</ele><time>2026-03-24T12:10:35Z</time></trkpt><trkpt lat="46.010361971894696" lon="12.050525855539833"><ele>538.5</ele><time>2026-03-24T12:10:36Z</time></trkpt><trkpt lat="46.010444599093674" lon="12.050582166195603"><ele>532.0</ele><time>2026-03-24T12:10:37Z</time></trkpt><trkpt lat="46.01052274198019" lon="12.050631490526056"><ele>525.5</ele><time>2026-03-24T12:10:38Z</time></trkpt><trkpt lat="46.0106006651294" lon="12.0506727045514"><ele>519.0</ele><time>2026-03-24T12:10:39Z</time></trkpt><trkpt lat="46.010687349547034" lon="12.050699454790719"><ele>519.0</ele><time>2026-03-24T12:10:40Z</time></trkpt><trkpt lat="46.01077480288528" lon="12.050714982186983"><ele>519.0</ele><time>2026-03-24T12:10:41Z</time></trkpt><trkpt lat="46.010861271321" lon="12.050731569646432"><ele>519.0</ele><time>2026-03-24T12:10:42Z</time></trkpt><trkpt lat="46.01094194371222" lon="12.050757236653862"><ele>519.0</ele><time>2026-03-24T12:10:43Z</time></trkpt><trkpt lat="46.01102605366768" lon="12.050780816838643"><ele>519.0</ele><time>2026-03-24T12:10:44Z</time></trkpt><trkpt lat="46.011124135790446" lon="12.050845334593394"><ele>518.2</ele><time>2026-03-24T12:10:46Z</time></trkpt><trkpt lat="46.0112174097759" lon="12.05086484262291"><ele>517.4</ele><time>2026-03-24T12:10:48Z</time></trkpt><trkpt lat="46.01130677585146" lon="12.050859045183529"><ele>516.6</ele><time>2026-03-24T12:10:49Z</time></trkpt><trkpt lat="46.01140327209547" lon="12.050861888161968"><ele>515.8</ele><time>2026-03-24T12:10:50Z</time></trkpt><trkpt lat="46.01150117378743" lon="12.050882585471708"><ele>515.0</ele><time>2026-03-24T12:10:51Z</time></trkpt><trkpt lat="46.01159087760718" lon="12.050866197523305"><ele>512.8333333333333</ele><time>2026-03-24T12:10:52Z</time></trkpt><trkpt lat="46.011670811866445" lon="12.050882113432111"><ele>510.66666666666663</ele><time>2026-03-24T12:10:53Z</time></trkpt><trkpt lat="46.01174140424809" lon="12.050912916344927"><ele>508.5</ele><time>2026-03-24T12:10:54Z</time></trkpt><trkpt lat="46.0118473528765" lon="12.050969767488997"><ele>506.33333333333337</ele><time>2026-03-24T12:10:56Z</time></trkpt><trkpt lat="46.011860363221295" lon="12.050841341108363"><ele>504.1666666666667</ele><time>2026-03-24T12:10:58Z</time></trkpt><trkpt lat="46.011792307553165" lon="12.050768913935219"><ele>502.0</ele><time>2026-03-24T12:10:59Z</time></trkpt><trkpt lat="46.01169801382152" lon="12.050715543336617"><ele>501.50000000000006</ele><time>2026-03-24T12:11:00Z</time></trkpt><trkpt lat="46.01161474554576" lon="12.050626730419587"><ele>501.0</ele><time>2026-03-24T12:11:01Z</time></trkpt><trkpt lat="46.011530803513736" lon="12.050551209412717"><ele>500.5</ele><time>2026-03-24T12:11:02Z</time></trkpt><trkpt lat="46.011457325818625" lon="12.050490200147816"><ele>500.0</ele><time>2026-03-24T12:11:03Z</time></trkpt><trkpt lat="46.01139986020528" lon="12.050442804035075"><ele>499.50000000000006</ele><time>2026-03-24T12:11:04Z</time></trkpt><trkpt lat="46.011337411039065" lon="12.050369899957683"><ele>499.0</ele><time>2026-03-24T12:11:06Z</time></trkpt><trkpt lat="46.011457006943374" lon="12.050358646357921"><ele>499.0</ele><time>2026-03-24T12:11:08Z</time></trkpt><trkpt lat="46.01152753701034" lon="12.050441339036867"><ele>499.0</ele><time>2026-03-24T12:11:09Z</time></trkpt><trkpt lat="46.01162228581727" lon="12.050493616534128"><ele>499.0</ele><time>2026-03-24T12:11:10Z</time></trkpt><trkpt lat="46.011734043257064" lon="12.050509533479412"><ele>499.0</ele><time>2026-03-24T12:11:11Z</time></trkpt><trkpt lat="46.01184271029164" lon="12.050513778362962"><ele>499.0</ele><time>2026-03-24T12:11:12Z</time></trkpt><trkpt lat="46.01195005449672" lon="12.050530183374603"><ele>496.0</ele><time>2026-03-24T12:11:13Z</time></trkpt><trkpt lat="46.012039610210216" lon="12.050573526582639"><ele>493.0</ele><time>2026-03-24T12:11:14Z</time></trkpt><trkpt lat="46.01212769359606" lon="12.05059109834492"><ele>490.0</ele><time>2026-03-24T12:11:15Z</time></trkpt><trkpt lat="46.012220147415405" lon="12.05057175901961"><ele>487.0</ele><time>2026-03-24T12:11:16Z</time></trkpt><trkpt lat="46.01232081109003" lon="12.05053787516225"><ele>484.0</ele><time>2026-03-24T12:11:17Z</time></trkpt><trkpt lat="46.01243166247677" lon="12.050498611067201"><ele>484.75</ele><time>2026-03-24T12:11:18Z</time></trkpt><trkpt lat="46.01254553877287" lon="12.050473051768936"><ele>485.5</ele><time>2026-03-24T12:11:19Z</time></trkpt><trkpt lat="46.0126608143794" lon="12.050498580088005"><ele>486.25</ele><time>2026-03-24T12:11:20Z</time></trkpt><trkpt lat="46.0127871063884" lon="12.050521607520036"><ele>487.0</ele><time>2026-03-24T12:11:21Z</time></trkpt><trkpt lat="46.01291589944005" lon="12.050527187114671"><ele>487.0</ele><time>2026-03-24T12:11:22Z</time></trkpt><trkpt lat="46.01304420230171" lon="12.050555781992163"><ele>487.0</ele><time>2026-03-24T12:11:23Z</time></trkpt><trkpt lat="46.01316925820651" lon="12.050585100561433"><ele>487.0</ele><time>2026-03-24T12:11:24Z</time></trkpt><trkpt lat="46.013281494082186" lon="12.050629907966309"><ele>487.0</ele><time>2026-03-24T12:11:25Z</time></trkpt><trkpt lat="46.013384792851305" lon="12.050678673932016"><ele>486.0</ele><time>2026-03-24T12:11:26Z</time></trkpt><trkpt lat="46.01349168329114" lon="12.050697002573138"><ele>485.0</ele><time>2026-03-24T12:11:27Z</time></trkpt><trkpt lat="46.01360800077399" lon="12.050695889007692"><ele>484.0</ele><time>2026-03-24T12:11:28Z</time></trkpt><trkpt lat="46.01373709615046" lon="12.050684391075682"><ele>483.0</ele><time>2026-03-24T12:11:29Z</time></trkpt><trkpt lat="46.01386100978828" lon="12.050693415840756"><ele>483.0</ele><time>2026-03-24T12:11:30Z</time></trkpt><trkpt lat="46.01398728070976" lon="12.050711091764883"><ele>483.0</ele><time>2026-03-24T12:11:31Z</time></trkpt><trkpt lat="46.014110956641346" lon="12.05072849024676"><ele>483.0</ele><time>2026-03-24T12:11:32Z</time></trkpt><trkpt lat="46.01423084450061" lon="12.05076010272687"><ele>483.0</ele><time>2026-03-24T12:11:33Z</time></trkpt><trkpt lat="46.01435217256783" lon="12.050796793511763"><ele>480.79999999999995</ele><time>2026-03-24T12:11:34Z</time></trkpt><trkpt lat="46.014429711075984" lon="12.050782838139892"><ele>478.59999999999997</ele><time>2026-03-24T12:11:35Z</time></trkpt><trkpt lat="46.01453522930912" lon="12.050707124716856"><ele>476.40000000000003</ele><time>2026-03-24T12:11:36Z</time></trkpt><trkpt lat="46.014613932327805" lon="12.050595511281362"><ele>474.20000000000005</ele><time>2026-03-24T12:11:37Z</time></trkpt><trkpt lat="46.01468404782424" lon="12.05047870441215"><ele>472.0</ele><time>2026-03-24T12:11:38Z</time></trkpt><trkpt lat="46.01481458141" lon="12.050365841530768"><ele>472.0</ele><time>2026-03-24T12:11:39Z</time></trkpt><trkpt lat="46.01491579965268" lon="12.050298962962147"><ele>472.0</ele><time>2026-03-24T12:11:40Z</time></trkpt><trkpt lat="46.01503026735823" lon="12.050252202957171"><ele>472.0</ele><time>2026-03-24T12:11:41Z</time></trkpt><trkpt lat="46.01514930893038" lon="12.050260736079357"><ele>472.0</ele><time>2026-03-24T12:11:42Z</time></trkpt><trkpt lat="46.01525994307518" lon="12.050328921345214"><ele>470.0</ele><time>2026-03-24T12:11:43Z</time></trkpt><trkpt lat="46.01534965337866" lon="12.050447980407672"><ele>468.0</ele><time>2026-03-24T12:11:44Z</time></trkpt><trkpt lat="46.01542108079532" lon="12.050604390562869"><ele>466.0</ele><time>2026-03-24T12:11:45Z</time></trkpt><trkpt lat="46.01549007179756" lon="12.05075919390613"><ele>464.0</ele><time>2026-03-24T12:11:46Z</time></trkpt><trkpt lat="46.01556504557842" lon="12.050894420124608"><ele>461.79999999999995</ele><time>2026-03-24T12:11:47Z</time></trkpt><trkpt lat="46.01562240601328" lon="12.050996167877729"><ele>459.59999999999997</ele><time>2026-03-24T12:11:48Z</time></trkpt><trkpt lat="46.015686209301755" lon="12.051044264028986"><ele>457.4</ele><time>2026-03-24T12:11:49Z</time></trkpt><trkpt lat="46.01578622119988" lon="12.051035194671526"><ele>455.2</ele><time>2026-03-24T12:11:50Z</time></trkpt><trkpt lat="46.01590512152176" lon="12.051009988352744"><ele>453.0</ele><time>2026-03-24T12:11:51Z</time></trkpt><trkpt lat="46.01601766670687" lon="12.051060215340252"><ele>453.0</ele><time>2026-03-24T12:11:52Z</time></trkpt><trkpt lat="46.016120530035195" lon="12.051128212603126"><ele>452.99999999999994</ele><time>2026-03-24T12:11:53Z</time></trkpt><trkpt lat="46.01623245638725" lon="12.051188597770166"><ele>452.99999999999994</ele><time>2026-03-24T12:11:54Z</time></trkpt><trkpt lat="46.01632569072738" lon="12.051262743227934"><ele>453.0</ele><time>2026-03-24T12:11:55Z</time></trkpt><trkpt lat="46.016417550187946" lon="12.051308707311277"><ele>453.0</ele><time>2026-03-24T12:11:56Z</time></trkpt><trkpt lat="46.01651346702238" lon="12.05131990085737"><ele>453.0</ele><time>2026-03-24T12:11:57Z</time></trkpt><trkpt lat="46.01661801510874" lon="12.051278048971879"><ele>453.0</ele><time>2026-03-24T12:11:58Z</time></trkpt><trkpt lat="46.016720299035185" lon="12.051169828866202"><ele>453.0</ele><time>2026-03-24T12:11:59Z</time></trkpt><trkpt lat="46.01682126732809" lon="12.051046631392287"><ele>453.0</ele><time>2026-03-24T12:12:00Z</time></trkpt><trkpt lat="46.01693022276641" lon="12.050946384183302"><ele>449.25</ele><time>2026-03-24T12:12:01Z</time></trkpt><trkpt lat="46.01705908616452" lon="12.050915339165746"><ele>445.5</ele><time>2026-03-24T12:12:02Z</time></trkpt><trkpt lat="46.017185136574476" lon="12.05086154257162"><ele>441.75</ele><time>2026-03-24T12:12:03Z</time></trkpt><trkpt lat="46.01731212769347" lon="12.050862450792978"><ele>438.0</ele><time>2026-03-24T12:12:04Z</time></trkpt><trkpt lat="46.017417454196845" lon="12.050870365532749"><ele>437.6666666666667</ele><time>2026-03-24T12:12:05Z</time></trkpt><trkpt lat="46.01750001240912" lon="12.050857751344694"><ele>437.33333333333337</ele><time>2026-03-24T12:12:06Z</time></trkpt><trkpt lat="46.01756638809597" lon="12.050777176572423"><ele>437.0</ele><time>2026-03-24T12:12:07Z</time></trkpt><trkpt lat="46.01762564269698" lon="12.050736796381003"><ele>436.6666666666667</ele><time>2026-03-24T12:12:08Z</time></trkpt><trkpt lat="46.01768843795703" lon="12.050745989418632"><ele>436.33333333333337</ele><time>2026-03-24T12:12:10Z</time></trkpt><trkpt lat="46.01764092352206" lon="12.05089248762281"><ele>436.0</ele><time>2026-03-24T12:12:11Z</time></trkpt><trkpt lat="46.017581494019744" lon="12.050999710661733"><ele>436.4</ele><time>2026-03-24T12:12:12Z</time></trkpt><trkpt lat="46.01750540423" lon="12.0511022780278"><ele>436.8</ele><time>2026-03-24T12:12:13Z</time></trkpt><trkpt lat="46.01742067056419" lon="12.05118705030245"><ele>437.19999999999993</ele><time>2026-03-24T12:12:14Z</time></trkpt><trkpt lat="46.01733423305534" lon="12.051264094647552"><ele>437.59999999999997</ele><time>2026-03-24T12:12:15Z</time></trkpt><trkpt lat="46.017242851760514" lon="12.05134663721892"><ele>438.0</ele><time>2026-03-24T12:12:16Z</time></trkpt><trkpt lat="46.017156253288356" lon="12.051432310490505"><ele>438.0</ele><time>2026-03-24T12:12:17Z</time></trkpt><trkpt lat="46.01706684822938" lon="12.051533347539046"><ele>437.99999999999994</ele><time>2026-03-24T12:12:18Z</time></trkpt><trkpt lat="46.01699528814422" lon="12.0516443138241"><ele>437.99999999999994</ele><time>2026-03-24T12:12:19Z</time></trkpt><trkpt lat="46.016945411949735" lon="12.051790032033987"><ele>438.0</ele><time>2026-03-24T12:12:20Z</time></trkpt><trkpt lat="46.01686831634986" lon="12.051909489683984"><ele>438.0</ele><time>2026-03-24T12:12:21Z</time></trkpt><trkpt lat="46.01680243733006" lon="12.052013807337275"><ele>437.79999999999995</ele><time>2026-03-24T12:12:22Z</time></trkpt><trkpt lat="46.016735248277094" lon="12.052098306587016"><ele>437.59999999999997</ele><time>2026-03-24T12:12:23Z</time></trkpt><trkpt lat="46.016671944082454" lon="12.052167150843365"><ele>437.40000000000003</ele><time>2026-03-24T12:12:24Z</time></trkpt><trkpt lat="46.016605333648066" lon="12.052280663027762"><ele>437.20000000000005</ele><time>2026-03-24T12:12:26Z</time></trkpt><trkpt lat="46.01664927103299" lon="12.052376115010299"><ele>437.0</ele><time>2026-03-24T12:12:27Z</time></trkpt><trkpt lat="46.01679982118573" lon="12.052400086389927"><ele>432.8</ele><time>2026-03-24T12:12:29Z</time></trkpt><trkpt lat="46.016889788955204" lon="12.052270435443974"><ele>428.6</ele><time>2026-03-24T12:12:30Z</time></trkpt><trkpt lat="46.01697686718374" lon="12.052181128360544"><ele>424.40000000000003</ele><time>2026-03-24T12:12:31Z</time></trkpt><trkpt lat="46.017080339186236" lon="12.052164384542039"><ele>420.20000000000005</ele><time>2026-03-24T12:12:32Z</time></trkpt><trkpt lat="46.01718854345322" lon="12.052194414230955"><ele>416.0</ele><time>2026-03-24T12:12:33Z</time></trkpt><trkpt lat="46.01729323468735" lon="12.05223193465185"><ele>416.0</ele><time>2026-03-24T12:12:34Z</time></trkpt><trkpt lat="46.017387560936044" lon="12.052276918536464"><ele>416.0</ele><time>2026-03-24T12:12:35Z</time></trkpt><trkpt lat="46.017477060258855" lon="12.052302000215867"><ele>416.0</ele><time>2026-03-24T12:12:36Z</time></trkpt><trkpt lat="46.017573350488945" lon="12.052263064890226"><ele>416.0</ele><time>2026-03-24T12:12:37Z</time></trkpt><trkpt lat="46.01766794581229" lon="12.05215640896628"><ele>416.0</ele><time>2026-03-24T12:12:38Z</time></trkpt><trkpt lat="46.01775847459358" lon="12.052009128244388"><ele>415.5</ele><time>2026-03-24T12:12:39Z</time></trkpt><trkpt lat="46.01785725506593" lon="12.051865564938609"><ele>415.0</ele><time>2026-03-24T12:12:40Z</time></trkpt><trkpt lat="46.01796644407729" lon="12.051746035407133"><ele>414.5</ele><time>2026-03-24T12:12:41Z</time></trkpt><trkpt lat="46.01808136191217" lon="12.051639937769597"><ele>414.0</ele><time>2026-03-24T12:12:42Z</time></trkpt><trkpt lat="46.01820963595504" lon="12.051572519012558"><ele>410.6</ele><time>2026-03-24T12:12:43Z</time></trkpt><trkpt lat="46.01833553402525" lon="12.051518487528869"><ele>407.2</ele><time>2026-03-24T12:12:44Z</time></trkpt><trkpt lat="46.0184480347185" lon="12.051488753872457"><ele>403.8</ele><time>2026-03-24T12:12:45Z</time></trkpt><trkpt lat="46.018549455976014" lon="12.051478262094578"><ele>400.40000000000003</ele><time>2026-03-24T12:12:46Z</time></trkpt><trkpt lat="46.01863386167096" lon="12.051536967335243"><ele>397.0</ele><time>2026-03-24T12:12:47Z</time></trkpt><trkpt lat="46.01869589713305" lon="12.051678609035335"><ele>392.8</ele><time>2026-03-24T12:12:48Z</time></trkpt><trkpt lat="46.01878252770582" lon="12.051813485913057"><ele>388.6</ele><time>2026-03-24T12:12:49Z</time></trkpt><trkpt lat="46.01886945705756" lon="12.051908086165438"><ele>384.40000000000003</ele><time>2026-03-24T12:12:50Z</time></trkpt><trkpt lat="46.01893684923667" lon="12.052002880412886"><ele>380.20000000000005</ele><time>2026-03-24T12:12:51Z</time></trkpt><trkpt lat="46.01903535399318" lon="12.052083641712999"><ele>376.0</ele><time>2026-03-24T12:12:53Z</time></trkpt><trkpt lat="46.01911809943595" lon="12.052010136771568"><ele>375.0</ele><time>2026-03-24T12:12:54Z</time></trkpt><trkpt lat="46.01917669690524" lon="12.051865135548681"><ele>374.0</ele><time>2026-03-24T12:12:55Z</time></trkpt><trkpt lat="46.01923193969587" lon="12.051733957933617"><ele>373.0</ele><time>2026-03-24T12:12:56Z</time></trkpt><trkpt lat="46.01929990156331" lon="12.051614304095391"><ele>372.0</ele><time>2026-03-24T12:12:57Z</time></trkpt><trkpt lat="46.01937996183781" lon="12.051494646350099"><ele>371.0</ele><time>2026-03-24T12:12:58Z</time></trkpt><trkpt lat="46.01946166437938" lon="12.051366090249239"><ele>371.0</ele><time>2026-03-24T12:12:59Z</time></trkpt><trkpt lat="46.01954642177412" lon="12.051221457565516"><ele>371.0</ele><time>2026-03-24T12:13:00Z</time></trkpt><trkpt lat="46.019632171168624" lon="12.051087217734612"><ele>371.0</ele><time>2026-03-24T12:13:01Z</time></trkpt><trkpt lat="46.01973146986059" lon="12.050979292644634"><ele>371.0</ele><time>2026-03-24T12:13:02Z</time></trkpt><trkpt lat="46.01983229700577" lon="12.050869410856736"><ele>369.75</ele><time>2026-03-24T12:13:03Z</time></trkpt><trkpt lat="46.019930655245" lon="12.05073326917545"><ele>368.5</ele><time>2026-03-24T12:13:04Z</time></trkpt><trkpt lat="46.02002132881218" lon="12.05059659850068"><ele>367.25</ele><time>2026-03-24T12:13:05Z</time></trkpt><trkpt lat="46.020099008189" lon="12.050475226745126"><ele>366.0</ele><time>2026-03-24T12:13:06Z</time></trkpt><trkpt lat="46.02016680041847" lon="12.050358139682512"><ele>362.8333333333333</ele><time>2026-03-24T12:13:07Z</time></trkpt><trkpt lat="46.02022714337189" lon="12.0502608817"><ele>359.6666666666667</ele><time>2026-03-24T12:13:08Z</time></trkpt><trkpt lat="46.02028683276932" lon="12.050188514747516"><ele>356.5</ele><time>2026-03-24T12:13:09Z</time></trkpt><trkpt lat="46.02034814652862" lon="12.050154669619419"><ele>353.33333333333337</ele><time>2026-03-24T12:13:10Z</time></trkpt><trkpt lat="46.020442801695125" lon="12.050149195163145"><ele>350.1666666666667</ele><time>2026-03-24T12:13:11Z</time></trkpt><trkpt lat="46.020501821567926" lon="12.050208614327657"><ele>347.0</ele><time>2026-03-24T12:13:12Z</time></trkpt><trkpt lat="46.02052288845222" lon="12.050298602508992"><ele>347.0</ele><time>2026-03-24T12:13:13Z</time></trkpt><trkpt lat="46.020576180429245" lon="12.050406272446503"><ele>347.0</ele><time>2026-03-24T12:13:15Z</time></trkpt><trkpt lat="46.02060760418966" lon="12.050495743817683"><ele>347.0</ele><time>2026-03-24T12:13:21Z</time></trkpt><trkpt lat="46.020705098610414" lon="12.050547915912329"><ele>347.0</ele><time>2026-03-24T12:13:23Z</time></trkpt><trkpt lat="46.02078131321883" lon="12.050597680639585"><ele>347.0</ele><time>2026-03-24T12:13:25Z</time></trkpt><trkpt lat="46.02068212684068" lon="12.050544765847894"><ele>347.0</ele><time>2026-03-24T12:14:59Z</time></trkpt><trkpt lat="46.0206146104891" lon="12.050510156307567"><ele>347.0</ele><time>2026-03-24T12:15:00Z</time></trkpt><trkpt lat="46.020561522608745" lon="12.050455454175973"><ele>347.0</ele><time>2026-03-24T12:15:01Z</time></trkpt><trkpt lat="46.020516358297535" lon="12.05034470293218"><ele>347.0</ele><time>2026-03-24T12:15:03Z</time></trkpt><trkpt lat="46.0205232177034" lon="12.050437510670253"><ele>347.0</ele><time>2026-03-24T12:15:07Z</time></trkpt><trkpt lat="46.02063510360118" lon="12.050526445785533"><ele>347.0</ele><time>2026-03-24T12:15:09Z</time></trkpt><trkpt lat="46.0206910867104" lon="12.050570945183171"><ele>347.0</ele><time>2026-03-24T12:15:10Z</time></trkpt><trkpt lat="46.020772411011386" lon="12.050624273208024"><ele>347.0</ele><time>2026-03-24T12:15:11Z</time></trkpt><trkpt lat="46.020843461468665" lon="12.050654575183973"><ele>347.0</ele><time>2026-03-24T12:15:12Z</time></trkpt><trkpt lat="46.02093401371664" lon="12.05067220591827"><ele>347.0</ele><time>2026-03-24T12:15:13Z</time></trkpt><trkpt lat="46.02105647136933" lon="12.050699337590157"><ele>347.0</ele><time>2026-03-24T12:15:15Z</time></trkpt><trkpt lat="46.02112221331725" lon="12.050714621742703"><ele>347.0</ele><time>2026-03-24T12:15:16Z</time></trkpt><trkpt lat="46.02119516030331" lon="12.050732004102697"><ele>349.6</ele><time>2026-03-24T12:15:17Z</time></trkpt><trkpt lat="46.0213262821656" lon="12.050767984986944"><ele>352.20000000000005</ele><time>2026-03-24T12:15:19Z</time></trkpt><trkpt lat="46.02139865610724" lon="12.050805024615853"><ele>354.8</ele><time>2026-03-24T12:15:21Z</time></trkpt><trkpt lat="46.02144343610314" lon="12.050881691715892"><ele>357.4</ele><time>2026-03-24T12:15:24Z</time></trkpt><trkpt lat="46.02142606620757" lon="12.051011917635382"><ele>360.0</ele><time>2026-03-24T12:15:28Z</time></trkpt><trkpt lat="46.02137006942867" lon="12.051101684657324"><ele>366.6666666666667</ele><time>2026-03-24T12:15:30.999Z</time></trkpt><trkpt lat="46.02135048969349" lon="12.051191987647147"><ele>373.33333333333337</ele><time>2026-03-24T12:15:31.999Z</time></trkpt><trkpt lat="46.02130227217411" lon="12.05139230587102"><ele>380.0</ele><time>2026-03-24T12:15:32.999Z</time></trkpt><trkpt lat="46.02145503049249" lon="12.051959559184498"><ele>381.33333333333337</ele><time>2026-03-24T12:15:33.999Z</time></trkpt><trkpt lat="46.02150160487931" lon="12.052028115041216"><ele>382.6666666666667</ele><time>2026-03-24T12:15:34.999Z</time></trkpt><trkpt lat="46.02159578899929" lon="12.05210404836696"><ele>384.0</ele><time>2026-03-24T12:15:36.999Z</time></trkpt><trkpt lat="46.022187295201455" lon="12.052127625133824"><ele>384.0</ele><time>2026-03-24T12:15:47.999Z</time></trkpt><trkpt lat="46.02229181549781" lon="12.052058958466377"><ele>384.0</ele><time>2026-03-24T12:15:49.999Z</time></trkpt><trkpt lat="46.022393521547535" lon="12.05195141834468"><ele>384.0</ele><time>2026-03-24T12:15:52Z</time></trkpt><trkpt lat="46.022455150686255" lon="12.051874408808093"><ele>384.0</ele><time>2026-03-24T12:15:53Z</time></trkpt><trkpt lat="46.022519192646776" lon="12.051802009590302"><ele>384.0</ele><time>2026-03-24T12:15:54Z</time></trkpt><trkpt lat="46.02258821590214" lon="12.051748130243503"><ele>379.1666666666667</ele><time>2026-03-24T12:15:55Z</time></trkpt><trkpt lat="46.02265791992683" lon="12.051709573193529"><ele>374.3333333333333</ele><time>2026-03-24T12:15:56Z</time></trkpt><trkpt lat="46.02272371781006" lon="12.051691756498471"><ele>369.5</ele><time>2026-03-24T12:15:57Z</time></trkpt><trkpt lat="46.02279217279228" lon="12.051704336783715"><ele>364.66666666666663</ele><time>2026-03-24T12:15:58Z</time></trkpt><trkpt lat="46.022876964470015" lon="12.051740101610353"><ele>359.8333333333333</ele><time>2026-03-24T12:15:59Z</time></trkpt><trkpt lat="46.02297251072307" lon="12.051737538639468"><ele>355.0</ele><time>2026-03-24T12:16:00Z</time></trkpt><trkpt lat="46.023067075796654" lon="12.051694516841279"><ele>355.0</ele><time>2026-03-24T12:16:01Z</time></trkpt><trkpt lat="46.02314380414361" lon="12.0516697545125"><ele>355.0</ele><time>2026-03-24T12:16:02Z</time></trkpt><trkpt lat="46.02322342666619" lon="12.051686928320601"><ele>355.0</ele><time>2026-03-24T12:16:03Z</time></trkpt><trkpt lat="46.02329636527023" lon="12.05168749672464"><ele>355.0</ele><time>2026-03-24T12:16:04Z</time></trkpt><trkpt lat="46.02337696971253" lon="12.051739871779013"><ele>355.0</ele><time>2026-03-24T12:16:05Z</time></trkpt><trkpt lat="46.023456886346125" lon="12.051794512869408"><ele>355.0</ele><time>2026-03-24T12:16:06Z</time></trkpt><trkpt lat="46.023576455581605" lon="12.051856434550977"><ele>353.25</ele><time>2026-03-24T12:16:07Z</time></trkpt><trkpt lat="46.0236910975845" lon="12.051936890303137"><ele>351.5</ele><time>2026-03-24T12:16:08Z</time></trkpt><trkpt lat="46.02381256328459" lon="12.052004860593145"><ele>349.75</ele><time>2026-03-24T12:16:09Z</time></trkpt><trkpt lat="46.02393196070923" lon="12.052107806476904"><ele>348.0</ele><time>2026-03-24T12:16:10Z</time></trkpt><trkpt lat="46.02404588641628" lon="12.052174850186546"><ele>347.4</ele><time>2026-03-24T12:16:11Z</time></trkpt><trkpt lat="46.02415820306596" lon="12.052255617935945"><ele>346.79999999999995</ele><time>2026-03-24T12:16:12Z</time></trkpt><trkpt lat="46.02426246534833" lon="12.052335990572287"><ele>346.2</ele><time>2026-03-24T12:16:13Z</time></trkpt><trkpt lat="46.02433944990994" lon="12.052419751453048"><ele>345.6</ele><time>2026-03-24T12:16:14Z</time></trkpt><trkpt lat="46.024424696143846" lon="12.052480535886971"><ele>345.0</ele><time>2026-03-24T12:16:15Z</time></trkpt><trkpt lat="46.02449438811052" lon="12.052520723405701"><ele>345.0</ele><time>2026-03-24T12:16:16Z</time></trkpt><trkpt lat="46.02456078103448" lon="12.052539816817173"><ele>345.0</ele><time>2026-03-24T12:16:17Z</time></trkpt><trkpt lat="46.024630443609865" lon="12.052497114871874"><ele>345.0</ele><time>2026-03-24T12:16:18Z</time></trkpt><trkpt lat="46.02469081224123" lon="12.052401210041191"><ele>345.0</ele><time>2026-03-24T12:16:19Z</time></trkpt><trkpt lat="46.024748682860476" lon="12.052297769826959"><ele>345.0</ele><time>2026-03-24T12:16:20Z</time></trkpt><trkpt lat="46.02481417767485" lon="12.052248111931593"><ele>345.0</ele><time>2026-03-24T12:16:21Z</time></trkpt><trkpt lat="46.02490323849128" lon="12.05227878661973"><ele>344.0</ele><time>2026-03-24T12:16:22Z</time></trkpt><trkpt lat="46.02500101448212" lon="12.052283269968905"><ele>343.0</ele><time>2026-03-24T12:16:23Z</time></trkpt><trkpt lat="46.02511132887319" lon="12.052252036000533"><ele>342.0</ele><time>2026-03-24T12:16:24Z</time></trkpt><trkpt lat="46.025203639709304" lon="12.052233012640736"><ele>341.0</ele><time>2026-03-24T12:16:25Z</time></trkpt><trkpt lat="46.025295040589825" lon="12.052187634862806"><ele>340.0</ele><time>2026-03-24T12:16:26Z</time></trkpt><trkpt lat="46.0253613949" lon="12.052119442834304"><ele>340.0</ele><time>2026-03-24T12:16:27Z</time></trkpt><trkpt lat="46.025425612263405" lon="12.052028420810684"><ele>340.0</ele><time>2026-03-24T12:16:28Z</time></trkpt><trkpt lat="46.025499784467875" lon="12.051925988122452"><ele>340.0</ele><time>2026-03-24T12:16:29Z</time></trkpt><trkpt lat="46.02556461703988" lon="12.051866267176631"><ele>340.0</ele><time>2026-03-24T12:16:30Z</time></trkpt><trkpt lat="46.025628998603516" lon="12.051842215511938"><ele>340.0</ele><time>2026-03-24T12:16:31Z</time></trkpt><trkpt lat="46.025732795210466" lon="12.05192549796852"><ele>343.66666666666663</ele><time>2026-03-24T12:16:33Z</time></trkpt><trkpt lat="46.025823687038155" lon="12.05198606410674"><ele>347.3333333333333</ele><time>2026-03-24T12:16:34Z</time></trkpt><trkpt lat="46.02591184279108" lon="12.052057955108522"><ele>351.0</ele><time>2026-03-24T12:16:35Z</time></trkpt><trkpt lat="46.02598706542698" lon="12.052079589050415"><ele>354.6666666666667</ele><time>2026-03-24T12:16:36Z</time></trkpt><trkpt lat="46.026054099090345" lon="12.052062102794055"><ele>358.33333333333337</ele><time>2026-03-24T12:16:37Z</time></trkpt><trkpt lat="46.02608053089728" lon="12.051927493923472"><ele>362.0</ele><time>2026-03-24T12:16:39Z</time></trkpt><trkpt lat="46.026144215731385" lon="12.051750220806708"><ele>362.0</ele><time>2026-03-24T12:16:41Z</time></trkpt><trkpt lat="46.026178266770245" lon="12.051634061489297"><ele>362.0</ele><time>2026-03-24T12:16:42Z</time></trkpt><trkpt lat="46.02622093025432" lon="12.051517395184396"><ele>362.0</ele><time>2026-03-24T12:16:43Z</time></trkpt><trkpt lat="46.02631432924375" lon="12.051428726204001"><ele>362.0</ele><time>2026-03-24T12:16:44Z</time></trkpt><trkpt lat="46.02638097750647" lon="12.051302802909422"><ele>362.0</ele><time>2026-03-24T12:16:45Z</time></trkpt><trkpt lat="46.026442209915864" lon="12.051207130788773"><ele>359.6</ele><time>2026-03-24T12:16:46Z</time></trkpt><trkpt lat="46.02646069410168" lon="12.051094126874817"><ele>357.20000000000005</ele><time>2026-03-24T12:16:47Z</time></trkpt><trkpt lat="46.02646076014723" lon="12.050946627965773"><ele>354.8</ele><time>2026-03-24T12:16:48Z</time></trkpt><trkpt lat="46.026489913100804" lon="12.050806171920469"><ele>352.4</ele><time>2026-03-24T12:16:49Z</time></trkpt><trkpt lat="46.02650638376528" lon="12.050669943129634"><ele>350.0</ele><time>2026-03-24T12:16:50Z</time></trkpt><trkpt lat="46.026520052442095" lon="12.050537439009585"><ele>350.0</ele><time>2026-03-24T12:16:51Z</time></trkpt><trkpt lat="46.0265099474793" lon="12.050393659073523"><ele>350.0</ele><time>2026-03-24T12:16:52Z</time></trkpt><trkpt lat="46.02648760497348" lon="12.05025633551457"><ele>350.0</ele><time>2026-03-24T12:16:53Z</time></trkpt><trkpt lat="46.02647259504911" lon="12.05015223326502"><ele>350.0</ele><time>2026-03-24T12:16:54Z</time></trkpt><trkpt lat="46.02646260309297" lon="12.050056478277918"><ele>350.0</ele><time>2026-03-24T12:16:55Z</time></trkpt><trkpt lat="46.026483060198856" lon="12.049904716650934"><ele>350.0</ele><time>2026-03-24T12:16:57Z</time></trkpt><trkpt lat="46.02654038510128" lon="12.049795873452243"><ele>353.5</ele><time>2026-03-24T12:16:59Z</time></trkpt><trkpt lat="46.02661831603078" lon="12.049779348478475"><ele>357.0</ele><time>2026-03-24T12:17:00Z</time></trkpt><trkpt lat="46.02668033171636" lon="12.049732290328585"><ele>360.5</ele><time>2026-03-24T12:17:01Z</time></trkpt><trkpt lat="46.026737456994645" lon="12.049678434698079"><ele>364.0</ele><time>2026-03-24T12:17:02Z</time></trkpt><trkpt lat="46.02679838485126" lon="12.049596425292206"><ele>367.5</ele><time>2026-03-24T12:17:03Z</time></trkpt><trkpt lat="46.026881699145775" lon="12.049528795279867"><ele>371.0</ele><time>2026-03-24T12:17:04Z</time></trkpt><trkpt lat="46.02697704875148" lon="12.04952083812507"><ele>371.0</ele><time>2026-03-24T12:17:05Z</time></trkpt><trkpt lat="46.027069740369" lon="12.049501561041142"><ele>371.0</ele><time>2026-03-24T12:17:06Z</time></trkpt><trkpt lat="46.027174061301906" lon="12.049479865409667"><ele>371.0</ele><time>2026-03-24T12:17:07Z</time></trkpt><trkpt lat="46.02727917470855" lon="12.049432135945757"><ele>371.0</ele><time>2026-03-24T12:17:08Z</time></trkpt><trkpt lat="46.027390215509435" lon="12.049409647597317"><ele>371.0</ele><time>2026-03-24T12:17:09Z</time></trkpt><trkpt lat="46.02751509448251" lon="12.049385048318163"><ele>370.20000000000005</ele><time>2026-03-24T12:17:10Z</time></trkpt><trkpt lat="46.02762881110684" lon="12.049381946161942"><ele>369.40000000000003</ele><time>2026-03-24T12:17:11Z</time></trkpt><trkpt lat="46.0277314592849" lon="12.049407027371672"><ele>368.6</ele><time>2026-03-24T12:17:12Z</time></trkpt><trkpt lat="46.02781842172627" lon="12.049461119500673"><ele>367.8</ele><time>2026-03-24T12:17:13Z</time></trkpt><trkpt lat="46.02791097785207" lon="12.04953390087078"><ele>367.0</ele><time>2026-03-24T12:17:14Z</time></trkpt><trkpt lat="46.0280008472563" lon="12.049648845429791"><ele>367.0</ele><time>2026-03-24T12:17:15Z</time></trkpt><trkpt lat="46.02807246393216" lon="12.049736383820157"><ele>367.0</ele><time>2026-03-24T12:17:16Z</time></trkpt><trkpt lat="46.02812736337855" lon="12.049803624880713"><ele>367.0</ele><time>2026-03-24T12:17:17Z</time></trkpt><trkpt lat="46.02815710601368" lon="12.049897895176345"><ele>367.0</ele><time>2026-03-24T12:17:18Z</time></trkpt><trkpt lat="46.02817359154947" lon="12.050039880351264"><ele>367.0</ele><time>2026-03-24T12:17:19Z</time></trkpt><trkpt lat="46.02819342927243" lon="12.050188441375163"><ele>367.0</ele><time>2026-03-24T12:17:20Z</time></trkpt><trkpt lat="46.028251836688355" lon="12.050323597982157"><ele>365.40000000000003</ele><time>2026-03-24T12:17:21Z</time></trkpt><trkpt lat="46.028300535953775" lon="12.050440695309568"><ele>363.8</ele><time>2026-03-24T12:17:22Z</time></trkpt><trkpt lat="46.02832718192972" lon="12.050537445657762"><ele>362.2</ele><time>2026-03-24T12:17:23Z</time></trkpt><trkpt lat="46.02840570874048" lon="12.050611393607035"><ele>360.6</ele><time>2026-03-24T12:17:25Z</time></trkpt><trkpt lat="46.02850137116207" lon="12.050514041818085"><ele>359.0</ele><time>2026-03-24T12:17:27Z</time></trkpt><trkpt lat="46.028533797739726" lon="12.050405348252337"><ele>359.0</ele><time>2026-03-24T12:17:28Z</time></trkpt><trkpt lat="46.02856477224439" lon="12.050254002583912"><ele>359.0</ele><time>2026-03-24T12:17:29Z</time></trkpt><trkpt lat="46.02859530608166" lon="12.05010767536036"><ele>359.0</ele><time>2026-03-24T12:17:30Z</time></trkpt><trkpt lat="46.028611874413855" lon="12.049964510948177"><ele>359.0</ele><time>2026-03-24T12:17:31Z</time></trkpt><trkpt lat="46.028611868663184" lon="12.049843785725034"><ele>359.0</ele><time>2026-03-24T12:17:32Z</time></trkpt><trkpt lat="46.02862789609373" lon="12.0497132205194"><ele>357.1666666666667</ele><time>2026-03-24T12:17:33Z</time></trkpt><trkpt lat="46.02866628934396" lon="12.049612973524285"><ele>355.33333333333337</ele><time>2026-03-24T12:17:34Z</time></trkpt><trkpt lat="46.02871250087306" lon="12.049526043139513"><ele>353.5</ele><time>2026-03-24T12:17:35Z</time></trkpt><trkpt lat="46.02877573659424" lon="12.04944796052528"><ele>351.6666666666667</ele><time>2026-03-24T12:17:35.999Z</time></trkpt><trkpt lat="46.028836998257624" lon="12.049370107118754"><ele>349.8333333333333</ele><time>2026-03-24T12:17:36.999Z</time></trkpt><trkpt lat="46.02889210950495" lon="12.04930859980522"><ele>348.0</ele><time>2026-03-24T12:17:37.999Z</time></trkpt><trkpt lat="46.02894659525733" lon="12.049249333457949"><ele>348.0</ele><time>2026-03-24T12:17:38.999Z</time></trkpt><trkpt lat="46.0290084186014" lon="12.049192459941889"><ele>348.0</ele><time>2026-03-24T12:17:39.999Z</time></trkpt><trkpt lat="46.029084833033274" lon="12.049153249319167"><ele>348.0</ele><time>2026-03-24T12:17:40.999Z</time></trkpt><trkpt lat="46.02917459211454" lon="12.04913758923463"><ele>348.0</ele><time>2026-03-24T12:17:41.999Z</time></trkpt><trkpt lat="46.02928329587435" lon="12.049143541302856"><ele>348.0</ele><time>2026-03-24T12:17:42.999Z</time></trkpt><trkpt lat="46.02939785489195" lon="12.049161560586384"><ele>347.75</ele><time>2026-03-24T12:17:43.999Z</time></trkpt><trkpt lat="46.029524980340355" lon="12.049188962460832"><ele>347.5</ele><time>2026-03-24T12:17:44.999Z</time></trkpt><trkpt lat="46.029629225557116" lon="12.049207385415412"><ele>347.25</ele><time>2026-03-24T12:17:45.999Z</time></trkpt><trkpt lat="46.02973265667696" lon="12.049232602462371"><ele>347.0</ele><time>2026-03-24T12:17:46.999Z</time></trkpt><trkpt lat="46.029852845647696" lon="12.049276159198776"><ele>347.0</ele><time>2026-03-24T12:17:47.999Z</time></trkpt><trkpt lat="46.02996275060155" lon="12.049311736399233"><ele>347.0</ele><time>2026-03-24T12:17:48.999Z</time></trkpt><trkpt lat="46.030060887542625" lon="12.049357962454586"><ele>347.0</ele><time>2026-03-24T12:17:49.999Z</time></trkpt><trkpt lat="46.030150793208925" lon="12.049407662151266"><ele>347.0</ele><time>2026-03-24T12:17:50.999Z</time></trkpt><trkpt lat="46.030244413851456" lon="12.049444173392912"><ele>347.0</ele><time>2026-03-24T12:17:51.999Z</time></trkpt><trkpt lat="46.030336890742284" lon="12.049462357854896"><ele>346.0</ele><time>2026-03-24T12:17:52.999Z</time></trkpt><trkpt lat="46.030423330402726" lon="12.04949468049235"><ele>345.0</ele><time>2026-03-24T12:17:53.999Z</time></trkpt><trkpt lat="46.03051768932393" lon="12.049544894954664"><ele>344.0</ele><time>2026-03-24T12:17:54.999Z</time></trkpt><trkpt lat="46.030609005044504" lon="12.049608640154737"><ele>343.0</ele><time>2026-03-24T12:17:55.999Z</time></trkpt><trkpt lat="46.030687355956644" lon="12.049682786431065"><ele>342.0</ele><time>2026-03-24T12:17:56.999Z</time></trkpt><trkpt lat="46.0307576518616" lon="12.049760828233778"><ele>341.5</ele><time>2026-03-24T12:17:57.999Z</time></trkpt><trkpt lat="46.03081960322021" lon="12.049848592799197"><ele>341.0</ele><time>2026-03-24T12:17:58.999Z</time></trkpt><trkpt lat="46.03087413843434" lon="12.04991420513691"><ele>340.5</ele><time>2026-03-24T12:17:59.999Z</time></trkpt><trkpt lat="46.03092884400319" lon="12.04995925088145"><ele>340.0</ele><time>2026-03-24T12:18:00.999Z</time></trkpt><trkpt lat="46.030993347059464" lon="12.049968181633727"><ele>339.5</ele><time>2026-03-24T12:18:02Z</time></trkpt><trkpt lat="46.031078834496796" lon="12.049840948609697"><ele>339.0</ele><time>2026-03-24T12:18:04Z</time></trkpt><trkpt lat="46.031075798023096" lon="12.049743290919455"><ele>339.0</ele><time>2026-03-24T12:18:05Z</time></trkpt><trkpt lat="46.03105743640191" lon="12.049602426717446"><ele>339.0</ele><time>2026-03-24T12:18:06Z</time></trkpt><trkpt lat="46.03105347220389" lon="12.049479951898443"><ele>339.0</ele><time>2026-03-24T12:18:07Z</time></trkpt><trkpt lat="46.031093967496886" lon="12.049391672678409"><ele>339.0</ele><time>2026-03-24T12:18:08Z</time></trkpt><trkpt lat="46.03116714572441" lon="12.04931048164406"><ele>339.0</ele><time>2026-03-24T12:18:09Z</time></trkpt><trkpt lat="46.03127224005641" lon="12.049282688078428"><ele>339.0</ele><time>2026-03-24T12:18:10Z</time></trkpt><trkpt lat="46.031367742843734" lon="12.04924607026846"><ele>339.0</ele><time>2026-03-24T12:18:11Z</time></trkpt><trkpt lat="46.03144278043107" lon="12.049250528841073"><ele>339.0</ele><time>2026-03-24T12:18:12Z</time></trkpt><trkpt lat="46.03154859646338" lon="12.049347346638429"><ele>339.0</ele><time>2026-03-24T12:18:14Z</time></trkpt><trkpt lat="46.031660708168594" lon="12.049318409734092"><ele>339.0</ele><time>2026-03-24T12:18:16Z</time></trkpt><trkpt lat="46.03169537586655" lon="12.049224686497826"><ele>340.6</ele><time>2026-03-24T12:18:17Z</time></trkpt><trkpt lat="46.03171447295583" lon="12.049080687468743"><ele>342.2</ele><time>2026-03-24T12:18:18Z</time></trkpt><trkpt lat="46.031731369182886" lon="12.048912842399714"><ele>343.8</ele><time>2026-03-24T12:18:19Z</time></trkpt><trkpt lat="46.03176079248738" lon="12.048760415980825"><ele>345.40000000000003</ele><time>2026-03-24T12:18:20Z</time></trkpt><trkpt lat="46.0318038063857" lon="12.048635902696967"><ele>347.0</ele><time>2026-03-24T12:18:21Z</time></trkpt><trkpt lat="46.03185474954647" lon="12.048508640932688"><ele>347.0</ele><time>2026-03-24T12:18:22Z</time></trkpt><trkpt lat="46.03187648745983" lon="12.048372205926093"><ele>347.0</ele><time>2026-03-24T12:18:23Z</time></trkpt><trkpt lat="46.03190113910972" lon="12.048203439943048"><ele>347.0</ele><time>2026-03-24T12:18:24Z</time></trkpt><trkpt lat="46.03191932360173" lon="12.048068556527744"><ele>347.0</ele><time>2026-03-24T12:18:25Z</time></trkpt><trkpt lat="46.03190679597071" lon="12.04793305290069"><ele>347.0</ele><time>2026-03-24T12:18:26Z</time></trkpt><trkpt lat="46.03188002117537" lon="12.047794293827607"><ele>346.0</ele><time>2026-03-24T12:18:27Z</time></trkpt><trkpt lat="46.031857311425426" lon="12.047678186998784"><ele>345.0</ele><time>2026-03-24T12:18:28Z</time></trkpt><trkpt lat="46.03186079420416" lon="12.047578001370441"><ele>344.0</ele><time>2026-03-24T12:18:29Z</time></trkpt><trkpt lat="46.031887547127354" lon="12.047479233635972"><ele>343.0</ele><time>2026-03-24T12:18:30Z</time></trkpt><trkpt lat="46.03197571557819" lon="12.047468807290429"><ele>342.0</ele><time>2026-03-24T12:18:31Z</time></trkpt><trkpt lat="46.032046225072335" lon="12.047419778899762"><ele>341.0</ele><time>2026-03-24T12:18:32Z</time></trkpt><trkpt lat="46.032151718594704" lon="12.04736311805094"><ele>339.5</ele><time>2026-03-24T12:18:33Z</time></trkpt><trkpt lat="46.032274576371414" lon="12.047315210926572"><ele>338.0</ele><time>2026-03-24T12:18:34Z</time></trkpt><trkpt lat="46.03240027266586" lon="12.047261268941497"><ele>336.5</ele><time>2026-03-24T12:18:35Z</time></trkpt><trkpt lat="46.03251644544601" lon="12.04719967320075"><ele>335.0</ele><time>2026-03-24T12:18:36Z</time></trkpt><trkpt lat="46.03261083074899" lon="12.047157027490247"><ele>335.0</ele><time>2026-03-24T12:18:37Z</time></trkpt><trkpt lat="46.03269434721944" lon="12.047128169043985"><ele>335.0</ele><time>2026-03-24T12:18:38Z</time></trkpt><trkpt lat="46.032770698051245" lon="12.04711066721868"><ele>335.0</ele><time>2026-03-24T12:18:39Z</time></trkpt><trkpt lat="46.03286318554801" lon="12.047098788267766"><ele>335.0</ele><time>2026-03-24T12:18:40Z</time></trkpt><trkpt lat="46.03296454608455" lon="12.047108651098009"><ele>335.0</ele><time>2026-03-24T12:18:41Z</time></trkpt><trkpt lat="46.033061444443284" lon="12.047107381903313"><ele>335.0</ele><time>2026-03-24T12:18:42Z</time></trkpt><trkpt lat="46.03314577419458" lon="12.047140992293873"><ele>335.0</ele><time>2026-03-24T12:18:43Z</time></trkpt><trkpt lat="46.03323678500282" lon="12.047141874131688"><ele>335.0</ele><time>2026-03-24T12:18:44Z</time></trkpt><trkpt lat="46.03333261201121" lon="12.047104932040174"><ele>335.0</ele><time>2026-03-24T12:18:45Z</time></trkpt><trkpt lat="46.03339785758987" lon="12.04698605076581"><ele>335.0</ele><time>2026-03-24T12:18:46Z</time></trkpt><trkpt lat="46.03348831984036" lon="12.046852320427737"><ele>333.5</ele><time>2026-03-24T12:18:47Z</time></trkpt><trkpt lat="46.03359322669064" lon="12.046712715022508"><ele>332.0</ele><time>2026-03-24T12:18:48Z</time></trkpt><trkpt lat="46.033682696834596" lon="12.046569800687664"><ele>330.5</ele><time>2026-03-24T12:18:49Z</time></trkpt><trkpt lat="46.033773944976005" lon="12.04644569043824"><ele>329.0</ele><time>2026-03-24T12:18:50Z</time></trkpt><trkpt lat="46.03387054642574" lon="12.046336769389459"><ele>329.0</ele><time>2026-03-24T12:18:51Z</time></trkpt><trkpt lat="46.03395530764394" lon="12.04623995691675"><ele>329.0</ele><time>2026-03-24T12:18:52Z</time></trkpt><trkpt lat="46.03403441663046" lon="12.046156945348729"><ele>329.0</ele><time>2026-03-24T12:18:53Z</time></trkpt><trkpt lat="46.034106386892795" lon="12.046097707732745"><ele>329.0</ele><time>2026-03-24T12:18:54Z</time></trkpt><trkpt lat="46.034174220150646" lon="12.046069997418437"><ele>329.0</ele><time>2026-03-24T12:18:55Z</time></trkpt><trkpt lat="46.03424666802739" lon="12.046071175603911"><ele>329.0</ele><time>2026-03-24T12:18:56Z</time></trkpt><trkpt lat="46.03432628104162" lon="12.046090235455875"><ele>334.0</ele><time>2026-03-24T12:18:57Z</time></trkpt><trkpt lat="46.03439260418525" lon="12.046207542379241"><ele>339.0</ele><time>2026-03-24T12:18:58Z</time></trkpt><trkpt lat="46.03451042714043" lon="12.046280532137128"><ele>344.0</ele><time>2026-03-24T12:18:59Z</time></trkpt><trkpt lat="46.034619808727676" lon="12.046357612860241"><ele>349.0</ele><time>2026-03-24T12:19:00Z</time></trkpt><trkpt lat="46.034733014652865" lon="12.046383121438513"><ele>349.0</ele><time>2026-03-24T12:19:01Z</time></trkpt><trkpt lat="46.03484715006129" lon="12.04637932341671"><ele>349.0</ele><time>2026-03-24T12:19:02Z</time></trkpt><trkpt lat="46.0349585700295" lon="12.046341496456668"><ele>349.0</ele><time>2026-03-24T12:19:03Z</time></trkpt><trkpt lat="46.035057619148915" lon="12.046302002486565"><ele>349.0</ele><time>2026-03-24T12:19:04Z</time></trkpt><trkpt lat="46.035139571911714" lon="12.046276068333224"><ele>349.0</ele><time>2026-03-24T12:19:05Z</time></trkpt><trkpt lat="46.03520638065445" lon="12.046273834141273"><ele>351.2</ele><time>2026-03-24T12:19:06Z</time></trkpt><trkpt lat="46.03529080594825" lon="12.046397100844098"><ele>353.4</ele><time>2026-03-24T12:19:08Z</time></trkpt><trkpt lat="46.035274635392526" lon="12.046535446333428"><ele>355.6</ele><time>2026-03-24T12:19:09Z</time></trkpt><trkpt lat="46.03530266544543" lon="12.046690954096292"><ele>357.8</ele><time>2026-03-24T12:19:10Z</time></trkpt><trkpt lat="46.035327032538945" lon="12.04685251961736"><ele>360.0</ele><time>2026-03-24T12:19:11Z</time></trkpt><trkpt lat="46.035354087345006" lon="12.046990734552823"><ele>363.0</ele><time>2026-03-24T12:19:12Z</time></trkpt><trkpt lat="46.03541114026184" lon="12.04709948896833"><ele>366.0</ele><time>2026-03-24T12:19:13Z</time></trkpt><trkpt lat="46.035466326093434" lon="12.047218340733497"><ele>369.0</ele><time>2026-03-24T12:19:14Z</time></trkpt><trkpt lat="46.03544351002673" lon="12.047334767718876"><ele>372.0</ele><time>2026-03-24T12:19:15Z</time></trkpt><trkpt lat="46.03546094372363" lon="12.047465599647165"><ele>375.0</ele><time>2026-03-24T12:19:16Z</time></trkpt><trkpt lat="46.035478961315576" lon="12.04758428453089"><ele>373.4</ele><time>2026-03-24T12:19:17Z</time></trkpt><trkpt lat="46.03549956223748" lon="12.04767825114137"><ele>371.8</ele><time>2026-03-24T12:19:18Z</time></trkpt><trkpt lat="46.03561412983787" lon="12.047772806983385"><ele>370.20000000000005</ele><time>2026-03-24T12:19:20Z</time></trkpt><trkpt lat="46.03569152447037" lon="12.047698148001981"><ele>368.6</ele><time>2026-03-24T12:19:21Z</time></trkpt><trkpt lat="46.03575233522003" lon="12.047562043054317"><ele>367.0</ele><time>2026-03-24T12:19:22Z</time></trkpt><trkpt lat="46.035838519458636" lon="12.047490816046835"><ele>364.40000000000003</ele><time>2026-03-24T12:19:23Z</time></trkpt><trkpt lat="46.03592592799412" lon="12.047411435877715"><ele>361.8</ele><time>2026-03-24T12:19:24Z</time></trkpt><trkpt lat="46.036023927577304" lon="12.047341310185704"><ele>359.2</ele><time>2026-03-24T12:19:25Z</time></trkpt><trkpt lat="46.03608574738774" lon="12.047263764627663"><ele>356.6</ele><time>2026-03-24T12:19:26Z</time></trkpt><trkpt lat="46.036146863017755" lon="12.047189890824368"><ele>354.0</ele><time>2026-03-24T12:19:27Z</time></trkpt><trkpt lat="46.03614068331096" lon="12.04705542193476"><ele>354.0</ele><time>2026-03-24T12:19:28Z</time></trkpt><trkpt lat="46.036144588401456" lon="12.046922361595602"><ele>354.0</ele><time>2026-03-24T12:19:29Z</time></trkpt><trkpt lat="46.03615780186563" lon="12.046807967876592"><ele>354.0</ele><time>2026-03-24T12:19:30Z</time></trkpt><trkpt lat="46.03620186236855" lon="12.046727037343391"><ele>354.0</ele><time>2026-03-24T12:19:31Z</time></trkpt><trkpt lat="46.03628530295247" lon="12.046654979382517"><ele>354.0</ele><time>2026-03-24T12:19:32Z</time></trkpt><trkpt lat="46.03638459917934" lon="12.046566281300231"><ele>353.0</ele><time>2026-03-24T12:19:33Z</time></trkpt><trkpt lat="46.03648805736844" lon="12.0464697288561"><ele>352.0</ele><time>2026-03-24T12:19:34Z</time></trkpt><trkpt lat="46.03658159069793" lon="12.046403486645323"><ele>351.0</ele><time>2026-03-24T12:19:35Z</time></trkpt><trkpt lat="46.03666694492786" lon="12.046412862703491"><ele>350.0</ele><time>2026-03-24T12:19:36Z</time></trkpt><trkpt lat="46.03673541765145" lon="12.046461637299752"><ele>349.0</ele><time>2026-03-24T12:19:37.001Z</time></trkpt><trkpt lat="46.036817911515094" lon="12.046450286737633"><ele>349.0</ele><time>2026-03-24T12:19:38.001Z</time></trkpt><trkpt lat="46.03692319028355" lon="12.046348336006147"><ele>349.0</ele><time>2026-03-24T12:19:40.001Z</time></trkpt><trkpt lat="46.03698593378524" lon="12.046253331366835"><ele>349.0</ele><time>2026-03-24T12:19:41.001Z</time></trkpt><trkpt lat="46.037039624829966" lon="12.046168968488812"><ele>349.0</ele><time>2026-03-24T12:19:42Z</time></trkpt><trkpt lat="46.037091284231124" lon="12.046078107218232"><ele>349.0</ele><time>2026-03-24T12:19:43Z</time></trkpt><trkpt lat="46.03713736501914" lon="12.04599547725626"><ele>349.0</ele><time>2026-03-24T12:19:44Z</time></trkpt><trkpt lat="46.037213263173165" lon="12.04592052316628"><ele>349.0</ele><time>2026-03-24T12:19:45Z</time></trkpt><trkpt lat="46.037262443008075" lon="12.045817007081542"><ele>349.0</ele><time>2026-03-24T12:19:46Z</time></trkpt><trkpt lat="46.0373095290523" lon="12.045706650350393"><ele>349.0</ele><time>2026-03-24T12:19:47Z</time></trkpt><trkpt lat="46.03736826764477" lon="12.04557218264998"><ele>349.0</ele><time>2026-03-24T12:19:48Z</time></trkpt><trkpt lat="46.03742450679973" lon="12.04544388297368"><ele>349.66666666666663</ele><time>2026-03-24T12:19:49Z</time></trkpt><trkpt lat="46.037469854740046" lon="12.045338634006608"><ele>350.3333333333333</ele><time>2026-03-24T12:19:50Z</time></trkpt><trkpt lat="46.03749549759418" lon="12.045241216170558"><ele>351.0</ele><time>2026-03-24T12:19:51Z</time></trkpt><trkpt lat="46.03754014150535" lon="12.045171934153624"><ele>351.6666666666667</ele><time>2026-03-24T12:19:52Z</time></trkpt><trkpt lat="46.03759293694085" lon="12.045098072213563"><ele>352.33333333333337</ele><time>2026-03-24T12:19:53Z</time></trkpt><trkpt lat="46.03766844996991" lon="12.04501511326311"><ele>353.0</ele><time>2026-03-24T12:19:54Z</time></trkpt><trkpt lat="46.03775893183174" lon="12.044934340862754"><ele>346.0</ele><time>2026-03-24T12:19:55Z</time></trkpt><trkpt lat="46.037857821087755" lon="12.044875141590822"><ele>339.0</ele><time>2026-03-24T12:19:56Z</time></trkpt><trkpt lat="46.03797420405381" lon="12.044832107814583"><ele>332.0</ele><time>2026-03-24T12:19:57Z</time></trkpt><trkpt lat="46.03808832549377" lon="12.04480006463769"><ele>325.0</ele><time>2026-03-24T12:19:58Z</time></trkpt><trkpt lat="46.03818745736936" lon="12.044779910882493"><ele>318.0</ele><time>2026-03-24T12:19:59Z</time></trkpt><trkpt lat="46.038290724003666" lon="12.044753401749432"><ele>323.8</ele><time>2026-03-24T12:20:00Z</time></trkpt><trkpt lat="46.03839297025422" lon="12.044710343902176"><ele>329.6</ele><time>2026-03-24T12:20:01Z</time></trkpt><trkpt lat="46.038493657119176" lon="12.044665905380628"><ele>335.40000000000003</ele><time>2026-03-24T12:20:02Z</time></trkpt><trkpt lat="46.03859831723723" lon="12.044610675396484"><ele>341.20000000000005</ele><time>2026-03-24T12:20:03Z</time></trkpt><trkpt lat="46.03870108792491" lon="12.044534247502868"><ele>347.0</ele><time>2026-03-24T12:20:04Z</time></trkpt><trkpt lat="46.03879856018974" lon="12.044457240531788"><ele>347.0</ele><time>2026-03-24T12:20:05Z</time></trkpt><trkpt lat="46.03888735201031" lon="12.044373401728189"><ele>347.0</ele><time>2026-03-24T12:20:06Z</time></trkpt><trkpt lat="46.038976453986194" lon="12.044270809024175"><ele>347.0</ele><time>2026-03-24T12:20:07Z</time></trkpt><trkpt lat="46.03906321609773" lon="12.044155941152049"><ele>347.0</ele><time>2026-03-24T12:20:08Z</time></trkpt><trkpt lat="46.03913213505048" lon="12.044046303271559"><ele>347.0</ele><time>2026-03-24T12:20:09Z</time></trkpt><trkpt lat="46.03919882676308" lon="12.043939950773378"><ele>344.40000000000003</ele><time>2026-03-24T12:20:10Z</time></trkpt><trkpt lat="46.03926691126541" lon="12.043834010390825"><ele>341.8</ele><time>2026-03-24T12:20:11Z</time></trkpt><trkpt lat="46.03934211582799" lon="12.043739788300568"><ele>339.2</ele><time>2026-03-24T12:20:12Z</time></trkpt><trkpt lat="46.03942405467999" lon="12.043648000592242"><ele>336.6</ele><time>2026-03-24T12:20:13Z</time></trkpt><trkpt lat="46.039512106226844" lon="12.043561930909984"><ele>334.0</ele><time>2026-03-24T12:20:14Z</time></trkpt><trkpt lat="46.03960694122468" lon="12.043498517539973"><ele>334.0</ele><time>2026-03-24T12:20:15Z</time></trkpt><trkpt lat="46.039716874119605" lon="12.043442506897541"><ele>334.0</ele><time>2026-03-24T12:20:16Z</time></trkpt><trkpt lat="46.039828363790164" lon="12.043398659716733"><ele>334.0</ele><time>2026-03-24T12:20:17Z</time></trkpt><trkpt lat="46.03993786441098" lon="12.043356943006193"><ele>334.0</ele><time>2026-03-24T12:20:18Z</time></trkpt><trkpt lat="46.040041344809225" lon="12.043291494545334"><ele>333.2</ele><time>2026-03-24T12:20:19Z</time></trkpt><trkpt lat="46.04014380111491" lon="12.04321119168895"><ele>332.4</ele><time>2026-03-24T12:20:20Z</time></trkpt><trkpt lat="46.0402384990223" lon="12.043125757294572"><ele>331.6</ele><time>2026-03-24T12:20:21Z</time></trkpt><trkpt lat="46.04032397540259" lon="12.043036368928027"><ele>330.8</ele><time>2026-03-24T12:20:22Z</time></trkpt><trkpt lat="46.04038904582583" lon="12.042935953851472"><ele>330.0</ele><time>2026-03-24T12:20:23Z</time></trkpt><trkpt lat="46.04042636399122" lon="12.042815834789389"><ele>330.0</ele><time>2026-03-24T12:20:24Z</time></trkpt><trkpt lat="46.04043148964146" lon="12.042674343749052"><ele>330.0</ele><time>2026-03-24T12:20:25Z</time></trkpt><trkpt lat="46.040423722903604" lon="12.042551270646275"><ele>330.0</ele><time>2026-03-24T12:20:26Z</time></trkpt><trkpt lat="46.040433846867074" lon="12.042452362194446"><ele>330.0</ele><time>2026-03-24T12:20:27Z</time></trkpt><trkpt lat="46.04048303630815" lon="12.042372373391403"><ele>330.0</ele><time>2026-03-24T12:20:28Z</time></trkpt><trkpt lat="46.04055574023914" lon="12.042365682224856"><ele>330.0</ele><time>2026-03-24T12:20:29Z</time></trkpt><trkpt lat="46.04064019410572" lon="12.042307378262766"><ele>329.5</ele><time>2026-03-24T12:20:30Z</time></trkpt><trkpt lat="46.04076506797914" lon="12.042264731743716"><ele>329.0</ele><time>2026-03-24T12:20:31Z</time></trkpt><trkpt lat="46.040883154340754" lon="12.042211365985835"><ele>328.5</ele><time>2026-03-24T12:20:32Z</time></trkpt><trkpt lat="46.04098547194617" lon="12.042164478136439"><ele>328.0</ele><time>2026-03-24T12:20:33Z</time></trkpt><trkpt lat="46.041080950465734" lon="12.042117412323197"><ele>328.0</ele><time>2026-03-24T12:20:34Z</time></trkpt><trkpt lat="46.041178244063794" lon="12.042060685116613"><ele>328.0</ele><time>2026-03-24T12:20:35Z</time></trkpt><trkpt lat="46.04127142803503" lon="12.041979654785116"><ele>328.0</ele><time>2026-03-24T12:20:36Z</time></trkpt><trkpt lat="46.04134447436516" lon="12.041878166624352"><ele>328.0</ele><time>2026-03-24T12:20:37Z</time></trkpt><trkpt lat="46.041429955426686" lon="12.041815745540998"><ele>328.0</ele><time>2026-03-24T12:20:38Z</time></trkpt><trkpt lat="46.04150215738179" lon="12.041746079848874"><ele>328.0</ele><time>2026-03-24T12:20:39Z</time></trkpt><trkpt lat="46.04157255897928" lon="12.041678149532974"><ele>328.0</ele><time>2026-03-24T12:20:40Z</time></trkpt><trkpt lat="46.041646776637265" lon="12.04160985231122"><ele>328.0</ele><time>2026-03-24T12:20:41Z</time></trkpt><trkpt lat="46.04172675347951" lon="12.041556363591425"><ele>328.0</ele><time>2026-03-24T12:20:42Z</time></trkpt><trkpt lat="46.04178855001389" lon="12.041510751163825"><ele>328.0</ele><time>2026-03-24T12:20:43Z</time></trkpt><trkpt lat="46.04185250297563" lon="12.04145297818441"><ele>328.0</ele><time>2026-03-24T12:20:45Z</time></trkpt><trkpt lat="46.04189964408591" lon="12.041385064874271"><ele>328.0</ele><time>2026-03-24T12:22:11Z</time></trkpt><trkpt lat="46.041842699922874" lon="12.041438056555977"><ele>328.0</ele><time>2026-03-24T12:22:24Z</time></trkpt><trkpt lat="46.04175241582623" lon="12.041489232488244"><ele>328.0</ele><time>2026-03-24T12:22:26Z</time></trkpt><trkpt lat="46.04167293981204" lon="12.04158573447831"><ele>328.0</ele><time>2026-03-24T12:22:28Z</time></trkpt><trkpt lat="46.04161906944828" lon="12.041635392930893"><ele>328.0</ele><time>2026-03-24T12:22:29Z</time></trkpt><trkpt lat="46.04156433776766" lon="12.04168608284534"><ele>328.0</ele><time>2026-03-24T12:22:31Z</time></trkpt><trkpt lat="46.04146757256845" lon="12.041711920556313"><ele>323.75</ele><time>2026-03-24T12:22:38.001Z</time></trkpt><trkpt lat="46.04133670267901" lon="12.041503688995293"><ele>319.5</ele><time>2026-03-24T12:22:39.001Z</time></trkpt><trkpt lat="46.041262192872814" lon="12.041471108579328"><ele>315.25</ele><time>2026-03-24T12:22:41.001Z</time></trkpt><trkpt lat="46.041139458250385" lon="12.041491403696092"><ele>311.0</ele><time>2026-03-24T12:22:43.001Z</time></trkpt><trkpt lat="46.04106004885667" lon="12.041529508939334"><ele>311.0</ele><time>2026-03-24T12:22:44.001Z</time></trkpt><trkpt lat="46.04098812907606" lon="12.041550819021099"><ele>311.0</ele><time>2026-03-24T12:22:45.001Z</time></trkpt><trkpt lat="46.04091301734211" lon="12.041540912503116"><ele>311.0</ele><time>2026-03-24T12:22:46.001Z</time></trkpt><trkpt lat="46.04084739740322" lon="12.04152395895621"><ele>311.0</ele><time>2026-03-24T12:22:47.001Z</time></trkpt><trkpt lat="46.0407817748448" lon="12.041521796780003"><ele>311.0</ele><time>2026-03-24T12:22:48.001Z</time></trkpt><trkpt lat="46.04071736789736" lon="12.041550051045517"><ele>311.0</ele><time>2026-03-24T12:22:49.001Z</time></trkpt><trkpt lat="46.04065047881893" lon="12.041567937242723"><ele>311.0</ele><time>2026-03-24T12:22:50.001Z</time></trkpt><trkpt lat="46.040598330615865" lon="12.041619013265569"><ele>310.0</ele><time>2026-03-24T12:22:51.001Z</time></trkpt><trkpt lat="46.04048239468052" lon="12.041699507816078"><ele>309.0</ele><time>2026-03-24T12:22:53.001Z</time></trkpt><trkpt lat="46.04040500587588" lon="12.04170956724854"><ele>308.0</ele><time>2026-03-24T12:22:54.001Z</time></trkpt><trkpt lat="46.04028951944694" lon="12.041730796758731"><ele>307.0</ele><time>2026-03-24T12:22:56.001Z</time></trkpt><trkpt lat="46.04018688451258" lon="12.041834842114875"><ele>306.0</ele><time>2026-03-24T12:22:58.001Z</time></trkpt><trkpt lat="46.0400844920459" lon="12.041959719588235"><ele>306.0</ele><time>2026-03-24T12:23:00.001Z</time></trkpt><trkpt lat="46.04002224095561" lon="12.041993764338574"><ele>306.0</ele><time>2026-03-24T12:23:01.001Z</time></trkpt><trkpt lat="46.03995706579228" lon="12.042056757985957"><ele>306.0</ele><time>2026-03-24T12:23:02.001Z</time></trkpt><trkpt lat="46.03986274748749" lon="12.042191748555116"><ele>306.0</ele><time>2026-03-24T12:23:04.001Z</time></trkpt><trkpt lat="46.03982717848463" lon="12.042291839485493"><ele>306.0</ele><time>2026-03-24T12:23:05.001Z</time></trkpt><trkpt lat="46.03978139239378" lon="12.042398933354534"><ele>306.0</ele><time>2026-03-24T12:23:06.001Z</time></trkpt><trkpt lat="46.039729114930296" lon="12.042480874561118"><ele>306.6</ele><time>2026-03-24T12:23:07.001Z</time></trkpt><trkpt lat="46.039667581287844" lon="12.042607931190796"><ele>307.20000000000005</ele><time>2026-03-24T12:23:08.001Z</time></trkpt><trkpt lat="46.03959393348642" lon="12.04270514436556"><ele>307.79999999999995</ele><time>2026-03-24T12:23:09.001Z</time></trkpt><trkpt lat="46.0395332251458" lon="12.042778549395829"><ele>308.4</ele><time>2026-03-24T12:23:10.001Z</time></trkpt><trkpt lat="46.03945040201668" lon="12.042866911640548"><ele>309.0</ele><time>2026-03-24T12:23:11.001Z</time></trkpt><trkpt lat="46.03936329504197" lon="12.042935105484377"><ele>309.00000000000006</ele><time>2026-03-24T12:23:12.001Z</time></trkpt><trkpt lat="46.03928213182895" lon="12.043001909562717"><ele>309.0</ele><time>2026-03-24T12:23:13.001Z</time></trkpt><trkpt lat="46.039220623337755" lon="12.043068728669496"><ele>309.0</ele><time>2026-03-24T12:23:14.001Z</time></trkpt><trkpt lat="46.0391732181919" lon="12.043140944778264"><ele>309.0</ele><time>2026-03-24T12:23:15.001Z</time></trkpt><trkpt lat="46.03912305593111" lon="12.043203159984456"><ele>309.0</ele><time>2026-03-24T12:23:16.001Z</time></trkpt><trkpt lat="46.03906193242079" lon="12.043230485974439"><ele>309.00000000000006</ele><time>2026-03-24T12:23:17.001Z</time></trkpt><trkpt lat="46.03898698535514" lon="12.043232156790292"><ele>309.0</ele><time>2026-03-24T12:23:18.001Z</time></trkpt><trkpt lat="46.038886843558174" lon="12.043248080266618"><ele>310.0</ele><time>2026-03-24T12:23:20.001Z</time></trkpt><trkpt lat="46.03882656340214" lon="12.043296354916395"><ele>311.0</ele><time>2026-03-24T12:23:21.001Z</time></trkpt><trkpt lat="46.03874331856588" lon="12.043356970258861"><ele>312.0</ele><time>2026-03-24T12:23:23.001Z</time></trkpt><trkpt lat="46.03868492218108" lon="12.043432417746063"><ele>313.0</ele><time>2026-03-24T12:23:25.001Z</time></trkpt><trkpt lat="46.03858747764779" lon="12.043471252949143"><ele>314.0</ele><time>2026-03-24T12:23:27.001Z</time></trkpt><trkpt lat="46.03850739800946" lon="12.04348562611101"><ele>315.0</ele><time>2026-03-24T12:23:29.001Z</time></trkpt><trkpt lat="46.03844506626379" lon="12.043464226652224"><ele>315.0</ele><time>2026-03-24T12:23:33.001Z</time></trkpt><trkpt lat="46.03834855977075" lon="12.043409924424433"><ele>315.0</ele><time>2026-03-24T12:23:41.001Z</time></trkpt><trkpt lat="46.03823349541439" lon="12.043329474302825"><ele>315.0</ele><time>2026-03-24T12:23:43.001Z</time></trkpt><trkpt lat="46.03812187657724" lon="12.043247617017627"><ele>315.0</ele><time>2026-03-24T12:23:45.001Z</time></trkpt><trkpt lat="46.03805856965669" lon="12.043208925741565"><ele>315.0</ele><time>2026-03-24T12:23:46.001Z</time></trkpt><trkpt lat="46.037997623917704" lon="12.043178403556238"><ele>311.0</ele><time>2026-03-24T12:23:47.001Z</time></trkpt><trkpt lat="46.03788099795493" lon="12.043169620881825"><ele>307.0</ele><time>2026-03-24T12:23:49.001Z</time></trkpt><trkpt lat="46.03779197546417" lon="12.043268630971655"><ele>303.0</ele><time>2026-03-24T12:23:51.001Z</time></trkpt><trkpt lat="46.037745344514676" lon="12.043336130622684"><ele>299.0</ele><time>2026-03-24T12:23:52.001Z</time></trkpt><trkpt lat="46.03769352366723" lon="12.04340825588197"><ele>295.0</ele><time>2026-03-24T12:23:53.001Z</time></trkpt><trkpt lat="46.037599009525245" lon="12.043524872376686"><ele>295.0</ele><time>2026-03-24T12:23:55.001Z</time></trkpt><trkpt lat="46.03751116981501" lon="12.04359551558041"><ele>295.0</ele><time>2026-03-24T12:23:57.001Z</time></trkpt><trkpt lat="46.03743964154016" lon="12.043583447647414"><ele>295.0</ele><time>2026-03-24T12:24:00.001Z</time></trkpt><trkpt lat="46.03738994362668" lon="12.043502198813743"><ele>295.0</ele><time>2026-03-24T12:24:03.001Z</time></trkpt><trkpt lat="46.0373260672652" lon="12.043468914173236"><ele>295.0</ele><time>2026-03-24T12:24:33Z</time></trkpt><trkpt lat="46.03725065983164" lon="12.043428867067037"><ele>295.0</ele><time>2026-03-24T12:24:36Z</time></trkpt><trkpt lat="46.0371811845099" lon="12.04333548930058"><ele>297.3333333333333</ele><time>2026-03-24T12:24:39.001Z</time></trkpt><trkpt lat="46.037163587598585" lon="12.043226494710321"><ele>299.66666666666663</ele><time>2026-03-24T12:24:41.001Z</time></trkpt><trkpt lat="46.037217083217186" lon="12.043157979242752"><ele>302.0</ele><time>2026-03-24T12:24:46.001Z</time></trkpt><trkpt lat="46.03720413789885" lon="12.043046334929961"><ele>304.3333333333333</ele><time>2026-03-24T12:24:56.001Z</time></trkpt><trkpt lat="46.03717706916924" lon="12.042921231705444"><ele>306.6666666666667</ele><time>2026-03-24T12:24:59.001Z</time></trkpt><trkpt lat="46.037175672388145" lon="12.042819989563746"><ele>309.0</ele><time>2026-03-24T12:25:02.001Z</time></trkpt><trkpt lat="46.03721997268655" lon="12.04267558240604"><ele>309.0</ele><time>2026-03-24T12:25:10.001Z</time></trkpt><trkpt lat="46.03720212369096" lon="12.04256916760356"><ele>309.0</ele><time>2026-03-24T12:25:12.001Z</time></trkpt><trkpt lat="46.03713198385728" lon="12.042489950641164"><ele>309.0</ele><time>2026-03-24T12:25:14.001Z</time></trkpt><trkpt lat="46.0371045151681" lon="12.042343371092182"><ele>309.0</ele><time>2026-03-24T12:25:16.001Z</time></trkpt><trkpt lat="46.037096176817634" lon="12.042246435960152"><ele>309.0</ele><time>2026-03-24T12:25:17.001Z</time></trkpt><trkpt lat="46.03707071892094" lon="12.042060494546998"><ele>311.8333333333333</ele><time>2026-03-24T12:25:19.001Z</time></trkpt><trkpt lat="46.03705317537736" lon="12.04196680399319"><ele>314.6666666666667</ele><time>2026-03-24T12:25:20.001Z</time></trkpt><trkpt lat="46.03701670259509" lon="12.041846330291598"><ele>317.5</ele><time>2026-03-24T12:25:22.001Z</time></trkpt><trkpt lat="46.03694031660671" lon="12.041816083046195"><ele>320.33333333333337</ele><time>2026-03-24T12:25:23.001Z</time></trkpt><trkpt lat="46.036858226294314" lon="12.04189083902146"><ele>323.1666666666667</ele><time>2026-03-24T12:25:25.001Z</time></trkpt><trkpt lat="46.036793349315396" lon="12.041941985770361"><ele>326.0</ele><time>2026-03-24T12:25:27.001Z</time></trkpt><trkpt lat="46.03670408208443" lon="12.04183298439113"><ele>331.4</ele><time>2026-03-24T12:25:29.001Z</time></trkpt><trkpt lat="46.03659578711798" lon="12.041785265646174"><ele>336.8</ele><time>2026-03-24T12:25:31.001Z</time></trkpt><trkpt lat="46.0365357294552" lon="12.041735578888801"><ele>342.2</ele><time>2026-03-24T12:25:32.001Z</time></trkpt><trkpt lat="46.03646484946297" lon="12.04159200826408"><ele>347.59999999999997</ele><time>2026-03-24T12:25:34.001Z</time></trkpt><trkpt lat="46.03641955785591" lon="12.041506973478949"><ele>353.0</ele><time>2026-03-24T12:25:35.001Z</time></trkpt><trkpt lat="46.036418046058365" lon="12.041392437226026"><ele>352.2</ele><time>2026-03-24T12:25:37.001Z</time></trkpt><trkpt lat="46.03649453967289" lon="12.041297243584431"><ele>351.4</ele><time>2026-03-24T12:25:39.001Z</time></trkpt><trkpt lat="46.036604744982995" lon="12.041369870957245"><ele>350.59999999999997</ele><time>2026-03-24T12:25:41.001Z</time></trkpt><trkpt lat="46.03669718585289" lon="12.041343415346208"><ele>349.79999999999995</ele><time>2026-03-24T12:25:43.001Z</time></trkpt><trkpt lat="46.036781875200795" lon="12.041311000018597"><ele>349.0</ele><time>2026-03-24T12:25:45.001Z</time></trkpt><trkpt lat="46.03685816394505" lon="12.041201378367969"><ele>349.0</ele><time>2026-03-24T12:25:47.001Z</time></trkpt><trkpt lat="46.036978243718664" lon="12.041151676726528"><ele>349.0</ele><time>2026-03-24T12:25:49.001Z</time></trkpt><trkpt lat="46.037026525816735" lon="12.041076023331852"><ele>349.0</ele><time>2026-03-24T12:25:50.001Z</time></trkpt><trkpt lat="46.03710982521662" lon="12.040958211550693"><ele>349.0</ele><time>2026-03-24T12:25:52.001Z</time></trkpt><trkpt lat="46.0371803402136" lon="12.040919430864697"><ele>349.0</ele><time>2026-03-24T12:25:53.001Z</time></trkpt><trkpt lat="46.037253666548295" lon="12.040860197341122"><ele>348.99999999999994</ele><time>2026-03-24T12:25:54.001Z</time></trkpt><trkpt lat="46.0373116847132" lon="12.040818658278397"><ele>349.0</ele><time>2026-03-24T12:25:55.001Z</time></trkpt><trkpt lat="46.03737909955281" lon="12.04078255855814"><ele>349.0</ele><time>2026-03-24T12:25:56.001Z</time></trkpt><trkpt lat="46.037445586222404" lon="12.040762320534164"><ele>349.0</ele><time>2026-03-24T12:25:57.001Z</time></trkpt><trkpt lat="46.03750615217143" lon="12.040720376722852"><ele>349.0</ele><time>2026-03-24T12:25:58.001Z</time></trkpt><trkpt lat="46.037591307255695" lon="12.040643767993553"><ele>348.99999999999994</ele><time>2026-03-24T12:25:59.001Z</time></trkpt><trkpt lat="46.03764297849614" lon="12.040584950225272"><ele>349.0</ele><time>2026-03-24T12:26:00.001Z</time></trkpt><trkpt lat="46.03774632092114" lon="12.040544515160052"><ele>351.0</ele><time>2026-03-24T12:26:01.001Z</time></trkpt><trkpt lat="46.03784989016271" lon="12.040471370279715"><ele>353.0</ele><time>2026-03-24T12:26:02.001Z</time></trkpt><trkpt lat="46.037938981839766" lon="12.040416960696954"><ele>355.0</ele><time>2026-03-24T12:26:03.001Z</time></trkpt><trkpt lat="46.038006681688515" lon="12.040379895255628"><ele>357.0</ele><time>2026-03-24T12:26:04.001Z</time></trkpt><trkpt lat="46.03807066780704" lon="12.040339596942445"><ele>359.0</ele><time>2026-03-24T12:26:05.001Z</time></trkpt><trkpt lat="46.03815612139981" lon="12.04030300530611"><ele>361.0</ele><time>2026-03-24T12:26:06.001Z</time></trkpt><trkpt lat="46.038257972703256" lon="12.040266557991488"><ele>360.8333333333333</ele><time>2026-03-24T12:26:08.001Z</time></trkpt><trkpt lat="46.03833880204451" lon="12.040168905374484"><ele>360.66666666666663</ele><time>2026-03-24T12:26:10.001Z</time></trkpt><trkpt lat="46.03835361811245" lon="12.040074945811236"><ele>360.5</ele><time>2026-03-24T12:27:25.001Z</time></trkpt><trkpt lat="46.038331033564106" lon="12.039959792342671"><ele>360.3333333333333</ele><time>2026-03-24T12:27:27.001Z</time></trkpt><trkpt lat="46.03831468186311" lon="12.039848908026764"><ele>360.1666666666667</ele><time>2026-03-24T12:27:28.001Z</time></trkpt><trkpt lat="46.03834057116002" lon="12.039738197182764"><ele>360.0</ele><time>2026-03-24T12:27:29.001Z</time></trkpt><trkpt lat="46.0383943288359" lon="12.039617454682936"><ele>360.0</ele><time>2026-03-24T12:27:30.001Z</time></trkpt><trkpt lat="46.038443674972655" lon="12.039523853489195"><ele>360.0</ele><time>2026-03-24T12:27:31.001Z</time></trkpt><trkpt lat="46.038367945505264" lon="12.039455799690005"><ele>360.0</ele><time>2026-03-24T12:27:36.001Z</time></trkpt><trkpt lat="46.038302510285945" lon="12.039507636511583"><ele>360.0</ele><time>2026-03-24T12:27:37.001Z</time></trkpt><trkpt lat="46.03821105352328" lon="12.039574628839354"><ele>360.0</ele><time>2026-03-24T12:27:38.001Z</time></trkpt><trkpt lat="46.03810674213842" lon="12.039651575179727"><ele>361.8</ele><time>2026-03-24T12:27:39.001Z</time></trkpt><trkpt lat="46.03800775369936" lon="12.03974362040417"><ele>363.6</ele><time>2026-03-24T12:27:40.001Z</time></trkpt><trkpt lat="46.03791418711201" lon="12.039820874806983"><ele>365.4</ele><time>2026-03-24T12:27:41.001Z</time></trkpt><trkpt lat="46.0378322799363" lon="12.039879349729366"><ele>367.2</ele><time>2026-03-24T12:27:42.001Z</time></trkpt><trkpt lat="46.0377376677919" lon="12.039925817319196"><ele>369.0</ele><time>2026-03-24T12:27:43.001Z</time></trkpt><trkpt lat="46.03763593772301" lon="12.039944999449514"><ele>369.0</ele><time>2026-03-24T12:27:44.001Z</time></trkpt><trkpt lat="46.03752173357504" lon="12.039927399321186"><ele>369.0</ele><time>2026-03-24T12:27:45.001Z</time></trkpt><trkpt lat="46.037393784754634" lon="12.03988539563958"><ele>369.0</ele><time>2026-03-24T12:27:46.001Z</time></trkpt><trkpt lat="46.03725251714766" lon="12.0398376363534"><ele>369.0</ele><time>2026-03-24T12:27:47.001Z</time></trkpt><trkpt lat="46.03709824006428" lon="12.039801065844367"><ele>376.33333333333337</ele><time>2026-03-24T12:27:48.001Z</time></trkpt><trkpt lat="46.03692873953588" lon="12.039820159601886"><ele>383.6666666666667</ele><time>2026-03-24T12:27:49.001Z</time></trkpt><trkpt lat="46.03674127348814" lon="12.0398602350927"><ele>391.0</ele><time>2026-03-24T12:27:50.001Z</time></trkpt><trkpt lat="46.03655561522505" lon="12.039942015224964"><ele>390.33333333333337</ele><time>2026-03-24T12:27:51.001Z</time></trkpt><trkpt lat="46.03636947947882" lon="12.040046303934266"><ele>389.66666666666663</ele><time>2026-03-24T12:27:52.001Z</time></trkpt><trkpt lat="46.03616003691921" lon="12.040064108460934"><ele>389.0</ele><time>2026-03-24T12:27:53.001Z</time></trkpt><trkpt lat="46.03597793942439" lon="12.040143453615308"><ele>389.0</ele><time>2026-03-24T12:27:54.001Z</time></trkpt><trkpt lat="46.03581212279872" lon="12.040197836301765"><ele>389.0</ele><time>2026-03-24T12:27:55.001Z</time></trkpt><trkpt lat="46.03566059102435" lon="12.040227676393197"><ele>389.0</ele><time>2026-03-24T12:27:56.001Z</time></trkpt><trkpt lat="46.03552283385639" lon="12.040248084951415"><ele>392.75</ele><time>2026-03-24T12:27:57.001Z</time></trkpt><trkpt lat="46.03540457896236" lon="12.040283023962544"><ele>396.5</ele><time>2026-03-24T12:27:58.001Z</time></trkpt><trkpt lat="46.03529227882436" lon="12.04036297479978"><ele>400.25</ele><time>2026-03-24T12:27:59.001Z</time></trkpt><trkpt lat="46.035240095966714" lon="12.040586956676767"><ele>404.0</ele><time>2026-03-24T12:28:00.001Z</time></trkpt><trkpt lat="46.035144010384606" lon="12.040685596917793"><ele>404.0</ele><time>2026-03-24T12:28:01.001Z</time></trkpt><trkpt lat="46.035038794196474" lon="12.040741340324937"><ele>404.0</ele><time>2026-03-24T12:28:02.001Z</time></trkpt><trkpt lat="46.03492041054517" lon="12.040782664715506"><ele>404.0</ele><time>2026-03-24T12:28:03.001Z</time></trkpt><trkpt lat="46.03480716080618" lon="12.04078516431764"><ele>404.0</ele><time>2026-03-24T12:28:04.001Z</time></trkpt><trkpt lat="46.034680784870325" lon="12.040759333591486"><ele>408.75</ele><time>2026-03-24T12:28:05.001Z</time></trkpt><trkpt lat="46.03455553450314" lon="12.040726883564657"><ele>413.5</ele><time>2026-03-24T12:28:06.001Z</time></trkpt><trkpt lat="46.03442936761463" lon="12.040703235467545"><ele>418.25</ele><time>2026-03-24T12:28:07.001Z</time></trkpt><trkpt lat="46.03432406011154" lon="12.04069930351809"><ele>423.0</ele><time>2026-03-24T12:28:08.001Z</time></trkpt><trkpt lat="46.034188065816814" lon="12.04071271878952"><ele>422.75</ele><time>2026-03-24T12:28:09.001Z</time></trkpt><trkpt lat="46.03404842893769" lon="12.040749640394639"><ele>422.5</ele><time>2026-03-24T12:28:10.001Z</time></trkpt><trkpt lat="46.033921204218096" lon="12.040812890410221"><ele>422.25</ele><time>2026-03-24T12:28:11.001Z</time></trkpt><trkpt lat="46.033796162690315" lon="12.04088495383743"><ele>422.0</ele><time>2026-03-24T12:28:12.001Z</time></trkpt><trkpt lat="46.03367043760705" lon="12.04095294573064"><ele>422.0</ele><time>2026-03-24T12:28:13.001Z</time></trkpt><trkpt lat="46.03353979990087" lon="12.041023758119646"><ele>422.0</ele><time>2026-03-24T12:28:14.001Z</time></trkpt><trkpt lat="46.03340386641073" lon="12.041099930375577"><ele>422.0</ele><time>2026-03-24T12:28:15.001Z</time></trkpt><trkpt lat="46.03327022168213" lon="12.041208032628779"><ele>422.0</ele><time>2026-03-24T12:28:16.001Z</time></trkpt><trkpt lat="46.03313289952028" lon="12.041274348404214"><ele>425.0</ele><time>2026-03-24T12:28:17.001Z</time></trkpt><trkpt lat="46.033002256745576" lon="12.041355292826818"><ele>428.0</ele><time>2026-03-24T12:28:18.001Z</time></trkpt><trkpt lat="46.03286633283178" lon="12.041420143057708"><ele>431.0</ele><time>2026-03-24T12:28:19.001Z</time></trkpt><trkpt lat="46.03273128191321" lon="12.041463954769371"><ele>434.0</ele><time>2026-03-24T12:28:20.001Z</time></trkpt><trkpt lat="46.032589805817686" lon="12.041482615812313"><ele>437.5</ele><time>2026-03-24T12:28:21.001Z</time></trkpt><trkpt lat="46.032452143255306" lon="12.041478423631036"><ele>441.0</ele><time>2026-03-24T12:28:22Z</time></trkpt><trkpt lat="46.03232163394515" lon="12.04144515942038"><ele>444.5</ele><time>2026-03-24T12:28:23Z</time></trkpt><trkpt lat="46.03217957979961" lon="12.041416716999336"><ele>448.0</ele><time>2026-03-24T12:28:24Z</time></trkpt><trkpt lat="46.03202703399959" lon="12.041413362413373"><ele>448.0</ele><time>2026-03-24T12:28:25Z</time></trkpt><trkpt lat="46.031892243969736" lon="12.04146379066485"><ele>448.0</ele><time>2026-03-24T12:28:26Z</time></trkpt><trkpt lat="46.03178061698402" lon="12.0415298679831"><ele>448.0</ele><time>2026-03-24T12:28:27Z</time></trkpt><trkpt lat="46.031695560173794" lon="12.041627469045046"><ele>448.0</ele><time>2026-03-24T12:28:28Z</time></trkpt><trkpt lat="46.03161852813191" lon="12.041733453348098"><ele>450.00000000000006</ele><time>2026-03-24T12:28:29Z</time></trkpt><trkpt lat="46.03154280753868" lon="12.041830865912802"><ele>452.0</ele><time>2026-03-24T12:28:30Z</time></trkpt><trkpt lat="46.03147182722849" lon="12.04189195392815"><ele>454.0</ele><time>2026-03-24T12:28:31Z</time></trkpt><trkpt lat="46.03140138578161" lon="12.041948112022233"><ele>456.0</ele><time>2026-03-24T12:28:32Z</time></trkpt><trkpt lat="46.03132342460906" lon="12.041994066946904"><ele>458.00000000000006</ele><time>2026-03-24T12:28:33Z</time></trkpt><trkpt lat="46.03123439542501" lon="12.042004754361106"><ele>460.0</ele><time>2026-03-24T12:28:34Z</time></trkpt><trkpt lat="46.03115136321277" lon="12.042074914344623"><ele>460.00000000000006</ele><time>2026-03-24T12:28:35Z</time></trkpt><trkpt lat="46.031129587980416" lon="12.042203620470238"><ele>460.0</ele><time>2026-03-24T12:28:36Z</time></trkpt><trkpt lat="46.03113031897713" lon="12.042326330769196"><ele>460.0</ele><time>2026-03-24T12:28:37Z</time></trkpt><trkpt lat="46.03113970142564" lon="12.042461866103475"><ele>460.0</ele><time>2026-03-24T12:28:38Z</time></trkpt><trkpt lat="46.03109872500268" lon="12.042555409684272"><ele>460.00000000000006</ele><time>2026-03-24T12:28:39Z</time></trkpt><trkpt lat="46.031036399147716" lon="12.04262198940484"><ele>460.0</ele><time>2026-03-24T12:28:40Z</time></trkpt><trkpt lat="46.030957755795484" lon="12.042691505077663"><ele>459.2</ele><time>2026-03-24T12:28:41Z</time></trkpt><trkpt lat="46.030868959767965" lon="12.042704974124792"><ele>458.4</ele><time>2026-03-24T12:28:42Z</time></trkpt><trkpt lat="46.03077521683193" lon="12.042667697549055"><ele>457.6</ele><time>2026-03-24T12:28:43Z</time></trkpt><trkpt lat="46.03065306596932" lon="12.042623029433683"><ele>456.8</ele><time>2026-03-24T12:28:44Z</time></trkpt><trkpt lat="46.030540260103514" lon="12.042621088700823"><ele>456.0</ele><time>2026-03-24T12:28:45Z</time></trkpt><trkpt lat="46.03042704002546" lon="12.042634704567222"><ele>456.0</ele><time>2026-03-24T12:28:46Z</time></trkpt><trkpt lat="46.03030115708376" lon="12.042663863249373"><ele>456.0</ele><time>2026-03-24T12:28:47Z</time></trkpt><trkpt lat="46.03019819988818" lon="12.042686306570285"><ele>456.0</ele><time>2026-03-24T12:28:48Z</time></trkpt><trkpt lat="46.03010404532416" lon="12.042712522559365"><ele>456.0</ele><time>2026-03-24T12:28:49Z</time></trkpt><trkpt lat="46.030024188627756" lon="12.04278451178256"><ele>456.0</ele><time>2026-03-24T12:28:50Z</time></trkpt><trkpt lat="46.02996810918125" lon="12.042919787194794"><ele>462.6</ele><time>2026-03-24T12:28:51Z</time></trkpt><trkpt lat="46.0299077019083" lon="12.042995813985279"><ele>469.20000000000005</ele><time>2026-03-24T12:28:52Z</time></trkpt><trkpt lat="46.02983977048536" lon="12.043059955225743"><ele>475.79999999999995</ele><time>2026-03-24T12:28:53Z</time></trkpt><trkpt lat="46.02976351592985" lon="12.043127722800946"><ele>482.4</ele><time>2026-03-24T12:28:54Z</time></trkpt><trkpt lat="46.0296768910271" lon="12.04319785598517"><ele>489.0</ele><time>2026-03-24T12:28:55Z</time></trkpt><trkpt lat="46.02958172086553" lon="12.043272113299638"><ele>481.5</ele><time>2026-03-24T12:28:56Z</time></trkpt><trkpt lat="46.029482230569805" lon="12.043345288176587"><ele>474.0</ele><time>2026-03-24T12:28:57Z</time></trkpt><trkpt lat="46.02937213056265" lon="12.04341424023267"><ele>466.5</ele><time>2026-03-24T12:28:58Z</time></trkpt><trkpt lat="46.029258013642036" lon="12.043474458382338"><ele>459.0</ele><time>2026-03-24T12:28:59Z</time></trkpt><trkpt lat="46.02914736014241" lon="12.043521626145582"><ele>464.25</ele><time>2026-03-24T12:29:00Z</time></trkpt><trkpt lat="46.02904037844287" lon="12.04354798195119"><ele>469.5</ele><time>2026-03-24T12:29:01Z</time></trkpt><trkpt lat="46.02891319022014" lon="12.043580238258512"><ele>474.75</ele><time>2026-03-24T12:29:02Z</time></trkpt><trkpt lat="46.02879245415109" lon="12.043627668476194"><ele>480.0</ele><time>2026-03-24T12:29:03Z</time></trkpt><trkpt lat="46.028679934485446" lon="12.043674505478274"><ele>480.0</ele><time>2026-03-24T12:29:04Z</time></trkpt><trkpt lat="46.028581744854186" lon="12.043712617243516"><ele>480.0</ele><time>2026-03-24T12:29:05Z</time></trkpt><trkpt lat="46.02847842273146" lon="12.043745808737661"><ele>480.0</ele><time>2026-03-24T12:29:06Z</time></trkpt><trkpt lat="46.02839923639352" lon="12.043762585535884"><ele>480.0</ele><time>2026-03-24T12:29:07Z</time></trkpt><trkpt lat="46.028294885809586" lon="12.043791457525213"><ele>480.0</ele><time>2026-03-24T12:29:08Z</time></trkpt><trkpt lat="46.028194575037816" lon="12.043854913941995"><ele>483.5</ele><time>2026-03-24T12:29:09Z</time></trkpt><trkpt lat="46.02810726277433" lon="12.043941312500996"><ele>487.0</ele><time>2026-03-24T12:29:10Z</time></trkpt><trkpt lat="46.027998956373025" lon="12.043982527936633"><ele>490.5</ele><time>2026-03-24T12:29:11Z</time></trkpt><trkpt lat="46.02789668591808" lon="12.044054458680359"><ele>494.0</ele><time>2026-03-24T12:29:12Z</time></trkpt><trkpt lat="46.02777726045387" lon="12.0440964075153"><ele>494.0</ele><time>2026-03-24T12:29:13Z</time></trkpt><trkpt lat="46.027660166705516" lon="12.044127234312642"><ele>494.0</ele><time>2026-03-24T12:29:14Z</time></trkpt><trkpt lat="46.027545481348476" lon="12.044169344779311"><ele>494.0</ele><time>2026-03-24T12:29:15Z</time></trkpt><trkpt lat="46.027447754455345" lon="12.044160705989194"><ele>494.0</ele><time>2026-03-24T12:29:16Z</time></trkpt><trkpt lat="46.02736193248647" lon="12.044130434516"><ele>494.0</ele><time>2026-03-24T12:29:17Z</time></trkpt><trkpt lat="46.027292797066316" lon="12.044070137036615"><ele>496.49999999999994</ele><time>2026-03-24T12:29:18Z</time></trkpt><trkpt lat="46.027237079586044" lon="12.043967170965745"><ele>499.0</ele><time>2026-03-24T12:29:19Z</time></trkpt><trkpt lat="46.027162624955174" lon="12.043912191134993"><ele>501.5</ele><time>2026-03-24T12:29:20Z</time></trkpt><trkpt lat="46.02708932330263" lon="12.043892609120046"><ele>504.0</ele><time>2026-03-24T12:29:21Z</time></trkpt><trkpt lat="46.02701005106256" lon="12.043881039016464"><ele>506.49999999999994</ele><time>2026-03-24T12:29:22Z</time></trkpt><trkpt lat="46.02692534238361" lon="12.043967588682989"><ele>509.0</ele><time>2026-03-24T12:29:23Z</time></trkpt><trkpt lat="46.02684722897801" lon="12.044071794285168"><ele>506.79999999999995</ele><time>2026-03-24T12:29:24Z</time></trkpt><trkpt lat="46.02676278214201" lon="12.044151146691357"><ele>504.59999999999997</ele><time>2026-03-24T12:29:25Z</time></trkpt><trkpt lat="46.02667956072881" lon="12.044213744321175"><ele>502.4</ele><time>2026-03-24T12:29:26Z</time></trkpt><trkpt lat="46.026584235863055" lon="12.044252268344895"><ele>500.2</ele><time>2026-03-24T12:29:27Z</time></trkpt><trkpt lat="46.0264832294618" lon="12.044276173498595"><ele>498.0</ele><time>2026-03-24T12:29:28Z</time></trkpt><trkpt lat="46.02637483043243" lon="12.044288511711565"><ele>498.0</ele><time>2026-03-24T12:29:29Z</time></trkpt><trkpt lat="46.02625643256851" lon="12.04429969343291"><ele>498.0</ele><time>2026-03-24T12:29:30Z</time></trkpt><trkpt lat="46.02613088808155" lon="12.044327666990961"><ele>498.0</ele><time>2026-03-24T12:29:31Z</time></trkpt><trkpt lat="46.025995873187284" lon="12.044383024254309"><ele>498.0</ele><time>2026-03-24T12:29:32Z</time></trkpt><trkpt lat="46.025853057181706" lon="12.044477294790884"><ele>507.33333333333337</ele><time>2026-03-24T12:29:33Z</time></trkpt><trkpt lat="46.02571109884201" lon="12.044602381663292"><ele>516.6666666666667</ele><time>2026-03-24T12:29:34Z</time></trkpt><trkpt lat="46.02556886861042" lon="12.044720313373338"><ele>526.0</ele><time>2026-03-24T12:29:35Z</time></trkpt><trkpt lat="46.02543149433827" lon="12.04483281784723"><ele>526.0</ele><time>2026-03-24T12:29:36Z</time></trkpt><trkpt lat="46.02528284843374" lon="12.04495455326249"><ele>526.0</ele><time>2026-03-24T12:29:37Z</time></trkpt><trkpt lat="46.025146845451" lon="12.045073135626268"><ele>526.0</ele><time>2026-03-24T12:29:38Z</time></trkpt><trkpt lat="46.02502695979979" lon="12.04519594312104"><ele>523.6666666666667</ele><time>2026-03-24T12:29:39Z</time></trkpt><trkpt lat="46.02490454056484" lon="12.045317008475775"><ele>521.3333333333334</ele><time>2026-03-24T12:29:40Z</time></trkpt><trkpt lat="46.02478030353833" lon="12.045436685079268"><ele>519.0</ele><time>2026-03-24T12:29:41Z</time></trkpt><trkpt lat="46.02464909745881" lon="12.045553713000915"><ele>519.0</ele><time>2026-03-24T12:29:42Z</time></trkpt><trkpt lat="46.02451949232958" lon="12.045664666144194"><ele>519.0</ele><time>2026-03-24T12:29:43Z</time></trkpt><trkpt lat="46.02438831992504" lon="12.045771165110473"><ele>519.0</ele><time>2026-03-24T12:29:44Z</time></trkpt><trkpt lat="46.02424858492725" lon="12.045875426824441"><ele>517.25</ele><time>2026-03-24T12:29:45Z</time></trkpt><trkpt lat="46.024128142749355" lon="12.045957827837181"><ele>515.5</ele><time>2026-03-24T12:29:46Z</time></trkpt><trkpt lat="46.024009484473154" lon="12.04600124255215"><ele>513.75</ele><time>2026-03-24T12:29:47Z</time></trkpt><trkpt lat="46.023879647510306" lon="12.046035010356492"><ele>512.0</ele><time>2026-03-24T12:29:48Z</time></trkpt><trkpt lat="46.02375358908852" lon="12.04606553223394"><ele>512.0</ele><time>2026-03-24T12:29:49Z</time></trkpt><trkpt lat="46.02363329774223" lon="12.046091021506939"><ele>512.0</ele><time>2026-03-24T12:29:50Z</time></trkpt><trkpt lat="46.023515933921885" lon="12.046114351015802"><ele>512.0</ele><time>2026-03-24T12:29:51Z</time></trkpt><trkpt lat="46.02339619263139" lon="12.046156325954431"><ele>512.0</ele><time>2026-03-24T12:29:52Z</time></trkpt><trkpt lat="46.02327337163652" lon="12.046166466436512"><ele>515.5</ele><time>2026-03-24T12:29:53.001Z</time></trkpt><trkpt lat="46.02314872937278" lon="12.04614599092531"><ele>519.0</ele><time>2026-03-24T12:29:54.001Z</time></trkpt><trkpt lat="46.0230280698886" lon="12.046134814132614"><ele>522.5</ele><time>2026-03-24T12:29:55.001Z</time></trkpt><trkpt lat="46.022915058152556" lon="12.04608267846632"><ele>526.0</ele><time>2026-03-24T12:29:56.001Z</time></trkpt><trkpt lat="46.02280743641674" lon="12.046075108204155"><ele>526.0</ele><time>2026-03-24T12:29:57.001Z</time></trkpt><trkpt lat="46.02270462677946" lon="12.046110626844808"><ele>526.0</ele><time>2026-03-24T12:29:58.001Z</time></trkpt><trkpt lat="46.02262062792557" lon="12.046152267111728"><ele>526.0</ele><time>2026-03-24T12:29:59.001Z</time></trkpt><trkpt lat="46.02255528097015" lon="12.046178108232848"><ele>526.0</ele><time>2026-03-24T12:30:00.001Z</time></trkpt><trkpt lat="46.02246580140311" lon="12.046059058814686"><ele>526.0</ele><time>2026-03-24T12:30:02.001Z</time></trkpt><trkpt lat="46.022305895530295" lon="12.046031146957457"><ele>527.25</ele><time>2026-03-24T12:30:04.001Z</time></trkpt><trkpt lat="46.02221675617943" lon="12.045989698385686"><ele>528.5</ele><time>2026-03-24T12:30:05.001Z</time></trkpt><trkpt lat="46.022111476289815" lon="12.045961555403698"><ele>529.75</ele><time>2026-03-24T12:30:06.001Z</time></trkpt><trkpt lat="46.021994035380025" lon="12.045920638704356"><ele>531.0</ele><time>2026-03-24T12:30:07.001Z</time></trkpt><trkpt lat="46.02186417914222" lon="12.045883450874042"><ele>531.0</ele><time>2026-03-24T12:30:08.001Z</time></trkpt><trkpt lat="46.02172457526772" lon="12.045819096333656"><ele>531.0</ele><time>2026-03-24T12:30:09.001Z</time></trkpt><trkpt lat="46.021564068063824" lon="12.045742917956439"><ele>531.0</ele><time>2026-03-24T12:30:10.001Z</time></trkpt><trkpt lat="46.02140947663274" lon="12.045664001096092"><ele>542.0</ele><time>2026-03-24T12:30:11Z</time></trkpt><trkpt lat="46.02124270091793" lon="12.045570803297311"><ele>553.0</ele><time>2026-03-24T12:30:12Z</time></trkpt><trkpt lat="46.02107348334775" lon="12.045464030677206"><ele>564.0</ele><time>2026-03-24T12:30:13Z</time></trkpt><trkpt lat="46.020907262608816" lon="12.045343278619997"><ele>559.3333333333334</ele><time>2026-03-24T12:30:14Z</time></trkpt><trkpt lat="46.0207584783626" lon="12.04525106187833"><ele>554.6666666666667</ele><time>2026-03-24T12:30:15Z</time></trkpt><trkpt lat="46.02063058762367" lon="12.045143360701694"><ele>550.0</ele><time>2026-03-24T12:30:16Z</time></trkpt><trkpt lat="46.02050505388058" lon="12.045017267408495"><ele>555.0</ele><time>2026-03-24T12:30:17Z</time></trkpt><trkpt lat="46.02040725904151" lon="12.044892570606322"><ele>560.0</ele><time>2026-03-24T12:30:18Z</time></trkpt><trkpt lat="46.020331785688484" lon="12.04480351510655"><ele>565.0</ele><time>2026-03-24T12:30:19Z</time></trkpt><trkpt lat="46.02025405638393" lon="12.0447504279633"><ele>570.0</ele><time>2026-03-24T12:30:20Z</time></trkpt><trkpt lat="46.02019467167454" lon="12.044709827736716"><ele>575.0</ele><time>2026-03-24T12:30:21Z</time></trkpt><trkpt lat="46.020156167108816" lon="12.044628990593242"><ele>580.0</ele><time>2026-03-24T12:30:23Z</time></trkpt><trkpt lat="46.02025399447727" lon="12.04457471928993"><ele>580.0</ele><time>2026-03-24T12:30:25Z</time></trkpt><trkpt lat="46.02032454313346" lon="12.044678270792028"><ele>580.0</ele><time>2026-03-24T12:30:26Z</time></trkpt><trkpt lat="46.02043114836795" lon="12.044693960074998"><ele>580.0</ele><time>2026-03-24T12:30:27Z</time></trkpt><trkpt lat="46.020547649851174" lon="12.044731577805743"><ele>580.0</ele><time>2026-03-24T12:30:28Z</time></trkpt><trkpt lat="46.020687694531695" lon="12.044750425093545"><ele>580.0</ele><time>2026-03-24T12:30:29Z</time></trkpt><trkpt lat="46.02081044987292" lon="12.044771482579701"><ele>580.0</ele><time>2026-03-24T12:30:30Z</time></trkpt><trkpt lat="46.02091975493809" lon="12.044788666087852"><ele>580.0</ele><time>2026-03-24T12:30:31Z</time></trkpt><trkpt lat="46.02103116036324" lon="12.044763767211945"><ele>580.0</ele><time>2026-03-24T12:30:32Z</time></trkpt><trkpt lat="46.02115889396852" lon="12.044740536713835"><ele>583.25</ele><time>2026-03-24T12:30:33Z</time></trkpt><trkpt lat="46.021291095348595" lon="12.044714073815511"><ele>586.5</ele><time>2026-03-24T12:30:34Z</time></trkpt><trkpt lat="46.02143778071856" lon="12.044696092093512"><ele>589.75</ele><time>2026-03-24T12:30:35Z</time></trkpt><trkpt lat="46.0215681929351" lon="12.044680339515455"><ele>593.0</ele><time>2026-03-24T12:30:36Z</time></trkpt><trkpt lat="46.02168607949048" lon="12.044660941194314"><ele>593.0</ele><time>2026-03-24T12:30:37Z</time></trkpt><trkpt lat="46.021799374044406" lon="12.044648029604524"><ele>593.0</ele><time>2026-03-24T12:30:38Z</time></trkpt><trkpt lat="46.02190244730221" lon="12.044653341113774"><ele>593.0</ele><time>2026-03-24T12:30:39Z</time></trkpt><trkpt lat="46.02199345209131" lon="12.044679163991914"><ele>593.0</ele><time>2026-03-24T12:30:40Z</time></trkpt><trkpt lat="46.022064496093364" lon="12.044707913321776"><ele>593.0</ele><time>2026-03-24T12:30:41Z</time></trkpt><trkpt lat="46.02213086452607" lon="12.044713073884452"><ele>593.0</ele><time>2026-03-24T12:30:42Z</time></trkpt><trkpt lat="46.02219861176249" lon="12.044682595789483"><ele>593.0</ele><time>2026-03-24T12:30:43Z</time></trkpt><trkpt lat="46.02226311781376" lon="12.044618197031715"><ele>593.0</ele><time>2026-03-24T12:30:44Z</time></trkpt><trkpt lat="46.02233460476771" lon="12.04453754948131"><ele>593.0</ele><time>2026-03-24T12:30:45Z</time></trkpt><trkpt lat="46.022411984890745" lon="12.044450040071789"><ele>593.0</ele><time>2026-03-24T12:30:46Z</time></trkpt><trkpt lat="46.02248839641437" lon="12.044366164241467"><ele>593.0</ele><time>2026-03-24T12:30:47Z</time></trkpt><trkpt lat="46.02256824372665" lon="12.044285780810464"><ele>590.0</ele><time>2026-03-24T12:30:48Z</time></trkpt><trkpt lat="46.0226663699656" lon="12.044203914156045"><ele>587.0</ele><time>2026-03-24T12:30:49Z</time></trkpt><trkpt lat="46.022787927000024" lon="12.044124384170223"><ele>584.0</ele><time>2026-03-24T12:30:50Z</time></trkpt><trkpt lat="46.02291085349948" lon="12.044045515733222"><ele>581.0</ele><time>2026-03-24T12:30:51Z</time></trkpt><trkpt lat="46.02303177013885" lon="12.043967100680604"><ele>584.5</ele><time>2026-03-24T12:30:52Z</time></trkpt><trkpt lat="46.02315059013401" lon="12.043891586126655"><ele>588.0</ele><time>2026-03-24T12:30:53Z</time></trkpt><trkpt lat="46.02327145670401" lon="12.043812371968425"><ele>591.5</ele><time>2026-03-24T12:30:54Z</time></trkpt><trkpt lat="46.023394669982345" lon="12.04373839185928"><ele>595.0</ele><time>2026-03-24T12:30:55Z</time></trkpt><trkpt lat="46.02353214179496" lon="12.043654491882938"><ele>595.0</ele><time>2026-03-24T12:30:56Z</time></trkpt><trkpt lat="46.02366574163559" lon="12.043564252057807"><ele>595.0</ele><time>2026-03-24T12:30:57Z</time></trkpt><trkpt lat="46.02379716021321" lon="12.043470197838808"><ele>595.0</ele><time>2026-03-24T12:30:58Z</time></trkpt><trkpt lat="46.02393092073974" lon="12.043360279058229"><ele>595.0</ele><time>2026-03-24T12:30:59Z</time></trkpt><trkpt lat="46.024070622661476" lon="12.043244816695223"><ele>598.25</ele><time>2026-03-24T12:31:00Z</time></trkpt><trkpt lat="46.02420161320614" lon="12.043149609182981"><ele>601.5</ele><time>2026-03-24T12:31:01Z</time></trkpt><trkpt lat="46.02433754432041" lon="12.043063104639755"><ele>604.75</ele><time>2026-03-24T12:31:02Z</time></trkpt><trkpt lat="46.02446906623445" lon="12.042986813904529"><ele>608.0</ele><time>2026-03-24T12:31:03Z</time></trkpt><trkpt lat="46.024596951744094" lon="12.042911424880893"><ele>608.0</ele><time>2026-03-24T12:31:04Z</time></trkpt><trkpt lat="46.02470782081352" lon="12.042836013059553"><ele>608.0</ele><time>2026-03-24T12:31:05Z</time></trkpt><trkpt lat="46.02476903678196" lon="12.042778767452184"><ele>608.0</ele><time>2026-03-24T12:31:06Z</time></trkpt><trkpt lat="46.024843952558115" lon="12.042685594595444"><ele>608.0</ele><time>2026-03-24T12:31:08Z</time></trkpt><trkpt lat="46.02491128882165" lon="12.042581608970476"><ele>608.0</ele><time>2026-03-24T12:31:10Z</time></trkpt><trkpt lat="46.02495731402482" lon="12.042482354761598"><ele>610.1999999999999</ele><time>2026-03-24T12:31:11Z</time></trkpt><trkpt lat="46.02497519273187" lon="12.042371856433498"><ele>612.4</ele><time>2026-03-24T12:31:12Z</time></trkpt><trkpt lat="46.024968185614654" lon="12.042262465088728"><ele>614.5999999999999</ele><time>2026-03-24T12:31:13Z</time></trkpt><trkpt lat="46.02494745540567" lon="12.042135900570436"><ele>616.8</ele><time>2026-03-24T12:31:14Z</time></trkpt><trkpt lat="46.0249222790552" lon="12.041994005798118"><ele>619.0</ele><time>2026-03-24T12:31:15Z</time></trkpt><trkpt lat="46.024898801816164" lon="12.041840712131346"><ele>619.0</ele><time>2026-03-24T12:31:16Z</time></trkpt><trkpt lat="46.024876830889916" lon="12.041687185202266"><ele>619.0</ele><time>2026-03-24T12:31:17Z</time></trkpt><trkpt lat="46.02488106567278" lon="12.041545899798445"><ele>619.0</ele><time>2026-03-24T12:31:18Z</time></trkpt><trkpt lat="46.02492086457503" lon="12.041386314795586"><ele>619.0</ele><time>2026-03-24T12:31:19Z</time></trkpt><trkpt lat="46.02499861936452" lon="12.041245043564512"><ele>617.25</ele><time>2026-03-24T12:31:20Z</time></trkpt><trkpt lat="46.025101640341916" lon="12.041107802201028"><ele>615.5</ele><time>2026-03-24T12:31:21Z</time></trkpt><trkpt lat="46.02521686033294" lon="12.040983498198985"><ele>613.75</ele><time>2026-03-24T12:31:22Z</time></trkpt><trkpt lat="46.02533208385737" lon="12.040852337250877"><ele>612.0</ele><time>2026-03-24T12:31:23Z</time></trkpt><trkpt lat="46.02544033407912" lon="12.040727547283888"><ele>617.0</ele><time>2026-03-24T12:31:24Z</time></trkpt><trkpt lat="46.02552819620183" lon="12.040615517344403"><ele>622.0</ele><time>2026-03-24T12:31:25Z</time></trkpt><trkpt lat="46.0256147153858" lon="12.040516281824013"><ele>627.0</ele><time>2026-03-24T12:31:26Z</time></trkpt><trkpt lat="46.02569120705713" lon="12.040390302542422"><ele>632.0</ele><time>2026-03-24T12:31:27Z</time></trkpt><trkpt lat="46.025775625577765" lon="12.040282396404967"><ele>630.0</ele><time>2026-03-24T12:31:28Z</time></trkpt><trkpt lat="46.02588152958394" lon="12.040194789783719"><ele>628.0</ele><time>2026-03-24T12:31:29Z</time></trkpt><trkpt lat="46.025987201232205" lon="12.040124318462086"><ele>626.0</ele><time>2026-03-24T12:31:30Z</time></trkpt><trkpt lat="46.026088569001224" lon="12.040048717258248"><ele>624.0</ele><time>2026-03-24T12:31:31Z</time></trkpt><trkpt lat="46.02618815268848" lon="12.039957677072582"><ele>624.0</ele><time>2026-03-24T12:31:32Z</time></trkpt><trkpt lat="46.0262891242927" lon="12.039855556309833"><ele>624.0</ele><time>2026-03-24T12:31:33Z</time></trkpt><trkpt lat="46.02638347636156" lon="12.03973192849566"><ele>624.0</ele><time>2026-03-24T12:31:34Z</time></trkpt><trkpt lat="46.02647404457577" lon="12.039591933886488"><ele>624.0</ele><time>2026-03-24T12:31:35Z</time></trkpt><trkpt lat="46.02656442879297" lon="12.039456612625738"><ele>620.5</ele><time>2026-03-24T12:31:36Z</time></trkpt><trkpt lat="46.02665833174947" lon="12.039330490195482"><ele>617.0</ele><time>2026-03-24T12:31:37Z</time></trkpt><trkpt lat="46.02675108695387" lon="12.03920241599255"><ele>613.5</ele><time>2026-03-24T12:31:38Z</time></trkpt><trkpt lat="46.026831229991636" lon="12.039072210307475"><ele>610.0</ele><time>2026-03-24T12:31:39Z</time></trkpt><trkpt lat="46.02692063421164" lon="12.038947960025947"><ele>610.0</ele><time>2026-03-24T12:31:40Z</time></trkpt><trkpt lat="46.027020253923766" lon="12.038843152423675"><ele>610.0</ele><time>2026-03-24T12:31:41Z</time></trkpt><trkpt lat="46.02710932483678" lon="12.038710407369466"><ele>610.0</ele><time>2026-03-24T12:31:42Z</time></trkpt><trkpt lat="46.027193023820494" lon="12.038555125798922"><ele>610.0</ele><time>2026-03-24T12:31:43Z</time></trkpt><trkpt lat="46.02726807229307" lon="12.038391091067401"><ele>611.5</ele><time>2026-03-24T12:31:44Z</time></trkpt><trkpt lat="46.027341044109875" lon="12.038213612880595"><ele>613.0</ele><time>2026-03-24T12:31:45Z</time></trkpt><trkpt lat="46.02740524680251" lon="12.038027171503822"><ele>614.5</ele><time>2026-03-24T12:31:46Z</time></trkpt><trkpt lat="46.027461019362875" lon="12.03783558536715"><ele>616.0</ele><time>2026-03-24T12:31:47Z</time></trkpt><trkpt lat="46.02751700643314" lon="12.03764400322369"><ele>610.5</ele><time>2026-03-24T12:31:48Z</time></trkpt><trkpt lat="46.02757644009257" lon="12.037459429541304"><ele>605.0</ele><time>2026-03-24T12:31:49Z</time></trkpt><trkpt lat="46.0276336792403" lon="12.037274668026468"><ele>599.5</ele><time>2026-03-24T12:31:50Z</time></trkpt><trkpt lat="46.02768766002786" lon="12.037092402245118"><ele>594.0</ele><time>2026-03-24T12:31:51Z</time></trkpt><trkpt lat="46.02774503579429" lon="12.036899023969664"><ele>594.0</ele><time>2026-03-24T12:31:52Z</time></trkpt><trkpt lat="46.02779759088355" lon="12.036719292857427"><ele>594.0</ele><time>2026-03-24T12:31:53Z</time></trkpt><trkpt lat="46.02785992343635" lon="12.036547869833896"><ele>594.0</ele><time>2026-03-24T12:31:54Z</time></trkpt><trkpt lat="46.027939313239095" lon="12.036389109357696"><ele>594.0</ele><time>2026-03-24T12:31:55Z</time></trkpt><trkpt lat="46.0280364896501" lon="12.036251066858997"><ele>595.25</ele><time>2026-03-24T12:31:56Z</time></trkpt><trkpt lat="46.02814008114113" lon="12.036112702768303"><ele>596.5</ele><time>2026-03-24T12:31:57Z</time></trkpt><trkpt lat="46.02824445633929" lon="12.035991879336255"><ele>597.75</ele><time>2026-03-24T12:31:58Z</time></trkpt><trkpt lat="46.028346587894" lon="12.035897581607413"><ele>599.0</ele><time>2026-03-24T12:31:59Z</time></trkpt><trkpt lat="46.028440739446125" lon="12.035834194982954"><ele>599.8</ele><time>2026-03-24T12:32:00Z</time></trkpt><trkpt lat="46.02852417397603" lon="12.035778947389229"><ele>600.5999999999999</ele><time>2026-03-24T12:32:01Z</time></trkpt><trkpt lat="46.02858604179197" lon="12.035729513713338"><ele>601.4</ele><time>2026-03-24T12:32:02Z</time></trkpt><trkpt lat="46.02854637291931" lon="12.035587455161997"><ele>602.1999999999999</ele><time>2026-03-24T12:32:06Z</time></trkpt><trkpt lat="46.02838841005867" lon="12.035593169833053"><ele>603.0</ele><time>2026-03-24T12:32:08Z</time></trkpt><trkpt lat="46.02829536873017" lon="12.035622003891126"><ele>603.0</ele><time>2026-03-24T12:32:09Z</time></trkpt><trkpt lat="46.02819510307997" lon="12.035633923818702"><ele>603.0</ele><time>2026-03-24T12:32:10Z</time></trkpt><trkpt lat="46.02808000938982" lon="12.035626642100008"><ele>603.0</ele><time>2026-03-24T12:32:11Z</time></trkpt><trkpt lat="46.027950276317355" lon="12.035644256026268"><ele>603.0</ele><time>2026-03-24T12:32:12Z</time></trkpt><trkpt lat="46.02782733060727" lon="12.03566094814927"><ele>603.0</ele><time>2026-03-24T12:32:13Z</time></trkpt><trkpt lat="46.02770294306801" lon="12.03567783586842"><ele>603.0</ele><time>2026-03-24T12:32:14Z</time></trkpt><trkpt lat="46.027580679132" lon="12.035694435275785"><ele>603.0</ele><time>2026-03-24T12:32:15Z</time></trkpt><trkpt lat="46.027467004990434" lon="12.035925775072776"><ele>603.0</ele><time>2026-03-24T12:32:16Z</time></trkpt><trkpt lat="46.02735268312326" lon="12.036049192950337"><ele>611.0</ele><time>2026-03-24T12:32:17Z</time></trkpt><trkpt lat="46.02723301054645" lon="12.036207351497431"><ele>619.0</ele><time>2026-03-24T12:32:18Z</time></trkpt><trkpt lat="46.02711653265153" lon="12.036354397131023"><ele>627.0</ele><time>2026-03-24T12:32:19Z</time></trkpt><trkpt lat="46.02700963746533" lon="12.036514727554948"><ele>625.0</ele><time>2026-03-24T12:32:20Z</time></trkpt><trkpt lat="46.02691553423385" lon="12.036657207170634"><ele>623.0</ele><time>2026-03-24T12:32:21Z</time></trkpt><trkpt lat="46.02684378797891" lon="12.036777399972127"><ele>621.0</ele><time>2026-03-24T12:32:22Z</time></trkpt><trkpt lat="46.026778156673686" lon="12.036893234823532"><ele>619.0</ele><time>2026-03-24T12:32:23Z</time></trkpt><trkpt lat="46.02669981750578" lon="12.036989553106922"><ele>624.0</ele><time>2026-03-24T12:32:24Z</time></trkpt><trkpt lat="46.02660918327208" lon="12.037054051541432"><ele>629.0</ele><time>2026-03-24T12:32:25Z</time></trkpt><trkpt lat="46.02650305835994" lon="12.037096616570063"><ele>634.0</ele><time>2026-03-24T12:32:26Z</time></trkpt><trkpt lat="46.0264076668517" lon="12.037160477763715"><ele>639.0</ele><time>2026-03-24T12:32:27Z</time></trkpt><trkpt lat="46.0263129627679" lon="12.037263082214196"><ele>644.0</ele><time>2026-03-24T12:32:28Z</time></trkpt><trkpt lat="46.026250193700086" lon="12.037385228523707"><ele>643.0</ele><time>2026-03-24T12:32:29Z</time></trkpt><trkpt lat="46.026194450724766" lon="12.037538873932771"><ele>642.0</ele><time>2026-03-24T12:32:30Z</time></trkpt><trkpt lat="46.02613000178024" lon="12.037700812910291"><ele>641.0</ele><time>2026-03-24T12:32:31Z</time></trkpt><trkpt lat="46.02605445370754" lon="12.037850123626871"><ele>640.0</ele><time>2026-03-24T12:32:32Z</time></trkpt><trkpt lat="46.02596688742684" lon="12.037988410320061"><ele>640.0</ele><time>2026-03-24T12:32:33Z</time></trkpt><trkpt lat="46.02589665832631" lon="12.03812353107789"><ele>640.0</ele><time>2026-03-24T12:32:34Z</time></trkpt><trkpt lat="46.02582093553112" lon="12.038203888261307"><ele>640.0</ele><time>2026-03-24T12:32:35Z</time></trkpt><trkpt lat="46.02575232792888" lon="12.038280929904987"><ele>640.0</ele><time>2026-03-24T12:32:36Z</time></trkpt><trkpt lat="46.02566248314417" lon="12.038314987133518"><ele>640.0</ele><time>2026-03-24T12:32:37Z</time></trkpt><trkpt lat="46.02557148946173" lon="12.038326862981744"><ele>643.25</ele><time>2026-03-24T12:32:38Z</time></trkpt><trkpt lat="46.0254641658089" lon="12.03836815067898"><ele>646.5</ele><time>2026-03-24T12:32:39Z</time></trkpt><trkpt lat="46.025353602137365" lon="12.038348834782015"><ele>649.75</ele><time>2026-03-24T12:32:40Z</time></trkpt><trkpt lat="46.02522987546545" lon="12.038363425301087"><ele>653.0</ele><time>2026-03-24T12:32:41Z</time></trkpt><trkpt lat="46.02509739265005" lon="12.038388288382773"><ele>653.0</ele><time>2026-03-24T12:32:42Z</time></trkpt><trkpt lat="46.02498296501031" lon="12.0384236242673"><ele>653.0</ele><time>2026-03-24T12:32:43Z</time></trkpt><trkpt lat="46.02489476564853" lon="12.038427212699101"><ele>653.0</ele><time>2026-03-24T12:32:44Z</time></trkpt><trkpt lat="46.024827788570576" lon="12.038474499156282"><ele>653.0</ele><time>2026-03-24T12:32:45Z</time></trkpt><trkpt lat="46.02474434103246" lon="12.038566304867226"><ele>653.0</ele><time>2026-03-24T12:32:46Z</time></trkpt><trkpt lat="46.024671952014785" lon="12.038661977895844"><ele>656.25</ele><time>2026-03-24T12:32:47Z</time></trkpt><trkpt lat="46.02460308002212" lon="12.038806126407506"><ele>659.5</ele><time>2026-03-24T12:32:48Z</time></trkpt><trkpt lat="46.02455417939096" lon="12.038976971617586"><ele>662.75</ele><time>2026-03-24T12:32:49Z</time></trkpt><trkpt lat="46.02449211999941" lon="12.039129399728001"><ele>666.0</ele><time>2026-03-24T12:32:50Z</time></trkpt><trkpt lat="46.024437717546796" lon="12.039257361249026"><ele>666.0</ele><time>2026-03-24T12:32:51Z</time></trkpt><trkpt lat="46.024397151829206" lon="12.039399963015693"><ele>666.0</ele><time>2026-03-24T12:32:52Z</time></trkpt><trkpt lat="46.024376342173746" lon="12.039538031341612"><ele>666.0</ele><time>2026-03-24T12:32:53Z</time></trkpt><trkpt lat="46.024362576672715" lon="12.039628251234962"><ele>666.0</ele><time>2026-03-24T12:32:54Z</time></trkpt><trkpt lat="46.024315130322265" lon="12.039697787152846"><ele>666.0</ele><time>2026-03-24T12:32:55Z</time></trkpt><trkpt lat="46.02425464922568" lon="12.039785292724499"><ele>666.0</ele><time>2026-03-24T12:32:56Z</time></trkpt><trkpt lat="46.024163031483766" lon="12.03982671657822"><ele>665.5</ele><time>2026-03-24T12:32:57Z</time></trkpt><trkpt lat="46.02404958366767" lon="12.039863110678212"><ele>665.0</ele><time>2026-03-24T12:32:58Z</time></trkpt><trkpt lat="46.02394254133179" lon="12.03990813867732"><ele>664.5</ele><time>2026-03-24T12:32:59Z</time></trkpt><trkpt lat="46.02382933671309" lon="12.039971885141986"><ele>664.0</ele><time>2026-03-24T12:33:00Z</time></trkpt><trkpt lat="46.02370615642935" lon="12.040048785327334"><ele>664.0</ele><time>2026-03-24T12:33:01Z</time></trkpt><trkpt lat="46.02359255233379" lon="12.040090604083385"><ele>664.0</ele><time>2026-03-24T12:33:02Z</time></trkpt><trkpt lat="46.02347374488485" lon="12.040127447542867"><ele>664.0</ele><time>2026-03-24T12:33:03Z</time></trkpt><trkpt lat="46.02336481988688" lon="12.040184315488522"><ele>664.0</ele><time>2026-03-24T12:33:04Z</time></trkpt><trkpt lat="46.023265549459516" lon="12.040274142676349"><ele>669.25</ele><time>2026-03-24T12:33:05Z</time></trkpt><trkpt lat="46.02317024986004" lon="12.040400626996208"><ele>674.5</ele><time>2026-03-24T12:33:06Z</time></trkpt><trkpt lat="46.02307034398307" lon="12.040567971747631"><ele>679.75</ele><time>2026-03-24T12:33:07Z</time></trkpt><trkpt lat="46.02299499733698" lon="12.040714572855682"><ele>685.0</ele><time>2026-03-24T12:33:08Z</time></trkpt><trkpt lat="46.02291997038472" lon="12.040829215767955"><ele>685.0</ele><time>2026-03-24T12:33:09Z</time></trkpt><trkpt lat="46.022829816247636" lon="12.040940208865244"><ele>685.0</ele><time>2026-03-24T12:33:10Z</time></trkpt><trkpt lat="46.02275060813556" lon="12.041052618135705"><ele>685.0</ele><time>2026-03-24T12:33:11Z</time></trkpt><trkpt lat="46.02270930819532" lon="12.041186002618586"><ele>685.0</ele><time>2026-03-24T12:33:12Z</time></trkpt><trkpt lat="46.02267832834352" lon="12.041346699130473"><ele>685.0</ele><time>2026-03-24T12:33:13Z</time></trkpt><trkpt lat="46.02264233150135" lon="12.041470787687784"><ele>685.0</ele><time>2026-03-24T12:33:14Z</time></trkpt><trkpt lat="46.022577443254214" lon="12.041582851276182"><ele>685.0</ele><time>2026-03-24T12:33:15Z</time></trkpt><trkpt lat="46.02251348441926" lon="12.041697287119739"><ele>685.0</ele><time>2026-03-24T12:33:16Z</time></trkpt><trkpt lat="46.022438620694786" lon="12.041802407789042"><ele>685.0</ele><time>2026-03-24T12:33:17Z</time></trkpt><trkpt lat="46.02235939048141" lon="12.041880385591249"><ele>685.0</ele><time>2026-03-24T12:33:18Z</time></trkpt><trkpt lat="46.022297893107094" lon="12.041964371175645"><ele>686.2</ele><time>2026-03-24T12:33:19Z</time></trkpt><trkpt lat="46.02222746497107" lon="12.042107957986774"><ele>687.4</ele><time>2026-03-24T12:33:21Z</time></trkpt><trkpt lat="46.02216752621162" lon="12.042154752204958"><ele>688.5999999999999</ele><time>2026-03-24T12:33:22Z</time></trkpt><trkpt lat="46.02206332271014" lon="12.042176823126958"><ele>689.8</ele><time>2026-03-24T12:33:23Z</time></trkpt><trkpt lat="46.02196304512931" lon="12.042161174396197"><ele>691.0</ele><time>2026-03-24T12:33:24Z</time></trkpt><trkpt lat="46.02184498991108" lon="12.042150722067841"><ele>691.0</ele><time>2026-03-24T12:33:25Z</time></trkpt><trkpt lat="46.02169057215164" lon="12.04210372526285"><ele>691.0</ele><time>2026-03-24T12:33:26Z</time></trkpt><trkpt lat="46.02154316700228" lon="12.042077516491805"><ele>691.0</ele><time>2026-03-24T12:33:27Z</time></trkpt><trkpt lat="46.02140157464417" lon="12.042008216460365"><ele>689.5</ele><time>2026-03-24T12:33:28Z</time></trkpt><trkpt lat="46.021296253421845" lon="12.041974036149146"><ele>688.0</ele><time>2026-03-24T12:33:29Z</time></trkpt><trkpt lat="46.02117750917259" lon="12.04195289665864"><ele>686.5</ele><time>2026-03-24T12:33:30Z</time></trkpt><trkpt lat="46.02106296475165" lon="12.041890751736469"><ele>685.0</ele><time>2026-03-24T12:33:31Z</time></trkpt><trkpt lat="46.02093540001013" lon="12.041836151203773"><ele>685.0</ele><time>2026-03-24T12:33:32Z</time></trkpt><trkpt lat="46.020826733416875" lon="12.04175173851407"><ele>685.0</ele><time>2026-03-24T12:33:33Z</time></trkpt><trkpt lat="46.02073289685221" lon="12.041715351463543"><ele>685.0</ele><time>2026-03-24T12:33:34Z</time></trkpt><trkpt lat="46.0206561440193" lon="12.041697669588123"><ele>685.0</ele><time>2026-03-24T12:33:35Z</time></trkpt><trkpt lat="46.020565945522094" lon="12.041531329183359"><ele>685.0</ele><time>2026-03-24T12:33:37Z</time></trkpt><trkpt lat="46.02053770247712" lon="12.041385986901158"><ele>685.5</ele><time>2026-03-24T12:33:38Z</time></trkpt><trkpt lat="46.02050606787591" lon="12.041255737236522"><ele>686.0</ele><time>2026-03-24T12:33:39Z</time></trkpt><trkpt lat="46.02045923379915" lon="12.041157859826301"><ele>686.5</ele><time>2026-03-24T12:33:40Z</time></trkpt><trkpt lat="46.020412867536656" lon="12.041079472729185"><ele>687.0</ele><time>2026-03-24T12:33:41Z</time></trkpt><trkpt lat="46.02034242660673" lon="12.040980836599488"><ele>687.5</ele><time>2026-03-24T12:33:42Z</time></trkpt><trkpt lat="46.02025962151285" lon="12.040914941767971"><ele>688.0</ele><time>2026-03-24T12:33:43Z</time></trkpt><trkpt lat="46.02018255184056" lon="12.04085849907438"><ele>688.0000000000001</ele><time>2026-03-24T12:33:44Z</time></trkpt><trkpt lat="46.020121733245674" lon="12.040805831382059"><ele>688.0</ele><time>2026-03-24T12:33:45Z</time></trkpt><trkpt lat="46.020056846531766" lon="12.040760503081483"><ele>688.0</ele><time>2026-03-24T12:33:46Z</time></trkpt><trkpt lat="46.02000551837501" lon="12.040681274708557"><ele>688.0</ele><time>2026-03-24T12:33:47Z</time></trkpt><trkpt lat="46.019948850745415" lon="12.040600613834487"><ele>688.0</ele><time>2026-03-24T12:33:48Z</time></trkpt><trkpt lat="46.01990689304544" lon="12.040511072247305"><ele>688.0000000000001</ele><time>2026-03-24T12:33:49Z</time></trkpt><trkpt lat="46.01988573152934" lon="12.040408866387574"><ele>688.0</ele><time>2026-03-24T12:33:50Z</time></trkpt><trkpt lat="46.01981801436505" lon="12.040367081324339"><ele>690.4</ele><time>2026-03-24T12:33:51Z</time></trkpt><trkpt lat="46.01970576386788" lon="12.040327152033704"><ele>692.8</ele><time>2026-03-24T12:33:52Z</time></trkpt><trkpt lat="46.01961305976754" lon="12.040319321603015"><ele>695.2</ele><time>2026-03-24T12:33:53Z</time></trkpt><trkpt lat="46.01952199380207" lon="12.040304465689161"><ele>697.6</ele><time>2026-03-24T12:33:54Z</time></trkpt><trkpt lat="46.01943077810563" lon="12.040260403998493"><ele>700.0</ele><time>2026-03-24T12:33:55Z</time></trkpt><trkpt lat="46.019328944839465" lon="12.040186096143259"><ele>700.0</ele><time>2026-03-24T12:33:56Z</time></trkpt><trkpt lat="46.01922895341882" lon="12.040099444265831"><ele>700.0</ele><time>2026-03-24T12:33:57Z</time></trkpt><trkpt lat="46.019145377825936" lon="12.040008189877579"><ele>700.0</ele><time>2026-03-24T12:33:58Z</time></trkpt><trkpt lat="46.019062276028905" lon="12.039937571947105"><ele>700.0</ele><time>2026-03-24T12:33:59Z</time></trkpt><trkpt lat="46.0190320493501" lon="12.039810203832754"><ele>700.0</ele><time>2026-03-24T12:34:00Z</time></trkpt><trkpt lat="46.018981611783744" lon="12.03968137639161"><ele>704.0</ele><time>2026-03-24T12:34:01Z</time></trkpt><trkpt lat="46.01894457421474" lon="12.039553307529696"><ele>708.0</ele><time>2026-03-24T12:34:02Z</time></trkpt><trkpt lat="46.01892580077102" lon="12.039446058411103"><ele>712.0</ele><time>2026-03-24T12:34:03Z</time></trkpt><trkpt lat="46.018906255567764" lon="12.039346443394795"><ele>716.0</ele><time>2026-03-24T12:34:04Z</time></trkpt><trkpt lat="46.018854420252026" lon="12.039229631295429"><ele>720.0</ele><time>2026-03-24T12:34:06Z</time></trkpt><trkpt lat="46.018780659955944" lon="12.039207135126519"><ele>724.0</ele><time>2026-03-24T12:34:07Z</time></trkpt><trkpt lat="46.018704433610736" lon="12.03923272325788"><ele>724.0</ele><time>2026-03-24T12:34:08Z</time></trkpt><trkpt lat="46.018625451518034" lon="12.039281302201637"><ele>724.0</ele><time>2026-03-24T12:34:09Z</time></trkpt><trkpt lat="46.01853322115196" lon="12.03933893919324"><ele>724.0</ele><time>2026-03-24T12:34:10Z</time></trkpt><trkpt lat="46.01845545932592" lon="12.039368440391021"><ele>724.0</ele><time>2026-03-24T12:34:11Z</time></trkpt><trkpt lat="46.0183847489701" lon="12.039372513199842"><ele>724.0</ele><time>2026-03-24T12:34:12Z</time></trkpt><trkpt lat="46.01829945467401" lon="12.039308858235852"><ele>724.0</ele><time>2026-03-24T12:34:13Z</time></trkpt><trkpt lat="46.01821784982376" lon="12.039256684261535"><ele>726.5</ele><time>2026-03-24T12:34:14Z</time></trkpt><trkpt lat="46.01813871658446" lon="12.039217290873735"><ele>729.0</ele><time>2026-03-24T12:34:15Z</time></trkpt><trkpt lat="46.01808286736332" lon="12.039158965863054"><ele>731.5</ele><time>2026-03-24T12:34:16Z</time></trkpt><trkpt lat="46.01799981320923" lon="12.039076951163107"><ele>734.0</ele><time>2026-03-24T12:34:18Z</time></trkpt><trkpt lat="46.017925572775944" lon="12.039115654392614"><ele>736.5</ele><time>2026-03-24T12:34:19Z</time></trkpt><trkpt lat="46.01781887399288" lon="12.039173842622677"><ele>739.0</ele><time>2026-03-24T12:34:20Z</time></trkpt><trkpt lat="46.01772144093455" lon="12.039215612313455"><ele>739.0</ele><time>2026-03-24T12:34:21Z</time></trkpt><trkpt lat="46.01762383327698" lon="12.039216823764011"><ele>739.0</ele><time>2026-03-24T12:34:22Z</time></trkpt><trkpt lat="46.01754091599604" lon="12.039205927658228"><ele>739.0</ele><time>2026-03-24T12:34:23Z</time></trkpt><trkpt lat="46.0174742724054" lon="12.039181801932042"><ele>739.0</ele><time>2026-03-24T12:34:24Z</time></trkpt><trkpt lat="46.01740121919351" lon="12.039139701343508"><ele>739.0</ele><time>2026-03-24T12:34:25Z</time></trkpt><trkpt lat="46.01731565671587" lon="12.039061276764887"><ele>739.0</ele><time>2026-03-24T12:34:26Z</time></trkpt><trkpt lat="46.01722713731748" lon="12.039045544824653"><ele>748.0</ele><time>2026-03-24T12:34:27Z</time></trkpt><trkpt lat="46.017138366507616" lon="12.039074086000259"><ele>757.0</ele><time>2026-03-24T12:34:28Z</time></trkpt><trkpt lat="46.017042004109385" lon="12.039076186368439"><ele>766.0</ele><time>2026-03-24T12:34:29Z</time></trkpt><trkpt lat="46.01693786444988" lon="12.039032825684728"><ele>775.0</ele><time>2026-03-24T12:34:30Z</time></trkpt><trkpt lat="46.01684013549091" lon="12.039024685660781"><ele>784.0</ele><time>2026-03-24T12:34:31Z</time></trkpt><trkpt lat="46.01675541193295" lon="12.039062520895321"><ele>784.0</ele><time>2026-03-24T12:34:32Z</time></trkpt><trkpt lat="46.01667641753518" lon="12.039119706942067"><ele>784.0</ele><time>2026-03-24T12:34:33Z</time></trkpt><trkpt lat="46.01660249143865" lon="12.039177337119508"><ele>784.0</ele><time>2026-03-24T12:34:34Z</time></trkpt><trkpt lat="46.016507092960694" lon="12.03924821081242"><ele>784.0</ele><time>2026-03-24T12:34:36Z</time></trkpt><trkpt lat="46.01636492983905" lon="12.039180174994753"><ele>784.0</ele><time>2026-03-24T12:34:38Z</time></trkpt><trkpt lat="46.01627962386381" lon="12.03915296567991"><ele>781.25</ele><time>2026-03-24T12:34:39Z</time></trkpt><trkpt lat="46.016173003618235" lon="12.039080505105389"><ele>778.5</ele><time>2026-03-24T12:34:40Z</time></trkpt><trkpt lat="46.01606074733652" lon="12.038987965133211"><ele>775.75</ele><time>2026-03-24T12:34:41Z</time></trkpt><trkpt lat="46.01595331591983" lon="12.038907188555237"><ele>773.0</ele><time>2026-03-24T12:34:42Z</time></trkpt><trkpt lat="46.01585123850336" lon="12.038834160349126"><ele>770.0000000000001</ele><time>2026-03-24T12:34:43Z</time></trkpt><trkpt lat="46.01578138109338" lon="12.038775979368307"><ele>767.0</ele><time>2026-03-24T12:34:44Z</time></trkpt><trkpt lat="46.01572209262071" lon="12.0387212575757"><ele>764.0</ele><time>2026-03-24T12:34:45Z</time></trkpt><trkpt lat="46.01567794495011" lon="12.038646647184299"><ele>761.0</ele><time>2026-03-24T12:34:46Z</time></trkpt><trkpt lat="46.01564766050224" lon="12.038557927007027"><ele>758.0</ele><time>2026-03-24T12:34:47Z</time></trkpt><trkpt lat="46.01564151220252" lon="12.038436733747895"><ele>755.0</ele><time>2026-03-24T12:34:48Z</time></trkpt><trkpt lat="46.01563786329343" lon="12.038307228878597"><ele>763.75</ele><time>2026-03-24T12:34:49Z</time></trkpt><trkpt lat="46.015598174710256" lon="12.03818271248046"><ele>772.5</ele><time>2026-03-24T12:34:50Z</time></trkpt><trkpt lat="46.01548406109705" lon="12.038074990397568"><ele>781.25</ele><time>2026-03-24T12:34:52Z</time></trkpt><trkpt lat="46.0153972117374" lon="12.038017938477015"><ele>790.0</ele><time>2026-03-24T12:34:53Z</time></trkpt><trkpt lat="46.01528421530499" lon="12.037943601457114"><ele>790.0</ele><time>2026-03-24T12:34:54Z</time></trkpt><trkpt lat="46.01518263615341" lon="12.03786292145141"><ele>790.0</ele><time>2026-03-24T12:34:55Z</time></trkpt><trkpt lat="46.01507471149799" lon="12.037780949418918"><ele>790.0</ele><time>2026-03-24T12:34:56Z</time></trkpt><trkpt lat="46.01497242826398" lon="12.037708244083527"><ele>790.0</ele><time>2026-03-24T12:34:57Z</time></trkpt><trkpt lat="46.014880374268046" lon="12.037632186300831"><ele>790.25</ele><time>2026-03-24T12:34:58Z</time></trkpt><trkpt lat="46.01478691584548" lon="12.0375242671317"><ele>790.5</ele><time>2026-03-24T12:34:59Z</time></trkpt><trkpt lat="46.01468778776622" lon="12.037411732363676"><ele>790.75</ele><time>2026-03-24T12:35:00Z</time></trkpt><trkpt lat="46.014599760188574" lon="12.03730557360004"><ele>791.0</ele><time>2026-03-24T12:35:01Z</time></trkpt><trkpt lat="46.014514561411076" lon="12.037195123369917"><ele>791.0000000000001</ele><time>2026-03-24T12:35:02Z</time></trkpt><trkpt lat="46.01444494912048" lon="12.03710865676345"><ele>791.0</ele><time>2026-03-24T12:35:03Z</time></trkpt><trkpt lat="46.01437754650916" lon="12.037031655828029"><ele>791.0</ele><time>2026-03-24T12:35:05Z</time></trkpt><trkpt lat="46.014389913647726" lon="12.036942509806169"><ele>791.0</ele><time>2026-03-24T12:35:07Z</time></trkpt><trkpt lat="46.0144711343055" lon="12.036937544675848"><ele>791.0000000000001</ele><time>2026-03-24T12:35:09Z</time></trkpt><trkpt lat="46.014531964224474" lon="12.037003071707415"><ele>791.0</ele><time>2026-03-24T12:35:10Z</time></trkpt><trkpt lat="46.014602474170964" lon="12.037074661510438"><ele>791.0</ele><time>2026-03-24T12:35:11Z</time></trkpt><trkpt lat="46.01469315773989" lon="12.037127852945812"><ele>791.0</ele><time>2026-03-24T12:35:12Z</time></trkpt><trkpt lat="46.01480771696593" lon="12.037203065575392"><ele>791.0</ele><time>2026-03-24T12:35:13Z</time></trkpt><trkpt lat="46.0149046040164" lon="12.037287988941927"><ele>791.0</ele><time>2026-03-24T12:35:14Z</time></trkpt><trkpt lat="46.01498056657888" lon="12.037353796698676"><ele>791.0</ele><time>2026-03-24T12:35:15Z</time></trkpt><trkpt lat="46.015057363141175" lon="12.037409667473579"><ele>790.8</ele><time>2026-03-24T12:35:16Z</time></trkpt><trkpt lat="46.0151383921809" lon="12.037449125185072"><ele>790.5999999999999</ele><time>2026-03-24T12:35:17Z</time></trkpt><trkpt lat="46.01522082890508" lon="12.037518978923114"><ele>790.4</ele><time>2026-03-24T12:35:18Z</time></trkpt><trkpt lat="46.01531267289094" lon="12.037562956715341"><ele>790.2</ele><time>2026-03-24T12:35:19Z</time></trkpt><trkpt lat="46.01539706436842" lon="12.037592210932266"><ele>790.0</ele><time>2026-03-24T12:35:20Z</time></trkpt><trkpt lat="46.015492323698524" lon="12.037623310420557"><ele>789.9999999999999</ele><time>2026-03-24T12:35:21Z</time></trkpt><trkpt lat="46.01558259969614" lon="12.037656451787148"><ele>790.0</ele><time>2026-03-24T12:35:22Z</time></trkpt><trkpt lat="46.01564861993522" lon="12.03766863024364"><ele>790.0</ele><time>2026-03-24T12:35:23Z</time></trkpt><trkpt lat="46.015718436843756" lon="12.037695276141928"><ele>790.0</ele><time>2026-03-24T12:35:24Z</time></trkpt><trkpt lat="46.01579792425737" lon="12.03775324680793"><ele>789.9999999999999</ele><time>2026-03-24T12:35:25Z</time></trkpt><trkpt lat="46.01585804880044" lon="12.03782793334939"><ele>790.0</ele><time>2026-03-24T12:35:26Z</time></trkpt><trkpt lat="46.01591618262266" lon="12.037900373713033"><ele>792.6</ele><time>2026-03-24T12:35:27Z</time></trkpt><trkpt lat="46.01597530067458" lon="12.03795131050444"><ele>795.2</ele><time>2026-03-24T12:35:28Z</time></trkpt><trkpt lat="46.01606861016669" lon="12.03797231637197"><ele>797.8</ele><time>2026-03-24T12:35:29Z</time></trkpt><trkpt lat="46.01616760695233" lon="12.037960916914907"><ele>800.4</ele><time>2026-03-24T12:35:30Z</time></trkpt><trkpt lat="46.01627387058965" lon="12.037950281968993"><ele>803.0</ele><time>2026-03-24T12:35:31Z</time></trkpt><trkpt lat="46.01640438975228" lon="12.037954274900908"><ele>803.0</ele><time>2026-03-24T12:35:32Z</time></trkpt><trkpt lat="46.016529263900324" lon="12.037944029645331"><ele>803.0</ele><time>2026-03-24T12:35:33Z</time></trkpt><trkpt lat="46.016650362762576" lon="12.03796496304674"><ele>803.0</ele><time>2026-03-24T12:35:34Z</time></trkpt><trkpt lat="46.01677110689741" lon="12.037991475857831"><ele>803.0</ele><time>2026-03-24T12:35:35Z</time></trkpt><trkpt lat="46.016878257041064" lon="12.037996637264206"><ele>805.2</ele><time>2026-03-24T12:35:36Z</time></trkpt><trkpt lat="46.01698085995856" lon="12.038012256110571"><ele>807.4</ele><time>2026-03-24T12:35:37Z</time></trkpt><trkpt lat="46.01707353433276" lon="12.03799621880306"><ele>809.6</ele><time>2026-03-24T12:35:38Z</time></trkpt><trkpt lat="46.017186354260076" lon="12.037984193265643"><ele>811.8000000000001</ele><time>2026-03-24T12:35:39Z</time></trkpt><trkpt lat="46.01730306664899" lon="12.03795197971382"><ele>814.0</ele><time>2026-03-24T12:35:40Z</time></trkpt><trkpt lat="46.01742498369062" lon="12.037896597886073"><ele>813.8000000000001</ele><time>2026-03-24T12:35:41Z</time></trkpt><trkpt lat="46.01753680283723" lon="12.037878019468463"><ele>813.6</ele><time>2026-03-24T12:35:42Z</time></trkpt><trkpt lat="46.01764786676245" lon="12.03784638890914"><ele>813.4</ele><time>2026-03-24T12:35:43Z</time></trkpt><trkpt lat="46.017752658374874" lon="12.037804652093017"><ele>813.2</ele><time>2026-03-24T12:35:44Z</time></trkpt><trkpt lat="46.01784304922009" lon="12.037765900762516"><ele>813.0</ele><time>2026-03-24T12:35:45Z</time></trkpt><trkpt lat="46.017920553968835" lon="12.037754711022561"><ele>813.0</ele><time>2026-03-24T12:35:46Z</time></trkpt><trkpt lat="46.01800043275612" lon="12.037680705061504"><ele>813.0</ele><time>2026-03-24T12:35:48Z</time></trkpt><trkpt lat="46.017963612886255" lon="12.037590685823472"><ele>813.0</ele><time>2026-03-24T12:35:50Z</time></trkpt><trkpt lat="46.01783746377679" lon="12.037570436783026"><ele>813.0</ele><time>2026-03-24T12:35:52Z</time></trkpt><trkpt lat="46.0177540773939" lon="12.037596753807932"><ele>813.0</ele><time>2026-03-24T12:35:53Z</time></trkpt><trkpt lat="46.01766666578548" lon="12.03762347539568"><ele>813.0</ele><time>2026-03-24T12:35:54Z</time></trkpt><trkpt lat="46.01759078126233" lon="12.037618047519176"><ele>813.0</ele><time>2026-03-24T12:35:55Z</time></trkpt><trkpt lat="46.017503643174166" lon="12.037581358321072"><ele>813.0</ele><time>2026-03-24T12:35:56Z</time></trkpt><trkpt lat="46.017411627523785" lon="12.03751870851265"><ele>813.0</ele><time>2026-03-24T12:35:57Z</time></trkpt><trkpt lat="46.017321343958585" lon="12.037430604496855"><ele>813.0</ele><time>2026-03-24T12:35:58Z</time></trkpt><trkpt lat="46.01723211772042" lon="12.03733075484189"><ele>816.5999999999999</ele><time>2026-03-24T12:35:59Z</time></trkpt><trkpt lat="46.01716196250645" lon="12.03722494235122"><ele>820.1999999999999</ele><time>2026-03-24T12:36:00Z</time></trkpt><trkpt lat="46.01710317251993" lon="12.03712765992881"><ele>823.8</ele><time>2026-03-24T12:36:01Z</time></trkpt><trkpt lat="46.01704027734549" lon="12.037035947799522"><ele>827.4</ele><time>2026-03-24T12:36:02Z</time></trkpt><trkpt lat="46.01696682393388" lon="12.036966804498396"><ele>831.0</ele><time>2026-03-24T12:36:03Z</time></trkpt><trkpt lat="46.01689042598343" lon="12.036896696007327"><ele>831.0</ele><time>2026-03-24T12:36:04Z</time></trkpt><trkpt lat="46.01682785082142" lon="12.036838288793124"><ele>831.0</ele><time>2026-03-24T12:36:05Z</time></trkpt><trkpt lat="46.0167680717355" lon="12.03676795064207"><ele>831.0</ele><time>2026-03-24T12:36:06Z</time></trkpt><trkpt lat="46.016707400018596" lon="12.03668052322661"><ele>831.0</ele><time>2026-03-24T12:36:07Z</time></trkpt><trkpt lat="46.01666299022621" lon="12.03658387321435"><ele>831.0</ele><time>2026-03-24T12:36:08Z</time></trkpt><trkpt lat="46.01663333992806" lon="12.03649881442899"><ele>831.0</ele><time>2026-03-24T12:36:09Z</time></trkpt><trkpt lat="46.016627890196354" lon="12.036358563799848"><ele>833.1999999999999</ele><time>2026-03-24T12:36:11Z</time></trkpt><trkpt lat="46.01671387670358" lon="12.036269768545841"><ele>835.4</ele><time>2026-03-24T12:36:13Z</time></trkpt><trkpt lat="46.01679305321193" lon="12.036257548312351"><ele>837.6</ele><time>2026-03-24T12:36:14Z</time></trkpt><trkpt lat="46.01688758319531" lon="12.036206503282997"><ele>839.8</ele><time>2026-03-24T12:36:15Z</time></trkpt><trkpt lat="46.01699510899692" lon="12.03610647497805"><ele>842.0</ele><time>2026-03-24T12:36:16Z</time></trkpt><trkpt lat="46.017086085709344" lon="12.03599479933507"><ele>842.0</ele><time>2026-03-24T12:36:17Z</time></trkpt><trkpt lat="46.01718797302268" lon="12.035958535802108"><ele>842.0</ele><time>2026-03-24T12:36:18Z</time></trkpt><trkpt lat="46.0172910519471" lon="12.035924239239428"><ele>842.0</ele><time>2026-03-24T12:36:19Z</time></trkpt><trkpt lat="46.01742008818438" lon="12.035867655792691"><ele>842.0</ele><time>2026-03-24T12:36:20Z</time></trkpt><trkpt lat="46.01751412234005" lon="12.035838493823295"><ele>842.0</ele><time>2026-03-24T12:36:21Z</time></trkpt><trkpt lat="46.017583539933646" lon="12.035787754423394"><ele>843.5000000000001</ele><time>2026-03-24T12:36:22Z</time></trkpt><trkpt lat="46.017635411824635" lon="12.035711401938643"><ele>845.0</ele><time>2026-03-24T12:36:23Z</time></trkpt><trkpt lat="46.01767736182671" lon="12.035603755774702"><ele>846.5</ele><time>2026-03-24T12:36:24Z</time></trkpt><trkpt lat="46.01769412172643" lon="12.03548960775787"><ele>848.0</ele><time>2026-03-24T12:36:25Z</time></trkpt><trkpt lat="46.01769206161513" lon="12.035364070927598"><ele>849.5000000000001</ele><time>2026-03-24T12:36:26Z</time></trkpt><trkpt lat="46.01766834716416" lon="12.03524954224691"><ele>851.0</ele><time>2026-03-24T12:36:27Z</time></trkpt><trkpt lat="46.01766909982818" lon="12.035064974328222"><ele>852.1999999999999</ele><time>2026-03-24T12:36:29Z</time></trkpt><trkpt lat="46.01766973848132" lon="12.034942313942281"><ele>853.4</ele><time>2026-03-24T12:36:30Z</time></trkpt><trkpt lat="46.01771133904095" lon="12.034818432017971"><ele>854.6</ele><time>2026-03-24T12:36:31Z</time></trkpt><trkpt lat="46.017776144471256" lon="12.034678410433104"><ele>855.8</ele><time>2026-03-24T12:36:32Z</time></trkpt><trkpt lat="46.01782935853629" lon="12.034547559624912"><ele>857.0</ele><time>2026-03-24T12:36:33Z</time></trkpt><trkpt lat="46.01785879930478" lon="12.034412174036687"><ele>857.0</ele><time>2026-03-24T12:36:34Z</time></trkpt><trkpt lat="46.017911891450225" lon="12.034258422464404"><ele>857.0</ele><time>2026-03-24T12:36:35Z</time></trkpt><trkpt lat="46.01795743537358" lon="12.034137239160938"><ele>857.0</ele><time>2026-03-24T12:36:36Z</time></trkpt><trkpt lat="46.01799480482395" lon="12.034019094764325"><ele>857.0</ele><time>2026-03-24T12:36:37Z</time></trkpt><trkpt lat="46.01801533894772" lon="12.03386242162745"><ele>857.0</ele><time>2026-03-24T12:36:38Z</time></trkpt><trkpt lat="46.01804120069393" lon="12.033694753484166"><ele>858.2</ele><time>2026-03-24T12:36:39Z</time></trkpt><trkpt lat="46.018069313357664" lon="12.033573983062523"><ele>859.4000000000001</ele><time>2026-03-24T12:36:40Z</time></trkpt><trkpt lat="46.01809799991574" lon="12.033471120883448"><ele>860.5999999999999</ele><time>2026-03-24T12:36:41Z</time></trkpt><trkpt lat="46.01811473112113" lon="12.033365472693575"><ele>861.8</ele><time>2026-03-24T12:36:42Z</time></trkpt><trkpt lat="46.01807273832494" lon="12.033208222146031"><ele>863.0</ele><time>2026-03-24T12:36:44Z</time></trkpt><trkpt lat="46.01797597040217" lon="12.033152934246173"><ele>863.75</ele><time>2026-03-24T12:36:45Z</time></trkpt><trkpt lat="46.017868305010246" lon="12.033118229220777"><ele>864.5</ele><time>2026-03-24T12:36:46Z</time></trkpt><trkpt lat="46.01776721607462" lon="12.033033665851315"><ele>865.25</ele><time>2026-03-24T12:36:47Z</time></trkpt><trkpt lat="46.01767060808978" lon="12.032923117743215"><ele>866.0</ele><time>2026-03-24T12:36:48Z</time></trkpt><trkpt lat="46.01756550910369" lon="12.03279715659127"><ele>868.25</ele><time>2026-03-24T12:36:49Z</time></trkpt><trkpt lat="46.017468827795426" lon="12.03267080247674"><ele>870.5</ele><time>2026-03-24T12:36:50Z</time></trkpt><trkpt lat="46.017374027463084" lon="12.032542041193764"><ele>872.75</ele><time>2026-03-24T12:36:51Z</time></trkpt><trkpt lat="46.01731024805251" lon="12.032352130047892"><ele>875.0</ele><time>2026-03-24T12:36:52Z</time></trkpt><trkpt lat="46.01723667526121" lon="12.032186180981503"><ele>876.5</ele><time>2026-03-24T12:36:53Z</time></trkpt><trkpt lat="46.01715973678593" lon="12.032040959647627"><ele>878.0</ele><time>2026-03-24T12:36:54Z</time></trkpt><trkpt lat="46.01708352311222" lon="12.03190273795663"><ele>879.5</ele><time>2026-03-24T12:36:55Z</time></trkpt><trkpt lat="46.01700258008138" lon="12.031752425924756"><ele>881.0</ele><time>2026-03-24T12:36:56Z</time></trkpt><trkpt lat="46.016906630809274" lon="12.0315767280115"><ele>881.4</ele><time>2026-03-24T12:36:57Z</time></trkpt><trkpt lat="46.01683154574442" lon="12.031445393933613"><ele>881.8</ele><time>2026-03-24T12:36:58Z</time></trkpt><trkpt lat="46.016785251247505" lon="12.031328598577206"><ele>882.1999999999999</ele><time>2026-03-24T12:36:59Z</time></trkpt><trkpt lat="46.016780139387315" lon="12.031211647841301"><ele>882.5999999999999</ele><time>2026-03-24T12:37:00Z</time></trkpt><trkpt lat="46.01680474546168" lon="12.03105908833732"><ele>883.0</ele><time>2026-03-24T12:37:01Z</time></trkpt><trkpt lat="46.016827145483155" lon="12.03090179590313"><ele>882.4999999999999</ele><time>2026-03-24T12:37:02Z</time></trkpt><trkpt lat="46.016850559387194" lon="12.030766064978273"><ele>882.0</ele><time>2026-03-24T12:37:03Z</time></trkpt><trkpt lat="46.016868846" lon="12.030669652446168"><ele>881.5</ele><time>2026-03-24T12:37:04Z</time></trkpt><trkpt lat="46.016876054652016" lon="12.03057630783986"><ele>881.0</ele><time>2026-03-24T12:37:07Z</time></trkpt><trkpt lat="46.01675666270445" lon="12.030568046290115"><ele>880.4999999999999</ele><time>2026-03-24T12:39:00Z</time></trkpt><trkpt lat="46.01669096646952" lon="12.0305871108986"><ele>880.0</ele><time>2026-03-24T12:39:01Z</time></trkpt><trkpt lat="46.01656442345053" lon="12.030499978902988"><ele>884.6</ele><time>2026-03-24T12:39:03Z</time></trkpt><trkpt lat="46.01649444364969" lon="12.030424818501853"><ele>889.2</ele><time>2026-03-24T12:39:04Z</time></trkpt><trkpt lat="46.016439890388085" lon="12.030306727195681"><ele>893.8</ele><time>2026-03-24T12:39:05Z</time></trkpt><trkpt lat="46.016370704912454" lon="12.030196826158598"><ele>898.4</ele><time>2026-03-24T12:39:06Z</time></trkpt><trkpt lat="46.01628929935178" lon="12.030070502877827"><ele>903.0</ele><time>2026-03-24T12:39:07Z</time></trkpt><trkpt lat="46.01621375625908" lon="12.029943675346974"><ele>903.0</ele><time>2026-03-24T12:39:08Z</time></trkpt><trkpt lat="46.0161431719286" lon="12.029812168735683"><ele>903.0</ele><time>2026-03-24T12:39:09Z</time></trkpt><trkpt lat="46.01608299426489" lon="12.029671312401405"><ele>903.0</ele><time>2026-03-24T12:39:10Z</time></trkpt><trkpt lat="46.01604562247235" lon="12.029513999043864"><ele>903.0</ele><time>2026-03-24T12:39:11Z</time></trkpt><trkpt lat="46.0160138248884" lon="12.029353182946071"><ele>903.0</ele><time>2026-03-24T12:39:12Z</time></trkpt><trkpt lat="46.0159798449622" lon="12.02921259805962"><ele>903.0</ele><time>2026-03-24T12:39:13Z</time></trkpt><trkpt lat="46.01594865110647" lon="12.02908293506514"><ele>903.0</ele><time>2026-03-24T12:39:14Z</time></trkpt><trkpt lat="46.015912637479374" lon="12.028962353309636"><ele>903.0</ele><time>2026-03-24T12:39:15Z</time></trkpt><trkpt lat="46.01587350355304" lon="12.028882983669261"><ele>903.0</ele><time>2026-03-24T12:39:16Z</time></trkpt><trkpt lat="46.01580227832641" lon="12.028842204287054"><ele>903.0</ele><time>2026-03-24T12:39:17Z</time></trkpt><trkpt lat="46.01572848315346" lon="12.028827113821643"><ele>907.0</ele><time>2026-03-24T12:39:18Z</time></trkpt><trkpt lat="46.015641117201845" lon="12.028923729947751"><ele>911.0</ele><time>2026-03-24T12:39:19Z</time></trkpt><trkpt lat="46.01561031067229" lon="12.029083069840125"><ele>915.0</ele><time>2026-03-24T12:39:20Z</time></trkpt><trkpt lat="46.015626401053154" lon="12.029224885936275"><ele>919.0</ele><time>2026-03-24T12:39:21Z</time></trkpt><trkpt lat="46.01567498794852" lon="12.029372551950026"><ele>923.0</ele><time>2026-03-24T12:39:22Z</time></trkpt><trkpt lat="46.015720260920084" lon="12.02953036392857"><ele>923.0</ele><time>2026-03-24T12:39:23Z</time></trkpt><trkpt lat="46.01576752891072" lon="12.029688393198862"><ele>923.0</ele><time>2026-03-24T12:39:24Z</time></trkpt><trkpt lat="46.015792021758294" lon="12.029826493203215"><ele>923.0</ele><time>2026-03-24T12:39:25Z</time></trkpt><trkpt lat="46.0157819417741" lon="12.029949080588617"><ele>923.0</ele><time>2026-03-24T12:39:26Z</time></trkpt><trkpt lat="46.01575077128168" lon="12.03005408604974"><ele>923.0</ele><time>2026-03-24T12:39:27Z</time></trkpt><trkpt lat="46.01569940227496" lon="12.030149319351793"><ele>921.8333333333334</ele><time>2026-03-24T12:39:28Z</time></trkpt><trkpt lat="46.01563257225075" lon="12.030170863075039"><ele>920.6666666666667</ele><time>2026-03-24T12:39:29Z</time></trkpt><trkpt lat="46.01557326431131" lon="12.030205779811773"><ele>919.5</ele><time>2026-03-24T12:39:30Z</time></trkpt><trkpt lat="46.015464388554484" lon="12.030205120304702"><ele>918.3333333333333</ele><time>2026-03-24T12:39:32Z</time></trkpt><trkpt lat="46.01538888772516" lon="12.03018509484089"><ele>917.1666666666666</ele><time>2026-03-24T12:39:34Z</time></trkpt><trkpt lat="46.0154038703698" lon="12.030348904039357"><ele>916.0</ele><time>2026-03-24T12:39:42Z</time></trkpt><trkpt lat="46.01540865611246" lon="12.030451341167966"><ele>915.9999999999999</ele><time>2026-03-24T12:39:46Z</time></trkpt><trkpt lat="46.015414488911524" lon="12.030576187821593"><ele>916.0</ele><time>2026-03-24T12:40:01Z</time></trkpt><trkpt lat="46.01537139827303" lon="12.030676675589705"><ele>916.0</ele><time>2026-03-24T12:40:03Z</time></trkpt><trkpt lat="46.01530658431256" lon="12.030733975275115"><ele>916.0</ele><time>2026-03-24T12:40:06Z</time></trkpt><trkpt lat="46.01538925882915" lon="12.030709378040575"><ele>915.9999999999999</ele><time>2026-03-24T12:40:07Z</time></trkpt><trkpt lat="46.01540259330582" lon="12.030618063893694"><ele>916.0</ele><time>2026-03-24T12:40:11Z</time></trkpt><trkpt lat="46.01540679294166" lon="12.030450159683513"><ele>916.0</ele><time>2026-03-24T12:40:15Z</time></trkpt><trkpt lat="46.01540809833557" lon="12.03034515096848"><ele>915.9999999999999</ele><time>2026-03-24T12:40:16Z</time></trkpt><trkpt lat="46.015399071416866" lon="12.030246187824499"><ele>915.9999999999999</ele><time>2026-03-24T12:40:17Z</time></trkpt><trkpt lat="46.01529023626634" lon="12.030140317071064"><ele>916.0</ele><time>2026-03-24T12:40:18Z</time></trkpt><trkpt lat="46.01523298267687" lon="12.030046761308544"><ele>916.0</ele><time>2026-03-24T12:40:19Z</time></trkpt><trkpt lat="46.01511579724403" lon="12.029990422374912"><ele>917.4</ele><time>2026-03-24T12:40:20Z</time></trkpt><trkpt lat="46.015039035307055" lon="12.0298847140453"><ele>918.8</ele><time>2026-03-24T12:40:21Z</time></trkpt><trkpt lat="46.01496303322231" lon="12.029783489935012"><ele>920.1999999999999</ele><time>2026-03-24T12:40:22Z</time></trkpt><trkpt lat="46.014887945942704" lon="12.029670960302136"><ele>921.5999999999999</ele><time>2026-03-24T12:40:23Z</time></trkpt><trkpt lat="46.014830625386566" lon="12.029551943740149"><ele>923.0</ele><time>2026-03-24T12:40:24Z</time></trkpt><trkpt lat="46.01478222464701" lon="12.029409584398596"><ele>925.0</ele><time>2026-03-24T12:40:25Z</time></trkpt><trkpt lat="46.01473760980815" lon="12.029253768455"><ele>927.0</ele><time>2026-03-24T12:40:26Z</time></trkpt><trkpt lat="46.01471902430859" lon="12.029094116459458"><ele>929.0</ele><time>2026-03-24T12:40:27Z</time></trkpt><trkpt lat="46.01473246025501" lon="12.028938563200603"><ele>931.0</ele><time>2026-03-24T12:40:28Z</time></trkpt><trkpt lat="46.01475706154305" lon="12.028780163764933"><ele>933.1999999999999</ele><time>2026-03-24T12:40:29Z</time></trkpt><trkpt lat="46.01474211184341" lon="12.02864330660166"><ele>935.3999999999999</ele><time>2026-03-24T12:40:30Z</time></trkpt><trkpt lat="46.0146835118061" lon="12.028510845905565"><ele>937.6</ele><time>2026-03-24T12:40:31Z</time></trkpt><trkpt lat="46.0146191482979" lon="12.028379720018602"><ele>939.8</ele><time>2026-03-24T12:40:32Z</time></trkpt><trkpt lat="46.014554259649586" lon="12.028250400729593"><ele>942.0</ele><time>2026-03-24T12:40:33Z</time></trkpt><trkpt lat="46.01448262997336" lon="12.028118846717522"><ele>943.25</ele><time>2026-03-24T12:40:34Z</time></trkpt><trkpt lat="46.0144145901663" lon="12.02798561758912"><ele>944.5</ele><time>2026-03-24T12:40:35Z</time></trkpt><trkpt lat="46.01434723509606" lon="12.027847760610952"><ele>945.75</ele><time>2026-03-24T12:40:36Z</time></trkpt><trkpt lat="46.01427837670812" lon="12.02770796072625"><ele>947.0</ele><time>2026-03-24T12:40:37Z</time></trkpt><trkpt lat="46.01421101779496" lon="12.027564925005196"><ele>956.5</ele><time>2026-03-24T12:40:38Z</time></trkpt><trkpt lat="46.01414454904624" lon="12.027427031583757"><ele>966.0</ele><time>2026-03-24T12:40:39Z</time></trkpt><trkpt lat="46.01407462111512" lon="12.027289361511984"><ele>975.5</ele><time>2026-03-24T12:40:40Z</time></trkpt><trkpt lat="46.01399311936612" lon="12.02715645967055"><ele>985.0</ele><time>2026-03-24T12:40:41Z</time></trkpt><trkpt lat="46.0139159587102" lon="12.027007827712678"><ele>985.0</ele><time>2026-03-24T12:40:42Z</time></trkpt><trkpt lat="46.01383419473833" lon="12.026867934196835"><ele>985.0</ele><time>2026-03-24T12:40:43Z</time></trkpt><trkpt lat="46.01375597107201" lon="12.026714508919364"><ele>985.0</ele><time>2026-03-24T12:40:44Z</time></trkpt><trkpt lat="46.01367772919088" lon="12.026548578107027"><ele>985.0</ele><time>2026-03-24T12:40:45Z</time></trkpt><trkpt lat="46.01363488473225" lon="12.0263704243063"><ele>984.0</ele><time>2026-03-24T12:40:46Z</time></trkpt><trkpt lat="46.0136076425019" lon="12.02618621565365"><ele>983.0</ele><time>2026-03-24T12:40:47Z</time></trkpt><trkpt lat="46.01355271610813" lon="12.026013261139935"><ele>982.0</ele><time>2026-03-24T12:40:48Z</time></trkpt><trkpt lat="46.01347960212006" lon="12.02583921143717"><ele>981.0</ele><time>2026-03-24T12:40:49Z</time></trkpt><trkpt lat="46.013388625319585" lon="12.025683061352806"><ele>984.25</ele><time>2026-03-24T12:40:50Z</time></trkpt><trkpt lat="46.01327711431228" lon="12.025554418504772"><ele>987.5</ele><time>2026-03-24T12:40:51Z</time></trkpt><trkpt lat="46.013151716749945" lon="12.025469970708897"><ele>990.75</ele><time>2026-03-24T12:40:52Z</time></trkpt><trkpt lat="46.013015891821055" lon="12.025412398206473"><ele>994.0</ele><time>2026-03-24T12:40:53Z</time></trkpt><trkpt lat="46.01288889605078" lon="12.025345843378481"><ele>994.0</ele><time>2026-03-24T12:40:54Z</time></trkpt><trkpt lat="46.01277007579091" lon="12.025276575504588"><ele>994.0</ele><time>2026-03-24T12:40:55Z</time></trkpt><trkpt lat="46.01265370242343" lon="12.02518290698237"><ele>994.0</ele><time>2026-03-24T12:40:56Z</time></trkpt><trkpt lat="46.01259066580735" lon="12.025032157845118"><ele>994.0</ele><time>2026-03-24T12:40:57Z</time></trkpt><trkpt lat="46.01253406800615" lon="12.024882879973587"><ele>995.25</ele><time>2026-03-24T12:40:58Z</time></trkpt><trkpt lat="46.012466357450194" lon="12.024753946886033"><ele>996.5</ele><time>2026-03-24T12:40:59Z</time></trkpt><trkpt lat="46.01236551898349" lon="12.024681164421308"><ele>997.75</ele><time>2026-03-24T12:41:00Z</time></trkpt><trkpt lat="46.0122581000647" lon="12.024640885031044"><ele>999.0</ele><time>2026-03-24T12:41:01Z</time></trkpt><trkpt lat="46.01214215592963" lon="12.024620772333275"><ele>999.0</ele><time>2026-03-24T12:41:02Z</time></trkpt><trkpt lat="46.012039827690955" lon="12.024561334691084"><ele>999.0</ele><time>2026-03-24T12:41:03Z</time></trkpt><trkpt lat="46.01191845345673" lon="12.024527541667144"><ele>999.0</ele><time>2026-03-24T12:41:04Z</time></trkpt><trkpt lat="46.01180145062865" lon="12.024486269335895"><ele>999.0</ele><time>2026-03-24T12:41:05Z</time></trkpt><trkpt lat="46.011684392853624" lon="12.024442426818323"><ele>1001.5</ele><time>2026-03-24T12:41:06Z</time></trkpt><trkpt lat="46.01156267200793" lon="12.024397894336795"><ele>1004.0</ele><time>2026-03-24T12:41:07Z</time></trkpt><trkpt lat="46.01144288417621" lon="12.024360619533475"><ele>1006.5</ele><time>2026-03-24T12:41:08Z</time></trkpt><trkpt lat="46.011318795879745" lon="12.024352554532326"><ele>1009.0</ele><time>2026-03-24T12:41:09Z</time></trkpt><trkpt lat="46.01120456290383" lon="12.02439803948735"><ele>1009.0</ele><time>2026-03-24T12:41:10Z</time></trkpt><trkpt lat="46.01107767666416" lon="12.024431998287659"><ele>1009.0</ele><time>2026-03-24T12:41:11Z</time></trkpt><trkpt lat="46.01095574388745" lon="12.02448448715857"><ele>1009.0</ele><time>2026-03-24T12:41:12Z</time></trkpt><trkpt lat="46.01084473109529" lon="12.024528502741115"><ele>1009.0</ele><time>2026-03-24T12:41:13Z</time></trkpt><trkpt lat="46.01073937487487" lon="12.02456207161543"><ele>1015.25</ele><time>2026-03-24T12:41:14Z</time></trkpt><trkpt lat="46.010628313830495" lon="12.02458592989206"><ele>1021.5</ele><time>2026-03-24T12:41:15Z</time></trkpt><trkpt lat="46.01050670548641" lon="12.024578072372915"><ele>1027.75</ele><time>2026-03-24T12:41:16Z</time></trkpt><trkpt lat="46.01037571541382" lon="12.024543537116184"><ele>1034.0</ele><time>2026-03-24T12:41:17Z</time></trkpt><trkpt lat="46.01023618752729" lon="12.024519015510784"><ele>1034.0</ele><time>2026-03-24T12:41:18Z</time></trkpt><trkpt lat="46.010106077816395" lon="12.02443810240978"><ele>1034.0</ele><time>2026-03-24T12:41:19Z</time></trkpt><trkpt lat="46.00997270220069" lon="12.024391390773959"><ele>1034.0</ele><time>2026-03-24T12:41:20Z</time></trkpt><trkpt lat="46.00983919325741" lon="12.024341897564131"><ele>1034.0</ele><time>2026-03-24T12:41:21Z</time></trkpt><trkpt lat="46.009707004569506" lon="12.02427826742222"><ele>1036.75</ele><time>2026-03-24T12:41:22Z</time></trkpt><trkpt lat="46.00957954165093" lon="12.024215885635067"><ele>1039.5</ele><time>2026-03-24T12:41:23Z</time></trkpt><trkpt lat="46.00946029646685" lon="12.024107199830135"><ele>1042.25</ele><time>2026-03-24T12:41:24Z</time></trkpt><trkpt lat="46.009354047280446" lon="12.023967164904295"><ele>1045.0</ele><time>2026-03-24T12:41:25Z</time></trkpt><trkpt lat="46.009254520539876" lon="12.023831439358863"><ele>1048.0</ele><time>2026-03-24T12:41:26Z</time></trkpt><trkpt lat="46.00915745437553" lon="12.023700825023607"><ele>1051.0</ele><time>2026-03-24T12:41:27Z</time></trkpt><trkpt lat="46.00906405702604" lon="12.023574501768811"><ele>1054.0</ele><time>2026-03-24T12:41:28Z</time></trkpt><trkpt lat="46.00897302124351" lon="12.02344469080843"><ele>1057.0</ele><time>2026-03-24T12:41:29Z</time></trkpt><trkpt lat="46.00887106055786" lon="12.023322032213343"><ele>1057.0</ele><time>2026-03-24T12:41:30Z</time></trkpt><trkpt lat="46.008776877131304" lon="12.023207750982275"><ele>1057.0</ele><time>2026-03-24T12:41:31Z</time></trkpt><trkpt lat="46.00868208020736" lon="12.023099672764744"><ele>1057.0</ele><time>2026-03-24T12:41:32Z</time></trkpt><trkpt lat="46.0085735317167" lon="12.023022925841978"><ele>1057.0</ele><time>2026-03-24T12:41:33Z</time></trkpt><trkpt lat="46.00845058418029" lon="12.023004747038623"><ele>1057.0</ele><time>2026-03-24T12:41:34Z</time></trkpt><trkpt lat="46.00833139083407" lon="12.023030463840602"><ele>1057.0</ele><time>2026-03-24T12:41:35Z</time></trkpt><trkpt lat="46.00820134235644" lon="12.023083101133194"><ele>1057.0</ele><time>2026-03-24T12:41:36Z</time></trkpt><trkpt lat="46.00809318921417" lon="12.023106486407698"><ele>1057.0</ele><time>2026-03-24T12:41:37Z</time></trkpt><trkpt lat="46.0079956809293" lon="12.0231126169261"><ele>1060.5</ele><time>2026-03-24T12:41:38Z</time></trkpt><trkpt lat="46.00788795533835" lon="12.023111467899403"><ele>1064.0</ele><time>2026-03-24T12:41:39Z</time></trkpt><trkpt lat="46.00778318861967" lon="12.023031630070589"><ele>1067.5</ele><time>2026-03-24T12:41:40Z</time></trkpt><trkpt lat="46.007675290652024" lon="12.022975453619898"><ele>1071.0</ele><time>2026-03-24T12:41:41Z</time></trkpt><trkpt lat="46.00755895143522" lon="12.022930249858607"><ele>1074.25</ele><time>2026-03-24T12:41:42Z</time></trkpt><trkpt lat="46.00745871737803" lon="12.022813812141047"><ele>1077.5</ele><time>2026-03-24T12:41:43Z</time></trkpt><trkpt lat="46.00735970840966" lon="12.022701617630632"><ele>1080.75</ele><time>2026-03-24T12:41:44Z</time></trkpt><trkpt lat="46.00725754408946" lon="12.022595498179202"><ele>1084.0</ele><time>2026-03-24T12:41:45Z</time></trkpt><trkpt lat="46.00716210729285" lon="12.022479073410324"><ele>1086.5</ele><time>2026-03-24T12:41:46Z</time></trkpt><trkpt lat="46.00704959795747" lon="12.022397468962511"><ele>1089.0</ele><time>2026-03-24T12:41:47Z</time></trkpt><trkpt lat="46.00692253090896" lon="12.022350816649794"><ele>1091.5</ele><time>2026-03-24T12:41:48Z</time></trkpt><trkpt lat="46.00680283179049" lon="12.022280265740141"><ele>1094.0</ele><time>2026-03-24T12:41:49Z</time></trkpt><trkpt lat="46.006676612904656" lon="12.022224816580582"><ele>1097.25</ele><time>2026-03-24T12:41:50Z</time></trkpt><trkpt lat="46.006549824002434" lon="12.022169253615711"><ele>1100.5</ele><time>2026-03-24T12:41:51Z</time></trkpt><trkpt lat="46.00641892888626" lon="12.022117836519724"><ele>1103.75</ele><time>2026-03-24T12:41:52Z</time></trkpt><trkpt lat="46.006285366392625" lon="12.022086258603974"><ele>1107.0</ele><time>2026-03-24T12:41:53Z</time></trkpt><trkpt lat="46.006164486261284" lon="12.022013304690848"><ele>1107.0</ele><time>2026-03-24T12:41:54Z</time></trkpt><trkpt lat="46.00604878519601" lon="12.02193366197183"><ele>1107.0</ele><time>2026-03-24T12:41:55Z</time></trkpt><trkpt lat="46.00595972199228" lon="12.021828792067714"><ele>1107.0</ele><time>2026-03-24T12:41:56Z</time></trkpt><trkpt lat="46.00588014806888" lon="12.021748223651501"><ele>1107.0</ele><time>2026-03-24T12:41:57Z</time></trkpt><trkpt lat="46.00579296961217" lon="12.021681488320638"><ele>1107.0</ele><time>2026-03-24T12:41:58Z</time></trkpt><trkpt lat="46.005719812678585" lon="12.021574730128249"><ele>1110.25</ele><time>2026-03-24T12:41:59Z</time></trkpt><trkpt lat="46.005626988290885" lon="12.021500177211134"><ele>1113.5</ele><time>2026-03-24T12:42:00Z</time></trkpt><trkpt lat="46.005527120448384" lon="12.021426692364564"><ele>1116.75</ele><time>2026-03-24T12:42:01Z</time></trkpt><trkpt lat="46.00541561943608" lon="12.021372182207513"><ele>1120.0</ele><time>2026-03-24T12:42:02Z</time></trkpt><trkpt lat="46.005310246481926" lon="12.021308695873437"><ele>1120.0</ele><time>2026-03-24T12:42:03Z</time></trkpt><trkpt lat="46.00519456212869" lon="12.021222298817634"><ele>1120.0</ele><time>2026-03-24T12:42:04Z</time></trkpt><trkpt lat="46.00508307421967" lon="12.021112399752102"><ele>1120.0</ele><time>2026-03-24T12:42:05Z</time></trkpt><trkpt lat="46.00496249659242" lon="12.021015889544268"><ele>1120.0</ele><time>2026-03-24T12:42:06Z</time></trkpt><trkpt lat="46.004829999353866" lon="12.020966970634248"><ele>1119.75</ele><time>2026-03-24T12:42:07Z</time></trkpt><trkpt lat="46.004701419434575" lon="12.020957191932059"><ele>1119.5</ele><time>2026-03-24T12:42:08Z</time></trkpt><trkpt lat="46.00459023160453" lon="12.020924389337756"><ele>1119.25</ele><time>2026-03-24T12:42:09Z</time></trkpt><trkpt lat="46.004476716186915" lon="12.02091619958522"><ele>1119.0</ele><time>2026-03-24T12:42:10Z</time></trkpt><trkpt lat="46.004365649056524" lon="12.020856690382372"><ele>1122.5</ele><time>2026-03-24T12:42:11Z</time></trkpt><trkpt lat="46.004255908620664" lon="12.020785708873104"><ele>1126.0</ele><time>2026-03-24T12:42:12Z</time></trkpt><trkpt lat="46.00415560077376" lon="12.020670888475669"><ele>1129.5</ele><time>2026-03-24T12:42:13Z</time></trkpt><trkpt lat="46.00405993838974" lon="12.020545785153404"><ele>1133.0</ele><time>2026-03-24T12:42:14Z</time></trkpt><trkpt lat="46.0039575485471" lon="12.020421152963316"><ele>1133.25</ele><time>2026-03-24T12:42:15Z</time></trkpt><trkpt lat="46.00384248750683" lon="12.020299006463517"><ele>1133.5</ele><time>2026-03-24T12:42:16Z</time></trkpt><trkpt lat="46.00372517485" lon="12.020178257924956"><ele>1133.75</ele><time>2026-03-24T12:42:17Z</time></trkpt><trkpt lat="46.00360929883709" lon="12.020054625046065"><ele>1134.0</ele><time>2026-03-24T12:42:18Z</time></trkpt><trkpt lat="46.00348803179859" lon="12.019932994089096"><ele>1136.3333333333333</ele><time>2026-03-24T12:42:19Z</time></trkpt><trkpt lat="46.00335057335343" lon="12.01982933013033"><ele>1138.6666666666665</ele><time>2026-03-24T12:42:20Z</time></trkpt><trkpt lat="46.00320775373083" lon="12.01973604999073"><ele>1141.0</ele><time>2026-03-24T12:42:21Z</time></trkpt><trkpt lat="46.00307081462465" lon="12.01965246000906"><ele>1143.3333333333333</ele><time>2026-03-24T12:42:22Z</time></trkpt><trkpt lat="46.00292771869379" lon="12.019564507194858"><ele>1145.6666666666667</ele><time>2026-03-24T12:42:23Z</time></trkpt><trkpt lat="46.00279185148541" lon="12.01948158529974"><ele>1148.0</ele><time>2026-03-24T12:42:24Z</time></trkpt><trkpt lat="46.00265873015002" lon="12.019393830336826"><ele>1148.0</ele><time>2026-03-24T12:42:25Z</time></trkpt><trkpt lat="46.002534170450325" lon="12.019284160109184"><ele>1148.0</ele><time>2026-03-24T12:42:26Z</time></trkpt><trkpt lat="46.00242617768249" lon="12.019156620778936"><ele>1148.0</ele><time>2026-03-24T12:42:27Z</time></trkpt><trkpt lat="46.00230807237602" lon="12.019036402130835"><ele>1148.0</ele><time>2026-03-24T12:42:28Z</time></trkpt><trkpt lat="46.00218320059841" lon="12.018912359054024"><ele>1153.3333333333335</ele><time>2026-03-24T12:42:29Z</time></trkpt><trkpt lat="46.002051831590784" lon="12.018781369497585"><ele>1158.6666666666667</ele><time>2026-03-24T12:42:30Z</time></trkpt><trkpt lat="46.001906566122734" lon="12.018661516298783"><ele>1164.0</ele><time>2026-03-24T12:42:31Z</time></trkpt><trkpt lat="46.00175021742054" lon="12.018567232626847"><ele>1164.6666666666667</ele><time>2026-03-24T12:42:32Z</time></trkpt><trkpt lat="46.00158957039452" lon="12.018491861803403"><ele>1165.3333333333335</ele><time>2026-03-24T12:42:33Z</time></trkpt><trkpt lat="46.00144329743453" lon="12.018429899197109"><ele>1166.0</ele><time>2026-03-24T12:42:34Z</time></trkpt><trkpt lat="46.00131095433166" lon="12.018366749709362"><ele>1169.0</ele><time>2026-03-24T12:42:35Z</time></trkpt><trkpt lat="46.00117499227192" lon="12.018313926870634"><ele>1172.0</ele><time>2026-03-24T12:42:36Z</time></trkpt><trkpt lat="46.00104671248172" lon="12.018267904632252"><ele>1175.0</ele><time>2026-03-24T12:42:37Z</time></trkpt><trkpt lat="46.00093530902001" lon="12.018224084630576"><ele>1178.0</ele><time>2026-03-24T12:42:38Z</time></trkpt><trkpt lat="46.00084630323837" lon="12.018166153358354"><ele>1177.4</ele><time>2026-03-24T12:42:39Z</time></trkpt><trkpt lat="46.000769410396956" lon="12.018081165095957"><ele>1176.8</ele><time>2026-03-24T12:42:40Z</time></trkpt><trkpt lat="46.00070934472685" lon="12.01796065449951"><ele>1176.2</ele><time>2026-03-24T12:42:41Z</time></trkpt><trkpt lat="46.00062096901124" lon="12.01787861355213"><ele>1175.6</ele><time>2026-03-24T12:42:42Z</time></trkpt><trkpt lat="46.00055268447791" lon="12.017797598612537"><ele>1175.0</ele><time>2026-03-24T12:42:43Z</time></trkpt><trkpt lat="46.000506725504174" lon="12.01772964719875"><ele>1175.0</ele><time>2026-03-24T12:42:44Z</time></trkpt><trkpt lat="46.00045143676682" lon="12.017543005573083"><ele>1175.0</ele><time>2026-03-24T12:42:46Z</time></trkpt><trkpt lat="46.00043383853819" lon="12.017426545908867"><ele>1175.0</ele><time>2026-03-24T12:42:47Z</time></trkpt><trkpt lat="46.00042873574273" lon="12.017320943426185"><ele>1175.0</ele><time>2026-03-24T12:42:48Z</time></trkpt><trkpt lat="46.00042278229406" lon="12.017222064684672"><ele>1175.0</ele><time>2026-03-24T12:42:49Z</time></trkpt><trkpt lat="46.0004124562795" lon="12.017121785170014"><ele>1175.0</ele><time>2026-03-24T12:42:50Z</time></trkpt><trkpt lat="46.00038485829444" lon="12.017021320602039"><ele>1174.8333333333335</ele><time>2026-03-24T12:42:51Z</time></trkpt><trkpt lat="46.00035041739192" lon="12.01692360658344"><ele>1174.6666666666667</ele><time>2026-03-24T12:42:52Z</time></trkpt><trkpt lat="46.00032277251171" lon="12.016833172942336"><ele>1174.5</ele><time>2026-03-24T12:42:53Z</time></trkpt><trkpt lat="46.00029032241454" lon="12.016754077192058"><ele>1174.3333333333333</ele><time>2026-03-24T12:42:54Z</time></trkpt><trkpt lat="46.000189826074894" lon="12.016627954982406"><ele>1174.1666666666665</ele><time>2026-03-24T12:42:56Z</time></trkpt><trkpt lat="46.00011938595249" lon="12.016551549457697"><ele>1174.0</ele><time>2026-03-24T12:42:57Z</time></trkpt><trkpt lat="46.00002837888544" lon="12.016501943507235"><ele>1170.1666666666665</ele><time>2026-03-24T12:42:58Z</time></trkpt><trkpt lat="45.999947440858115" lon="12.016468647914694"><ele>1166.3333333333333</ele><time>2026-03-24T12:42:59Z</time></trkpt><trkpt lat="45.99985881561487" lon="12.016456745287"><ele>1162.5</ele><time>2026-03-24T12:43:00Z</time></trkpt><trkpt lat="45.99978494362807" lon="12.01641040132361"><ele>1158.6666666666667</ele><time>2026-03-24T12:43:01Z</time></trkpt><trkpt lat="45.99970672178264" lon="12.016388133186366"><ele>1154.8333333333335</ele><time>2026-03-24T12:43:02Z</time></trkpt><trkpt lat="45.99963559923732" lon="12.016344276383863"><ele>1151.0</ele><time>2026-03-24T12:43:03Z</time></trkpt><trkpt lat="45.9995525052167" lon="12.016330271753244"><ele>1151.0</ele><time>2026-03-24T12:43:04Z</time></trkpt><trkpt lat="45.99947325772157" lon="12.016294797684388"><ele>1151.0</ele><time>2026-03-24T12:43:05Z</time></trkpt><trkpt lat="45.99939816529501" lon="12.016306694272815"><ele>1151.0</ele><time>2026-03-24T12:43:06Z</time></trkpt><trkpt lat="45.99931722266541" lon="12.016300691413685"><ele>1151.0</ele><time>2026-03-24T12:43:07Z</time></trkpt><trkpt lat="45.99924991280688" lon="12.016310829229566"><ele>1151.0</ele><time>2026-03-24T12:43:08Z</time></trkpt><trkpt lat="45.99917569368721" lon="12.016332285164813"><ele>1151.0</ele><time>2026-03-24T12:43:09Z</time></trkpt><trkpt lat="45.9991040165182" lon="12.01634095987679"><ele>1152.0</ele><time>2026-03-24T12:43:10Z</time></trkpt><trkpt lat="45.999030164391165" lon="12.016392648634582"><ele>1153.0</ele><time>2026-03-24T12:43:11Z</time></trkpt><trkpt lat="45.998913113092925" lon="12.016438520850466"><ele>1154.0</ele><time>2026-03-24T12:43:13Z</time></trkpt><trkpt lat="45.99880106340023" lon="12.016424555680008"><ele>1155.0</ele><time>2026-03-24T12:43:15Z</time></trkpt><trkpt lat="45.99871441866125" lon="12.016323541780771"><ele>1156.0</ele><time>2026-03-24T12:43:17Z</time></trkpt><trkpt lat="45.998620409696315" lon="12.016226651895972"><ele>1156.0</ele><time>2026-03-24T12:43:19Z</time></trkpt><trkpt lat="45.9985219752645" lon="12.01610968268291"><ele>1156.0</ele><time>2026-03-24T12:43:21Z</time></trkpt><trkpt lat="45.99846110146009" lon="12.016065122448135"><ele>1156.0</ele><time>2026-03-24T12:43:22Z</time></trkpt><trkpt lat="45.998400447657545" lon="12.016032871059325"><ele>1156.0</ele><time>2026-03-24T12:43:23Z</time></trkpt><trkpt lat="45.99828355387747" lon="12.015985843821726"><ele>1156.0</ele><time>2026-03-24T12:43:25Z</time></trkpt><trkpt lat="45.99821950459612" lon="12.015967038483318"><ele>1156.0</ele><time>2026-03-24T12:43:26Z</time></trkpt><trkpt lat="45.998154772055265" lon="12.015949779676083"><ele>1155.8</ele><time>2026-03-24T12:43:27Z</time></trkpt><trkpt lat="45.99803073913709" lon="12.015924074521942"><ele>1155.6</ele><time>2026-03-24T12:43:29Z</time></trkpt><trkpt lat="45.99791329514068" lon="12.015903917453377"><ele>1155.4</ele><time>2026-03-24T12:43:31Z</time></trkpt><trkpt lat="45.99785060010191" lon="12.015893157011435"><ele>1155.2</ele><time>2026-03-24T12:43:32Z</time></trkpt><trkpt lat="45.99773889459408" lon="12.015870760159796"><ele>1155.0</ele><time>2026-03-24T12:43:34Z</time></trkpt><trkpt lat="45.99763639401144" lon="12.015844289111422"><ele>1154.0</ele><time>2026-03-24T12:43:36Z</time></trkpt><trkpt lat="45.99753341281361" lon="12.01581474827908"><ele>1153.0</ele><time>2026-03-24T12:43:38Z</time></trkpt><trkpt lat="45.99746229285353" lon="12.01579275243087"><ele>1152.0</ele><time>2026-03-24T12:43:40Z</time></trkpt><trkpt lat="45.997361032724115" lon="12.015759091947169"><ele>1151.0</ele><time>2026-03-24T12:43:43Z</time></trkpt><trkpt lat="45.997297841281124" lon="12.01573651630267"><ele>1150.0</ele><time>2026-03-24T12:43:45Z</time></trkpt><trkpt lat="45.99721825619358" lon="12.015701643504876"><ele>1149.0</ele><time>2026-03-24T12:43:48Z</time></trkpt><trkpt lat="45.99715674720167" lon="12.01567158590532"><ele>1149.0</ele><time>2026-03-24T12:43:51Z</time></trkpt><trkpt lat="45.9970773671342" lon="12.015638262893718"><ele>1149.0</ele><time>2026-03-24T12:43:55Z</time></trkpt><trkpt lat="45.99699650569605" lon="12.015584871944819"><ele>1149.0</ele><time>2026-03-24T12:43:58Z</time></trkpt><trkpt lat="45.99693497355654" lon="12.01555868560921"><ele>1149.0</ele><time>2026-03-24T12:44:01Z</time></trkpt><trkpt lat="45.996858256612455" lon="12.015520292225478"><ele>1149.0</ele><time>2026-03-24T12:44:03Z</time></trkpt><trkpt lat="45.99677817694766" lon="12.015499450317158"><ele>1149.0</ele><time>2026-03-24T12:44:06Z</time></trkpt><trkpt lat="45.99672266024378" lon="12.015444800571233"><ele>1149.0</ele><time>2026-03-24T12:44:39Z</time></trkpt></trkseg></trk></gpx>